<?xml version="1.0" encoding="UTF-8" standalone="no" ?>
<gpx xmlns="http://www.topografix.com/GPX/1/1" xmlns:xsi="http://www.w3.org/2001/XMLSchema-instance" xsi:schemaLocation="http://www.topografix.com/GPX/1/1 http://www.topografix.com/GPX/1/1/gpx.xsd" version="1.1" creator="VisuGPX - https://www.visugpx.com">
  <metadata>
    <name>sortie vtt 64km</name>
    <desc><![CDATA[Superbe trace a faire sur chemin sec car beaucoup de belle montée. ]]></desc>
  </metadata>
  <trk>
    <name><![CDATA[Sortie vtt]]></name>
    <desc><![CDATA[Grosse ballade vtt]]></desc>
    <trkseg>
      <trkpt lat="45.15638" lon="0.61258">
        <ele>90</ele>
        <time>2014-09-04T11:04:04.000Z</time>
      </trkpt>
      <trkpt lat="45.15641" lon="0.61259">
        <ele>90</ele>
        <time>2014-09-04T11:04:07.000Z</time>
      </trkpt>
      <trkpt lat="45.15643" lon="0.6126">
        <ele>90</ele>
        <time>2014-09-04T11:04:08.000Z</time>
      </trkpt>
      <trkpt lat="45.15644" lon="0.61261">
        <ele>88.199996948242</ele>
        <time>2014-09-04T11:04:09.000Z</time>
      </trkpt>
      <trkpt lat="45.15646" lon="0.61261">
        <ele>90.800003051758</ele>
        <time>2014-09-04T11:04:10.000Z</time>
      </trkpt>
      <trkpt lat="45.15648" lon="0.61261">
        <ele>89.599998474121</ele>
        <time>2014-09-04T11:04:11.000Z</time>
      </trkpt>
      <trkpt lat="45.15653" lon="0.61257">
        <ele>91</ele>
        <time>2014-09-04T11:05:53.000Z</time>
      </trkpt>
      <trkpt lat="45.15663" lon="0.61255">
        <ele>90.400001525879</ele>
        <time>2014-09-04T11:05:58.000Z</time>
      </trkpt>
      <trkpt lat="45.15665" lon="0.61255">
        <ele>90.199996948242</ele>
        <time>2014-09-04T11:05:59.000Z</time>
      </trkpt>
      <trkpt lat="45.15679" lon="0.61248">
        <ele>89.800003051758</ele>
        <time>2014-09-04T11:06:04.000Z</time>
      </trkpt>
      <trkpt lat="45.15686" lon="0.61239">
        <ele>89.599998474121</ele>
        <time>2014-09-04T11:06:07.000Z</time>
      </trkpt>
      <trkpt lat="45.15695" lon="0.61227">
        <ele>89.599998474121</ele>
        <time>2014-09-04T11:06:11.000Z</time>
      </trkpt>
      <trkpt lat="45.15714" lon="0.61212">
        <ele>89.400001525879</ele>
        <time>2014-09-04T11:06:17.000Z</time>
      </trkpt>
      <trkpt lat="45.15741" lon="0.61185">
        <ele>90.199996948242</ele>
        <time>2014-09-04T11:06:26.000Z</time>
      </trkpt>
      <trkpt lat="45.15765" lon="0.61154">
        <ele>89.199996948242</ele>
        <time>2014-09-04T11:06:34.000Z</time>
      </trkpt>
      <trkpt lat="45.15774" lon="0.61139">
        <ele>89.400001525879</ele>
        <time>2014-09-04T11:06:37.000Z</time>
      </trkpt>
      <trkpt lat="45.1578" lon="0.61122">
        <ele>89.199996948242</ele>
        <time>2014-09-04T11:06:40.000Z</time>
      </trkpt>
      <trkpt lat="45.15792" lon="0.61075">
        <ele>89</ele>
        <time>2014-09-04T11:06:48.000Z</time>
      </trkpt>
      <trkpt lat="45.15806" lon="0.6101">
        <ele>89</ele>
        <time>2014-09-04T11:06:59.000Z</time>
      </trkpt>
      <trkpt lat="45.15818" lon="0.60975">
        <ele>88.800003051758</ele>
        <time>2014-09-04T11:07:05.000Z</time>
      </trkpt>
      <trkpt lat="45.15827" lon="0.60952">
        <ele>88.800003051758</ele>
        <time>2014-09-04T11:07:10.000Z</time>
      </trkpt>
      <trkpt lat="45.15836" lon="0.60935">
        <ele>88.599998474121</ele>
        <time>2014-09-04T11:07:13.000Z</time>
      </trkpt>
      <trkpt lat="45.15848" lon="0.60922">
        <ele>88.199996948242</ele>
        <time>2014-09-04T11:07:16.000Z</time>
      </trkpt>
      <trkpt lat="45.15861" lon="0.60912">
        <ele>88</ele>
        <time>2014-09-04T11:07:19.000Z</time>
      </trkpt>
      <trkpt lat="45.15876" lon="0.60903">
        <ele>88</ele>
        <time>2014-09-04T11:07:22.000Z</time>
      </trkpt>
      <trkpt lat="45.15895" lon="0.60889">
        <ele>87.800003051758</ele>
        <time>2014-09-04T11:07:26.000Z</time>
      </trkpt>
      <trkpt lat="45.15914" lon="0.60874">
        <ele>87.599998474121</ele>
        <time>2014-09-04T11:07:30.000Z</time>
      </trkpt>
      <trkpt lat="45.15952" lon="0.60837">
        <ele>87</ele>
        <time>2014-09-04T11:07:38.000Z</time>
      </trkpt>
      <trkpt lat="45.15983" lon="0.60804">
        <ele>86.800003051758</ele>
        <time>2014-09-04T11:07:45.000Z</time>
      </trkpt>
      <trkpt lat="45.15995" lon="0.60789">
        <ele>86.599998474121</ele>
        <time>2014-09-04T11:07:48.000Z</time>
      </trkpt>
      <trkpt lat="45.16035" lon="0.60737">
        <ele>86.199996948242</ele>
        <time>2014-09-04T11:07:58.000Z</time>
      </trkpt>
      <trkpt lat="45.16039" lon="0.60732">
        <ele>86.199996948242</ele>
        <time>2014-09-04T11:07:59.000Z</time>
      </trkpt>
      <trkpt lat="45.16079" lon="0.60686">
        <ele>86</ele>
        <time>2014-09-04T11:08:09.000Z</time>
      </trkpt>
      <trkpt lat="45.16087" lon="0.60677">
        <ele>85.800003051758</ele>
        <time>2014-09-04T11:08:11.000Z</time>
      </trkpt>
      <trkpt lat="45.16119" lon="0.60638">
        <ele>85</ele>
        <time>2014-09-04T11:08:19.000Z</time>
      </trkpt>
      <trkpt lat="45.16127" lon="0.60628">
        <ele>84.599998474121</ele>
        <time>2014-09-04T11:08:21.000Z</time>
      </trkpt>
      <trkpt lat="45.16154" lon="0.60586">
        <ele>84.199996948242</ele>
        <time>2014-09-04T11:08:28.000Z</time>
      </trkpt>
      <trkpt lat="45.16173" lon="0.60555">
        <ele>83.599998474121</ele>
        <time>2014-09-04T11:08:33.000Z</time>
      </trkpt>
      <trkpt lat="45.16192" lon="0.60516">
        <ele>83.400001525879</ele>
        <time>2014-09-04T11:08:39.000Z</time>
      </trkpt>
      <trkpt lat="45.1621" lon="0.60478">
        <ele>83</ele>
        <time>2014-09-04T11:08:45.000Z</time>
      </trkpt>
      <trkpt lat="45.16214" lon="0.60475">
        <ele>83</ele>
        <time>2014-09-04T11:08:46.000Z</time>
      </trkpt>
      <trkpt lat="45.16222" lon="0.60478">
        <ele>83.199996948242</ele>
        <time>2014-09-04T11:08:48.000Z</time>
      </trkpt>
      <trkpt lat="45.16227" lon="0.60485">
        <ele>83</ele>
        <time>2014-09-04T11:08:50.000Z</time>
      </trkpt>
      <trkpt lat="45.16239" lon="0.60499">
        <ele>83</ele>
        <time>2014-09-04T11:08:54.000Z</time>
      </trkpt>
      <trkpt lat="45.16261" lon="0.60524">
        <ele>82.599998474121</ele>
        <time>2014-09-04T11:09:01.000Z</time>
      </trkpt>
      <trkpt lat="45.1627" lon="0.60535">
        <ele>82.599998474121</ele>
        <time>2014-09-04T11:09:04.000Z</time>
      </trkpt>
      <trkpt lat="45.16297" lon="0.60563">
        <ele>82.400001525879</ele>
        <time>2014-09-04T11:09:12.000Z</time>
      </trkpt>
      <trkpt lat="45.16301" lon="0.6057">
        <ele>82.199996948242</ele>
        <time>2014-09-04T11:09:15.000Z</time>
      </trkpt>
      <trkpt lat="45.16302" lon="0.60574">
        <ele>82.400001525879</ele>
        <time>2014-09-04T11:09:16.000Z</time>
      </trkpt>
      <trkpt lat="45.1631" lon="0.60581">
        <ele>82.199996948242</ele>
        <time>2014-09-04T11:09:19.000Z</time>
      </trkpt>
      <trkpt lat="45.16313" lon="0.60584">
        <ele>82</ele>
        <time>2014-09-04T11:09:20.000Z</time>
      </trkpt>
      <trkpt lat="45.16327" lon="0.60598">
        <ele>81.400001525879</ele>
        <time>2014-09-04T11:09:24.000Z</time>
      </trkpt>
      <trkpt lat="45.16334" lon="0.60606">
        <ele>81.400001525879</ele>
        <time>2014-09-04T11:09:26.000Z</time>
      </trkpt>
      <trkpt lat="45.16355" lon="0.6063">
        <ele>80.199996948242</ele>
        <time>2014-09-04T11:09:31.000Z</time>
      </trkpt>
      <trkpt lat="45.16365" lon="0.60641">
        <ele>79.400001525879</ele>
        <time>2014-09-04T11:09:33.000Z</time>
      </trkpt>
      <trkpt lat="45.16371" lon="0.60647">
        <ele>79</ele>
        <time>2014-09-04T11:09:34.000Z</time>
      </trkpt>
      <trkpt lat="45.16388" lon="0.60665">
        <ele>77.800003051758</ele>
        <time>2014-09-04T11:09:37.000Z</time>
      </trkpt>
      <trkpt lat="45.16406" lon="0.60684">
        <ele>77</ele>
        <time>2014-09-04T11:09:40.000Z</time>
      </trkpt>
      <trkpt lat="45.16417" lon="0.60696">
        <ele>76.400001525879</ele>
        <time>2014-09-04T11:09:42.000Z</time>
      </trkpt>
      <trkpt lat="45.1645" lon="0.60729">
        <ele>75.800003051758</ele>
        <time>2014-09-04T11:09:48.000Z</time>
      </trkpt>
      <trkpt lat="45.16466" lon="0.60745">
        <ele>75.199996948242</ele>
        <time>2014-09-04T11:09:51.000Z</time>
      </trkpt>
      <trkpt lat="45.165" lon="0.60778">
        <ele>74.800003051758</ele>
        <time>2014-09-04T11:09:58.000Z</time>
      </trkpt>
      <trkpt lat="45.16505" lon="0.60781">
        <ele>74.800003051758</ele>
        <time>2014-09-04T11:09:59.000Z</time>
      </trkpt>
      <trkpt lat="45.16512" lon="0.60777">
        <ele>74.800003051758</ele>
        <time>2014-09-04T11:10:01.000Z</time>
      </trkpt>
      <trkpt lat="45.16523" lon="0.60763">
        <ele>74.599998474121</ele>
        <time>2014-09-04T11:10:04.000Z</time>
      </trkpt>
      <trkpt lat="45.16531" lon="0.60753">
        <ele>74.599998474121</ele>
        <time>2014-09-04T11:10:06.000Z</time>
      </trkpt>
      <trkpt lat="45.16557" lon="0.60722">
        <ele>74.199996948242</ele>
        <time>2014-09-04T11:10:13.000Z</time>
      </trkpt>
      <trkpt lat="45.16561" lon="0.60718">
        <ele>74</ele>
        <time>2014-09-04T11:10:14.000Z</time>
      </trkpt>
      <trkpt lat="45.1657" lon="0.60703">
        <ele>73.599998474121</ele>
        <time>2014-09-04T11:10:17.000Z</time>
      </trkpt>
      <trkpt lat="45.16577" lon="0.60695">
        <ele>73.400001525879</ele>
        <time>2014-09-04T11:10:19.000Z</time>
      </trkpt>
      <trkpt lat="45.1658" lon="0.60696">
        <ele>73.400001525879</ele>
        <time>2014-09-04T11:10:20.000Z</time>
      </trkpt>
      <trkpt lat="45.16586" lon="0.60704">
        <ele>73.400001525879</ele>
        <time>2014-09-04T11:10:22.000Z</time>
      </trkpt>
      <trkpt lat="45.1659" lon="0.60723">
        <ele>73.400001525879</ele>
        <time>2014-09-04T11:10:25.000Z</time>
      </trkpt>
      <trkpt lat="45.16591" lon="0.6073">
        <ele>73.400001525879</ele>
        <time>2014-09-04T11:10:26.000Z</time>
      </trkpt>
      <trkpt lat="45.16598" lon="0.6076">
        <ele>73</ele>
        <time>2014-09-04T11:10:30.000Z</time>
      </trkpt>
      <trkpt lat="45.16604" lon="0.60783">
        <ele>72.800003051758</ele>
        <time>2014-09-04T11:10:33.000Z</time>
      </trkpt>
      <trkpt lat="45.16613" lon="0.60814">
        <ele>72</ele>
        <time>2014-09-04T11:10:37.000Z</time>
      </trkpt>
      <trkpt lat="45.16621" lon="0.60838">
        <ele>71.599998474121</ele>
        <time>2014-09-04T11:10:40.000Z</time>
      </trkpt>
      <trkpt lat="45.16635" lon="0.60868">
        <ele>71</ele>
        <time>2014-09-04T11:10:44.000Z</time>
      </trkpt>
      <trkpt lat="45.16639" lon="0.60874">
        <ele>71</ele>
        <time>2014-09-04T11:10:45.000Z</time>
      </trkpt>
      <trkpt lat="45.16667" lon="0.60921">
        <ele>71.599998474121</ele>
        <time>2014-09-04T11:10:53.000Z</time>
      </trkpt>
      <trkpt lat="45.16688" lon="0.60961">
        <ele>72</ele>
        <time>2014-09-04T11:11:00.000Z</time>
      </trkpt>
      <trkpt lat="45.1669" lon="0.60966">
        <ele>72.400001525879</ele>
        <time>2014-09-04T11:11:01.000Z</time>
      </trkpt>
      <trkpt lat="45.16697" lon="0.60982">
        <ele>73.199996948242</ele>
        <time>2014-09-04T11:11:04.000Z</time>
      </trkpt>
      <trkpt lat="45.16704" lon="0.61001">
        <ele>74.199996948242</ele>
        <time>2014-09-04T11:11:08.000Z</time>
      </trkpt>
      <trkpt lat="45.16711" lon="0.61015">
        <ele>75.199996948242</ele>
        <time>2014-09-04T11:11:11.000Z</time>
      </trkpt>
      <trkpt lat="45.16719" lon="0.6103">
        <ele>76.599998474121</ele>
        <time>2014-09-04T11:11:15.000Z</time>
      </trkpt>
      <trkpt lat="45.16722" lon="0.61034">
        <ele>76.800003051758</ele>
        <time>2014-09-04T11:11:16.000Z</time>
      </trkpt>
      <trkpt lat="45.16728" lon="0.61045">
        <ele>77.800003051758</ele>
        <time>2014-09-04T11:11:19.000Z</time>
      </trkpt>
      <trkpt lat="45.16737" lon="0.61057">
        <ele>78.800003051758</ele>
        <time>2014-09-04T11:11:22.000Z</time>
      </trkpt>
      <trkpt lat="45.16739" lon="0.6106">
        <ele>79.199996948242</ele>
        <time>2014-09-04T11:11:23.000Z</time>
      </trkpt>
      <trkpt lat="45.16749" lon="0.61075">
        <ele>80.400001525879</ele>
        <time>2014-09-04T11:11:27.000Z</time>
      </trkpt>
      <trkpt lat="45.16753" lon="0.61082">
        <ele>81</ele>
        <time>2014-09-04T11:11:29.000Z</time>
      </trkpt>
      <trkpt lat="45.16754" lon="0.61088">
        <ele>81.599998474121</ele>
        <time>2014-09-04T11:11:31.000Z</time>
      </trkpt>
      <trkpt lat="45.16754" lon="0.61095">
        <ele>82</ele>
        <time>2014-09-04T11:11:33.000Z</time>
      </trkpt>
      <trkpt lat="45.16753" lon="0.61098">
        <ele>82.199996948242</ele>
        <time>2014-09-04T11:11:34.000Z</time>
      </trkpt>
      <trkpt lat="45.16749" lon="0.61105">
        <ele>82.599998474121</ele>
        <time>2014-09-04T11:11:36.000Z</time>
      </trkpt>
      <trkpt lat="45.16748" lon="0.61108">
        <ele>82.800003051758</ele>
        <time>2014-09-04T11:11:37.000Z</time>
      </trkpt>
      <trkpt lat="45.16741" lon="0.6112">
        <ele>83.400001525879</ele>
        <time>2014-09-04T11:11:41.000Z</time>
      </trkpt>
      <trkpt lat="45.16736" lon="0.61131">
        <ele>83.800003051758</ele>
        <time>2014-09-04T11:11:44.000Z</time>
      </trkpt>
      <trkpt lat="45.16727" lon="0.61149">
        <ele>83.800003051758</ele>
        <time>2014-09-04T11:11:49.000Z</time>
      </trkpt>
      <trkpt lat="45.16714" lon="0.61181">
        <ele>84</ele>
        <time>2014-09-04T11:11:57.000Z</time>
      </trkpt>
      <trkpt lat="45.16702" lon="0.61206">
        <ele>84</ele>
        <time>2014-09-04T11:12:04.000Z</time>
      </trkpt>
      <trkpt lat="45.16688" lon="0.61226">
        <ele>84</ele>
        <time>2014-09-04T11:12:11.000Z</time>
      </trkpt>
      <trkpt lat="45.16667" lon="0.61258">
        <ele>83.800003051758</ele>
        <time>2014-09-04T11:12:20.000Z</time>
      </trkpt>
      <trkpt lat="45.16653" lon="0.61284">
        <ele>84</ele>
        <time>2014-09-04T11:12:27.000Z</time>
      </trkpt>
      <trkpt lat="45.16634" lon="0.61313">
        <ele>83.800003051758</ele>
        <time>2014-09-04T11:12:34.000Z</time>
      </trkpt>
      <trkpt lat="45.16612" lon="0.61355">
        <ele>84.599998474121</ele>
        <time>2014-09-04T11:12:42.000Z</time>
      </trkpt>
      <trkpt lat="45.16606" lon="0.61365">
        <ele>84.800003051758</ele>
        <time>2014-09-04T11:12:45.000Z</time>
      </trkpt>
      <trkpt lat="45.16598" lon="0.6138">
        <ele>84.800003051758</ele>
        <time>2014-09-04T11:12:49.000Z</time>
      </trkpt>
      <trkpt lat="45.16582" lon="0.61408">
        <ele>85.199996948242</ele>
        <time>2014-09-04T11:12:56.000Z</time>
      </trkpt>
      <trkpt lat="45.16579" lon="0.61415">
        <ele>85.400001525879</ele>
        <time>2014-09-04T11:12:59.000Z</time>
      </trkpt>
      <trkpt lat="45.16579" lon="0.61417">
        <ele>85.599998474121</ele>
        <time>2014-09-04T11:13:00.000Z</time>
      </trkpt>
      <trkpt lat="45.1658" lon="0.6142">
        <ele>85.599998474121</ele>
        <time>2014-09-04T11:13:01.000Z</time>
      </trkpt>
      <trkpt lat="45.16583" lon="0.61428">
        <ele>85.800003051758</ele>
        <time>2014-09-04T11:13:04.000Z</time>
      </trkpt>
      <trkpt lat="45.16585" lon="0.61431">
        <ele>85.800003051758</ele>
        <time>2014-09-04T11:13:05.000Z</time>
      </trkpt>
      <trkpt lat="45.16597" lon="0.61447">
        <ele>86.400001525879</ele>
        <time>2014-09-04T11:13:11.000Z</time>
      </trkpt>
      <trkpt lat="45.16613" lon="0.61463">
        <ele>86.800003051758</ele>
        <time>2014-09-04T11:13:18.000Z</time>
      </trkpt>
      <trkpt lat="45.16616" lon="0.61466">
        <ele>87</ele>
        <time>2014-09-04T11:13:19.000Z</time>
      </trkpt>
      <trkpt lat="45.16639" lon="0.61482">
        <ele>87.599998474121</ele>
        <time>2014-09-04T11:13:26.000Z</time>
      </trkpt>
      <trkpt lat="45.16667" lon="0.61494">
        <ele>87.599998474121</ele>
        <time>2014-09-04T11:13:32.000Z</time>
      </trkpt>
      <trkpt lat="45.16685" lon="0.615">
        <ele>88</ele>
        <time>2014-09-04T11:13:37.000Z</time>
      </trkpt>
      <trkpt lat="45.16692" lon="0.61501">
        <ele>88.199996948242</ele>
        <time>2014-09-04T11:13:39.000Z</time>
      </trkpt>
      <trkpt lat="45.16712" lon="0.61504">
        <ele>88.400001525879</ele>
        <time>2014-09-04T11:13:44.000Z</time>
      </trkpt>
      <trkpt lat="45.16721" lon="0.61507">
        <ele>88.400001525879</ele>
        <time>2014-09-04T11:13:46.000Z</time>
      </trkpt>
      <trkpt lat="45.1674" lon="0.61514">
        <ele>89</ele>
        <time>2014-09-04T11:13:51.000Z</time>
      </trkpt>
      <trkpt lat="45.16748" lon="0.61515">
        <ele>89.199996948242</ele>
        <time>2014-09-04T11:13:53.000Z</time>
      </trkpt>
      <trkpt lat="45.16776" lon="0.61512">
        <ele>89.599998474121</ele>
        <time>2014-09-04T11:14:00.000Z</time>
      </trkpt>
      <trkpt lat="45.16788" lon="0.61512">
        <ele>90.199996948242</ele>
        <time>2014-09-04T11:14:04.000Z</time>
      </trkpt>
      <trkpt lat="45.16791" lon="0.61511">
        <ele>90</ele>
        <time>2014-09-04T11:14:05.000Z</time>
      </trkpt>
      <trkpt lat="45.16818" lon="0.61504">
        <ele>90</ele>
        <time>2014-09-04T11:14:12.000Z</time>
      </trkpt>
      <trkpt lat="45.16846" lon="0.61495">
        <ele>89.199996948242</ele>
        <time>2014-09-04T11:14:19.000Z</time>
      </trkpt>
      <trkpt lat="45.16871" lon="0.61493">
        <ele>89.400001525879</ele>
        <time>2014-09-04T11:14:25.000Z</time>
      </trkpt>
      <trkpt lat="45.16887" lon="0.61498">
        <ele>89.199996948242</ele>
        <time>2014-09-04T11:14:29.000Z</time>
      </trkpt>
      <trkpt lat="45.16891" lon="0.615">
        <ele>89</ele>
        <time>2014-09-04T11:14:30.000Z</time>
      </trkpt>
      <trkpt lat="45.16898" lon="0.61516">
        <ele>89.599998474121</ele>
        <time>2014-09-04T11:14:34.000Z</time>
      </trkpt>
      <trkpt lat="45.16895" lon="0.61523">
        <ele>89.599998474121</ele>
        <time>2014-09-04T11:14:35.000Z</time>
      </trkpt>
      <trkpt lat="45.16889" lon="0.61548">
        <ele>90.199996948242</ele>
        <time>2014-09-04T11:14:39.000Z</time>
      </trkpt>
      <trkpt lat="45.16887" lon="0.61563">
        <ele>90.599998474121</ele>
        <time>2014-09-04T11:14:42.000Z</time>
      </trkpt>
      <trkpt lat="45.16885" lon="0.6158">
        <ele>91.199996948242</ele>
        <time>2014-09-04T11:14:45.000Z</time>
      </trkpt>
      <trkpt lat="45.16883" lon="0.61598">
        <ele>91.800003051758</ele>
        <time>2014-09-04T11:14:49.000Z</time>
      </trkpt>
      <trkpt lat="45.16881" lon="0.61611">
        <ele>92.400001525879</ele>
        <time>2014-09-04T11:14:52.000Z</time>
      </trkpt>
      <trkpt lat="45.16879" lon="0.61626">
        <ele>92.800003051758</ele>
        <time>2014-09-04T11:14:55.000Z</time>
      </trkpt>
      <trkpt lat="45.16878" lon="0.61634">
        <ele>93.400001525879</ele>
        <time>2014-09-04T11:14:57.000Z</time>
      </trkpt>
      <trkpt lat="45.16876" lon="0.61651">
        <ele>94.400001525879</ele>
        <time>2014-09-04T11:15:02.000Z</time>
      </trkpt>
      <trkpt lat="45.16878" lon="0.61683">
        <ele>95.599998474121</ele>
        <time>2014-09-04T11:15:08.000Z</time>
      </trkpt>
      <trkpt lat="45.16879" lon="0.61716">
        <ele>96.599998474121</ele>
        <time>2014-09-04T11:15:14.000Z</time>
      </trkpt>
      <trkpt lat="45.16879" lon="0.6172">
        <ele>96.599998474121</ele>
        <time>2014-09-04T11:15:15.000Z</time>
      </trkpt>
      <trkpt lat="45.16881" lon="0.61739">
        <ele>97.599998474121</ele>
        <time>2014-09-04T11:15:20.000Z</time>
      </trkpt>
      <trkpt lat="45.16886" lon="0.61738">
        <ele>97</ele>
        <time>2014-09-04T11:15:24.000Z</time>
      </trkpt>
      <trkpt lat="45.169" lon="0.61725">
        <ele>95.599998474121</ele>
        <time>2014-09-04T11:15:28.000Z</time>
      </trkpt>
      <trkpt lat="45.16909" lon="0.61722">
        <ele>95.599998474121</ele>
        <time>2014-09-04T11:15:30.000Z</time>
      </trkpt>
      <trkpt lat="45.16918" lon="0.6172">
        <ele>95</ele>
        <time>2014-09-04T11:15:32.000Z</time>
      </trkpt>
      <trkpt lat="45.16922" lon="0.61719">
        <ele>95</ele>
        <time>2014-09-04T11:15:33.000Z</time>
      </trkpt>
      <trkpt lat="45.16932" lon="0.61716">
        <ele>94.400001525879</ele>
        <time>2014-09-04T11:15:35.000Z</time>
      </trkpt>
      <trkpt lat="45.16944" lon="0.6171">
        <ele>93.400001525879</ele>
        <time>2014-09-04T11:15:38.000Z</time>
      </trkpt>
      <trkpt lat="45.16972" lon="0.61692">
        <ele>94.599998474121</ele>
        <time>2014-09-04T11:15:45.000Z</time>
      </trkpt>
      <trkpt lat="45.16992" lon="0.61686">
        <ele>94.599998474121</ele>
        <time>2014-09-04T11:15:51.000Z</time>
      </trkpt>
      <trkpt lat="45.17012" lon="0.61682">
        <ele>94.199996948242</ele>
        <time>2014-09-04T11:15:56.000Z</time>
      </trkpt>
      <trkpt lat="45.17037" lon="0.6168">
        <ele>93</ele>
        <time>2014-09-04T11:16:02.000Z</time>
      </trkpt>
      <trkpt lat="45.1704" lon="0.61682">
        <ele>92.800003051758</ele>
        <time>2014-09-04T11:16:03.000Z</time>
      </trkpt>
      <trkpt lat="45.1705" lon="0.617">
        <ele>92</ele>
        <time>2014-09-04T11:16:07.000Z</time>
      </trkpt>
      <trkpt lat="45.17067" lon="0.61739">
        <ele>90.800003051758</ele>
        <time>2014-09-04T11:16:13.000Z</time>
      </trkpt>
      <trkpt lat="45.17084" lon="0.61789">
        <ele>90.199996948242</ele>
        <time>2014-09-04T11:16:20.000Z</time>
      </trkpt>
      <trkpt lat="45.17087" lon="0.61803">
        <ele>90.199996948242</ele>
        <time>2014-09-04T11:16:22.000Z</time>
      </trkpt>
      <trkpt lat="45.17091" lon="0.61819">
        <ele>90</ele>
        <time>2014-09-04T11:16:25.000Z</time>
      </trkpt>
      <trkpt lat="45.17093" lon="0.61824">
        <ele>89.800003051758</ele>
        <time>2014-09-04T11:16:26.000Z</time>
      </trkpt>
      <trkpt lat="45.17099" lon="0.61836">
        <ele>89.199996948242</ele>
        <time>2014-09-04T11:16:28.000Z</time>
      </trkpt>
      <trkpt lat="45.17105" lon="0.61847">
        <ele>89.199996948242</ele>
        <time>2014-09-04T11:16:30.000Z</time>
      </trkpt>
      <trkpt lat="45.17124" lon="0.61876">
        <ele>88.800003051758</ele>
        <time>2014-09-04T11:16:36.000Z</time>
      </trkpt>
      <trkpt lat="45.17149" lon="0.61919">
        <ele>89.199996948242</ele>
        <time>2014-09-04T11:16:44.000Z</time>
      </trkpt>
      <trkpt lat="45.17158" lon="0.61934">
        <ele>88.599998474121</ele>
        <time>2014-09-04T11:16:48.000Z</time>
      </trkpt>
      <trkpt lat="45.17163" lon="0.6194">
        <ele>88.199996948242</ele>
        <time>2014-09-04T11:16:50.000Z</time>
      </trkpt>
      <trkpt lat="45.17183" lon="0.61968">
        <ele>88</ele>
        <time>2014-09-04T11:16:56.000Z</time>
      </trkpt>
      <trkpt lat="45.17206" lon="0.61996">
        <ele>88</ele>
        <time>2014-09-04T11:17:02.000Z</time>
      </trkpt>
      <trkpt lat="45.17238" lon="0.62035">
        <ele>88</ele>
        <time>2014-09-04T11:17:11.000Z</time>
      </trkpt>
      <trkpt lat="45.17246" lon="0.6204">
        <ele>87.800003051758</ele>
        <time>2014-09-04T11:17:13.000Z</time>
      </trkpt>
      <trkpt lat="45.17254" lon="0.62044">
        <ele>87.599998474121</ele>
        <time>2014-09-04T11:17:15.000Z</time>
      </trkpt>
      <trkpt lat="45.17257" lon="0.62047">
        <ele>87.599998474121</ele>
        <time>2014-09-04T11:17:16.000Z</time>
      </trkpt>
      <trkpt lat="45.17265" lon="0.62063">
        <ele>88.199996948242</ele>
        <time>2014-09-04T11:17:20.000Z</time>
      </trkpt>
      <trkpt lat="45.17269" lon="0.62075">
        <ele>88.599998474121</ele>
        <time>2014-09-04T11:17:22.000Z</time>
      </trkpt>
      <trkpt lat="45.17275" lon="0.62095">
        <ele>89.199996948242</ele>
        <time>2014-09-04T11:17:25.000Z</time>
      </trkpt>
      <trkpt lat="45.17282" lon="0.62114">
        <ele>89.199996948242</ele>
        <time>2014-09-04T11:17:28.000Z</time>
      </trkpt>
      <trkpt lat="45.17291" lon="0.62146">
        <ele>89</ele>
        <time>2014-09-04T11:17:33.000Z</time>
      </trkpt>
      <trkpt lat="45.17306" lon="0.62188">
        <ele>89.199996948242</ele>
        <time>2014-09-04T11:17:41.000Z</time>
      </trkpt>
      <trkpt lat="45.1731" lon="0.62197">
        <ele>89.800003051758</ele>
        <time>2014-09-04T11:17:43.000Z</time>
      </trkpt>
      <trkpt lat="45.17316" lon="0.62209">
        <ele>90.800003051758</ele>
        <time>2014-09-04T11:17:46.000Z</time>
      </trkpt>
      <trkpt lat="45.17319" lon="0.62217">
        <ele>91.800003051758</ele>
        <time>2014-09-04T11:17:48.000Z</time>
      </trkpt>
      <trkpt lat="45.17322" lon="0.62229">
        <ele>93.199996948242</ele>
        <time>2014-09-04T11:17:51.000Z</time>
      </trkpt>
      <trkpt lat="45.17322" lon="0.62237">
        <ele>93.800003051758</ele>
        <time>2014-09-04T11:17:53.000Z</time>
      </trkpt>
      <trkpt lat="45.17322" lon="0.62244">
        <ele>94.400001525879</ele>
        <time>2014-09-04T11:17:55.000Z</time>
      </trkpt>
      <trkpt lat="45.17321" lon="0.62254">
        <ele>95.400001525879</ele>
        <time>2014-09-04T11:17:58.000Z</time>
      </trkpt>
      <trkpt lat="45.1732" lon="0.62262">
        <ele>96</ele>
        <time>2014-09-04T11:18:00.000Z</time>
      </trkpt>
      <trkpt lat="45.17319" lon="0.62269">
        <ele>96.599998474121</ele>
        <time>2014-09-04T11:18:02.000Z</time>
      </trkpt>
      <trkpt lat="45.17315" lon="0.62283">
        <ele>97.800003051758</ele>
        <time>2014-09-04T11:18:06.000Z</time>
      </trkpt>
      <trkpt lat="45.17315" lon="0.62287">
        <ele>98</ele>
        <time>2014-09-04T11:18:07.000Z</time>
      </trkpt>
      <trkpt lat="45.17313" lon="0.62296">
        <ele>99</ele>
        <time>2014-09-04T11:18:10.000Z</time>
      </trkpt>
      <trkpt lat="45.17312" lon="0.62305">
        <ele>100.19999694824</ele>
        <time>2014-09-04T11:18:13.000Z</time>
      </trkpt>
      <trkpt lat="45.17312" lon="0.62309">
        <ele>100.40000152588</ele>
        <time>2014-09-04T11:18:14.000Z</time>
      </trkpt>
      <trkpt lat="45.1731" lon="0.62321">
        <ele>101.19999694824</ele>
        <time>2014-09-04T11:18:18.000Z</time>
      </trkpt>
      <trkpt lat="45.1731" lon="0.62327">
        <ele>101.59999847412</ele>
        <time>2014-09-04T11:18:20.000Z</time>
      </trkpt>
      <trkpt lat="45.17313" lon="0.62336">
        <ele>102.40000152588</ele>
        <time>2014-09-04T11:18:23.000Z</time>
      </trkpt>
      <trkpt lat="45.17315" lon="0.62344">
        <ele>102.80000305176</ele>
        <time>2014-09-04T11:18:26.000Z</time>
      </trkpt>
      <trkpt lat="45.17316" lon="0.62352">
        <ele>103.40000152588</ele>
        <time>2014-09-04T11:18:29.000Z</time>
      </trkpt>
      <trkpt lat="45.1732" lon="0.62365">
        <ele>104</ele>
        <time>2014-09-04T11:18:33.000Z</time>
      </trkpt>
      <trkpt lat="45.17322" lon="0.62375">
        <ele>104.59999847412</ele>
        <time>2014-09-04T11:18:36.000Z</time>
      </trkpt>
      <trkpt lat="45.17323" lon="0.62389">
        <ele>105.19999694824</ele>
        <time>2014-09-04T11:18:40.000Z</time>
      </trkpt>
      <trkpt lat="45.17324" lon="0.62413">
        <ele>105.59999847412</ele>
        <time>2014-09-04T11:18:46.000Z</time>
      </trkpt>
      <trkpt lat="45.17327" lon="0.62445">
        <ele>106.40000152588</ele>
        <time>2014-09-04T11:18:53.000Z</time>
      </trkpt>
      <trkpt lat="45.17328" lon="0.62464">
        <ele>106.59999847412</ele>
        <time>2014-09-04T11:18:57.000Z</time>
      </trkpt>
      <trkpt lat="45.1733" lon="0.62482">
        <ele>107.59999847412</ele>
        <time>2014-09-04T11:19:01.000Z</time>
      </trkpt>
      <trkpt lat="45.17332" lon="0.62489">
        <ele>107.80000305176</ele>
        <time>2014-09-04T11:19:03.000Z</time>
      </trkpt>
      <trkpt lat="45.17335" lon="0.62507">
        <ele>108.40000152588</ele>
        <time>2014-09-04T11:19:07.000Z</time>
      </trkpt>
      <trkpt lat="45.17336" lon="0.62517">
        <ele>108.80000305176</ele>
        <time>2014-09-04T11:19:09.000Z</time>
      </trkpt>
      <trkpt lat="45.17337" lon="0.62533">
        <ele>109.19999694824</ele>
        <time>2014-09-04T11:19:12.000Z</time>
      </trkpt>
      <trkpt lat="45.17339" lon="0.62557">
        <ele>110</ele>
        <time>2014-09-04T11:19:17.000Z</time>
      </trkpt>
      <trkpt lat="45.17339" lon="0.62568">
        <ele>110.19999694824</ele>
        <time>2014-09-04T11:19:19.000Z</time>
      </trkpt>
      <trkpt lat="45.1734" lon="0.62591">
        <ele>110.40000152588</ele>
        <time>2014-09-04T11:19:24.000Z</time>
      </trkpt>
      <trkpt lat="45.17344" lon="0.62634">
        <ele>110.80000305176</ele>
        <time>2014-09-04T11:19:32.000Z</time>
      </trkpt>
      <trkpt lat="45.17348" lon="0.62662">
        <ele>111</ele>
        <time>2014-09-04T11:19:37.000Z</time>
      </trkpt>
      <trkpt lat="45.17349" lon="0.62679">
        <ele>111</ele>
        <time>2014-09-04T11:19:40.000Z</time>
      </trkpt>
      <trkpt lat="45.17352" lon="0.62716">
        <ele>111.19999694824</ele>
        <time>2014-09-04T11:19:47.000Z</time>
      </trkpt>
      <trkpt lat="45.1735" lon="0.62748">
        <ele>112</ele>
        <time>2014-09-04T11:19:54.000Z</time>
      </trkpt>
      <trkpt lat="45.17349" lon="0.62752">
        <ele>112.19999694824</ele>
        <time>2014-09-04T11:19:55.000Z</time>
      </trkpt>
      <trkpt lat="45.17344" lon="0.62775">
        <ele>113</ele>
        <time>2014-09-04T11:20:00.000Z</time>
      </trkpt>
      <trkpt lat="45.1734" lon="0.62788">
        <ele>113.19999694824</ele>
        <time>2014-09-04T11:20:03.000Z</time>
      </trkpt>
      <trkpt lat="45.17339" lon="0.62802">
        <ele>113.40000152588</ele>
        <time>2014-09-04T11:20:06.000Z</time>
      </trkpt>
      <trkpt lat="45.1734" lon="0.62824">
        <ele>114</ele>
        <time>2014-09-04T11:20:10.000Z</time>
      </trkpt>
      <trkpt lat="45.17341" lon="0.6283">
        <ele>114</ele>
        <time>2014-09-04T11:20:11.000Z</time>
      </trkpt>
      <trkpt lat="45.17342" lon="0.62841">
        <ele>114.40000152588</ele>
        <time>2014-09-04T11:20:13.000Z</time>
      </trkpt>
      <trkpt lat="45.17345" lon="0.62871">
        <ele>114.40000152588</ele>
        <time>2014-09-04T11:20:18.000Z</time>
      </trkpt>
      <trkpt lat="45.17346" lon="0.62905">
        <ele>114.59999847412</ele>
        <time>2014-09-04T11:20:24.000Z</time>
      </trkpt>
      <trkpt lat="45.1735" lon="0.62937">
        <ele>114.19999694824</ele>
        <time>2014-09-04T11:20:29.000Z</time>
      </trkpt>
      <trkpt lat="45.17352" lon="0.62943">
        <ele>114.19999694824</ele>
        <time>2014-09-04T11:20:30.000Z</time>
      </trkpt>
      <trkpt lat="45.17356" lon="0.62969">
        <ele>114</ele>
        <time>2014-09-04T11:20:34.000Z</time>
      </trkpt>
      <trkpt lat="45.17356" lon="0.62975">
        <ele>113.80000305176</ele>
        <time>2014-09-04T11:20:35.000Z</time>
      </trkpt>
      <trkpt lat="45.17349" lon="0.62994">
        <ele>114</ele>
        <time>2014-09-04T11:20:39.000Z</time>
      </trkpt>
      <trkpt lat="45.17332" lon="0.6301">
        <ele>114.59999847412</ele>
        <time>2014-09-04T11:20:44.000Z</time>
      </trkpt>
      <trkpt lat="45.17314" lon="0.63033">
        <ele>115</ele>
        <time>2014-09-04T11:20:50.000Z</time>
      </trkpt>
      <trkpt lat="45.173" lon="0.63052">
        <ele>115.40000152588</ele>
        <time>2014-09-04T11:20:54.000Z</time>
      </trkpt>
      <trkpt lat="45.17292" lon="0.63064">
        <ele>115.59999847412</ele>
        <time>2014-09-04T11:20:57.000Z</time>
      </trkpt>
      <trkpt lat="45.17275" lon="0.63086">
        <ele>116.40000152588</ele>
        <time>2014-09-04T11:21:03.000Z</time>
      </trkpt>
      <trkpt lat="45.17269" lon="0.63092">
        <ele>116.80000305176</ele>
        <time>2014-09-04T11:21:05.000Z</time>
      </trkpt>
      <trkpt lat="45.17251" lon="0.63114">
        <ele>117.40000152588</ele>
        <time>2014-09-04T11:21:11.000Z</time>
      </trkpt>
      <trkpt lat="45.17248" lon="0.63118">
        <ele>117.59999847412</ele>
        <time>2014-09-04T11:21:12.000Z</time>
      </trkpt>
      <trkpt lat="45.17235" lon="0.63134">
        <ele>118.40000152588</ele>
        <time>2014-09-04T11:21:17.000Z</time>
      </trkpt>
      <trkpt lat="45.17218" lon="0.6315">
        <ele>118.40000152588</ele>
        <time>2014-09-04T11:21:23.000Z</time>
      </trkpt>
      <trkpt lat="45.17212" lon="0.63155">
        <ele>118.59999847412</ele>
        <time>2014-09-04T11:21:25.000Z</time>
      </trkpt>
      <trkpt lat="45.17195" lon="0.63173">
        <ele>118.40000152588</ele>
        <time>2014-09-04T11:21:31.000Z</time>
      </trkpt>
      <trkpt lat="45.17194" lon="0.63177">
        <ele>118.40000152588</ele>
        <time>2014-09-04T11:21:32.000Z</time>
      </trkpt>
      <trkpt lat="45.17192" lon="0.63187">
        <ele>118.19999694824</ele>
        <time>2014-09-04T11:21:34.000Z</time>
      </trkpt>
      <trkpt lat="45.17189" lon="0.63217">
        <ele>119</ele>
        <time>2014-09-04T11:21:40.000Z</time>
      </trkpt>
      <trkpt lat="45.17187" lon="0.63243">
        <ele>119.59999847412</ele>
        <time>2014-09-04T11:21:45.000Z</time>
      </trkpt>
      <trkpt lat="45.17184" lon="0.63258">
        <ele>119.80000305176</ele>
        <time>2014-09-04T11:21:48.000Z</time>
      </trkpt>
      <trkpt lat="45.17184" lon="0.63287">
        <ele>119.80000305176</ele>
        <time>2014-09-04T11:21:53.000Z</time>
      </trkpt>
      <trkpt lat="45.17182" lon="0.63326">
        <ele>119.19999694824</ele>
        <time>2014-09-04T11:21:59.000Z</time>
      </trkpt>
      <trkpt lat="45.17177" lon="0.63353">
        <ele>118.59999847412</ele>
        <time>2014-09-04T11:22:03.000Z</time>
      </trkpt>
      <trkpt lat="45.17173" lon="0.63367">
        <ele>118</ele>
        <time>2014-09-04T11:22:05.000Z</time>
      </trkpt>
      <trkpt lat="45.17161" lon="0.63395">
        <ele>117.19999694824</ele>
        <time>2014-09-04T11:22:09.000Z</time>
      </trkpt>
      <trkpt lat="45.17155" lon="0.6341">
        <ele>116.80000305176</ele>
        <time>2014-09-04T11:22:11.000Z</time>
      </trkpt>
      <trkpt lat="45.1715" lon="0.63426">
        <ele>116</ele>
        <time>2014-09-04T11:22:13.000Z</time>
      </trkpt>
      <trkpt lat="45.17143" lon="0.63451">
        <ele>115</ele>
        <time>2014-09-04T11:22:16.000Z</time>
      </trkpt>
      <trkpt lat="45.1714" lon="0.63458">
        <ele>114.59999847412</ele>
        <time>2014-09-04T11:22:17.000Z</time>
      </trkpt>
      <trkpt lat="45.17138" lon="0.63465">
        <ele>113.80000305176</ele>
        <time>2014-09-04T11:22:18.000Z</time>
      </trkpt>
      <trkpt lat="45.17127" lon="0.63486">
        <ele>112.59999847412</ele>
        <time>2014-09-04T11:22:21.000Z</time>
      </trkpt>
      <trkpt lat="45.17116" lon="0.63511">
        <ele>111</ele>
        <time>2014-09-04T11:22:24.000Z</time>
      </trkpt>
      <trkpt lat="45.17111" lon="0.6352">
        <ele>110</ele>
        <time>2014-09-04T11:22:25.000Z</time>
      </trkpt>
      <trkpt lat="45.17106" lon="0.63528">
        <ele>109.40000152588</ele>
        <time>2014-09-04T11:22:26.000Z</time>
      </trkpt>
      <trkpt lat="45.17099" lon="0.63536">
        <ele>108.80000305176</ele>
        <time>2014-09-04T11:22:27.000Z</time>
      </trkpt>
      <trkpt lat="45.17087" lon="0.63548">
        <ele>108</ele>
        <time>2014-09-04T11:22:29.000Z</time>
      </trkpt>
      <trkpt lat="45.17081" lon="0.63552">
        <ele>107.59999847412</ele>
        <time>2014-09-04T11:22:30.000Z</time>
      </trkpt>
      <trkpt lat="45.17062" lon="0.63561">
        <ele>106.59999847412</ele>
        <time>2014-09-04T11:22:33.000Z</time>
      </trkpt>
      <trkpt lat="45.17057" lon="0.63565">
        <ele>106.19999694824</ele>
        <time>2014-09-04T11:22:34.000Z</time>
      </trkpt>
      <trkpt lat="45.17053" lon="0.63573">
        <ele>105.40000152588</ele>
        <time>2014-09-04T11:22:36.000Z</time>
      </trkpt>
      <trkpt lat="45.17054" lon="0.63578">
        <ele>104.59999847412</ele>
        <time>2014-09-04T11:22:37.000Z</time>
      </trkpt>
      <trkpt lat="45.17055" lon="0.63583">
        <ele>104.40000152588</ele>
        <time>2014-09-04T11:22:38.000Z</time>
      </trkpt>
      <trkpt lat="45.1706" lon="0.63601">
        <ele>103.40000152588</ele>
        <time>2014-09-04T11:22:41.000Z</time>
      </trkpt>
      <trkpt lat="45.17058" lon="0.63622">
        <ele>103.40000152588</ele>
        <time>2014-09-04T11:22:45.000Z</time>
      </trkpt>
      <trkpt lat="45.17053" lon="0.63635">
        <ele>103.80000305176</ele>
        <time>2014-09-04T11:22:47.000Z</time>
      </trkpt>
      <trkpt lat="45.1705" lon="0.63648">
        <ele>104</ele>
        <time>2014-09-04T11:22:49.000Z</time>
      </trkpt>
      <trkpt lat="45.17047" lon="0.63659">
        <ele>104.40000152588</ele>
        <time>2014-09-04T11:22:51.000Z</time>
      </trkpt>
      <trkpt lat="45.17039" lon="0.63685">
        <ele>104.40000152588</ele>
        <time>2014-09-04T11:22:56.000Z</time>
      </trkpt>
      <trkpt lat="45.17035" lon="0.63721">
        <ele>105</ele>
        <time>2014-09-04T11:23:02.000Z</time>
      </trkpt>
      <trkpt lat="45.17033" lon="0.63747">
        <ele>105.59999847412</ele>
        <time>2014-09-04T11:23:06.000Z</time>
      </trkpt>
      <trkpt lat="45.17031" lon="0.63758">
        <ele>106</ele>
        <time>2014-09-04T11:23:08.000Z</time>
      </trkpt>
      <trkpt lat="45.17027" lon="0.63802">
        <ele>106.80000305176</ele>
        <time>2014-09-04T11:23:15.000Z</time>
      </trkpt>
      <trkpt lat="45.17028" lon="0.63825">
        <ele>107</ele>
        <time>2014-09-04T11:23:20.000Z</time>
      </trkpt>
      <trkpt lat="45.17029" lon="0.63846">
        <ele>107.80000305176</ele>
        <time>2014-09-04T11:23:26.000Z</time>
      </trkpt>
      <trkpt lat="45.17027" lon="0.63856">
        <ele>107.80000305176</ele>
        <time>2014-09-04T11:23:28.000Z</time>
      </trkpt>
      <trkpt lat="45.17023" lon="0.63877">
        <ele>108.19999694824</ele>
        <time>2014-09-04T11:23:32.000Z</time>
      </trkpt>
      <trkpt lat="45.17016" lon="0.639">
        <ele>108.59999847412</ele>
        <time>2014-09-04T11:23:38.000Z</time>
      </trkpt>
      <trkpt lat="45.17009" lon="0.6392">
        <ele>109</ele>
        <time>2014-09-04T11:23:43.000Z</time>
      </trkpt>
      <trkpt lat="45.17007" lon="0.63925">
        <ele>109.19999694824</ele>
        <time>2014-09-04T11:23:44.000Z</time>
      </trkpt>
      <trkpt lat="45.17" lon="0.63955">
        <ele>110</ele>
        <time>2014-09-04T11:23:51.000Z</time>
      </trkpt>
      <trkpt lat="45.16999" lon="0.63959">
        <ele>110</ele>
        <time>2014-09-04T11:23:52.000Z</time>
      </trkpt>
      <trkpt lat="45.16995" lon="0.63981">
        <ele>110.40000152588</ele>
        <time>2014-09-04T11:23:57.000Z</time>
      </trkpt>
      <trkpt lat="45.16996" lon="0.63987">
        <ele>110.40000152588</ele>
        <time>2014-09-04T11:23:58.000Z</time>
      </trkpt>
      <trkpt lat="45.17001" lon="0.64007">
        <ele>110.80000305176</ele>
        <time>2014-09-04T11:24:01.000Z</time>
      </trkpt>
      <trkpt lat="45.17007" lon="0.64024">
        <ele>111</ele>
        <time>2014-09-04T11:24:04.000Z</time>
      </trkpt>
      <trkpt lat="45.17012" lon="0.64033">
        <ele>111.19999694824</ele>
        <time>2014-09-04T11:24:06.000Z</time>
      </trkpt>
      <trkpt lat="45.17012" lon="0.64042">
        <ele>111.40000152588</ele>
        <time>2014-09-04T11:24:08.000Z</time>
      </trkpt>
      <trkpt lat="45.1701" lon="0.6405">
        <ele>111.59999847412</ele>
        <time>2014-09-04T11:24:10.000Z</time>
      </trkpt>
      <trkpt lat="45.17007" lon="0.64058">
        <ele>112</ele>
        <time>2014-09-04T11:24:12.000Z</time>
      </trkpt>
      <trkpt lat="45.17006" lon="0.64061">
        <ele>112.40000152588</ele>
        <time>2014-09-04T11:24:13.000Z</time>
      </trkpt>
      <trkpt lat="45.17004" lon="0.64068">
        <ele>113.59999847412</ele>
        <time>2014-09-04T11:24:15.000Z</time>
      </trkpt>
      <trkpt lat="45.16999" lon="0.64076">
        <ele>114.80000305176</ele>
        <time>2014-09-04T11:24:18.000Z</time>
      </trkpt>
      <trkpt lat="45.16997" lon="0.64082">
        <ele>115.59999847412</ele>
        <time>2014-09-04T11:24:20.000Z</time>
      </trkpt>
      <trkpt lat="45.16995" lon="0.64085">
        <ele>115.80000305176</ele>
        <time>2014-09-04T11:24:21.000Z</time>
      </trkpt>
      <trkpt lat="45.16992" lon="0.64094">
        <ele>116.80000305176</ele>
        <time>2014-09-04T11:24:24.000Z</time>
      </trkpt>
      <trkpt lat="45.1699" lon="0.641">
        <ele>117.40000152588</ele>
        <time>2014-09-04T11:24:26.000Z</time>
      </trkpt>
      <trkpt lat="45.16985" lon="0.64109">
        <ele>118</ele>
        <time>2014-09-04T11:24:29.000Z</time>
      </trkpt>
      <trkpt lat="45.16974" lon="0.64128">
        <ele>118.80000305176</ele>
        <time>2014-09-04T11:24:35.000Z</time>
      </trkpt>
      <trkpt lat="45.16973" lon="0.64131">
        <ele>119</ele>
        <time>2014-09-04T11:24:36.000Z</time>
      </trkpt>
      <trkpt lat="45.1696" lon="0.64151">
        <ele>119.80000305176</ele>
        <time>2014-09-04T11:24:43.000Z</time>
      </trkpt>
      <trkpt lat="45.16955" lon="0.6416">
        <ele>120.19999694824</ele>
        <time>2014-09-04T11:24:46.000Z</time>
      </trkpt>
      <trkpt lat="45.16949" lon="0.64172">
        <ele>120.80000305176</ele>
        <time>2014-09-04T11:24:50.000Z</time>
      </trkpt>
      <trkpt lat="45.16946" lon="0.64177">
        <ele>121.19999694824</ele>
        <time>2014-09-04T11:24:52.000Z</time>
      </trkpt>
      <trkpt lat="45.16938" lon="0.64189">
        <ele>122.19999694824</ele>
        <time>2014-09-04T11:24:57.000Z</time>
      </trkpt>
      <trkpt lat="45.16936" lon="0.64191">
        <ele>122.40000152588</ele>
        <time>2014-09-04T11:24:58.000Z</time>
      </trkpt>
      <trkpt lat="45.16927" lon="0.64207">
        <ele>123</ele>
        <time>2014-09-04T11:25:04.000Z</time>
      </trkpt>
      <trkpt lat="45.16924" lon="0.64213">
        <ele>123.40000152588</ele>
        <time>2014-09-04T11:25:06.000Z</time>
      </trkpt>
      <trkpt lat="45.16915" lon="0.64227">
        <ele>124.19999694824</ele>
        <time>2014-09-04T11:25:11.000Z</time>
      </trkpt>
      <trkpt lat="45.16912" lon="0.64232">
        <ele>124.59999847412</ele>
        <time>2014-09-04T11:25:13.000Z</time>
      </trkpt>
      <trkpt lat="45.16899" lon="0.64255">
        <ele>125.80000305176</ele>
        <time>2014-09-04T11:25:21.000Z</time>
      </trkpt>
      <trkpt lat="45.16881" lon="0.64286">
        <ele>126.40000152588</ele>
        <time>2014-09-04T11:25:31.000Z</time>
      </trkpt>
      <trkpt lat="45.16869" lon="0.64307">
        <ele>126.40000152588</ele>
        <time>2014-09-04T11:25:37.000Z</time>
      </trkpt>
      <trkpt lat="45.1686" lon="0.64325">
        <ele>126.80000305176</ele>
        <time>2014-09-04T11:25:42.000Z</time>
      </trkpt>
      <trkpt lat="45.1685" lon="0.64343">
        <ele>127.19999694824</ele>
        <time>2014-09-04T11:25:47.000Z</time>
      </trkpt>
      <trkpt lat="45.16834" lon="0.64373">
        <ele>127.40000152588</ele>
        <time>2014-09-04T11:25:55.000Z</time>
      </trkpt>
      <trkpt lat="45.1682" lon="0.64399">
        <ele>128</ele>
        <time>2014-09-04T11:26:02.000Z</time>
      </trkpt>
      <trkpt lat="45.16815" lon="0.64405">
        <ele>127.80000305176</ele>
        <time>2014-09-04T11:26:04.000Z</time>
      </trkpt>
      <trkpt lat="45.16806" lon="0.64423">
        <ele>128</ele>
        <time>2014-09-04T11:26:09.000Z</time>
      </trkpt>
      <trkpt lat="45.16801" lon="0.64424">
        <ele>128.39999389648</ele>
        <time>2014-09-04T11:26:11.000Z</time>
      </trkpt>
      <trkpt lat="45.16798" lon="0.64421">
        <ele>128.80000305176</ele>
        <time>2014-09-04T11:26:12.000Z</time>
      </trkpt>
      <trkpt lat="45.16796" lon="0.64418">
        <ele>129.19999694824</ele>
        <time>2014-09-04T11:26:13.000Z</time>
      </trkpt>
      <trkpt lat="45.1679" lon="0.6441">
        <ele>130.60000610352</ele>
        <time>2014-09-04T11:26:16.000Z</time>
      </trkpt>
      <trkpt lat="45.16785" lon="0.64396">
        <ele>131.60000610352</ele>
        <time>2014-09-04T11:26:21.000Z</time>
      </trkpt>
      <trkpt lat="45.16784" lon="0.64393">
        <ele>131.80000305176</ele>
        <time>2014-09-04T11:26:22.000Z</time>
      </trkpt>
      <trkpt lat="45.16778" lon="0.64378">
        <ele>132.60000610352</ele>
        <time>2014-09-04T11:26:28.000Z</time>
      </trkpt>
      <trkpt lat="45.16777" lon="0.64375">
        <ele>132.80000305176</ele>
        <time>2014-09-04T11:26:29.000Z</time>
      </trkpt>
      <trkpt lat="45.16773" lon="0.64357">
        <ele>133.80000305176</ele>
        <time>2014-09-04T11:26:34.000Z</time>
      </trkpt>
      <trkpt lat="45.16762" lon="0.64342">
        <ele>134.80000305176</ele>
        <time>2014-09-04T11:26:39.000Z</time>
      </trkpt>
      <trkpt lat="45.16749" lon="0.6434">
        <ele>135.60000610352</ele>
        <time>2014-09-04T11:26:44.000Z</time>
      </trkpt>
      <trkpt lat="45.16744" lon="0.6434">
        <ele>135.80000305176</ele>
        <time>2014-09-04T11:26:46.000Z</time>
      </trkpt>
      <trkpt lat="45.16736" lon="0.6434">
        <ele>136.80000305176</ele>
        <time>2014-09-04T11:26:50.000Z</time>
      </trkpt>
      <trkpt lat="45.16733" lon="0.6434">
        <ele>137</ele>
        <time>2014-09-04T11:26:51.000Z</time>
      </trkpt>
      <trkpt lat="45.16722" lon="0.64341">
        <ele>138</ele>
        <time>2014-09-04T11:26:57.000Z</time>
      </trkpt>
      <trkpt lat="45.16714" lon="0.64338">
        <ele>138.39999389648</ele>
        <time>2014-09-04T11:27:01.000Z</time>
      </trkpt>
      <trkpt lat="45.16707" lon="0.64336">
        <ele>139.19999694824</ele>
        <time>2014-09-04T11:27:04.000Z</time>
      </trkpt>
      <trkpt lat="45.16695" lon="0.64332">
        <ele>140.19999694824</ele>
        <time>2014-09-04T11:27:10.000Z</time>
      </trkpt>
      <trkpt lat="45.16692" lon="0.64331">
        <ele>140.60000610352</ele>
        <time>2014-09-04T11:27:12.000Z</time>
      </trkpt>
      <trkpt lat="45.16683" lon="0.64327">
        <ele>141.60000610352</ele>
        <time>2014-09-04T11:27:16.000Z</time>
      </trkpt>
      <trkpt lat="45.16678" lon="0.64324">
        <ele>141.80000305176</ele>
        <time>2014-09-04T11:27:18.000Z</time>
      </trkpt>
      <trkpt lat="45.16671" lon="0.64319">
        <ele>142.60000610352</ele>
        <time>2014-09-04T11:27:22.000Z</time>
      </trkpt>
      <trkpt lat="45.16662" lon="0.64312">
        <ele>143.60000610352</ele>
        <time>2014-09-04T11:27:26.000Z</time>
      </trkpt>
      <trkpt lat="45.16647" lon="0.64308">
        <ele>145</ele>
        <time>2014-09-04T11:27:33.000Z</time>
      </trkpt>
      <trkpt lat="45.16625" lon="0.64302">
        <ele>145.19999694824</ele>
        <time>2014-09-04T11:27:40.000Z</time>
      </trkpt>
      <trkpt lat="45.1661" lon="0.64296">
        <ele>146</ele>
        <time>2014-09-04T11:27:46.000Z</time>
      </trkpt>
      <trkpt lat="45.16607" lon="0.64292">
        <ele>146.19999694824</ele>
        <time>2014-09-04T11:27:48.000Z</time>
      </trkpt>
      <trkpt lat="45.16598" lon="0.64286">
        <ele>146.60000610352</ele>
        <time>2014-09-04T11:27:52.000Z</time>
      </trkpt>
      <trkpt lat="45.16586" lon="0.6428">
        <ele>146.19999694824</ele>
        <time>2014-09-04T11:28:00.000Z</time>
      </trkpt>
      <trkpt lat="45.16585" lon="0.64282">
        <ele>145.80000305176</ele>
        <time>2014-09-04T11:28:01.000Z</time>
      </trkpt>
      <trkpt lat="45.1658" lon="0.64287">
        <ele>144.80000305176</ele>
        <time>2014-09-04T11:28:03.000Z</time>
      </trkpt>
      <trkpt lat="45.1657" lon="0.64296">
        <ele>143.19999694824</ele>
        <time>2014-09-04T11:28:06.000Z</time>
      </trkpt>
      <trkpt lat="45.16563" lon="0.64304">
        <ele>142</ele>
        <time>2014-09-04T11:28:08.000Z</time>
      </trkpt>
      <trkpt lat="45.16556" lon="0.64316">
        <ele>140.80000305176</ele>
        <time>2014-09-04T11:28:10.000Z</time>
      </trkpt>
      <trkpt lat="45.1655" lon="0.64327">
        <ele>140.39999389648</ele>
        <time>2014-09-04T11:28:11.000Z</time>
      </trkpt>
      <trkpt lat="45.16544" lon="0.64353">
        <ele>141.39999389648</ele>
        <time>2014-09-04T11:28:14.000Z</time>
      </trkpt>
      <trkpt lat="45.16544" lon="0.64359">
        <ele>142</ele>
        <time>2014-09-04T11:28:15.000Z</time>
      </trkpt>
      <trkpt lat="45.1654" lon="0.64375">
        <ele>143</ele>
        <time>2014-09-04T11:28:18.000Z</time>
      </trkpt>
      <trkpt lat="45.16539" lon="0.64381">
        <ele>143.39999389648</ele>
        <time>2014-09-04T11:28:19.000Z</time>
      </trkpt>
      <trkpt lat="45.16537" lon="0.64396">
        <ele>144.19999694824</ele>
        <time>2014-09-04T11:28:22.000Z</time>
      </trkpt>
      <trkpt lat="45.16536" lon="0.64411">
        <ele>145</ele>
        <time>2014-09-04T11:28:26.000Z</time>
      </trkpt>
      <trkpt lat="45.16535" lon="0.64415">
        <ele>145.19999694824</ele>
        <time>2014-09-04T11:28:27.000Z</time>
      </trkpt>
      <trkpt lat="45.16534" lon="0.64435">
        <ele>146.19999694824</ele>
        <time>2014-09-04T11:28:33.000Z</time>
      </trkpt>
      <trkpt lat="45.16532" lon="0.64454">
        <ele>147.19999694824</ele>
        <time>2014-09-04T11:28:39.000Z</time>
      </trkpt>
      <trkpt lat="45.16531" lon="0.64462">
        <ele>147.39999389648</ele>
        <time>2014-09-04T11:28:41.000Z</time>
      </trkpt>
      <trkpt lat="45.16528" lon="0.64485">
        <ele>148</ele>
        <time>2014-09-04T11:28:48.000Z</time>
      </trkpt>
      <trkpt lat="45.16526" lon="0.64502">
        <ele>148.19999694824</ele>
        <time>2014-09-04T11:28:54.000Z</time>
      </trkpt>
      <trkpt lat="45.16525" lon="0.64509">
        <ele>148.39999389648</ele>
        <time>2014-09-04T11:28:56.000Z</time>
      </trkpt>
      <trkpt lat="45.16524" lon="0.64526">
        <ele>148.60000610352</ele>
        <time>2014-09-04T11:29:01.000Z</time>
      </trkpt>
      <trkpt lat="45.16523" lon="0.64556">
        <ele>147.80000305176</ele>
        <time>2014-09-04T11:29:09.000Z</time>
      </trkpt>
      <trkpt lat="45.16523" lon="0.64569">
        <ele>147</ele>
        <time>2014-09-04T11:29:12.000Z</time>
      </trkpt>
      <trkpt lat="45.16526" lon="0.64592">
        <ele>146</ele>
        <time>2014-09-04T11:29:16.000Z</time>
      </trkpt>
      <trkpt lat="45.16525" lon="0.64599">
        <ele>145.80000305176</ele>
        <time>2014-09-04T11:29:17.000Z</time>
      </trkpt>
      <trkpt lat="45.16517" lon="0.64628">
        <ele>144.60000610352</ele>
        <time>2014-09-04T11:29:21.000Z</time>
      </trkpt>
      <trkpt lat="45.16516" lon="0.64648">
        <ele>143.80000305176</ele>
        <time>2014-09-04T11:29:23.000Z</time>
      </trkpt>
      <trkpt lat="45.16514" lon="0.64656">
        <ele>143.39999389648</ele>
        <time>2014-09-04T11:29:24.000Z</time>
      </trkpt>
      <trkpt lat="45.16511" lon="0.64674">
        <ele>141.80000305176</ele>
        <time>2014-09-04T11:29:26.000Z</time>
      </trkpt>
      <trkpt lat="45.16509" lon="0.64694">
        <ele>140.60000610352</ele>
        <time>2014-09-04T11:29:28.000Z</time>
      </trkpt>
      <trkpt lat="45.16506" lon="0.64715">
        <ele>139.60000610352</ele>
        <time>2014-09-04T11:29:30.000Z</time>
      </trkpt>
      <trkpt lat="45.16504" lon="0.64736">
        <ele>139.39999389648</ele>
        <time>2014-09-04T11:29:32.000Z</time>
      </trkpt>
      <trkpt lat="45.16505" lon="0.64763">
        <ele>139.60000610352</ele>
        <time>2014-09-04T11:29:35.000Z</time>
      </trkpt>
      <trkpt lat="45.16506" lon="0.6477">
        <ele>139.60000610352</ele>
        <time>2014-09-04T11:29:36.000Z</time>
      </trkpt>
      <trkpt lat="45.16511" lon="0.64811">
        <ele>140.19999694824</ele>
        <time>2014-09-04T11:29:42.000Z</time>
      </trkpt>
      <trkpt lat="45.16511" lon="0.64851">
        <ele>140.39999389648</ele>
        <time>2014-09-04T11:29:49.000Z</time>
      </trkpt>
      <trkpt lat="45.16511" lon="0.64872">
        <ele>140.80000305176</ele>
        <time>2014-09-04T11:29:53.000Z</time>
      </trkpt>
      <trkpt lat="45.16511" lon="0.64881">
        <ele>141.19999694824</ele>
        <time>2014-09-04T11:29:55.000Z</time>
      </trkpt>
      <trkpt lat="45.16509" lon="0.64905">
        <ele>141.80000305176</ele>
        <time>2014-09-04T11:30:00.000Z</time>
      </trkpt>
      <trkpt lat="45.16508" lon="0.64909">
        <ele>141.80000305176</ele>
        <time>2014-09-04T11:30:01.000Z</time>
      </trkpt>
      <trkpt lat="45.16501" lon="0.64931">
        <ele>142</ele>
        <time>2014-09-04T11:30:07.000Z</time>
      </trkpt>
      <trkpt lat="45.165" lon="0.64951">
        <ele>142</ele>
        <time>2014-09-04T11:30:14.000Z</time>
      </trkpt>
      <trkpt lat="45.16501" lon="0.64977">
        <ele>141.80000305176</ele>
        <time>2014-09-04T11:30:20.000Z</time>
      </trkpt>
      <trkpt lat="45.165" lon="0.65002">
        <ele>141.60000610352</ele>
        <time>2014-09-04T11:30:26.000Z</time>
      </trkpt>
      <trkpt lat="45.16497" lon="0.65035">
        <ele>141.19999694824</ele>
        <time>2014-09-04T11:30:33.000Z</time>
      </trkpt>
      <trkpt lat="45.16491" lon="0.6506">
        <ele>140.80000305176</ele>
        <time>2014-09-04T11:30:40.000Z</time>
      </trkpt>
      <trkpt lat="45.16484" lon="0.65082">
        <ele>141.39999389648</ele>
        <time>2014-09-04T11:30:47.000Z</time>
      </trkpt>
      <trkpt lat="45.16479" lon="0.65104">
        <ele>142.19999694824</ele>
        <time>2014-09-04T11:30:55.000Z</time>
      </trkpt>
      <trkpt lat="45.16481" lon="0.6512">
        <ele>142.39999389648</ele>
        <time>2014-09-04T11:31:01.000Z</time>
      </trkpt>
      <trkpt lat="45.16477" lon="0.65135">
        <ele>142.60000610352</ele>
        <time>2014-09-04T11:31:06.000Z</time>
      </trkpt>
      <trkpt lat="45.16474" lon="0.65141">
        <ele>143</ele>
        <time>2014-09-04T11:31:08.000Z</time>
      </trkpt>
      <trkpt lat="45.16466" lon="0.65155">
        <ele>143.60000610352</ele>
        <time>2014-09-04T11:31:14.000Z</time>
      </trkpt>
      <trkpt lat="45.16461" lon="0.65165">
        <ele>144</ele>
        <time>2014-09-04T11:31:18.000Z</time>
      </trkpt>
      <trkpt lat="45.16458" lon="0.6517">
        <ele>144.19999694824</ele>
        <time>2014-09-04T11:31:20.000Z</time>
      </trkpt>
      <trkpt lat="45.16448" lon="0.65189">
        <ele>144.60000610352</ele>
        <time>2014-09-04T11:31:27.000Z</time>
      </trkpt>
      <trkpt lat="45.16439" lon="0.65206">
        <ele>145</ele>
        <time>2014-09-04T11:31:33.000Z</time>
      </trkpt>
      <trkpt lat="45.16436" lon="0.65212">
        <ele>145.19999694824</ele>
        <time>2014-09-04T11:31:35.000Z</time>
      </trkpt>
      <trkpt lat="45.16427" lon="0.65227">
        <ele>146.19999694824</ele>
        <time>2014-09-04T11:31:40.000Z</time>
      </trkpt>
      <trkpt lat="45.16424" lon="0.65234">
        <ele>146.39999389648</ele>
        <time>2014-09-04T11:31:42.000Z</time>
      </trkpt>
      <trkpt lat="45.16415" lon="0.65249">
        <ele>147.39999389648</ele>
        <time>2014-09-04T11:31:47.000Z</time>
      </trkpt>
      <trkpt lat="45.1641" lon="0.65258">
        <ele>148.60000610352</ele>
        <time>2014-09-04T11:31:50.000Z</time>
      </trkpt>
      <trkpt lat="45.16404" lon="0.6527">
        <ele>149.80000305176</ele>
        <time>2014-09-04T11:31:54.000Z</time>
      </trkpt>
      <trkpt lat="45.16401" lon="0.65277">
        <ele>150.19999694824</ele>
        <time>2014-09-04T11:31:57.000Z</time>
      </trkpt>
      <trkpt lat="45.16396" lon="0.65286">
        <ele>150.80000305176</ele>
        <time>2014-09-04T11:32:00.000Z</time>
      </trkpt>
      <trkpt lat="45.16391" lon="0.653">
        <ele>151.80000305176</ele>
        <time>2014-09-04T11:32:05.000Z</time>
      </trkpt>
      <trkpt lat="45.1639" lon="0.65302">
        <ele>152</ele>
        <time>2014-09-04T11:32:06.000Z</time>
      </trkpt>
      <trkpt lat="45.16381" lon="0.65311">
        <ele>153</ele>
        <time>2014-09-04T11:32:11.000Z</time>
      </trkpt>
      <trkpt lat="45.16368" lon="0.65326">
        <ele>154.19999694824</ele>
        <time>2014-09-04T11:32:18.000Z</time>
      </trkpt>
      <trkpt lat="45.16366" lon="0.65328">
        <ele>154.39999389648</ele>
        <time>2014-09-04T11:32:19.000Z</time>
      </trkpt>
      <trkpt lat="45.1636" lon="0.65334">
        <ele>155</ele>
        <time>2014-09-04T11:32:22.000Z</time>
      </trkpt>
      <trkpt lat="45.16358" lon="0.65337">
        <ele>155.39999389648</ele>
        <time>2014-09-04T11:32:23.000Z</time>
      </trkpt>
      <trkpt lat="45.16355" lon="0.65346">
        <ele>156.19999694824</ele>
        <time>2014-09-04T11:32:26.000Z</time>
      </trkpt>
      <trkpt lat="45.16355" lon="0.65348">
        <ele>156.60000610352</ele>
        <time>2014-09-04T11:32:27.000Z</time>
      </trkpt>
      <trkpt lat="45.16346" lon="0.65358">
        <ele>157.60000610352</ele>
        <time>2014-09-04T11:32:33.000Z</time>
      </trkpt>
      <trkpt lat="45.16331" lon="0.6536">
        <ele>158</ele>
        <time>2014-09-04T11:32:39.000Z</time>
      </trkpt>
      <trkpt lat="45.16316" lon="0.65358">
        <ele>158.80000305176</ele>
        <time>2014-09-04T11:32:45.000Z</time>
      </trkpt>
      <trkpt lat="45.1631" lon="0.65357">
        <ele>159</ele>
        <time>2014-09-04T11:32:47.000Z</time>
      </trkpt>
      <trkpt lat="45.16298" lon="0.65355">
        <ele>160</ele>
        <time>2014-09-04T11:32:52.000Z</time>
      </trkpt>
      <trkpt lat="45.16295" lon="0.65353">
        <ele>160</ele>
        <time>2014-09-04T11:32:53.000Z</time>
      </trkpt>
      <trkpt lat="45.16288" lon="0.65341">
        <ele>160.80000305176</ele>
        <time>2014-09-04T11:32:58.000Z</time>
      </trkpt>
      <trkpt lat="45.16283" lon="0.65327">
        <ele>161</ele>
        <time>2014-09-04T11:33:02.000Z</time>
      </trkpt>
      <trkpt lat="45.16278" lon="0.65316">
        <ele>161.19999694824</ele>
        <time>2014-09-04T11:33:05.000Z</time>
      </trkpt>
      <trkpt lat="45.16271" lon="0.65288">
        <ele>161</ele>
        <time>2014-09-04T11:33:12.000Z</time>
      </trkpt>
      <trkpt lat="45.16266" lon="0.65254">
        <ele>161</ele>
        <time>2014-09-04T11:33:19.000Z</time>
      </trkpt>
      <trkpt lat="45.16264" lon="0.65221">
        <ele>160.80000305176</ele>
        <time>2014-09-04T11:33:25.000Z</time>
      </trkpt>
      <trkpt lat="45.16262" lon="0.65192">
        <ele>160.60000610352</ele>
        <time>2014-09-04T11:33:29.000Z</time>
      </trkpt>
      <trkpt lat="45.16263" lon="0.65171">
        <ele>160.19999694824</ele>
        <time>2014-09-04T11:33:32.000Z</time>
      </trkpt>
      <trkpt lat="45.16263" lon="0.65156">
        <ele>160</ele>
        <time>2014-09-04T11:33:34.000Z</time>
      </trkpt>
      <trkpt lat="45.16264" lon="0.65118">
        <ele>159.19999694824</ele>
        <time>2014-09-04T11:33:39.000Z</time>
      </trkpt>
      <trkpt lat="45.16265" lon="0.6511">
        <ele>159</ele>
        <time>2014-09-04T11:33:40.000Z</time>
      </trkpt>
      <trkpt lat="45.16269" lon="0.6504">
        <ele>158.19999694824</ele>
        <time>2014-09-04T11:33:49.000Z</time>
      </trkpt>
      <trkpt lat="45.16271" lon="0.64965">
        <ele>158.60000610352</ele>
        <time>2014-09-04T11:33:59.000Z</time>
      </trkpt>
      <trkpt lat="45.16272" lon="0.64903">
        <ele>159</ele>
        <time>2014-09-04T11:34:08.000Z</time>
      </trkpt>
      <trkpt lat="45.16266" lon="0.64856">
        <ele>158.39999389648</ele>
        <time>2014-09-04T11:34:14.000Z</time>
      </trkpt>
      <trkpt lat="45.16245" lon="0.64793">
        <ele>158.60000610352</ele>
        <time>2014-09-04T11:34:23.000Z</time>
      </trkpt>
      <trkpt lat="45.16225" lon="0.6473">
        <ele>159.19999694824</ele>
        <time>2014-09-04T11:34:33.000Z</time>
      </trkpt>
      <trkpt lat="45.16219" lon="0.64701">
        <ele>160</ele>
        <time>2014-09-04T11:34:38.000Z</time>
      </trkpt>
      <trkpt lat="45.16214" lon="0.64685">
        <ele>160.80000305176</ele>
        <time>2014-09-04T11:34:41.000Z</time>
      </trkpt>
      <trkpt lat="45.16211" lon="0.64675">
        <ele>161.19999694824</ele>
        <time>2014-09-04T11:34:43.000Z</time>
      </trkpt>
      <trkpt lat="45.16202" lon="0.64651">
        <ele>162.19999694824</ele>
        <time>2014-09-04T11:34:48.000Z</time>
      </trkpt>
      <trkpt lat="45.162" lon="0.64646">
        <ele>162.39999389648</ele>
        <time>2014-09-04T11:34:49.000Z</time>
      </trkpt>
      <trkpt lat="45.16191" lon="0.6463">
        <ele>163.19999694824</ele>
        <time>2014-09-04T11:34:53.000Z</time>
      </trkpt>
      <trkpt lat="45.16182" lon="0.64614">
        <ele>164</ele>
        <time>2014-09-04T11:34:57.000Z</time>
      </trkpt>
      <trkpt lat="45.16179" lon="0.6461">
        <ele>164.39999389648</ele>
        <time>2014-09-04T11:34:58.000Z</time>
      </trkpt>
      <trkpt lat="45.1617" lon="0.64594">
        <ele>165.60000610352</ele>
        <time>2014-09-04T11:35:02.000Z</time>
      </trkpt>
      <trkpt lat="45.16161" lon="0.64579">
        <ele>166.19999694824</ele>
        <time>2014-09-04T11:35:06.000Z</time>
      </trkpt>
      <trkpt lat="45.16157" lon="0.64572">
        <ele>166.80000305176</ele>
        <time>2014-09-04T11:35:08.000Z</time>
      </trkpt>
      <trkpt lat="45.16147" lon="0.64556">
        <ele>167.80000305176</ele>
        <time>2014-09-04T11:35:13.000Z</time>
      </trkpt>
      <trkpt lat="45.16143" lon="0.6455">
        <ele>168.19999694824</ele>
        <time>2014-09-04T11:35:15.000Z</time>
      </trkpt>
      <trkpt lat="45.16137" lon="0.6454">
        <ele>169</ele>
        <time>2014-09-04T11:35:18.000Z</time>
      </trkpt>
      <trkpt lat="45.1613" lon="0.64528">
        <ele>169.60000610352</ele>
        <time>2014-09-04T11:35:22.000Z</time>
      </trkpt>
      <trkpt lat="45.16126" lon="0.64521">
        <ele>170</ele>
        <time>2014-09-04T11:35:24.000Z</time>
      </trkpt>
      <trkpt lat="45.16118" lon="0.64508">
        <ele>171.19999694824</ele>
        <time>2014-09-04T11:35:28.000Z</time>
      </trkpt>
      <trkpt lat="45.16112" lon="0.64498">
        <ele>171.60000610352</ele>
        <time>2014-09-04T11:35:31.000Z</time>
      </trkpt>
      <trkpt lat="45.16104" lon="0.64484">
        <ele>172.39999389648</ele>
        <time>2014-09-04T11:35:35.000Z</time>
      </trkpt>
      <trkpt lat="45.16094" lon="0.64468">
        <ele>173.19999694824</ele>
        <time>2014-09-04T11:35:40.000Z</time>
      </trkpt>
      <trkpt lat="45.16088" lon="0.64458">
        <ele>173.39999389648</ele>
        <time>2014-09-04T11:35:43.000Z</time>
      </trkpt>
      <trkpt lat="45.16069" lon="0.64427">
        <ele>174.19999694824</ele>
        <time>2014-09-04T11:35:52.000Z</time>
      </trkpt>
      <trkpt lat="45.1605" lon="0.64395">
        <ele>173.80000305176</ele>
        <time>2014-09-04T11:36:00.000Z</time>
      </trkpt>
      <trkpt lat="45.16038" lon="0.64395">
        <ele>173.39999389648</ele>
        <time>2014-09-04T11:36:03.000Z</time>
      </trkpt>
      <trkpt lat="45.16031" lon="0.64404">
        <ele>173.39999389648</ele>
        <time>2014-09-04T11:36:05.000Z</time>
      </trkpt>
      <trkpt lat="45.16021" lon="0.64421">
        <ele>173</ele>
        <time>2014-09-04T11:36:08.000Z</time>
      </trkpt>
      <trkpt lat="45.16" lon="0.64455">
        <ele>172.19999694824</ele>
        <time>2014-09-04T11:36:14.000Z</time>
      </trkpt>
      <trkpt lat="45.15996" lon="0.64461">
        <ele>172</ele>
        <time>2014-09-04T11:36:15.000Z</time>
      </trkpt>
      <trkpt lat="45.15974" lon="0.64498">
        <ele>171</ele>
        <time>2014-09-04T11:36:21.000Z</time>
      </trkpt>
      <trkpt lat="45.15966" lon="0.64511">
        <ele>170.60000610352</ele>
        <time>2014-09-04T11:36:23.000Z</time>
      </trkpt>
      <trkpt lat="45.15942" lon="0.64551">
        <ele>170.39999389648</ele>
        <time>2014-09-04T11:36:29.000Z</time>
      </trkpt>
      <trkpt lat="45.15933" lon="0.64565">
        <ele>170</ele>
        <time>2014-09-04T11:36:31.000Z</time>
      </trkpt>
      <trkpt lat="45.15916" lon="0.64595">
        <ele>168.80000305176</ele>
        <time>2014-09-04T11:36:35.000Z</time>
      </trkpt>
      <trkpt lat="45.15901" lon="0.64618">
        <ele>167.60000610352</ele>
        <time>2014-09-04T11:36:38.000Z</time>
      </trkpt>
      <trkpt lat="45.15895" lon="0.64624">
        <ele>167.39999389648</ele>
        <time>2014-09-04T11:36:39.000Z</time>
      </trkpt>
      <trkpt lat="45.15889" lon="0.64629">
        <ele>167.19999694824</ele>
        <time>2014-09-04T11:36:40.000Z</time>
      </trkpt>
      <trkpt lat="45.1587" lon="0.64633">
        <ele>166.80000305176</ele>
        <time>2014-09-04T11:36:43.000Z</time>
      </trkpt>
      <trkpt lat="45.15863" lon="0.64634">
        <ele>166.60000610352</ele>
        <time>2014-09-04T11:36:44.000Z</time>
      </trkpt>
      <trkpt lat="45.15849" lon="0.64638">
        <ele>165.19999694824</ele>
        <time>2014-09-04T11:36:46.000Z</time>
      </trkpt>
      <trkpt lat="45.15843" lon="0.6464">
        <ele>164.39999389648</ele>
        <time>2014-09-04T11:36:47.000Z</time>
      </trkpt>
      <trkpt lat="45.15836" lon="0.64641">
        <ele>163.80000305176</ele>
        <time>2014-09-04T11:36:48.000Z</time>
      </trkpt>
      <trkpt lat="45.15815" lon="0.64628">
        <ele>162.39999389648</ele>
        <time>2014-09-04T11:36:51.000Z</time>
      </trkpt>
      <trkpt lat="45.15807" lon="0.64621">
        <ele>161</ele>
        <time>2014-09-04T11:36:52.000Z</time>
      </trkpt>
      <trkpt lat="45.1579" lon="0.64606">
        <ele>159.39999389648</ele>
        <time>2014-09-04T11:36:54.000Z</time>
      </trkpt>
      <trkpt lat="45.15773" lon="0.64592">
        <ele>157</ele>
        <time>2014-09-04T11:36:56.000Z</time>
      </trkpt>
      <trkpt lat="45.15764" lon="0.64585">
        <ele>156</ele>
        <time>2014-09-04T11:36:57.000Z</time>
      </trkpt>
      <trkpt lat="45.15754" lon="0.64577">
        <ele>154.60000610352</ele>
        <time>2014-09-04T11:36:58.000Z</time>
      </trkpt>
      <trkpt lat="45.15735" lon="0.64561">
        <ele>152.39999389648</ele>
        <time>2014-09-04T11:37:00.000Z</time>
      </trkpt>
      <trkpt lat="45.15725" lon="0.64553">
        <ele>151</ele>
        <time>2014-09-04T11:37:01.000Z</time>
      </trkpt>
      <trkpt lat="45.15715" lon="0.64545">
        <ele>148</ele>
        <time>2014-09-04T11:37:02.000Z</time>
      </trkpt>
      <trkpt lat="45.15694" lon="0.64529">
        <ele>146</ele>
        <time>2014-09-04T11:37:04.000Z</time>
      </trkpt>
      <trkpt lat="45.15684" lon="0.64521">
        <ele>145</ele>
        <time>2014-09-04T11:37:05.000Z</time>
      </trkpt>
      <trkpt lat="45.15671" lon="0.64509">
        <ele>143.39999389648</ele>
        <time>2014-09-04T11:37:06.000Z</time>
      </trkpt>
      <trkpt lat="45.15659" lon="0.64499">
        <ele>142</ele>
        <time>2014-09-04T11:37:07.000Z</time>
      </trkpt>
      <trkpt lat="45.15647" lon="0.64489">
        <ele>141.19999694824</ele>
        <time>2014-09-04T11:37:08.000Z</time>
      </trkpt>
      <trkpt lat="45.15637" lon="0.64481">
        <ele>140.39999389648</ele>
        <time>2014-09-04T11:37:09.000Z</time>
      </trkpt>
      <trkpt lat="45.15615" lon="0.64464">
        <ele>138.39999389648</ele>
        <time>2014-09-04T11:37:11.000Z</time>
      </trkpt>
      <trkpt lat="45.15584" lon="0.64437">
        <ele>137</ele>
        <time>2014-09-04T11:37:14.000Z</time>
      </trkpt>
      <trkpt lat="45.15574" lon="0.64428">
        <ele>136.19999694824</ele>
        <time>2014-09-04T11:37:15.000Z</time>
      </trkpt>
      <trkpt lat="45.15565" lon="0.6442">
        <ele>135.19999694824</ele>
        <time>2014-09-04T11:37:16.000Z</time>
      </trkpt>
      <trkpt lat="45.15555" lon="0.64412">
        <ele>134</ele>
        <time>2014-09-04T11:37:17.000Z</time>
      </trkpt>
      <trkpt lat="45.15545" lon="0.64404">
        <ele>133</ele>
        <time>2014-09-04T11:37:18.000Z</time>
      </trkpt>
      <trkpt lat="45.15525" lon="0.64387">
        <ele>131</ele>
        <time>2014-09-04T11:37:20.000Z</time>
      </trkpt>
      <trkpt lat="45.15508" lon="0.64373">
        <ele>129</ele>
        <time>2014-09-04T11:37:22.000Z</time>
      </trkpt>
      <trkpt lat="45.15501" lon="0.64366">
        <ele>128</ele>
        <time>2014-09-04T11:37:23.000Z</time>
      </trkpt>
      <trkpt lat="45.15494" lon="0.64361">
        <ele>126.59999847412</ele>
        <time>2014-09-04T11:37:24.000Z</time>
      </trkpt>
      <trkpt lat="45.15487" lon="0.64357">
        <ele>125.59999847412</ele>
        <time>2014-09-04T11:37:25.000Z</time>
      </trkpt>
      <trkpt lat="45.1548" lon="0.64353">
        <ele>123.19999694824</ele>
        <time>2014-09-04T11:37:26.000Z</time>
      </trkpt>
      <trkpt lat="45.15473" lon="0.6435">
        <ele>122.19999694824</ele>
        <time>2014-09-04T11:37:27.000Z</time>
      </trkpt>
      <trkpt lat="45.15466" lon="0.64348">
        <ele>121.19999694824</ele>
        <time>2014-09-04T11:37:28.000Z</time>
      </trkpt>
      <trkpt lat="45.15459" lon="0.64348">
        <ele>119.80000305176</ele>
        <time>2014-09-04T11:37:29.000Z</time>
      </trkpt>
      <trkpt lat="45.15452" lon="0.64348">
        <ele>118.59999847412</ele>
        <time>2014-09-04T11:37:30.000Z</time>
      </trkpt>
      <trkpt lat="45.15444" lon="0.64347">
        <ele>117.19999694824</ele>
        <time>2014-09-04T11:37:31.000Z</time>
      </trkpt>
      <trkpt lat="45.15437" lon="0.64344">
        <ele>116</ele>
        <time>2014-09-04T11:37:32.000Z</time>
      </trkpt>
      <trkpt lat="45.15431" lon="0.64338">
        <ele>114.59999847412</ele>
        <time>2014-09-04T11:37:33.000Z</time>
      </trkpt>
      <trkpt lat="45.15426" lon="0.64328">
        <ele>113.19999694824</ele>
        <time>2014-09-04T11:37:34.000Z</time>
      </trkpt>
      <trkpt lat="45.15417" lon="0.64305">
        <ele>111.59999847412</ele>
        <time>2014-09-04T11:37:36.000Z</time>
      </trkpt>
      <trkpt lat="45.15406" lon="0.64282">
        <ele>109.40000152588</ele>
        <time>2014-09-04T11:37:38.000Z</time>
      </trkpt>
      <trkpt lat="45.15398" lon="0.64272">
        <ele>108.40000152588</ele>
        <time>2014-09-04T11:37:39.000Z</time>
      </trkpt>
      <trkpt lat="45.1539" lon="0.64266">
        <ele>108</ele>
        <time>2014-09-04T11:37:40.000Z</time>
      </trkpt>
      <trkpt lat="45.15381" lon="0.64263">
        <ele>107.80000305176</ele>
        <time>2014-09-04T11:37:41.000Z</time>
      </trkpt>
      <trkpt lat="45.15372" lon="0.64262">
        <ele>107</ele>
        <time>2014-09-04T11:37:42.000Z</time>
      </trkpt>
      <trkpt lat="45.15363" lon="0.6426">
        <ele>105.80000305176</ele>
        <time>2014-09-04T11:37:43.000Z</time>
      </trkpt>
      <trkpt lat="45.15346" lon="0.64256">
        <ele>105.19999694824</ele>
        <time>2014-09-04T11:37:45.000Z</time>
      </trkpt>
      <trkpt lat="45.15338" lon="0.64252">
        <ele>105.19999694824</ele>
        <time>2014-09-04T11:37:46.000Z</time>
      </trkpt>
      <trkpt lat="45.15316" lon="0.64234">
        <ele>104.80000305176</ele>
        <time>2014-09-04T11:37:49.000Z</time>
      </trkpt>
      <trkpt lat="45.15301" lon="0.64221">
        <ele>103.59999847412</ele>
        <time>2014-09-04T11:37:51.000Z</time>
      </trkpt>
      <trkpt lat="45.15278" lon="0.64202">
        <ele>102.40000152588</ele>
        <time>2014-09-04T11:37:54.000Z</time>
      </trkpt>
      <trkpt lat="45.15256" lon="0.64185">
        <ele>101.59999847412</ele>
        <time>2014-09-04T11:37:57.000Z</time>
      </trkpt>
      <trkpt lat="45.15242" lon="0.64175">
        <ele>101.40000152588</ele>
        <time>2014-09-04T11:37:59.000Z</time>
      </trkpt>
      <trkpt lat="45.15223" lon="0.6416">
        <ele>100.80000305176</ele>
        <time>2014-09-04T11:38:02.000Z</time>
      </trkpt>
      <trkpt lat="45.15202" lon="0.64133">
        <ele>100.40000152588</ele>
        <time>2014-09-04T11:38:06.000Z</time>
      </trkpt>
      <trkpt lat="45.15198" lon="0.64126">
        <ele>100</ele>
        <time>2014-09-04T11:38:07.000Z</time>
      </trkpt>
      <trkpt lat="45.15183" lon="0.64104">
        <ele>99</ele>
        <time>2014-09-04T11:38:10.000Z</time>
      </trkpt>
      <trkpt lat="45.15166" lon="0.64083">
        <ele>98</ele>
        <time>2014-09-04T11:38:13.000Z</time>
      </trkpt>
      <trkpt lat="45.15147" lon="0.64064">
        <ele>96.599998474121</ele>
        <time>2014-09-04T11:38:16.000Z</time>
      </trkpt>
      <trkpt lat="45.15128" lon="0.64047">
        <ele>95.599998474121</ele>
        <time>2014-09-04T11:38:19.000Z</time>
      </trkpt>
      <trkpt lat="45.15121" lon="0.64043">
        <ele>95</ele>
        <time>2014-09-04T11:38:20.000Z</time>
      </trkpt>
      <trkpt lat="45.15085" lon="0.64025">
        <ele>94</ele>
        <time>2014-09-04T11:38:25.000Z</time>
      </trkpt>
      <trkpt lat="45.15078" lon="0.64023">
        <ele>93.599998474121</ele>
        <time>2014-09-04T11:38:26.000Z</time>
      </trkpt>
      <trkpt lat="45.15062" lon="0.6402">
        <ele>92.599998474121</ele>
        <time>2014-09-04T11:38:28.000Z</time>
      </trkpt>
      <trkpt lat="45.1504" lon="0.64016">
        <ele>91</ele>
        <time>2014-09-04T11:38:31.000Z</time>
      </trkpt>
      <trkpt lat="45.15024" lon="0.64013">
        <ele>90.199996948242</ele>
        <time>2014-09-04T11:38:33.000Z</time>
      </trkpt>
      <trkpt lat="45.15008" lon="0.64012">
        <ele>89.599998474121</ele>
        <time>2014-09-04T11:38:35.000Z</time>
      </trkpt>
      <trkpt lat="45.15001" lon="0.6401">
        <ele>89</ele>
        <time>2014-09-04T11:38:36.000Z</time>
      </trkpt>
      <trkpt lat="45.14996" lon="0.64005">
        <ele>88.400001525879</ele>
        <time>2014-09-04T11:38:37.000Z</time>
      </trkpt>
      <trkpt lat="45.14987" lon="0.63984">
        <ele>88.599998474121</ele>
        <time>2014-09-04T11:38:40.000Z</time>
      </trkpt>
      <trkpt lat="45.14986" lon="0.63973">
        <ele>89.599998474121</ele>
        <time>2014-09-04T11:38:42.000Z</time>
      </trkpt>
      <trkpt lat="45.14989" lon="0.63964">
        <ele>90.199996948242</ele>
        <time>2014-09-04T11:38:44.000Z</time>
      </trkpt>
      <trkpt lat="45.14995" lon="0.63957">
        <ele>90.599998474121</ele>
        <time>2014-09-04T11:38:46.000Z</time>
      </trkpt>
      <trkpt lat="45.14999" lon="0.63954">
        <ele>90.599998474121</ele>
        <time>2014-09-04T11:38:47.000Z</time>
      </trkpt>
      <trkpt lat="45.15003" lon="0.63951">
        <ele>90.599998474121</ele>
        <time>2014-09-04T11:38:48.000Z</time>
      </trkpt>
      <trkpt lat="45.15023" lon="0.63928">
        <ele>89.400001525879</ele>
        <time>2014-09-04T11:38:53.000Z</time>
      </trkpt>
      <trkpt lat="45.15044" lon="0.63895">
        <ele>88.400001525879</ele>
        <time>2014-09-04T11:38:58.000Z</time>
      </trkpt>
      <trkpt lat="45.15048" lon="0.63888">
        <ele>88.199996948242</ele>
        <time>2014-09-04T11:38:59.000Z</time>
      </trkpt>
      <trkpt lat="45.15065" lon="0.63857">
        <ele>86.800003051758</ele>
        <time>2014-09-04T11:39:03.000Z</time>
      </trkpt>
      <trkpt lat="45.15081" lon="0.63822">
        <ele>85.599998474121</ele>
        <time>2014-09-04T11:39:07.000Z</time>
      </trkpt>
      <trkpt lat="45.15114" lon="0.63756">
        <ele>85.400001525879</ele>
        <time>2014-09-04T11:39:15.000Z</time>
      </trkpt>
      <trkpt lat="45.15118" lon="0.63748">
        <ele>85.400001525879</ele>
        <time>2014-09-04T11:39:16.000Z</time>
      </trkpt>
      <trkpt lat="45.1515" lon="0.6368">
        <ele>85</ele>
        <time>2014-09-04T11:39:25.000Z</time>
      </trkpt>
      <trkpt lat="45.15154" lon="0.63673">
        <ele>84.800003051758</ele>
        <time>2014-09-04T11:39:26.000Z</time>
      </trkpt>
      <trkpt lat="45.15166" lon="0.63644">
        <ele>84.400001525879</ele>
        <time>2014-09-04T11:39:30.000Z</time>
      </trkpt>
      <trkpt lat="45.15183" lon="0.63609">
        <ele>84.800003051758</ele>
        <time>2014-09-04T11:39:35.000Z</time>
      </trkpt>
      <trkpt lat="45.15204" lon="0.63563">
        <ele>84.800003051758</ele>
        <time>2014-09-04T11:39:42.000Z</time>
      </trkpt>
      <trkpt lat="45.15199" lon="0.63543">
        <ele>84.400001525879</ele>
        <time>2014-09-04T11:39:45.000Z</time>
      </trkpt>
      <trkpt lat="45.15188" lon="0.6353">
        <ele>84.199996948242</ele>
        <time>2014-09-04T11:39:48.000Z</time>
      </trkpt>
      <trkpt lat="45.1518" lon="0.63523">
        <ele>84.199996948242</ele>
        <time>2014-09-04T11:39:50.000Z</time>
      </trkpt>
      <trkpt lat="45.15144" lon="0.63485">
        <ele>84.599998474121</ele>
        <time>2014-09-04T11:39:59.000Z</time>
      </trkpt>
      <trkpt lat="45.15116" lon="0.63469">
        <ele>84.400001525879</ele>
        <time>2014-09-04T11:40:05.000Z</time>
      </trkpt>
      <trkpt lat="45.1508" lon="0.63454">
        <ele>85.199996948242</ele>
        <time>2014-09-04T11:40:13.000Z</time>
      </trkpt>
      <trkpt lat="45.15071" lon="0.63451">
        <ele>85.400001525879</ele>
        <time>2014-09-04T11:40:15.000Z</time>
      </trkpt>
      <trkpt lat="45.15037" lon="0.63433">
        <ele>86</ele>
        <time>2014-09-04T11:40:23.000Z</time>
      </trkpt>
      <trkpt lat="45.15026" lon="0.63424">
        <ele>86.800003051758</ele>
        <time>2014-09-04T11:40:26.000Z</time>
      </trkpt>
      <trkpt lat="45.15014" lon="0.63413">
        <ele>87.400001525879</ele>
        <time>2014-09-04T11:40:29.000Z</time>
      </trkpt>
      <trkpt lat="45.15008" lon="0.63404">
        <ele>87.800003051758</ele>
        <time>2014-09-04T11:40:31.000Z</time>
      </trkpt>
      <trkpt lat="45.14984" lon="0.63372">
        <ele>89</ele>
        <time>2014-09-04T11:40:39.000Z</time>
      </trkpt>
      <trkpt lat="45.1496" lon="0.63341">
        <ele>89.800003051758</ele>
        <time>2014-09-04T11:40:47.000Z</time>
      </trkpt>
      <trkpt lat="45.14952" lon="0.63335">
        <ele>90.199996948242</ele>
        <time>2014-09-04T11:40:49.000Z</time>
      </trkpt>
      <trkpt lat="45.14923" lon="0.63315">
        <ele>90.599998474121</ele>
        <time>2014-09-04T11:40:56.000Z</time>
      </trkpt>
      <trkpt lat="45.14919" lon="0.63312">
        <ele>90.599998474121</ele>
        <time>2014-09-04T11:40:57.000Z</time>
      </trkpt>
      <trkpt lat="45.14904" lon="0.63302">
        <ele>91.199996948242</ele>
        <time>2014-09-04T11:41:01.000Z</time>
      </trkpt>
      <trkpt lat="45.14889" lon="0.63297">
        <ele>92</ele>
        <time>2014-09-04T11:41:05.000Z</time>
      </trkpt>
      <trkpt lat="45.14885" lon="0.63297">
        <ele>92.199996948242</ele>
        <time>2014-09-04T11:41:06.000Z</time>
      </trkpt>
      <trkpt lat="45.14872" lon="0.63297">
        <ele>93.400001525879</ele>
        <time>2014-09-04T11:41:10.000Z</time>
      </trkpt>
      <trkpt lat="45.14867" lon="0.63296">
        <ele>93.599998474121</ele>
        <time>2014-09-04T11:41:12.000Z</time>
      </trkpt>
      <trkpt lat="45.14853" lon="0.633">
        <ele>94.199996948242</ele>
        <time>2014-09-04T11:41:16.000Z</time>
      </trkpt>
      <trkpt lat="45.14848" lon="0.633">
        <ele>94.400001525879</ele>
        <time>2014-09-04T11:41:17.000Z</time>
      </trkpt>
      <trkpt lat="45.14838" lon="0.63298">
        <ele>94.800003051758</ele>
        <time>2014-09-04T11:41:19.000Z</time>
      </trkpt>
      <trkpt lat="45.14807" lon="0.63285">
        <ele>95.599998474121</ele>
        <time>2014-09-04T11:41:26.000Z</time>
      </trkpt>
      <trkpt lat="45.14803" lon="0.63283">
        <ele>96</ele>
        <time>2014-09-04T11:41:27.000Z</time>
      </trkpt>
      <trkpt lat="45.1478" lon="0.63275">
        <ele>96.599998474121</ele>
        <time>2014-09-04T11:41:33.000Z</time>
      </trkpt>
      <trkpt lat="45.14765" lon="0.6327">
        <ele>96.599998474121</ele>
        <time>2014-09-04T11:41:37.000Z</time>
      </trkpt>
      <trkpt lat="45.1473" lon="0.63256">
        <ele>97.400001525879</ele>
        <time>2014-09-04T11:41:46.000Z</time>
      </trkpt>
      <trkpt lat="45.14722" lon="0.63252">
        <ele>97.599998474121</ele>
        <time>2014-09-04T11:41:48.000Z</time>
      </trkpt>
      <trkpt lat="45.14691" lon="0.63238">
        <ele>96.800003051758</ele>
        <time>2014-09-04T11:41:56.000Z</time>
      </trkpt>
      <trkpt lat="45.14661" lon="0.63228">
        <ele>97</ele>
        <time>2014-09-04T11:42:03.000Z</time>
      </trkpt>
      <trkpt lat="45.14652" lon="0.63226">
        <ele>97</ele>
        <time>2014-09-04T11:42:05.000Z</time>
      </trkpt>
      <trkpt lat="45.14634" lon="0.63223">
        <ele>96.800003051758</ele>
        <time>2014-09-04T11:42:09.000Z</time>
      </trkpt>
      <trkpt lat="45.14632" lon="0.63219">
        <ele>96.599998474121</ele>
        <time>2014-09-04T11:42:10.000Z</time>
      </trkpt>
      <trkpt lat="45.14633" lon="0.63202">
        <ele>96.599998474121</ele>
        <time>2014-09-04T11:42:13.000Z</time>
      </trkpt>
      <trkpt lat="45.14632" lon="0.63196">
        <ele>96.599998474121</ele>
        <time>2014-09-04T11:42:14.000Z</time>
      </trkpt>
      <trkpt lat="45.14629" lon="0.63186">
        <ele>96.400001525879</ele>
        <time>2014-09-04T11:42:16.000Z</time>
      </trkpt>
      <trkpt lat="45.14625" lon="0.63179">
        <ele>96.400001525879</ele>
        <time>2014-09-04T11:42:18.000Z</time>
      </trkpt>
      <trkpt lat="45.14611" lon="0.63159">
        <ele>97.599998474121</ele>
        <time>2014-09-04T11:42:24.000Z</time>
      </trkpt>
      <trkpt lat="45.14609" lon="0.63155">
        <ele>97.800003051758</ele>
        <time>2014-09-04T11:42:25.000Z</time>
      </trkpt>
      <trkpt lat="45.14601" lon="0.63144">
        <ele>99</ele>
        <time>2014-09-04T11:42:29.000Z</time>
      </trkpt>
      <trkpt lat="45.14591" lon="0.63134">
        <ele>100</ele>
        <time>2014-09-04T11:42:33.000Z</time>
      </trkpt>
      <trkpt lat="45.1458" lon="0.63127">
        <ele>101</ele>
        <time>2014-09-04T11:42:37.000Z</time>
      </trkpt>
      <trkpt lat="45.14573" lon="0.63123">
        <ele>102</ele>
        <time>2014-09-04T11:42:40.000Z</time>
      </trkpt>
      <trkpt lat="45.1457" lon="0.63122">
        <ele>102.19999694824</ele>
        <time>2014-09-04T11:42:41.000Z</time>
      </trkpt>
      <trkpt lat="45.14563" lon="0.63119">
        <ele>103</ele>
        <time>2014-09-04T11:42:44.000Z</time>
      </trkpt>
      <trkpt lat="45.14552" lon="0.63116">
        <ele>104.19999694824</ele>
        <time>2014-09-04T11:42:48.000Z</time>
      </trkpt>
      <trkpt lat="45.1455" lon="0.63114">
        <ele>104.40000152588</ele>
        <time>2014-09-04T11:42:49.000Z</time>
      </trkpt>
      <trkpt lat="45.1454" lon="0.6311">
        <ele>105.40000152588</ele>
        <time>2014-09-04T11:42:53.000Z</time>
      </trkpt>
      <trkpt lat="45.14532" lon="0.63102">
        <ele>106.40000152588</ele>
        <time>2014-09-04T11:42:57.000Z</time>
      </trkpt>
      <trkpt lat="45.14523" lon="0.63091">
        <ele>107.59999847412</ele>
        <time>2014-09-04T11:43:02.000Z</time>
      </trkpt>
      <trkpt lat="45.14521" lon="0.63088">
        <ele>108</ele>
        <time>2014-09-04T11:43:03.000Z</time>
      </trkpt>
      <trkpt lat="45.14517" lon="0.63083">
        <ele>108.80000305176</ele>
        <time>2014-09-04T11:43:05.000Z</time>
      </trkpt>
      <trkpt lat="45.14509" lon="0.63073">
        <ele>109.80000305176</ele>
        <time>2014-09-04T11:43:09.000Z</time>
      </trkpt>
      <trkpt lat="45.14503" lon="0.63067">
        <ele>110.59999847412</ele>
        <time>2014-09-04T11:43:12.000Z</time>
      </trkpt>
      <trkpt lat="45.145" lon="0.63062">
        <ele>111</ele>
        <time>2014-09-04T11:43:14.000Z</time>
      </trkpt>
      <trkpt lat="45.14486" lon="0.63045">
        <ele>111.80000305176</ele>
        <time>2014-09-04T11:43:21.000Z</time>
      </trkpt>
      <trkpt lat="45.14483" lon="0.63041">
        <ele>112.19999694824</ele>
        <time>2014-09-04T11:43:23.000Z</time>
      </trkpt>
      <trkpt lat="45.14474" lon="0.6303">
        <ele>113.40000152588</ele>
        <time>2014-09-04T11:43:28.000Z</time>
      </trkpt>
      <trkpt lat="45.14472" lon="0.63027">
        <ele>113.59999847412</ele>
        <time>2014-09-04T11:43:29.000Z</time>
      </trkpt>
      <trkpt lat="45.14464" lon="0.63018">
        <ele>114.40000152588</ele>
        <time>2014-09-04T11:43:33.000Z</time>
      </trkpt>
      <trkpt lat="45.14453" lon="0.63004">
        <ele>115.59999847412</ele>
        <time>2014-09-04T11:43:39.000Z</time>
      </trkpt>
      <trkpt lat="45.1444" lon="0.62988">
        <ele>116.59999847412</ele>
        <time>2014-09-04T11:43:46.000Z</time>
      </trkpt>
      <trkpt lat="45.14436" lon="0.62983">
        <ele>116.80000305176</ele>
        <time>2014-09-04T11:43:48.000Z</time>
      </trkpt>
      <trkpt lat="45.14424" lon="0.6297">
        <ele>117.59999847412</ele>
        <time>2014-09-04T11:43:54.000Z</time>
      </trkpt>
      <trkpt lat="45.14417" lon="0.62962">
        <ele>118</ele>
        <time>2014-09-04T11:43:58.000Z</time>
      </trkpt>
      <trkpt lat="45.14409" lon="0.62953">
        <ele>118.80000305176</ele>
        <time>2014-09-04T11:44:03.000Z</time>
      </trkpt>
      <trkpt lat="45.14405" lon="0.62948">
        <ele>119</ele>
        <time>2014-09-04T11:44:06.000Z</time>
      </trkpt>
      <trkpt lat="45.14399" lon="0.62939">
        <ele>119.80000305176</ele>
        <time>2014-09-04T11:44:10.000Z</time>
      </trkpt>
      <trkpt lat="45.14392" lon="0.6293">
        <ele>120.59999847412</ele>
        <time>2014-09-04T11:44:14.000Z</time>
      </trkpt>
      <trkpt lat="45.14389" lon="0.62926">
        <ele>120.80000305176</ele>
        <time>2014-09-04T11:44:16.000Z</time>
      </trkpt>
      <trkpt lat="45.14381" lon="0.62914">
        <ele>122</ele>
        <time>2014-09-04T11:44:22.000Z</time>
      </trkpt>
      <trkpt lat="45.14371" lon="0.62902">
        <ele>123</ele>
        <time>2014-09-04T11:44:28.000Z</time>
      </trkpt>
      <trkpt lat="45.14368" lon="0.62896">
        <ele>123.40000152588</ele>
        <time>2014-09-04T11:44:31.000Z</time>
      </trkpt>
      <trkpt lat="45.1436" lon="0.62885">
        <ele>124.19999694824</ele>
        <time>2014-09-04T11:44:37.000Z</time>
      </trkpt>
      <trkpt lat="45.14357" lon="0.62881">
        <ele>124.59999847412</ele>
        <time>2014-09-04T11:44:39.000Z</time>
      </trkpt>
      <trkpt lat="45.14354" lon="0.62875">
        <ele>125.19999694824</ele>
        <time>2014-09-04T11:44:42.000Z</time>
      </trkpt>
      <trkpt lat="45.14348" lon="0.62868">
        <ele>125.80000305176</ele>
        <time>2014-09-04T11:44:46.000Z</time>
      </trkpt>
      <trkpt lat="45.14344" lon="0.62863">
        <ele>126.40000152588</ele>
        <time>2014-09-04T11:44:49.000Z</time>
      </trkpt>
      <trkpt lat="45.14339" lon="0.62857">
        <ele>127.19999694824</ele>
        <time>2014-09-04T11:44:53.000Z</time>
      </trkpt>
      <trkpt lat="45.14335" lon="0.62852">
        <ele>127.40000152588</ele>
        <time>2014-09-04T11:44:56.000Z</time>
      </trkpt>
      <trkpt lat="45.14329" lon="0.62844">
        <ele>128.60000610352</ele>
        <time>2014-09-04T11:45:01.000Z</time>
      </trkpt>
      <trkpt lat="45.14322" lon="0.62836">
        <ele>129.60000610352</ele>
        <time>2014-09-04T11:45:06.000Z</time>
      </trkpt>
      <trkpt lat="45.14315" lon="0.62828">
        <ele>130.60000610352</ele>
        <time>2014-09-04T11:45:11.000Z</time>
      </trkpt>
      <trkpt lat="45.14313" lon="0.62827">
        <ele>130.80000305176</ele>
        <time>2014-09-04T11:45:12.000Z</time>
      </trkpt>
      <trkpt lat="45.14305" lon="0.62819">
        <ele>131.80000305176</ele>
        <time>2014-09-04T11:45:18.000Z</time>
      </trkpt>
      <trkpt lat="45.14303" lon="0.62818">
        <ele>132</ele>
        <time>2014-09-04T11:45:19.000Z</time>
      </trkpt>
      <trkpt lat="45.14292" lon="0.62812">
        <ele>133</ele>
        <time>2014-09-04T11:45:26.000Z</time>
      </trkpt>
      <trkpt lat="45.14285" lon="0.62812">
        <ele>133.60000610352</ele>
        <time>2014-09-04T11:45:30.000Z</time>
      </trkpt>
      <trkpt lat="45.14281" lon="0.62812">
        <ele>134</ele>
        <time>2014-09-04T11:45:32.000Z</time>
      </trkpt>
      <trkpt lat="45.14276" lon="0.62812">
        <ele>134.60000610352</ele>
        <time>2014-09-04T11:45:35.000Z</time>
      </trkpt>
      <trkpt lat="45.14272" lon="0.62812">
        <ele>135.19999694824</ele>
        <time>2014-09-04T11:45:37.000Z</time>
      </trkpt>
      <trkpt lat="45.14259" lon="0.6281">
        <ele>135.80000305176</ele>
        <time>2014-09-04T11:45:44.000Z</time>
      </trkpt>
      <trkpt lat="45.14256" lon="0.62809">
        <ele>136.19999694824</ele>
        <time>2014-09-04T11:45:46.000Z</time>
      </trkpt>
      <trkpt lat="45.14245" lon="0.62802">
        <ele>137</ele>
        <time>2014-09-04T11:45:52.000Z</time>
      </trkpt>
      <trkpt lat="45.14244" lon="0.62801">
        <ele>137.19999694824</ele>
        <time>2014-09-04T11:45:53.000Z</time>
      </trkpt>
      <trkpt lat="45.14237" lon="0.62792">
        <ele>138.39999389648</ele>
        <time>2014-09-04T11:45:58.000Z</time>
      </trkpt>
      <trkpt lat="45.14233" lon="0.62788">
        <ele>138.80000305176</ele>
        <time>2014-09-04T11:46:01.000Z</time>
      </trkpt>
      <trkpt lat="45.14229" lon="0.62783">
        <ele>139.60000610352</ele>
        <time>2014-09-04T11:46:04.000Z</time>
      </trkpt>
      <trkpt lat="45.14222" lon="0.62776">
        <ele>140.39999389648</ele>
        <time>2014-09-04T11:46:09.000Z</time>
      </trkpt>
      <trkpt lat="45.14219" lon="0.62773">
        <ele>140.80000305176</ele>
        <time>2014-09-04T11:46:11.000Z</time>
      </trkpt>
      <trkpt lat="45.1421" lon="0.62765">
        <ele>141.80000305176</ele>
        <time>2014-09-04T11:46:17.000Z</time>
      </trkpt>
      <trkpt lat="45.14209" lon="0.62764">
        <ele>142</ele>
        <time>2014-09-04T11:46:18.000Z</time>
      </trkpt>
      <trkpt lat="45.14202" lon="0.62757">
        <ele>143</ele>
        <time>2014-09-04T11:46:23.000Z</time>
      </trkpt>
      <trkpt lat="45.14199" lon="0.62755">
        <ele>143.39999389648</ele>
        <time>2014-09-04T11:46:25.000Z</time>
      </trkpt>
      <trkpt lat="45.14192" lon="0.62749">
        <ele>144.19999694824</ele>
        <time>2014-09-04T11:46:30.000Z</time>
      </trkpt>
      <trkpt lat="45.14187" lon="0.62745">
        <ele>144.80000305176</ele>
        <time>2014-09-04T11:46:33.000Z</time>
      </trkpt>
      <trkpt lat="45.14184" lon="0.62742">
        <ele>145.19999694824</ele>
        <time>2014-09-04T11:46:35.000Z</time>
      </trkpt>
      <trkpt lat="45.14177" lon="0.62739">
        <ele>146.39999389648</ele>
        <time>2014-09-04T11:46:39.000Z</time>
      </trkpt>
      <trkpt lat="45.14174" lon="0.62737">
        <ele>146.60000610352</ele>
        <time>2014-09-04T11:46:41.000Z</time>
      </trkpt>
      <trkpt lat="45.14167" lon="0.62735">
        <ele>147.60000610352</ele>
        <time>2014-09-04T11:46:45.000Z</time>
      </trkpt>
      <trkpt lat="45.14158" lon="0.62735">
        <ele>148.60000610352</ele>
        <time>2014-09-04T11:46:50.000Z</time>
      </trkpt>
      <trkpt lat="45.14148" lon="0.62737">
        <ele>149.80000305176</ele>
        <time>2014-09-04T11:46:56.000Z</time>
      </trkpt>
      <trkpt lat="45.14143" lon="0.62737">
        <ele>150.19999694824</ele>
        <time>2014-09-04T11:46:59.000Z</time>
      </trkpt>
      <trkpt lat="45.14138" lon="0.62735">
        <ele>151</ele>
        <time>2014-09-04T11:47:03.000Z</time>
      </trkpt>
      <trkpt lat="45.14131" lon="0.62731">
        <ele>152</ele>
        <time>2014-09-04T11:47:09.000Z</time>
      </trkpt>
      <trkpt lat="45.14123" lon="0.62725">
        <ele>153</ele>
        <time>2014-09-04T11:47:15.000Z</time>
      </trkpt>
      <trkpt lat="45.1412" lon="0.62723">
        <ele>153.39999389648</ele>
        <time>2014-09-04T11:47:17.000Z</time>
      </trkpt>
      <trkpt lat="45.14115" lon="0.62719">
        <ele>154.19999694824</ele>
        <time>2014-09-04T11:47:21.000Z</time>
      </trkpt>
      <trkpt lat="45.14107" lon="0.62715">
        <ele>155.19999694824</ele>
        <time>2014-09-04T11:47:26.000Z</time>
      </trkpt>
      <trkpt lat="45.14105" lon="0.62714">
        <ele>155.80000305176</ele>
        <time>2014-09-04T11:47:27.000Z</time>
      </trkpt>
      <trkpt lat="45.14097" lon="0.62713">
        <ele>156.80000305176</ele>
        <time>2014-09-04T11:47:32.000Z</time>
      </trkpt>
      <trkpt lat="45.14096" lon="0.62714">
        <ele>157.19999694824</ele>
        <time>2014-09-04T11:47:33.000Z</time>
      </trkpt>
      <trkpt lat="45.14092" lon="0.62717">
        <ele>158</ele>
        <time>2014-09-04T11:47:36.000Z</time>
      </trkpt>
      <trkpt lat="45.14089" lon="0.62725">
        <ele>159</ele>
        <time>2014-09-04T11:47:40.000Z</time>
      </trkpt>
      <trkpt lat="45.14084" lon="0.62734">
        <ele>160.19999694824</ele>
        <time>2014-09-04T11:47:46.000Z</time>
      </trkpt>
      <trkpt lat="45.14083" lon="0.62736">
        <ele>160.19999694824</ele>
        <time>2014-09-04T11:47:47.000Z</time>
      </trkpt>
      <trkpt lat="45.14075" lon="0.62754">
        <ele>161</ele>
        <time>2014-09-04T11:47:55.000Z</time>
      </trkpt>
      <trkpt lat="45.14073" lon="0.62759">
        <ele>161.19999694824</ele>
        <time>2014-09-04T11:47:57.000Z</time>
      </trkpt>
      <trkpt lat="45.14066" lon="0.62772">
        <ele>161.60000610352</ele>
        <time>2014-09-04T11:48:03.000Z</time>
      </trkpt>
      <trkpt lat="45.1406" lon="0.62781">
        <ele>162.19999694824</ele>
        <time>2014-09-04T11:48:09.000Z</time>
      </trkpt>
      <trkpt lat="45.14059" lon="0.62781">
        <ele>162.39999389648</ele>
        <time>2014-09-04T11:48:10.000Z</time>
      </trkpt>
      <trkpt lat="45.14055" lon="0.62783">
        <ele>162.80000305176</ele>
        <time>2014-09-04T11:48:13.000Z</time>
      </trkpt>
      <trkpt lat="45.14053" lon="0.62783">
        <ele>163.19999694824</ele>
        <time>2014-09-04T11:48:15.000Z</time>
      </trkpt>
      <trkpt lat="45.14049" lon="0.62785">
        <ele>164</ele>
        <time>2014-09-04T11:48:18.000Z</time>
      </trkpt>
      <trkpt lat="45.14044" lon="0.62787">
        <ele>164.80000305176</ele>
        <time>2014-09-04T11:48:23.000Z</time>
      </trkpt>
      <trkpt lat="45.14036" lon="0.6279">
        <ele>165.39999389648</ele>
        <time>2014-09-04T11:48:27.000Z</time>
      </trkpt>
      <trkpt lat="45.14035" lon="0.62791">
        <ele>165.60000610352</ele>
        <time>2014-09-04T11:48:28.000Z</time>
      </trkpt>
      <trkpt lat="45.14033" lon="0.62792">
        <ele>165.80000305176</ele>
        <time>2014-09-04T11:48:29.000Z</time>
      </trkpt>
      <trkpt lat="45.14025" lon="0.62795">
        <ele>166.39999389648</ele>
        <time>2014-09-04T11:48:33.000Z</time>
      </trkpt>
      <trkpt lat="45.14021" lon="0.62797">
        <ele>166.80000305176</ele>
        <time>2014-09-04T11:48:35.000Z</time>
      </trkpt>
      <trkpt lat="45.14017" lon="0.628">
        <ele>167.60000610352</ele>
        <time>2014-09-04T11:48:38.000Z</time>
      </trkpt>
      <trkpt lat="45.14009" lon="0.62803">
        <ele>168.60000610352</ele>
        <time>2014-09-04T11:48:43.000Z</time>
      </trkpt>
      <trkpt lat="45.14001" lon="0.62807">
        <ele>169.80000305176</ele>
        <time>2014-09-04T11:48:48.000Z</time>
      </trkpt>
      <trkpt lat="45.13992" lon="0.62809">
        <ele>170.80000305176</ele>
        <time>2014-09-04T11:48:52.000Z</time>
      </trkpt>
      <trkpt lat="45.13981" lon="0.62813">
        <ele>171.80000305176</ele>
        <time>2014-09-04T11:48:58.000Z</time>
      </trkpt>
      <trkpt lat="45.13977" lon="0.62815">
        <ele>172</ele>
        <time>2014-09-04T11:49:00.000Z</time>
      </trkpt>
      <trkpt lat="45.13964" lon="0.62817">
        <ele>172.80000305176</ele>
        <time>2014-09-04T11:49:05.000Z</time>
      </trkpt>
      <trkpt lat="45.1396" lon="0.62817">
        <ele>173.19999694824</ele>
        <time>2014-09-04T11:49:06.000Z</time>
      </trkpt>
      <trkpt lat="45.13954" lon="0.62813">
        <ele>174</ele>
        <time>2014-09-04T11:49:09.000Z</time>
      </trkpt>
      <trkpt lat="45.13946" lon="0.6281">
        <ele>175</ele>
        <time>2014-09-04T11:49:12.000Z</time>
      </trkpt>
      <trkpt lat="45.13944" lon="0.6281">
        <ele>175.19999694824</ele>
        <time>2014-09-04T11:49:13.000Z</time>
      </trkpt>
      <trkpt lat="45.13933" lon="0.62806">
        <ele>176.39999389648</ele>
        <time>2014-09-04T11:49:18.000Z</time>
      </trkpt>
      <trkpt lat="45.13931" lon="0.62805">
        <ele>176.39999389648</ele>
        <time>2014-09-04T11:49:19.000Z</time>
      </trkpt>
      <trkpt lat="45.13913" lon="0.62799">
        <ele>177.60000610352</ele>
        <time>2014-09-04T11:49:27.000Z</time>
      </trkpt>
      <trkpt lat="45.13893" lon="0.62793">
        <ele>178.60000610352</ele>
        <time>2014-09-04T11:49:37.000Z</time>
      </trkpt>
      <trkpt lat="45.13889" lon="0.62792">
        <ele>178.80000305176</ele>
        <time>2014-09-04T11:49:39.000Z</time>
      </trkpt>
      <trkpt lat="45.13873" lon="0.62786">
        <ele>180</ele>
        <time>2014-09-04T11:49:46.000Z</time>
      </trkpt>
      <trkpt lat="45.13869" lon="0.62785">
        <ele>180.19999694824</ele>
        <time>2014-09-04T11:49:48.000Z</time>
      </trkpt>
      <trkpt lat="45.13856" lon="0.6278">
        <ele>181</ele>
        <time>2014-09-04T11:49:54.000Z</time>
      </trkpt>
      <trkpt lat="45.13854" lon="0.6278">
        <ele>181</ele>
        <time>2014-09-04T11:49:55.000Z</time>
      </trkpt>
      <trkpt lat="45.13834" lon="0.62774">
        <ele>182</ele>
        <time>2014-09-04T11:50:03.000Z</time>
      </trkpt>
      <trkpt lat="45.13814" lon="0.62768">
        <ele>183.19999694824</ele>
        <time>2014-09-04T11:50:11.000Z</time>
      </trkpt>
      <trkpt lat="45.13785" lon="0.62754">
        <ele>183.80000305176</ele>
        <time>2014-09-04T11:50:22.000Z</time>
      </trkpt>
      <trkpt lat="45.13775" lon="0.62749">
        <ele>184.19999694824</ele>
        <time>2014-09-04T11:50:26.000Z</time>
      </trkpt>
      <trkpt lat="45.13762" lon="0.62743">
        <ele>184.60000610352</ele>
        <time>2014-09-04T11:50:31.000Z</time>
      </trkpt>
      <trkpt lat="45.13745" lon="0.62739">
        <ele>185.19999694824</ele>
        <time>2014-09-04T11:50:37.000Z</time>
      </trkpt>
      <trkpt lat="45.13739" lon="0.62739">
        <ele>185.60000610352</ele>
        <time>2014-09-04T11:50:39.000Z</time>
      </trkpt>
      <trkpt lat="45.13709" lon="0.6274">
        <ele>186.19999694824</ele>
        <time>2014-09-04T11:50:49.000Z</time>
      </trkpt>
      <trkpt lat="45.13695" lon="0.62743">
        <ele>186.19999694824</ele>
        <time>2014-09-04T11:50:53.000Z</time>
      </trkpt>
      <trkpt lat="45.13673" lon="0.62748">
        <ele>186.80000305176</ele>
        <time>2014-09-04T11:50:59.000Z</time>
      </trkpt>
      <trkpt lat="45.13639" lon="0.62754">
        <ele>187.39999389648</ele>
        <time>2014-09-04T11:51:08.000Z</time>
      </trkpt>
      <trkpt lat="45.13616" lon="0.62758">
        <ele>187.39999389648</ele>
        <time>2014-09-04T11:51:14.000Z</time>
      </trkpt>
      <trkpt lat="45.13589" lon="0.62777">
        <ele>186.80000305176</ele>
        <time>2014-09-04T11:51:21.000Z</time>
      </trkpt>
      <trkpt lat="45.13555" lon="0.62804">
        <ele>187</ele>
        <time>2014-09-04T11:51:30.000Z</time>
      </trkpt>
      <trkpt lat="45.1354" lon="0.62819">
        <ele>186.39999389648</ele>
        <time>2014-09-04T11:51:34.000Z</time>
      </trkpt>
      <trkpt lat="45.13529" lon="0.6283">
        <ele>186.39999389648</ele>
        <time>2014-09-04T11:51:37.000Z</time>
      </trkpt>
      <trkpt lat="45.13526" lon="0.62833">
        <ele>186.39999389648</ele>
        <time>2014-09-04T11:51:38.000Z</time>
      </trkpt>
      <trkpt lat="45.13496" lon="0.62859">
        <ele>185.80000305176</ele>
        <time>2014-09-04T11:51:46.000Z</time>
      </trkpt>
      <trkpt lat="45.13484" lon="0.62867">
        <ele>185</ele>
        <time>2014-09-04T11:51:49.000Z</time>
      </trkpt>
      <trkpt lat="45.13463" lon="0.62882">
        <ele>184.19999694824</ele>
        <time>2014-09-04T11:51:54.000Z</time>
      </trkpt>
      <trkpt lat="45.13434" lon="0.62907">
        <ele>184</ele>
        <time>2014-09-04T11:52:01.000Z</time>
      </trkpt>
      <trkpt lat="45.13425" lon="0.62915">
        <ele>183.60000610352</ele>
        <time>2014-09-04T11:52:03.000Z</time>
      </trkpt>
      <trkpt lat="45.13405" lon="0.62933">
        <ele>183</ele>
        <time>2014-09-04T11:52:07.000Z</time>
      </trkpt>
      <trkpt lat="45.13385" lon="0.62953">
        <ele>181.80000305176</ele>
        <time>2014-09-04T11:52:11.000Z</time>
      </trkpt>
      <trkpt lat="45.13361" lon="0.62976">
        <ele>180.60000610352</ele>
        <time>2014-09-04T11:52:15.000Z</time>
      </trkpt>
      <trkpt lat="45.13343" lon="0.62993">
        <ele>179.39999389648</ele>
        <time>2014-09-04T11:52:18.000Z</time>
      </trkpt>
      <trkpt lat="45.13292" lon="0.6304">
        <ele>178.39999389648</ele>
        <time>2014-09-04T11:52:26.000Z</time>
      </trkpt>
      <trkpt lat="45.13286" lon="0.63045">
        <ele>178.19999694824</ele>
        <time>2014-09-04T11:52:27.000Z</time>
      </trkpt>
      <trkpt lat="45.13249" lon="0.63071">
        <ele>177.39999389648</ele>
        <time>2014-09-04T11:52:33.000Z</time>
      </trkpt>
      <trkpt lat="45.13238" lon="0.63079">
        <ele>177.19999694824</ele>
        <time>2014-09-04T11:52:35.000Z</time>
      </trkpt>
      <trkpt lat="45.13217" lon="0.63091">
        <ele>177.19999694824</ele>
        <time>2014-09-04T11:52:39.000Z</time>
      </trkpt>
      <trkpt lat="45.13177" lon="0.63112">
        <ele>177.60000610352</ele>
        <time>2014-09-04T11:52:47.000Z</time>
      </trkpt>
      <trkpt lat="45.13153" lon="0.6312">
        <ele>178.19999694824</ele>
        <time>2014-09-04T11:52:53.000Z</time>
      </trkpt>
      <trkpt lat="45.13137" lon="0.63126">
        <ele>179.39999389648</ele>
        <time>2014-09-04T11:52:58.000Z</time>
      </trkpt>
      <trkpt lat="45.13131" lon="0.63127">
        <ele>180.19999694824</ele>
        <time>2014-09-04T11:53:00.000Z</time>
      </trkpt>
      <trkpt lat="45.13129" lon="0.63128">
        <ele>180.60000610352</ele>
        <time>2014-09-04T11:53:01.000Z</time>
      </trkpt>
      <trkpt lat="45.13125" lon="0.63133">
        <ele>181.39999389648</ele>
        <time>2014-09-04T11:53:03.000Z</time>
      </trkpt>
      <trkpt lat="45.13124" lon="0.63137">
        <ele>181.60000610352</ele>
        <time>2014-09-04T11:53:04.000Z</time>
      </trkpt>
      <trkpt lat="45.13123" lon="0.63155">
        <ele>182.80000305176</ele>
        <time>2014-09-04T11:53:08.000Z</time>
      </trkpt>
      <trkpt lat="45.13123" lon="0.63164">
        <ele>183.19999694824</ele>
        <time>2014-09-04T11:53:10.000Z</time>
      </trkpt>
      <trkpt lat="45.13122" lon="0.63189">
        <ele>183.60000610352</ele>
        <time>2014-09-04T11:53:17.000Z</time>
      </trkpt>
      <trkpt lat="45.13127" lon="0.6322">
        <ele>183.19999694824</ele>
        <time>2014-09-04T11:53:24.000Z</time>
      </trkpt>
      <trkpt lat="45.13133" lon="0.63246">
        <ele>181.39999389648</ele>
        <time>2014-09-04T11:53:29.000Z</time>
      </trkpt>
      <trkpt lat="45.13138" lon="0.63258">
        <ele>180.19999694824</ele>
        <time>2014-09-04T11:53:31.000Z</time>
      </trkpt>
      <trkpt lat="45.13139" lon="0.63265">
        <ele>179.80000305176</ele>
        <time>2014-09-04T11:53:32.000Z</time>
      </trkpt>
      <trkpt lat="45.13137" lon="0.6329">
        <ele>180.19999694824</ele>
        <time>2014-09-04T11:53:35.000Z</time>
      </trkpt>
      <trkpt lat="45.13132" lon="0.63327">
        <ele>181.19999694824</ele>
        <time>2014-09-04T11:53:40.000Z</time>
      </trkpt>
      <trkpt lat="45.13136" lon="0.63371">
        <ele>180.80000305176</ele>
        <time>2014-09-04T11:53:46.000Z</time>
      </trkpt>
      <trkpt lat="45.13144" lon="0.63395">
        <ele>180.19999694824</ele>
        <time>2014-09-04T11:53:49.000Z</time>
      </trkpt>
      <trkpt lat="45.1315" lon="0.63411">
        <ele>179.60000610352</ele>
        <time>2014-09-04T11:53:51.000Z</time>
      </trkpt>
      <trkpt lat="45.13153" lon="0.63425">
        <ele>179.19999694824</ele>
        <time>2014-09-04T11:53:53.000Z</time>
      </trkpt>
      <trkpt lat="45.13154" lon="0.63432">
        <ele>179.19999694824</ele>
        <time>2014-09-04T11:53:54.000Z</time>
      </trkpt>
      <trkpt lat="45.13153" lon="0.63438">
        <ele>179.19999694824</ele>
        <time>2014-09-04T11:53:55.000Z</time>
      </trkpt>
      <trkpt lat="45.13146" lon="0.63457">
        <ele>179.60000610352</ele>
        <time>2014-09-04T11:53:59.000Z</time>
      </trkpt>
      <trkpt lat="45.13142" lon="0.63464">
        <ele>180.19999694824</ele>
        <time>2014-09-04T11:54:01.000Z</time>
      </trkpt>
      <trkpt lat="45.13138" lon="0.63477">
        <ele>181.19999694824</ele>
        <time>2014-09-04T11:54:05.000Z</time>
      </trkpt>
      <trkpt lat="45.13139" lon="0.63487">
        <ele>180.60000610352</ele>
        <time>2014-09-04T11:54:08.000Z</time>
      </trkpt>
      <trkpt lat="45.13143" lon="0.63495">
        <ele>180</ele>
        <time>2014-09-04T11:54:10.000Z</time>
      </trkpt>
      <trkpt lat="45.13148" lon="0.63508">
        <ele>179</ele>
        <time>2014-09-04T11:54:13.000Z</time>
      </trkpt>
      <trkpt lat="45.13154" lon="0.63523">
        <ele>178.19999694824</ele>
        <time>2014-09-04T11:54:16.000Z</time>
      </trkpt>
      <trkpt lat="45.13156" lon="0.63534">
        <ele>177.80000305176</ele>
        <time>2014-09-04T11:54:18.000Z</time>
      </trkpt>
      <trkpt lat="45.13157" lon="0.63544">
        <ele>177</ele>
        <time>2014-09-04T11:54:20.000Z</time>
      </trkpt>
      <trkpt lat="45.13158" lon="0.63549">
        <ele>176.60000610352</ele>
        <time>2014-09-04T11:54:21.000Z</time>
      </trkpt>
      <trkpt lat="45.13157" lon="0.63564">
        <ele>175.80000305176</ele>
        <time>2014-09-04T11:54:26.000Z</time>
      </trkpt>
      <trkpt lat="45.13154" lon="0.63567">
        <ele>176.19999694824</ele>
        <time>2014-09-04T11:54:28.000Z</time>
      </trkpt>
      <trkpt lat="45.13148" lon="0.63572">
        <ele>176.80000305176</ele>
        <time>2014-09-04T11:54:31.000Z</time>
      </trkpt>
      <trkpt lat="45.13136" lon="0.63579">
        <ele>176.80000305176</ele>
        <time>2014-09-04T11:54:36.000Z</time>
      </trkpt>
      <trkpt lat="45.13134" lon="0.63579">
        <ele>176.80000305176</ele>
        <time>2014-09-04T11:54:37.000Z</time>
      </trkpt>
      <trkpt lat="45.13114" lon="0.63585">
        <ele>176.39999389648</ele>
        <time>2014-09-04T11:54:43.000Z</time>
      </trkpt>
      <trkpt lat="45.13107" lon="0.63591">
        <ele>175.19999694824</ele>
        <time>2014-09-04T11:54:45.000Z</time>
      </trkpt>
      <trkpt lat="45.131" lon="0.63595">
        <ele>174.60000610352</ele>
        <time>2014-09-04T11:54:47.000Z</time>
      </trkpt>
      <trkpt lat="45.13096" lon="0.63597">
        <ele>174.19999694824</ele>
        <time>2014-09-04T11:54:48.000Z</time>
      </trkpt>
      <trkpt lat="45.13091" lon="0.63598">
        <ele>174</ele>
        <time>2014-09-04T11:54:49.000Z</time>
      </trkpt>
      <trkpt lat="45.13076" lon="0.63603">
        <ele>173</ele>
        <time>2014-09-04T11:54:52.000Z</time>
      </trkpt>
      <trkpt lat="45.13074" lon="0.63603">
        <ele>172.60000610352</ele>
        <time>2014-09-04T11:54:53.000Z</time>
      </trkpt>
      <trkpt lat="45.13068" lon="0.63604">
        <ele>172.39999389648</ele>
        <time>2014-09-04T11:54:56.000Z</time>
      </trkpt>
      <trkpt lat="45.13054" lon="0.63602">
        <ele>172</ele>
        <time>2014-09-04T11:55:02.000Z</time>
      </trkpt>
      <trkpt lat="45.1305" lon="0.63603">
        <ele>171.60000610352</ele>
        <time>2014-09-04T11:55:04.000Z</time>
      </trkpt>
      <trkpt lat="45.13045" lon="0.63607">
        <ele>170.39999389648</ele>
        <time>2014-09-04T11:55:06.000Z</time>
      </trkpt>
      <trkpt lat="45.13039" lon="0.63611">
        <ele>169.19999694824</ele>
        <time>2014-09-04T11:55:08.000Z</time>
      </trkpt>
      <trkpt lat="45.1303" lon="0.63613">
        <ele>168</ele>
        <time>2014-09-04T11:55:11.000Z</time>
      </trkpt>
      <trkpt lat="45.13022" lon="0.63617">
        <ele>167</ele>
        <time>2014-09-04T11:55:13.000Z</time>
      </trkpt>
      <trkpt lat="45.13013" lon="0.63625">
        <ele>165</ele>
        <time>2014-09-04T11:55:15.000Z</time>
      </trkpt>
      <trkpt lat="45.13008" lon="0.63629">
        <ele>164</ele>
        <time>2014-09-04T11:55:16.000Z</time>
      </trkpt>
      <trkpt lat="45.13004" lon="0.63631">
        <ele>163</ele>
        <time>2014-09-04T11:55:17.000Z</time>
      </trkpt>
      <trkpt lat="45.12997" lon="0.63635">
        <ele>161.19999694824</ele>
        <time>2014-09-04T11:55:19.000Z</time>
      </trkpt>
      <trkpt lat="45.12993" lon="0.63637">
        <ele>159.80000305176</ele>
        <time>2014-09-04T11:55:21.000Z</time>
      </trkpt>
      <trkpt lat="45.1299" lon="0.63637">
        <ele>159.39999389648</ele>
        <time>2014-09-04T11:55:22.000Z</time>
      </trkpt>
      <trkpt lat="45.12985" lon="0.63638">
        <ele>158.60000610352</ele>
        <time>2014-09-04T11:55:24.000Z</time>
      </trkpt>
      <trkpt lat="45.12979" lon="0.63642">
        <ele>156.80000305176</ele>
        <time>2014-09-04T11:55:27.000Z</time>
      </trkpt>
      <trkpt lat="45.12976" lon="0.63645">
        <ele>154.80000305176</ele>
        <time>2014-09-04T11:55:28.000Z</time>
      </trkpt>
      <trkpt lat="45.12974" lon="0.63648">
        <ele>153.60000610352</ele>
        <time>2014-09-04T11:55:29.000Z</time>
      </trkpt>
      <trkpt lat="45.12968" lon="0.63651">
        <ele>152.39999389648</ele>
        <time>2014-09-04T11:55:30.000Z</time>
      </trkpt>
      <trkpt lat="45.12962" lon="0.63654">
        <ele>151</ele>
        <time>2014-09-04T11:55:31.000Z</time>
      </trkpt>
      <trkpt lat="45.12956" lon="0.63658">
        <ele>149.39999389648</ele>
        <time>2014-09-04T11:55:32.000Z</time>
      </trkpt>
      <trkpt lat="45.12947" lon="0.63666">
        <ele>148</ele>
        <time>2014-09-04T11:55:33.000Z</time>
      </trkpt>
      <trkpt lat="45.1294" lon="0.63673">
        <ele>146.19999694824</ele>
        <time>2014-09-04T11:55:34.000Z</time>
      </trkpt>
      <trkpt lat="45.12933" lon="0.6368">
        <ele>144.60000610352</ele>
        <time>2014-09-04T11:55:35.000Z</time>
      </trkpt>
      <trkpt lat="45.12924" lon="0.63688">
        <ele>143</ele>
        <time>2014-09-04T11:55:36.000Z</time>
      </trkpt>
      <trkpt lat="45.12915" lon="0.63698">
        <ele>141.80000305176</ele>
        <time>2014-09-04T11:55:37.000Z</time>
      </trkpt>
      <trkpt lat="45.12908" lon="0.63713">
        <ele>141</ele>
        <time>2014-09-04T11:55:38.000Z</time>
      </trkpt>
      <trkpt lat="45.12903" lon="0.63728">
        <ele>140.19999694824</ele>
        <time>2014-09-04T11:55:39.000Z</time>
      </trkpt>
      <trkpt lat="45.12893" lon="0.63755">
        <ele>140.19999694824</ele>
        <time>2014-09-04T11:55:41.000Z</time>
      </trkpt>
      <trkpt lat="45.12881" lon="0.63777">
        <ele>141</ele>
        <time>2014-09-04T11:55:43.000Z</time>
      </trkpt>
      <trkpt lat="45.12876" lon="0.63786">
        <ele>141</ele>
        <time>2014-09-04T11:55:44.000Z</time>
      </trkpt>
      <trkpt lat="45.1287" lon="0.63792">
        <ele>141.19999694824</ele>
        <time>2014-09-04T11:55:45.000Z</time>
      </trkpt>
      <trkpt lat="45.12865" lon="0.63797">
        <ele>141.39999389648</ele>
        <time>2014-09-04T11:55:46.000Z</time>
      </trkpt>
      <trkpt lat="45.1286" lon="0.63801">
        <ele>141.80000305176</ele>
        <time>2014-09-04T11:55:47.000Z</time>
      </trkpt>
      <trkpt lat="45.12842" lon="0.63814">
        <ele>142.60000610352</ele>
        <time>2014-09-04T11:55:51.000Z</time>
      </trkpt>
      <trkpt lat="45.12838" lon="0.63817">
        <ele>143.19999694824</ele>
        <time>2014-09-04T11:55:52.000Z</time>
      </trkpt>
      <trkpt lat="45.12831" lon="0.63822">
        <ele>143.60000610352</ele>
        <time>2014-09-04T11:55:54.000Z</time>
      </trkpt>
      <trkpt lat="45.12819" lon="0.6383">
        <ele>145</ele>
        <time>2014-09-04T11:55:58.000Z</time>
      </trkpt>
      <trkpt lat="45.12817" lon="0.63833">
        <ele>145.39999389648</ele>
        <time>2014-09-04T11:55:59.000Z</time>
      </trkpt>
      <trkpt lat="45.12813" lon="0.63839">
        <ele>146</ele>
        <time>2014-09-04T11:56:01.000Z</time>
      </trkpt>
      <trkpt lat="45.12812" lon="0.63849">
        <ele>146.80000305176</ele>
        <time>2014-09-04T11:56:04.000Z</time>
      </trkpt>
      <trkpt lat="45.12818" lon="0.63873">
        <ele>146.60000610352</ele>
        <time>2014-09-04T11:56:10.000Z</time>
      </trkpt>
      <trkpt lat="45.12825" lon="0.63896">
        <ele>147.19999694824</ele>
        <time>2014-09-04T11:56:16.000Z</time>
      </trkpt>
      <trkpt lat="45.12829" lon="0.63906">
        <ele>148</ele>
        <time>2014-09-04T11:56:19.000Z</time>
      </trkpt>
      <trkpt lat="45.1283" lon="0.63909">
        <ele>148.39999389648</ele>
        <time>2014-09-04T11:56:20.000Z</time>
      </trkpt>
      <trkpt lat="45.12834" lon="0.63918">
        <ele>149.39999389648</ele>
        <time>2014-09-04T11:56:23.000Z</time>
      </trkpt>
      <trkpt lat="45.12838" lon="0.63927">
        <ele>150.60000610352</ele>
        <time>2014-09-04T11:56:26.000Z</time>
      </trkpt>
      <trkpt lat="45.12839" lon="0.6393">
        <ele>151</ele>
        <time>2014-09-04T11:56:27.000Z</time>
      </trkpt>
      <trkpt lat="45.12841" lon="0.63935">
        <ele>151.80000305176</ele>
        <time>2014-09-04T11:56:29.000Z</time>
      </trkpt>
      <trkpt lat="45.1284" lon="0.63947">
        <ele>152.80000305176</ele>
        <time>2014-09-04T11:56:33.000Z</time>
      </trkpt>
      <trkpt lat="45.12842" lon="0.63963">
        <ele>153.60000610352</ele>
        <time>2014-09-04T11:56:39.000Z</time>
      </trkpt>
      <trkpt lat="45.12844" lon="0.63988">
        <ele>152.80000305176</ele>
        <time>2014-09-04T11:56:45.000Z</time>
      </trkpt>
      <trkpt lat="45.12837" lon="0.64006">
        <ele>152.60000610352</ele>
        <time>2014-09-04T11:56:49.000Z</time>
      </trkpt>
      <trkpt lat="45.12819" lon="0.64027">
        <ele>152.19999694824</ele>
        <time>2014-09-04T11:56:56.000Z</time>
      </trkpt>
      <trkpt lat="45.12796" lon="0.64048">
        <ele>152.19999694824</ele>
        <time>2014-09-04T11:57:05.000Z</time>
      </trkpt>
      <trkpt lat="45.12782" lon="0.64069">
        <ele>151.80000305176</ele>
        <time>2014-09-04T11:57:11.000Z</time>
      </trkpt>
      <trkpt lat="45.12778" lon="0.64073">
        <ele>151.60000610352</ele>
        <time>2014-09-04T11:57:12.000Z</time>
      </trkpt>
      <trkpt lat="45.12761" lon="0.64096">
        <ele>150.80000305176</ele>
        <time>2014-09-04T11:57:17.000Z</time>
      </trkpt>
      <trkpt lat="45.12754" lon="0.64106">
        <ele>150.39999389648</ele>
        <time>2014-09-04T11:57:19.000Z</time>
      </trkpt>
      <trkpt lat="45.1274" lon="0.64129">
        <ele>149.19999694824</ele>
        <time>2014-09-04T11:57:23.000Z</time>
      </trkpt>
      <trkpt lat="45.12733" lon="0.64142">
        <ele>148.60000610352</ele>
        <time>2014-09-04T11:57:25.000Z</time>
      </trkpt>
      <trkpt lat="45.12724" lon="0.64155">
        <ele>148.19999694824</ele>
        <time>2014-09-04T11:57:27.000Z</time>
      </trkpt>
      <trkpt lat="45.12709" lon="0.64177">
        <ele>147.80000305176</ele>
        <time>2014-09-04T11:57:31.000Z</time>
      </trkpt>
      <trkpt lat="45.12706" lon="0.64182">
        <ele>147.80000305176</ele>
        <time>2014-09-04T11:57:32.000Z</time>
      </trkpt>
      <trkpt lat="45.12699" lon="0.64204">
        <ele>147.80000305176</ele>
        <time>2014-09-04T11:57:36.000Z</time>
      </trkpt>
      <trkpt lat="45.12695" lon="0.64223">
        <ele>148.39999389648</ele>
        <time>2014-09-04T11:57:41.000Z</time>
      </trkpt>
      <trkpt lat="45.12693" lon="0.64237">
        <ele>149.39999389648</ele>
        <time>2014-09-04T11:57:46.000Z</time>
      </trkpt>
      <trkpt lat="45.12692" lon="0.64243">
        <ele>149.80000305176</ele>
        <time>2014-09-04T11:57:48.000Z</time>
      </trkpt>
      <trkpt lat="45.12691" lon="0.64255">
        <ele>150.39999389648</ele>
        <time>2014-09-04T11:57:52.000Z</time>
      </trkpt>
      <trkpt lat="45.12691" lon="0.64265">
        <ele>151.60000610352</ele>
        <time>2014-09-04T11:57:56.000Z</time>
      </trkpt>
      <trkpt lat="45.12689" lon="0.6428">
        <ele>152.80000305176</ele>
        <time>2014-09-04T11:58:02.000Z</time>
      </trkpt>
      <trkpt lat="45.12688" lon="0.64282">
        <ele>153</ele>
        <time>2014-09-04T11:58:03.000Z</time>
      </trkpt>
      <trkpt lat="45.12681" lon="0.64291">
        <ele>153.80000305176</ele>
        <time>2014-09-04T11:58:09.000Z</time>
      </trkpt>
      <trkpt lat="45.1268" lon="0.64292">
        <ele>154</ele>
        <time>2014-09-04T11:58:10.000Z</time>
      </trkpt>
      <trkpt lat="45.12676" lon="0.64297">
        <ele>155</ele>
        <time>2014-09-04T11:58:14.000Z</time>
      </trkpt>
      <trkpt lat="45.12673" lon="0.64301">
        <ele>156.19999694824</ele>
        <time>2014-09-04T11:58:17.000Z</time>
      </trkpt>
      <trkpt lat="45.12667" lon="0.64309">
        <ele>158.60000610352</ele>
        <time>2014-09-04T11:58:26.000Z</time>
      </trkpt>
      <trkpt lat="45.12666" lon="0.64314">
        <ele>159</ele>
        <time>2014-09-04T11:58:28.000Z</time>
      </trkpt>
      <trkpt lat="45.12641" lon="0.6439">
        <ele>173.39999389648</ele>
        <time>2014-09-04T11:59:58.000Z</time>
      </trkpt>
      <trkpt lat="45.12641" lon="0.64393">
        <ele>173.60000610352</ele>
        <time>2014-09-04T11:59:59.000Z</time>
      </trkpt>
      <trkpt lat="45.12642" lon="0.64402">
        <ele>174.39999389648</ele>
        <time>2014-09-04T12:00:02.000Z</time>
      </trkpt>
      <trkpt lat="45.1264" lon="0.6441">
        <ele>175.39999389648</ele>
        <time>2014-09-04T12:00:06.000Z</time>
      </trkpt>
      <trkpt lat="45.12639" lon="0.64411">
        <ele>175.60000610352</ele>
        <time>2014-09-04T12:00:07.000Z</time>
      </trkpt>
      <trkpt lat="45.12631" lon="0.64414">
        <ele>176</ele>
        <time>2014-09-04T12:00:13.000Z</time>
      </trkpt>
      <trkpt lat="45.12618" lon="0.64411">
        <ele>176.39999389648</ele>
        <time>2014-09-04T12:00:20.000Z</time>
      </trkpt>
      <trkpt lat="45.12611" lon="0.6441">
        <ele>176.60000610352</ele>
        <time>2014-09-04T12:00:23.000Z</time>
      </trkpt>
      <trkpt lat="45.12595" lon="0.64409">
        <ele>177</ele>
        <time>2014-09-04T12:00:29.000Z</time>
      </trkpt>
      <trkpt lat="45.12582" lon="0.64408">
        <ele>177.80000305176</ele>
        <time>2014-09-04T12:00:34.000Z</time>
      </trkpt>
      <trkpt lat="45.12574" lon="0.64407">
        <ele>178</ele>
        <time>2014-09-04T12:00:37.000Z</time>
      </trkpt>
      <trkpt lat="45.12548" lon="0.64406">
        <ele>178.60000610352</ele>
        <time>2014-09-04T12:00:46.000Z</time>
      </trkpt>
      <trkpt lat="45.12545" lon="0.64407">
        <ele>178.80000305176</ele>
        <time>2014-09-04T12:00:47.000Z</time>
      </trkpt>
      <trkpt lat="45.1252" lon="0.64413">
        <ele>179.60000610352</ele>
        <time>2014-09-04T12:00:55.000Z</time>
      </trkpt>
      <trkpt lat="45.12514" lon="0.64415">
        <ele>180</ele>
        <time>2014-09-04T12:00:57.000Z</time>
      </trkpt>
      <trkpt lat="45.12499" lon="0.64419">
        <ele>180.60000610352</ele>
        <time>2014-09-04T12:01:02.000Z</time>
      </trkpt>
      <trkpt lat="45.12487" lon="0.64421">
        <ele>181.19999694824</ele>
        <time>2014-09-04T12:01:06.000Z</time>
      </trkpt>
      <trkpt lat="45.12467" lon="0.64421">
        <ele>182</ele>
        <time>2014-09-04T12:01:13.000Z</time>
      </trkpt>
      <trkpt lat="45.12461" lon="0.6442">
        <ele>182.19999694824</ele>
        <time>2014-09-04T12:01:15.000Z</time>
      </trkpt>
      <trkpt lat="45.12446" lon="0.64416">
        <ele>182.80000305176</ele>
        <time>2014-09-04T12:01:21.000Z</time>
      </trkpt>
      <trkpt lat="45.12424" lon="0.64412">
        <ele>181.80000305176</ele>
        <time>2014-09-04T12:01:27.000Z</time>
      </trkpt>
      <trkpt lat="45.12401" lon="0.6441">
        <ele>182</ele>
        <time>2014-09-04T12:01:35.000Z</time>
      </trkpt>
      <trkpt lat="45.12383" lon="0.64412">
        <ele>183.19999694824</ele>
        <time>2014-09-04T12:01:43.000Z</time>
      </trkpt>
      <trkpt lat="45.12374" lon="0.64413">
        <ele>184.19999694824</ele>
        <time>2014-09-04T12:01:48.000Z</time>
      </trkpt>
      <trkpt lat="45.1237" lon="0.64413">
        <ele>184.60000610352</ele>
        <time>2014-09-04T12:01:50.000Z</time>
      </trkpt>
      <trkpt lat="45.12362" lon="0.64413">
        <ele>185.19999694824</ele>
        <time>2014-09-04T12:01:53.000Z</time>
      </trkpt>
      <trkpt lat="45.1235" lon="0.64412">
        <ele>186.39999389648</ele>
        <time>2014-09-04T12:01:57.000Z</time>
      </trkpt>
      <trkpt lat="45.12325" lon="0.64403">
        <ele>187.19999694824</ele>
        <time>2014-09-04T12:02:04.000Z</time>
      </trkpt>
      <trkpt lat="45.12319" lon="0.644">
        <ele>187.39999389648</ele>
        <time>2014-09-04T12:02:06.000Z</time>
      </trkpt>
      <trkpt lat="45.123" lon="0.64392">
        <ele>188.19999694824</ele>
        <time>2014-09-04T12:02:13.000Z</time>
      </trkpt>
      <trkpt lat="45.12295" lon="0.6439">
        <ele>188.60000610352</ele>
        <time>2014-09-04T12:02:15.000Z</time>
      </trkpt>
      <trkpt lat="45.12284" lon="0.64382">
        <ele>189.39999389648</ele>
        <time>2014-09-04T12:02:20.000Z</time>
      </trkpt>
      <trkpt lat="45.12276" lon="0.64373">
        <ele>189.60000610352</ele>
        <time>2014-09-04T12:02:24.000Z</time>
      </trkpt>
      <trkpt lat="45.1227" lon="0.64369">
        <ele>189.80000305176</ele>
        <time>2014-09-04T12:02:26.000Z</time>
      </trkpt>
      <trkpt lat="45.12251" lon="0.64355">
        <ele>190.80000305176</ele>
        <time>2014-09-04T12:02:34.000Z</time>
      </trkpt>
      <trkpt lat="45.12239" lon="0.64341">
        <ele>191.80000305176</ele>
        <time>2014-09-04T12:02:41.000Z</time>
      </trkpt>
      <trkpt lat="45.12227" lon="0.64331">
        <ele>191.80000305176</ele>
        <time>2014-09-04T12:02:47.000Z</time>
      </trkpt>
      <trkpt lat="45.12221" lon="0.6433">
        <ele>192.80000305176</ele>
        <time>2014-09-04T12:02:50.000Z</time>
      </trkpt>
      <trkpt lat="45.12217" lon="0.64332">
        <ele>194</ele>
        <time>2014-09-04T12:02:52.000Z</time>
      </trkpt>
      <trkpt lat="45.12213" lon="0.64339">
        <ele>194.60000610352</ele>
        <time>2014-09-04T12:02:54.000Z</time>
      </trkpt>
      <trkpt lat="45.12208" lon="0.64344">
        <ele>195.39999389648</ele>
        <time>2014-09-04T12:02:56.000Z</time>
      </trkpt>
      <trkpt lat="45.12199" lon="0.64356">
        <ele>196.39999389648</ele>
        <time>2014-09-04T12:03:01.000Z</time>
      </trkpt>
      <trkpt lat="45.12194" lon="0.64361">
        <ele>197.19999694824</ele>
        <time>2014-09-04T12:03:04.000Z</time>
      </trkpt>
      <trkpt lat="45.12192" lon="0.64363">
        <ele>197.39999389648</ele>
        <time>2014-09-04T12:03:06.000Z</time>
      </trkpt>
      <trkpt lat="45.12183" lon="0.64374">
        <ele>197.80000305176</ele>
        <time>2014-09-04T12:03:13.000Z</time>
      </trkpt>
      <trkpt lat="45.12168" lon="0.64383">
        <ele>198.39999389648</ele>
        <time>2014-09-04T12:03:19.000Z</time>
      </trkpt>
      <trkpt lat="45.12166" lon="0.64385">
        <ele>198.39999389648</ele>
        <time>2014-09-04T12:03:20.000Z</time>
      </trkpt>
      <trkpt lat="45.12158" lon="0.64395">
        <ele>199.39999389648</ele>
        <time>2014-09-04T12:03:26.000Z</time>
      </trkpt>
      <trkpt lat="45.12156" lon="0.64413">
        <ele>199.19999694824</ele>
        <time>2014-09-04T12:03:32.000Z</time>
      </trkpt>
      <trkpt lat="45.12149" lon="0.64434">
        <ele>198.39999389648</ele>
        <time>2014-09-04T12:03:38.000Z</time>
      </trkpt>
      <trkpt lat="45.12145" lon="0.64437">
        <ele>198.19999694824</ele>
        <time>2014-09-04T12:03:39.000Z</time>
      </trkpt>
      <trkpt lat="45.12126" lon="0.64444">
        <ele>197.39999389648</ele>
        <time>2014-09-04T12:03:43.000Z</time>
      </trkpt>
      <trkpt lat="45.12115" lon="0.64447">
        <ele>197.39999389648</ele>
        <time>2014-09-04T12:03:45.000Z</time>
      </trkpt>
      <trkpt lat="45.1207" lon="0.6447">
        <ele>196.19999694824</ele>
        <time>2014-09-04T12:03:54.000Z</time>
      </trkpt>
      <trkpt lat="45.12067" lon="0.64473">
        <ele>196</ele>
        <time>2014-09-04T12:03:55.000Z</time>
      </trkpt>
      <trkpt lat="45.12055" lon="0.64484">
        <ele>195.39999389648</ele>
        <time>2014-09-04T12:03:58.000Z</time>
      </trkpt>
      <trkpt lat="45.12045" lon="0.64493">
        <ele>195.19999694824</ele>
        <time>2014-09-04T12:04:00.000Z</time>
      </trkpt>
      <trkpt lat="45.12019" lon="0.64513">
        <ele>194.39999389648</ele>
        <time>2014-09-04T12:04:05.000Z</time>
      </trkpt>
      <trkpt lat="45.12006" lon="0.64525">
        <ele>194</ele>
        <time>2014-09-04T12:04:08.000Z</time>
      </trkpt>
      <trkpt lat="45.11993" lon="0.64538">
        <ele>193.60000610352</ele>
        <time>2014-09-04T12:04:11.000Z</time>
      </trkpt>
      <trkpt lat="45.1196" lon="0.64578">
        <ele>193.60000610352</ele>
        <time>2014-09-04T12:04:19.000Z</time>
      </trkpt>
      <trkpt lat="45.1193" lon="0.64618">
        <ele>193.80000305176</ele>
        <time>2014-09-04T12:04:27.000Z</time>
      </trkpt>
      <trkpt lat="45.1191" lon="0.64645">
        <ele>194.60000610352</ele>
        <time>2014-09-04T12:04:34.000Z</time>
      </trkpt>
      <trkpt lat="45.11905" lon="0.64651">
        <ele>195</ele>
        <time>2014-09-04T12:04:36.000Z</time>
      </trkpt>
      <trkpt lat="45.119" lon="0.6466">
        <ele>195.39999389648</ele>
        <time>2014-09-04T12:04:39.000Z</time>
      </trkpt>
      <trkpt lat="45.1189" lon="0.64681">
        <ele>194.39999389648</ele>
        <time>2014-09-04T12:04:45.000Z</time>
      </trkpt>
      <trkpt lat="45.1188" lon="0.64703">
        <ele>193.80000305176</ele>
        <time>2014-09-04T12:04:49.000Z</time>
      </trkpt>
      <trkpt lat="45.11878" lon="0.64709">
        <ele>193.60000610352</ele>
        <time>2014-09-04T12:04:50.000Z</time>
      </trkpt>
      <trkpt lat="45.11875" lon="0.64722">
        <ele>192.80000305176</ele>
        <time>2014-09-04T12:04:52.000Z</time>
      </trkpt>
      <trkpt lat="45.11871" lon="0.64734">
        <ele>191.39999389648</ele>
        <time>2014-09-04T12:04:54.000Z</time>
      </trkpt>
      <trkpt lat="45.11868" lon="0.64747">
        <ele>190.19999694824</ele>
        <time>2014-09-04T12:04:56.000Z</time>
      </trkpt>
      <trkpt lat="45.11865" lon="0.64759">
        <ele>189</ele>
        <time>2014-09-04T12:04:58.000Z</time>
      </trkpt>
      <trkpt lat="45.11863" lon="0.64773">
        <ele>187.60000610352</ele>
        <time>2014-09-04T12:05:00.000Z</time>
      </trkpt>
      <trkpt lat="45.1186" lon="0.64789">
        <ele>186.39999389648</ele>
        <time>2014-09-04T12:05:02.000Z</time>
      </trkpt>
      <trkpt lat="45.11857" lon="0.64806">
        <ele>185.19999694824</ele>
        <time>2014-09-04T12:05:04.000Z</time>
      </trkpt>
      <trkpt lat="45.11855" lon="0.64815">
        <ele>184.19999694824</ele>
        <time>2014-09-04T12:05:05.000Z</time>
      </trkpt>
      <trkpt lat="45.11853" lon="0.64823">
        <ele>182.19999694824</ele>
        <time>2014-09-04T12:05:06.000Z</time>
      </trkpt>
      <trkpt lat="45.1185" lon="0.64841">
        <ele>180.60000610352</ele>
        <time>2014-09-04T12:05:08.000Z</time>
      </trkpt>
      <trkpt lat="45.11847" lon="0.64858">
        <ele>178.80000305176</ele>
        <time>2014-09-04T12:05:10.000Z</time>
      </trkpt>
      <trkpt lat="45.11846" lon="0.64865">
        <ele>178</ele>
        <time>2014-09-04T12:05:11.000Z</time>
      </trkpt>
      <trkpt lat="45.11846" lon="0.64872">
        <ele>177</ele>
        <time>2014-09-04T12:05:12.000Z</time>
      </trkpt>
      <trkpt lat="45.11846" lon="0.64884">
        <ele>175</ele>
        <time>2014-09-04T12:05:14.000Z</time>
      </trkpt>
      <trkpt lat="45.11846" lon="0.64891">
        <ele>173.80000305176</ele>
        <time>2014-09-04T12:05:15.000Z</time>
      </trkpt>
      <trkpt lat="45.11847" lon="0.64907">
        <ele>172.60000610352</ele>
        <time>2014-09-04T12:05:17.000Z</time>
      </trkpt>
      <trkpt lat="45.1185" lon="0.64934">
        <ele>171.60000610352</ele>
        <time>2014-09-04T12:05:20.000Z</time>
      </trkpt>
      <trkpt lat="45.1185" lon="0.64942">
        <ele>171.39999389648</ele>
        <time>2014-09-04T12:05:21.000Z</time>
      </trkpt>
      <trkpt lat="45.11852" lon="0.6496">
        <ele>170.80000305176</ele>
        <time>2014-09-04T12:05:23.000Z</time>
      </trkpt>
      <trkpt lat="45.11851" lon="0.64987">
        <ele>170.39999389648</ele>
        <time>2014-09-04T12:05:26.000Z</time>
      </trkpt>
      <trkpt lat="45.11849" lon="0.65021">
        <ele>168.60000610352</ele>
        <time>2014-09-04T12:05:30.000Z</time>
      </trkpt>
      <trkpt lat="45.11848" lon="0.65041">
        <ele>167.60000610352</ele>
        <time>2014-09-04T12:05:32.000Z</time>
      </trkpt>
      <trkpt lat="45.11848" lon="0.65051">
        <ele>167</ele>
        <time>2014-09-04T12:05:33.000Z</time>
      </trkpt>
      <trkpt lat="45.11846" lon="0.65069">
        <ele>166.39999389648</ele>
        <time>2014-09-04T12:05:35.000Z</time>
      </trkpt>
      <trkpt lat="45.11843" lon="0.65083">
        <ele>164.80000305176</ele>
        <time>2014-09-04T12:05:37.000Z</time>
      </trkpt>
      <trkpt lat="45.11841" lon="0.65089">
        <ele>163.80000305176</ele>
        <time>2014-09-04T12:05:38.000Z</time>
      </trkpt>
      <trkpt lat="45.1184" lon="0.65096">
        <ele>163.19999694824</ele>
        <time>2014-09-04T12:05:39.000Z</time>
      </trkpt>
      <trkpt lat="45.11832" lon="0.65103">
        <ele>162.80000305176</ele>
        <time>2014-09-04T12:05:41.000Z</time>
      </trkpt>
      <trkpt lat="45.11825" lon="0.65107">
        <ele>163.60000610352</ele>
        <time>2014-09-04T12:05:45.000Z</time>
      </trkpt>
      <trkpt lat="45.11801" lon="0.65096">
        <ele>163.39999389648</ele>
        <time>2014-09-04T12:05:53.000Z</time>
      </trkpt>
      <trkpt lat="45.11793" lon="0.6509">
        <ele>162.60000610352</ele>
        <time>2014-09-04T12:05:55.000Z</time>
      </trkpt>
      <trkpt lat="45.11775" lon="0.65078">
        <ele>161.39999389648</ele>
        <time>2014-09-04T12:05:59.000Z</time>
      </trkpt>
      <trkpt lat="45.1177" lon="0.65073">
        <ele>161</ele>
        <time>2014-09-04T12:06:00.000Z</time>
      </trkpt>
      <trkpt lat="45.11763" lon="0.65061">
        <ele>160.60000610352</ele>
        <time>2014-09-04T12:06:02.000Z</time>
      </trkpt>
      <trkpt lat="45.11759" lon="0.65057">
        <ele>160.60000610352</ele>
        <time>2014-09-04T12:06:03.000Z</time>
      </trkpt>
      <trkpt lat="45.11755" lon="0.65053">
        <ele>160.39999389648</ele>
        <time>2014-09-04T12:06:04.000Z</time>
      </trkpt>
      <trkpt lat="45.11746" lon="0.65043">
        <ele>160.19999694824</ele>
        <time>2014-09-04T12:06:06.000Z</time>
      </trkpt>
      <trkpt lat="45.11721" lon="0.65012">
        <ele>159.19999694824</ele>
        <time>2014-09-04T12:06:12.000Z</time>
      </trkpt>
      <trkpt lat="45.11712" lon="0.65002">
        <ele>158.60000610352</ele>
        <time>2014-09-04T12:06:14.000Z</time>
      </trkpt>
      <trkpt lat="45.1169" lon="0.64983">
        <ele>157.60000610352</ele>
        <time>2014-09-04T12:06:18.000Z</time>
      </trkpt>
      <trkpt lat="45.11684" lon="0.64978">
        <ele>157.19999694824</ele>
        <time>2014-09-04T12:06:19.000Z</time>
      </trkpt>
      <trkpt lat="45.11666" lon="0.64966">
        <ele>156.39999389648</ele>
        <time>2014-09-04T12:06:22.000Z</time>
      </trkpt>
      <trkpt lat="45.1166" lon="0.64963">
        <ele>155.80000305176</ele>
        <time>2014-09-04T12:06:23.000Z</time>
      </trkpt>
      <trkpt lat="45.11654" lon="0.64961">
        <ele>155.39999389648</ele>
        <time>2014-09-04T12:06:24.000Z</time>
      </trkpt>
      <trkpt lat="45.11647" lon="0.6496">
        <ele>155</ele>
        <time>2014-09-04T12:06:25.000Z</time>
      </trkpt>
      <trkpt lat="45.11633" lon="0.64967">
        <ele>154.60000610352</ele>
        <time>2014-09-04T12:06:28.000Z</time>
      </trkpt>
      <trkpt lat="45.11632" lon="0.6497">
        <ele>154</ele>
        <time>2014-09-04T12:06:29.000Z</time>
      </trkpt>
      <trkpt lat="45.11632" lon="0.6498">
        <ele>154</ele>
        <time>2014-09-04T12:06:31.000Z</time>
      </trkpt>
      <trkpt lat="45.1164" lon="0.64995">
        <ele>154.39999389648</ele>
        <time>2014-09-04T12:06:35.000Z</time>
      </trkpt>
      <trkpt lat="45.1165" lon="0.65003">
        <ele>155.19999694824</ele>
        <time>2014-09-04T12:06:39.000Z</time>
      </trkpt>
      <trkpt lat="45.11651" lon="0.65005">
        <ele>155.39999389648</ele>
        <time>2014-09-04T12:06:40.000Z</time>
      </trkpt>
      <trkpt lat="45.11653" lon="0.65007">
        <ele>155.60000610352</ele>
        <time>2014-09-04T12:06:41.000Z</time>
      </trkpt>
      <trkpt lat="45.11657" lon="0.65015">
        <ele>156.39999389648</ele>
        <time>2014-09-04T12:06:44.000Z</time>
      </trkpt>
      <trkpt lat="45.11662" lon="0.65023">
        <ele>156.80000305176</ele>
        <time>2014-09-04T12:06:47.000Z</time>
      </trkpt>
      <trkpt lat="45.11666" lon="0.65028">
        <ele>157.60000610352</ele>
        <time>2014-09-04T12:06:50.000Z</time>
      </trkpt>
      <trkpt lat="45.11669" lon="0.65033">
        <ele>158.39999389648</ele>
        <time>2014-09-04T12:06:53.000Z</time>
      </trkpt>
      <trkpt lat="45.11671" lon="0.6504">
        <ele>159.80000305176</ele>
        <time>2014-09-04T12:06:58.000Z</time>
      </trkpt>
      <trkpt lat="45.11673" lon="0.65048">
        <ele>160.39999389648</ele>
        <time>2014-09-04T12:07:01.000Z</time>
      </trkpt>
      <trkpt lat="45.11674" lon="0.65051">
        <ele>160.60000610352</ele>
        <time>2014-09-04T12:07:02.000Z</time>
      </trkpt>
      <trkpt lat="45.11674" lon="0.65054">
        <ele>161</ele>
        <time>2014-09-04T12:07:03.000Z</time>
      </trkpt>
      <trkpt lat="45.11675" lon="0.65061">
        <ele>162</ele>
        <time>2014-09-04T12:07:06.000Z</time>
      </trkpt>
      <trkpt lat="45.11677" lon="0.65074">
        <ele>163.19999694824</ele>
        <time>2014-09-04T12:07:11.000Z</time>
      </trkpt>
      <trkpt lat="45.11678" lon="0.65076">
        <ele>163.39999389648</ele>
        <time>2014-09-04T12:07:12.000Z</time>
      </trkpt>
      <trkpt lat="45.11681" lon="0.65083">
        <ele>164.39999389648</ele>
        <time>2014-09-04T12:07:15.000Z</time>
      </trkpt>
      <trkpt lat="45.11683" lon="0.65088">
        <ele>165.19999694824</ele>
        <time>2014-09-04T12:07:18.000Z</time>
      </trkpt>
      <trkpt lat="45.11684" lon="0.6509">
        <ele>165.39999389648</ele>
        <time>2014-09-04T12:07:19.000Z</time>
      </trkpt>
      <trkpt lat="45.11686" lon="0.65102">
        <ele>166.60000610352</ele>
        <time>2014-09-04T12:07:25.000Z</time>
      </trkpt>
      <trkpt lat="45.11688" lon="0.65107">
        <ele>167</ele>
        <time>2014-09-04T12:07:27.000Z</time>
      </trkpt>
      <trkpt lat="45.1169" lon="0.65116">
        <ele>167.60000610352</ele>
        <time>2014-09-04T12:07:30.000Z</time>
      </trkpt>
      <trkpt lat="45.11694" lon="0.65125">
        <ele>168.19999694824</ele>
        <time>2014-09-04T12:07:33.000Z</time>
      </trkpt>
      <trkpt lat="45.11697" lon="0.65133">
        <ele>168.80000305176</ele>
        <time>2014-09-04T12:07:36.000Z</time>
      </trkpt>
      <trkpt lat="45.11699" lon="0.65141">
        <ele>169.19999694824</ele>
        <time>2014-09-04T12:07:39.000Z</time>
      </trkpt>
      <trkpt lat="45.117" lon="0.65148">
        <ele>169.80000305176</ele>
        <time>2014-09-04T12:07:42.000Z</time>
      </trkpt>
      <trkpt lat="45.11702" lon="0.65161">
        <ele>171</ele>
        <time>2014-09-04T12:07:48.000Z</time>
      </trkpt>
      <trkpt lat="45.11703" lon="0.65174">
        <ele>172</ele>
        <time>2014-09-04T12:07:54.000Z</time>
      </trkpt>
      <trkpt lat="45.11704" lon="0.65182">
        <ele>172.80000305176</ele>
        <time>2014-09-04T12:07:57.000Z</time>
      </trkpt>
      <trkpt lat="45.11704" lon="0.65188">
        <ele>173.19999694824</ele>
        <time>2014-09-04T12:08:00.000Z</time>
      </trkpt>
      <trkpt lat="45.11705" lon="0.65199">
        <ele>174.39999389648</ele>
        <time>2014-09-04T12:08:06.000Z</time>
      </trkpt>
      <trkpt lat="45.11705" lon="0.65201">
        <ele>174.60000610352</ele>
        <time>2014-09-04T12:08:07.000Z</time>
      </trkpt>
      <trkpt lat="45.11708" lon="0.65211">
        <ele>175.60000610352</ele>
        <time>2014-09-04T12:08:11.000Z</time>
      </trkpt>
      <trkpt lat="45.11715" lon="0.65224">
        <ele>177</ele>
        <time>2014-09-04T12:08:17.000Z</time>
      </trkpt>
      <trkpt lat="45.11716" lon="0.65227">
        <ele>177.60000610352</ele>
        <time>2014-09-04T12:08:18.000Z</time>
      </trkpt>
      <trkpt lat="45.11715" lon="0.65231">
        <ele>178</ele>
        <time>2014-09-04T12:08:20.000Z</time>
      </trkpt>
      <trkpt lat="45.11714" lon="0.65242">
        <ele>179.60000610352</ele>
        <time>2014-09-04T12:08:27.000Z</time>
      </trkpt>
      <trkpt lat="45.11713" lon="0.65247">
        <ele>180.19999694824</ele>
        <time>2014-09-04T12:08:30.000Z</time>
      </trkpt>
      <trkpt lat="45.11712" lon="0.65254">
        <ele>181.19999694824</ele>
        <time>2014-09-04T12:08:34.000Z</time>
      </trkpt>
      <trkpt lat="45.11712" lon="0.65256">
        <ele>181.39999389648</ele>
        <time>2014-09-04T12:08:35.000Z</time>
      </trkpt>
      <trkpt lat="45.11715" lon="0.65265">
        <ele>182.60000610352</ele>
        <time>2014-09-04T12:08:40.000Z</time>
      </trkpt>
      <trkpt lat="45.11716" lon="0.65268">
        <ele>183.19999694824</ele>
        <time>2014-09-04T12:08:42.000Z</time>
      </trkpt>
      <trkpt lat="45.11717" lon="0.65272">
        <ele>183.80000305176</ele>
        <time>2014-09-04T12:08:44.000Z</time>
      </trkpt>
      <trkpt lat="45.11718" lon="0.65297">
        <ele>187.19999694824</ele>
        <time>2014-09-04T12:08:58.000Z</time>
      </trkpt>
      <trkpt lat="45.11715" lon="0.65307">
        <ele>188.19999694824</ele>
        <time>2014-09-04T12:09:03.000Z</time>
      </trkpt>
      <trkpt lat="45.11713" lon="0.65311">
        <ele>189</ele>
        <time>2014-09-04T12:09:06.000Z</time>
      </trkpt>
      <trkpt lat="45.11713" lon="0.65313">
        <ele>189.19999694824</ele>
        <time>2014-09-04T12:09:07.000Z</time>
      </trkpt>
      <trkpt lat="45.1171" lon="0.65322">
        <ele>190.39999389648</ele>
        <time>2014-09-04T12:09:12.000Z</time>
      </trkpt>
      <trkpt lat="45.11711" lon="0.65326">
        <ele>190.60000610352</ele>
        <time>2014-09-04T12:09:14.000Z</time>
      </trkpt>
      <trkpt lat="45.11711" lon="0.65334">
        <ele>191.60000610352</ele>
        <time>2014-09-04T12:09:18.000Z</time>
      </trkpt>
      <trkpt lat="45.11711" lon="0.65342">
        <ele>192.60000610352</ele>
        <time>2014-09-04T12:09:22.000Z</time>
      </trkpt>
      <trkpt lat="45.11712" lon="0.65362">
        <ele>195</ele>
        <time>2014-09-04T12:09:34.000Z</time>
      </trkpt>
      <trkpt lat="45.11715" lon="0.65379">
        <ele>196.80000305176</ele>
        <time>2014-09-04T12:09:44.000Z</time>
      </trkpt>
      <trkpt lat="45.11719" lon="0.6539">
        <ele>197.80000305176</ele>
        <time>2014-09-04T12:09:50.000Z</time>
      </trkpt>
      <trkpt lat="45.11721" lon="0.654">
        <ele>198.80000305176</ele>
        <time>2014-09-04T12:09:55.000Z</time>
      </trkpt>
      <trkpt lat="45.11722" lon="0.65402">
        <ele>199.19999694824</ele>
        <time>2014-09-04T12:09:56.000Z</time>
      </trkpt>
      <trkpt lat="45.11724" lon="0.65414">
        <ele>200</ele>
        <time>2014-09-04T12:10:02.000Z</time>
      </trkpt>
      <trkpt lat="45.11725" lon="0.65422">
        <ele>200.60000610352</ele>
        <time>2014-09-04T12:10:06.000Z</time>
      </trkpt>
      <trkpt lat="45.11725" lon="0.65428">
        <ele>201</ele>
        <time>2014-09-04T12:10:09.000Z</time>
      </trkpt>
      <trkpt lat="45.11726" lon="0.65437">
        <ele>202</ele>
        <time>2014-09-04T12:10:14.000Z</time>
      </trkpt>
      <trkpt lat="45.11726" lon="0.6544">
        <ele>202.19999694824</ele>
        <time>2014-09-04T12:10:15.000Z</time>
      </trkpt>
      <trkpt lat="45.11727" lon="0.6545">
        <ele>203.19999694824</ele>
        <time>2014-09-04T12:10:20.000Z</time>
      </trkpt>
      <trkpt lat="45.11727" lon="0.65452">
        <ele>203.39999389648</ele>
        <time>2014-09-04T12:10:21.000Z</time>
      </trkpt>
      <trkpt lat="45.11728" lon="0.65454">
        <ele>203.39999389648</ele>
        <time>2014-09-04T12:10:22.000Z</time>
      </trkpt>
      <trkpt lat="45.1173" lon="0.65468">
        <ele>204</ele>
        <time>2014-09-04T12:10:27.000Z</time>
      </trkpt>
      <trkpt lat="45.11733" lon="0.65475">
        <ele>204.19999694824</ele>
        <time>2014-09-04T12:10:29.000Z</time>
      </trkpt>
      <trkpt lat="45.11736" lon="0.65495">
        <ele>204.60000610352</ele>
        <time>2014-09-04T12:10:34.000Z</time>
      </trkpt>
      <trkpt lat="45.11735" lon="0.65514">
        <ele>205.19999694824</ele>
        <time>2014-09-04T12:10:39.000Z</time>
      </trkpt>
      <trkpt lat="45.11733" lon="0.65527">
        <ele>205.39999389648</ele>
        <time>2014-09-04T12:10:43.000Z</time>
      </trkpt>
      <trkpt lat="45.11731" lon="0.65562">
        <ele>206</ele>
        <time>2014-09-04T12:10:53.000Z</time>
      </trkpt>
      <trkpt lat="45.1173" lon="0.65576">
        <ele>206.39999389648</ele>
        <time>2014-09-04T12:10:57.000Z</time>
      </trkpt>
      <trkpt lat="45.1173" lon="0.65583">
        <ele>206.60000610352</ele>
        <time>2014-09-04T12:10:59.000Z</time>
      </trkpt>
      <trkpt lat="45.11725" lon="0.65606">
        <ele>207.39999389648</ele>
        <time>2014-09-04T12:11:06.000Z</time>
      </trkpt>
      <trkpt lat="45.11726" lon="0.65623">
        <ele>207.39999389648</ele>
        <time>2014-09-04T12:11:13.000Z</time>
      </trkpt>
      <trkpt lat="45.1173" lon="0.65652">
        <ele>208</ele>
        <time>2014-09-04T12:11:20.000Z</time>
      </trkpt>
      <trkpt lat="45.11737" lon="0.65672">
        <ele>208.39999389648</ele>
        <time>2014-09-04T12:11:25.000Z</time>
      </trkpt>
      <trkpt lat="45.1174" lon="0.65683">
        <ele>208.80000305176</ele>
        <time>2014-09-04T12:11:28.000Z</time>
      </trkpt>
      <trkpt lat="45.11741" lon="0.65686">
        <ele>208.80000305176</ele>
        <time>2014-09-04T12:11:29.000Z</time>
      </trkpt>
      <trkpt lat="45.1175" lon="0.65696">
        <ele>209.19999694824</ele>
        <time>2014-09-04T12:11:33.000Z</time>
      </trkpt>
      <trkpt lat="45.11752" lon="0.65702">
        <ele>209.60000610352</ele>
        <time>2014-09-04T12:11:35.000Z</time>
      </trkpt>
      <trkpt lat="45.11759" lon="0.65713">
        <ele>210</ele>
        <time>2014-09-04T12:11:39.000Z</time>
      </trkpt>
      <trkpt lat="45.11764" lon="0.65721">
        <ele>210.60000610352</ele>
        <time>2014-09-04T12:11:42.000Z</time>
      </trkpt>
      <trkpt lat="45.1177" lon="0.65733">
        <ele>210.80000305176</ele>
        <time>2014-09-04T12:11:46.000Z</time>
      </trkpt>
      <trkpt lat="45.11781" lon="0.65749">
        <ele>211.39999389648</ele>
        <time>2014-09-04T12:11:52.000Z</time>
      </trkpt>
      <trkpt lat="45.11784" lon="0.65755">
        <ele>211.80000305176</ele>
        <time>2014-09-04T12:11:54.000Z</time>
      </trkpt>
      <trkpt lat="45.1179" lon="0.65766">
        <ele>212.19999694824</ele>
        <time>2014-09-04T12:11:58.000Z</time>
      </trkpt>
      <trkpt lat="45.11799" lon="0.65784">
        <ele>212.80000305176</ele>
        <time>2014-09-04T12:12:04.000Z</time>
      </trkpt>
      <trkpt lat="45.11801" lon="0.65788">
        <ele>213</ele>
        <time>2014-09-04T12:12:05.000Z</time>
      </trkpt>
      <trkpt lat="45.11813" lon="0.6581">
        <ele>213.39999389648</ele>
        <time>2014-09-04T12:12:11.000Z</time>
      </trkpt>
      <trkpt lat="45.11825" lon="0.65832">
        <ele>213.60000610352</ele>
        <time>2014-09-04T12:12:17.000Z</time>
      </trkpt>
      <trkpt lat="45.11837" lon="0.65853">
        <ele>214</ele>
        <time>2014-09-04T12:12:23.000Z</time>
      </trkpt>
      <trkpt lat="45.11841" lon="0.65861">
        <ele>214</ele>
        <time>2014-09-04T12:12:25.000Z</time>
      </trkpt>
      <trkpt lat="45.11854" lon="0.65887">
        <ele>214.19999694824</ele>
        <time>2014-09-04T12:12:32.000Z</time>
      </trkpt>
      <trkpt lat="45.11874" lon="0.65919">
        <ele>213.60000610352</ele>
        <time>2014-09-04T12:12:41.000Z</time>
      </trkpt>
      <trkpt lat="45.11878" lon="0.65935">
        <ele>213.39999389648</ele>
        <time>2014-09-04T12:12:46.000Z</time>
      </trkpt>
      <trkpt lat="45.11875" lon="0.65937">
        <ele>213.19999694824</ele>
        <time>2014-09-04T12:12:47.000Z</time>
      </trkpt>
      <trkpt lat="45.11871" lon="0.65941">
        <ele>213.39999389648</ele>
        <time>2014-09-04T12:12:49.000Z</time>
      </trkpt>
      <trkpt lat="45.11849" lon="0.65958">
        <ele>213.39999389648</ele>
        <time>2014-09-04T12:12:57.000Z</time>
      </trkpt>
      <trkpt lat="45.11832" lon="0.65975">
        <ele>213.39999389648</ele>
        <time>2014-09-04T12:13:03.000Z</time>
      </trkpt>
      <trkpt lat="45.11807" lon="0.65996">
        <ele>213.19999694824</ele>
        <time>2014-09-04T12:13:10.000Z</time>
      </trkpt>
      <trkpt lat="45.11799" lon="0.66002">
        <ele>213</ele>
        <time>2014-09-04T12:13:12.000Z</time>
      </trkpt>
      <trkpt lat="45.11777" lon="0.66021">
        <ele>212.39999389648</ele>
        <time>2014-09-04T12:13:17.000Z</time>
      </trkpt>
      <trkpt lat="45.11749" lon="0.66046">
        <ele>211.80000305176</ele>
        <time>2014-09-04T12:13:23.000Z</time>
      </trkpt>
      <trkpt lat="45.11734" lon="0.66059">
        <ele>211.19999694824</ele>
        <time>2014-09-04T12:13:26.000Z</time>
      </trkpt>
      <trkpt lat="45.11712" lon="0.66079">
        <ele>210.80000305176</ele>
        <time>2014-09-04T12:13:30.000Z</time>
      </trkpt>
      <trkpt lat="45.11691" lon="0.66098">
        <ele>209.80000305176</ele>
        <time>2014-09-04T12:13:34.000Z</time>
      </trkpt>
      <trkpt lat="45.11686" lon="0.66103">
        <ele>209.39999389648</ele>
        <time>2014-09-04T12:13:35.000Z</time>
      </trkpt>
      <trkpt lat="45.11646" lon="0.66137">
        <ele>209</ele>
        <time>2014-09-04T12:13:42.000Z</time>
      </trkpt>
      <trkpt lat="45.11635" lon="0.66147">
        <ele>208.19999694824</ele>
        <time>2014-09-04T12:13:44.000Z</time>
      </trkpt>
      <trkpt lat="45.11584" lon="0.66192">
        <ele>207.39999389648</ele>
        <time>2014-09-04T12:13:53.000Z</time>
      </trkpt>
      <trkpt lat="45.11579" lon="0.66196">
        <ele>207.39999389648</ele>
        <time>2014-09-04T12:13:54.000Z</time>
      </trkpt>
      <trkpt lat="45.11534" lon="0.66237">
        <ele>207.19999694824</ele>
        <time>2014-09-04T12:14:03.000Z</time>
      </trkpt>
      <trkpt lat="45.11517" lon="0.6625">
        <ele>206</ele>
        <time>2014-09-04T12:14:06.000Z</time>
      </trkpt>
      <trkpt lat="45.11496" lon="0.6627">
        <ele>206.19999694824</ele>
        <time>2014-09-04T12:14:10.000Z</time>
      </trkpt>
      <trkpt lat="45.1149" lon="0.66275">
        <ele>206.39999389648</ele>
        <time>2014-09-04T12:14:11.000Z</time>
      </trkpt>
      <trkpt lat="45.11462" lon="0.663">
        <ele>205</ele>
        <time>2014-09-04T12:14:16.000Z</time>
      </trkpt>
      <trkpt lat="45.11443" lon="0.66316">
        <ele>204</ele>
        <time>2014-09-04T12:14:19.000Z</time>
      </trkpt>
      <trkpt lat="45.11409" lon="0.66351">
        <ele>202.80000305176</ele>
        <time>2014-09-04T12:14:25.000Z</time>
      </trkpt>
      <trkpt lat="45.11407" lon="0.6636">
        <ele>202</ele>
        <time>2014-09-04T12:14:26.000Z</time>
      </trkpt>
      <trkpt lat="45.11407" lon="0.6637">
        <ele>201.39999389648</ele>
        <time>2014-09-04T12:14:27.000Z</time>
      </trkpt>
      <trkpt lat="45.11408" lon="0.66387">
        <ele>201.19999694824</ele>
        <time>2014-09-04T12:14:29.000Z</time>
      </trkpt>
      <trkpt lat="45.11409" lon="0.66396">
        <ele>201.39999389648</ele>
        <time>2014-09-04T12:14:30.000Z</time>
      </trkpt>
      <trkpt lat="45.11409" lon="0.6644">
        <ele>200.60000610352</ele>
        <time>2014-09-04T12:14:35.000Z</time>
      </trkpt>
      <trkpt lat="45.11409" lon="0.66449">
        <ele>200.19999694824</ele>
        <time>2014-09-04T12:14:36.000Z</time>
      </trkpt>
      <trkpt lat="45.11408" lon="0.66474">
        <ele>199.19999694824</ele>
        <time>2014-09-04T12:14:39.000Z</time>
      </trkpt>
      <trkpt lat="45.11406" lon="0.66501">
        <ele>198</ele>
        <time>2014-09-04T12:14:42.000Z</time>
      </trkpt>
      <trkpt lat="45.11398" lon="0.66541">
        <ele>197.19999694824</ele>
        <time>2014-09-04T12:14:46.000Z</time>
      </trkpt>
      <trkpt lat="45.11398" lon="0.66551">
        <ele>196.80000305176</ele>
        <time>2014-09-04T12:14:47.000Z</time>
      </trkpt>
      <trkpt lat="45.114" lon="0.66591">
        <ele>196.19999694824</ele>
        <time>2014-09-04T12:14:51.000Z</time>
      </trkpt>
      <trkpt lat="45.11402" lon="0.66607">
        <ele>196</ele>
        <time>2014-09-04T12:14:53.000Z</time>
      </trkpt>
      <trkpt lat="45.11404" lon="0.66615">
        <ele>195.80000305176</ele>
        <time>2014-09-04T12:14:54.000Z</time>
      </trkpt>
      <trkpt lat="45.11406" lon="0.66624">
        <ele>195.39999389648</ele>
        <time>2014-09-04T12:14:55.000Z</time>
      </trkpt>
      <trkpt lat="45.1141" lon="0.66641">
        <ele>194.80000305176</ele>
        <time>2014-09-04T12:14:57.000Z</time>
      </trkpt>
      <trkpt lat="45.11418" lon="0.66666">
        <ele>194.19999694824</ele>
        <time>2014-09-04T12:15:00.000Z</time>
      </trkpt>
      <trkpt lat="45.1142" lon="0.66674">
        <ele>194</ele>
        <time>2014-09-04T12:15:01.000Z</time>
      </trkpt>
      <trkpt lat="45.11426" lon="0.66705">
        <ele>193.60000610352</ele>
        <time>2014-09-04T12:15:05.000Z</time>
      </trkpt>
      <trkpt lat="45.11428" lon="0.6672">
        <ele>193.19999694824</ele>
        <time>2014-09-04T12:15:07.000Z</time>
      </trkpt>
      <trkpt lat="45.11434" lon="0.66743">
        <ele>192.60000610352</ele>
        <time>2014-09-04T12:15:10.000Z</time>
      </trkpt>
      <trkpt lat="45.11436" lon="0.6676">
        <ele>191.60000610352</ele>
        <time>2014-09-04T12:15:12.000Z</time>
      </trkpt>
      <trkpt lat="45.11436" lon="0.66769">
        <ele>191</ele>
        <time>2014-09-04T12:15:13.000Z</time>
      </trkpt>
      <trkpt lat="45.11435" lon="0.66777">
        <ele>190.60000610352</ele>
        <time>2014-09-04T12:15:14.000Z</time>
      </trkpt>
      <trkpt lat="45.11431" lon="0.6679">
        <ele>190.60000610352</ele>
        <time>2014-09-04T12:15:16.000Z</time>
      </trkpt>
      <trkpt lat="45.11426" lon="0.66803">
        <ele>190.60000610352</ele>
        <time>2014-09-04T12:15:18.000Z</time>
      </trkpt>
      <trkpt lat="45.11424" lon="0.6681">
        <ele>190.60000610352</ele>
        <time>2014-09-04T12:15:19.000Z</time>
      </trkpt>
      <trkpt lat="45.11422" lon="0.66827">
        <ele>189.60000610352</ele>
        <time>2014-09-04T12:15:21.000Z</time>
      </trkpt>
      <trkpt lat="45.11418" lon="0.66845">
        <ele>188</ele>
        <time>2014-09-04T12:15:23.000Z</time>
      </trkpt>
      <trkpt lat="45.11415" lon="0.66856">
        <ele>187</ele>
        <time>2014-09-04T12:15:24.000Z</time>
      </trkpt>
      <trkpt lat="45.11412" lon="0.66866">
        <ele>186</ele>
        <time>2014-09-04T12:15:25.000Z</time>
      </trkpt>
      <trkpt lat="45.11409" lon="0.66876">
        <ele>184.80000305176</ele>
        <time>2014-09-04T12:15:26.000Z</time>
      </trkpt>
      <trkpt lat="45.11405" lon="0.66884">
        <ele>183.80000305176</ele>
        <time>2014-09-04T12:15:27.000Z</time>
      </trkpt>
      <trkpt lat="45.11398" lon="0.669">
        <ele>182</ele>
        <time>2014-09-04T12:15:29.000Z</time>
      </trkpt>
      <trkpt lat="45.11394" lon="0.66908">
        <ele>180.19999694824</ele>
        <time>2014-09-04T12:15:30.000Z</time>
      </trkpt>
      <trkpt lat="45.11387" lon="0.66922">
        <ele>178.19999694824</ele>
        <time>2014-09-04T12:15:32.000Z</time>
      </trkpt>
      <trkpt lat="45.11379" lon="0.66938">
        <ele>176.80000305176</ele>
        <time>2014-09-04T12:15:34.000Z</time>
      </trkpt>
      <trkpt lat="45.11378" lon="0.66944">
        <ele>176.19999694824</ele>
        <time>2014-09-04T12:15:35.000Z</time>
      </trkpt>
      <trkpt lat="45.11379" lon="0.66958">
        <ele>177.80000305176</ele>
        <time>2014-09-04T12:15:38.000Z</time>
      </trkpt>
      <trkpt lat="45.11379" lon="0.66962">
        <ele>178.39999389648</ele>
        <time>2014-09-04T12:15:39.000Z</time>
      </trkpt>
      <trkpt lat="45.11379" lon="0.66965">
        <ele>179</ele>
        <time>2014-09-04T12:15:40.000Z</time>
      </trkpt>
      <trkpt lat="45.11378" lon="0.66968">
        <ele>179.39999389648</ele>
        <time>2014-09-04T12:15:41.000Z</time>
      </trkpt>
      <trkpt lat="45.11377" lon="0.6697">
        <ele>179.80000305176</ele>
        <time>2014-09-04T12:15:42.000Z</time>
      </trkpt>
      <trkpt lat="45.11376" lon="0.66974">
        <ele>180.19999694824</ele>
        <time>2014-09-04T12:15:43.000Z</time>
      </trkpt>
      <trkpt lat="45.11375" lon="0.66981">
        <ele>180.80000305176</ele>
        <time>2014-09-04T12:15:45.000Z</time>
      </trkpt>
      <trkpt lat="45.11374" lon="0.66996">
        <ele>182</ele>
        <time>2014-09-04T12:15:49.000Z</time>
      </trkpt>
      <trkpt lat="45.11373" lon="0.67">
        <ele>182.39999389648</ele>
        <time>2014-09-04T12:15:50.000Z</time>
      </trkpt>
      <trkpt lat="45.11371" lon="0.67011">
        <ele>183</ele>
        <time>2014-09-04T12:15:53.000Z</time>
      </trkpt>
      <trkpt lat="45.11371" lon="0.67018">
        <ele>183.39999389648</ele>
        <time>2014-09-04T12:15:55.000Z</time>
      </trkpt>
      <trkpt lat="45.11371" lon="0.67043">
        <ele>183.80000305176</ele>
        <time>2014-09-04T12:16:02.000Z</time>
      </trkpt>
      <trkpt lat="45.11369" lon="0.67068">
        <ele>183.19999694824</ele>
        <time>2014-09-04T12:16:08.000Z</time>
      </trkpt>
      <trkpt lat="45.11366" lon="0.67089">
        <ele>181.60000610352</ele>
        <time>2014-09-04T12:16:12.000Z</time>
      </trkpt>
      <trkpt lat="45.11366" lon="0.67094">
        <ele>181.19999694824</ele>
        <time>2014-09-04T12:16:13.000Z</time>
      </trkpt>
      <trkpt lat="45.11366" lon="0.671">
        <ele>180.39999389648</ele>
        <time>2014-09-04T12:16:14.000Z</time>
      </trkpt>
      <trkpt lat="45.11366" lon="0.67113">
        <ele>179</ele>
        <time>2014-09-04T12:16:16.000Z</time>
      </trkpt>
      <trkpt lat="45.11365" lon="0.67126">
        <ele>177.19999694824</ele>
        <time>2014-09-04T12:16:18.000Z</time>
      </trkpt>
      <trkpt lat="45.11368" lon="0.6713">
        <ele>177.19999694824</ele>
        <time>2014-09-04T12:16:19.000Z</time>
      </trkpt>
      <trkpt lat="45.11371" lon="0.67136">
        <ele>177.60000610352</ele>
        <time>2014-09-04T12:16:21.000Z</time>
      </trkpt>
      <trkpt lat="45.11376" lon="0.67144">
        <ele>178.39999389648</ele>
        <time>2014-09-04T12:16:24.000Z</time>
      </trkpt>
      <trkpt lat="45.11377" lon="0.67151">
        <ele>179.19999694824</ele>
        <time>2014-09-04T12:16:27.000Z</time>
      </trkpt>
      <trkpt lat="45.11379" lon="0.67156">
        <ele>179.60000610352</ele>
        <time>2014-09-04T12:16:29.000Z</time>
      </trkpt>
      <trkpt lat="45.11385" lon="0.67167">
        <ele>180.80000305176</ele>
        <time>2014-09-04T12:16:33.000Z</time>
      </trkpt>
      <trkpt lat="45.11389" lon="0.67178">
        <ele>181.60000610352</ele>
        <time>2014-09-04T12:16:36.000Z</time>
      </trkpt>
      <trkpt lat="45.1139" lon="0.67181">
        <ele>182</ele>
        <time>2014-09-04T12:16:37.000Z</time>
      </trkpt>
      <trkpt lat="45.11393" lon="0.67193">
        <ele>183.39999389648</ele>
        <time>2014-09-04T12:16:41.000Z</time>
      </trkpt>
      <trkpt lat="45.11394" lon="0.67198">
        <ele>184</ele>
        <time>2014-09-04T12:16:43.000Z</time>
      </trkpt>
      <trkpt lat="45.11396" lon="0.67206">
        <ele>184.39999389648</ele>
        <time>2014-09-04T12:16:46.000Z</time>
      </trkpt>
      <trkpt lat="45.114" lon="0.67223">
        <ele>185.39999389648</ele>
        <time>2014-09-04T12:16:52.000Z</time>
      </trkpt>
      <trkpt lat="45.114" lon="0.67226">
        <ele>185.60000610352</ele>
        <time>2014-09-04T12:16:53.000Z</time>
      </trkpt>
      <trkpt lat="45.11401" lon="0.67244">
        <ele>186.60000610352</ele>
        <time>2014-09-04T12:17:00.000Z</time>
      </trkpt>
      <trkpt lat="45.11402" lon="0.67252">
        <ele>187</ele>
        <time>2014-09-04T12:17:03.000Z</time>
      </trkpt>
      <trkpt lat="45.11402" lon="0.67259">
        <ele>187.60000610352</ele>
        <time>2014-09-04T12:17:06.000Z</time>
      </trkpt>
      <trkpt lat="45.11403" lon="0.67273">
        <ele>188.19999694824</ele>
        <time>2014-09-04T12:17:11.000Z</time>
      </trkpt>
      <trkpt lat="45.11402" lon="0.67294">
        <ele>188.60000610352</ele>
        <time>2014-09-04T12:17:19.000Z</time>
      </trkpt>
      <trkpt lat="45.11402" lon="0.67304">
        <ele>188.80000305176</ele>
        <time>2014-09-04T12:17:23.000Z</time>
      </trkpt>
      <trkpt lat="45.11402" lon="0.67313">
        <ele>188.39999389648</ele>
        <time>2014-09-04T12:17:26.000Z</time>
      </trkpt>
      <trkpt lat="45.11404" lon="0.67333">
        <ele>187.60000610352</ele>
        <time>2014-09-04T12:17:31.000Z</time>
      </trkpt>
      <trkpt lat="45.11404" lon="0.67339">
        <ele>187.39999389648</ele>
        <time>2014-09-04T12:17:32.000Z</time>
      </trkpt>
      <trkpt lat="45.11405" lon="0.67359">
        <ele>186.19999694824</ele>
        <time>2014-09-04T12:17:35.000Z</time>
      </trkpt>
      <trkpt lat="45.11406" lon="0.67376">
        <ele>185.19999694824</ele>
        <time>2014-09-04T12:17:37.000Z</time>
      </trkpt>
      <trkpt lat="45.11404" lon="0.67437">
        <ele>184</ele>
        <time>2014-09-04T12:17:44.000Z</time>
      </trkpt>
      <trkpt lat="45.11404" lon="0.67446">
        <ele>183.80000305176</ele>
        <time>2014-09-04T12:17:45.000Z</time>
      </trkpt>
      <trkpt lat="45.11406" lon="0.67465">
        <ele>183</ele>
        <time>2014-09-04T12:17:47.000Z</time>
      </trkpt>
      <trkpt lat="45.11408" lon="0.67475">
        <ele>182.19999694824</ele>
        <time>2014-09-04T12:17:48.000Z</time>
      </trkpt>
      <trkpt lat="45.1141" lon="0.67486">
        <ele>181.19999694824</ele>
        <time>2014-09-04T12:17:49.000Z</time>
      </trkpt>
      <trkpt lat="45.11412" lon="0.67498">
        <ele>180.19999694824</ele>
        <time>2014-09-04T12:17:50.000Z</time>
      </trkpt>
      <trkpt lat="45.11415" lon="0.67511">
        <ele>178.80000305176</ele>
        <time>2014-09-04T12:17:51.000Z</time>
      </trkpt>
      <trkpt lat="45.11418" lon="0.67524">
        <ele>177.60000610352</ele>
        <time>2014-09-04T12:17:52.000Z</time>
      </trkpt>
      <trkpt lat="45.11424" lon="0.67534">
        <ele>176.60000610352</ele>
        <time>2014-09-04T12:17:53.000Z</time>
      </trkpt>
      <trkpt lat="45.11444" lon="0.67566">
        <ele>178</ele>
        <time>2014-09-04T12:17:57.000Z</time>
      </trkpt>
      <trkpt lat="45.11455" lon="0.67593">
        <ele>178.80000305176</ele>
        <time>2014-09-04T12:18:01.000Z</time>
      </trkpt>
      <trkpt lat="45.11457" lon="0.67599">
        <ele>178.80000305176</ele>
        <time>2014-09-04T12:18:02.000Z</time>
      </trkpt>
      <trkpt lat="45.11479" lon="0.67645">
        <ele>178.39999389648</ele>
        <time>2014-09-04T12:18:10.000Z</time>
      </trkpt>
      <trkpt lat="45.11487" lon="0.67664">
        <ele>177.60000610352</ele>
        <time>2014-09-04T12:18:13.000Z</time>
      </trkpt>
      <trkpt lat="45.11503" lon="0.677">
        <ele>175.60000610352</ele>
        <time>2014-09-04T12:18:18.000Z</time>
      </trkpt>
      <trkpt lat="45.11512" lon="0.67716">
        <ele>174.60000610352</ele>
        <time>2014-09-04T12:18:20.000Z</time>
      </trkpt>
      <trkpt lat="45.11517" lon="0.67723">
        <ele>174.19999694824</ele>
        <time>2014-09-04T12:18:21.000Z</time>
      </trkpt>
      <trkpt lat="45.11529" lon="0.67735">
        <ele>173.80000305176</ele>
        <time>2014-09-04T12:18:23.000Z</time>
      </trkpt>
      <trkpt lat="45.11549" lon="0.67753">
        <ele>174.60000610352</ele>
        <time>2014-09-04T12:18:27.000Z</time>
      </trkpt>
      <trkpt lat="45.11552" lon="0.67758">
        <ele>174.80000305176</ele>
        <time>2014-09-04T12:18:28.000Z</time>
      </trkpt>
      <trkpt lat="45.11565" lon="0.67776">
        <ele>175.60000610352</ele>
        <time>2014-09-04T12:18:33.000Z</time>
      </trkpt>
      <trkpt lat="45.11568" lon="0.67781">
        <ele>175.80000305176</ele>
        <time>2014-09-04T12:18:34.000Z</time>
      </trkpt>
      <trkpt lat="45.11574" lon="0.67796">
        <ele>176.39999389648</ele>
        <time>2014-09-04T12:18:38.000Z</time>
      </trkpt>
      <trkpt lat="45.11577" lon="0.67804">
        <ele>176.80000305176</ele>
        <time>2014-09-04T12:18:40.000Z</time>
      </trkpt>
      <trkpt lat="45.11587" lon="0.67823">
        <ele>177.80000305176</ele>
        <time>2014-09-04T12:18:46.000Z</time>
      </trkpt>
      <trkpt lat="45.11597" lon="0.67838">
        <ele>179</ele>
        <time>2014-09-04T12:18:52.000Z</time>
      </trkpt>
      <trkpt lat="45.11605" lon="0.67851">
        <ele>180.19999694824</ele>
        <time>2014-09-04T12:18:58.000Z</time>
      </trkpt>
      <trkpt lat="45.11607" lon="0.67854">
        <ele>180.39999389648</ele>
        <time>2014-09-04T12:18:59.000Z</time>
      </trkpt>
      <trkpt lat="45.11614" lon="0.67867">
        <ele>181.39999389648</ele>
        <time>2014-09-04T12:19:05.000Z</time>
      </trkpt>
      <trkpt lat="45.11615" lon="0.67869">
        <ele>181.60000610352</ele>
        <time>2014-09-04T12:19:06.000Z</time>
      </trkpt>
      <trkpt lat="45.11617" lon="0.6788">
        <ele>182.39999389648</ele>
        <time>2014-09-04T12:19:10.000Z</time>
      </trkpt>
      <trkpt lat="45.1162" lon="0.67888">
        <ele>182.80000305176</ele>
        <time>2014-09-04T12:19:14.000Z</time>
      </trkpt>
      <trkpt lat="45.11626" lon="0.679">
        <ele>183.39999389648</ele>
        <time>2014-09-04T12:19:18.000Z</time>
      </trkpt>
      <trkpt lat="45.1163" lon="0.67909">
        <ele>183.80000305176</ele>
        <time>2014-09-04T12:19:21.000Z</time>
      </trkpt>
      <trkpt lat="45.11637" lon="0.67932">
        <ele>184.60000610352</ele>
        <time>2014-09-04T12:19:28.000Z</time>
      </trkpt>
      <trkpt lat="45.11643" lon="0.67951">
        <ele>185.60000610352</ele>
        <time>2014-09-04T12:19:34.000Z</time>
      </trkpt>
      <trkpt lat="45.11646" lon="0.67958">
        <ele>185.80000305176</ele>
        <time>2014-09-04T12:19:36.000Z</time>
      </trkpt>
      <trkpt lat="45.1165" lon="0.67971">
        <ele>186.60000610352</ele>
        <time>2014-09-04T12:19:40.000Z</time>
      </trkpt>
      <trkpt lat="45.11655" lon="0.67982">
        <ele>187.19999694824</ele>
        <time>2014-09-04T12:19:44.000Z</time>
      </trkpt>
      <trkpt lat="45.1166" lon="0.67991">
        <ele>187.80000305176</ele>
        <time>2014-09-04T12:19:47.000Z</time>
      </trkpt>
      <trkpt lat="45.11665" lon="0.68003">
        <ele>188.19999694824</ele>
        <time>2014-09-04T12:19:52.000Z</time>
      </trkpt>
      <trkpt lat="45.11667" lon="0.68018">
        <ele>188.80000305176</ele>
        <time>2014-09-04T12:19:57.000Z</time>
      </trkpt>
      <trkpt lat="45.11668" lon="0.68024">
        <ele>189</ele>
        <time>2014-09-04T12:19:59.000Z</time>
      </trkpt>
      <trkpt lat="45.11673" lon="0.68043">
        <ele>189.60000610352</ele>
        <time>2014-09-04T12:20:06.000Z</time>
      </trkpt>
      <trkpt lat="45.1168" lon="0.68058">
        <ele>190</ele>
        <time>2014-09-04T12:20:12.000Z</time>
      </trkpt>
      <trkpt lat="45.11683" lon="0.68062">
        <ele>190.19999694824</ele>
        <time>2014-09-04T12:20:14.000Z</time>
      </trkpt>
      <trkpt lat="45.11695" lon="0.68082">
        <ele>190.19999694824</ele>
        <time>2014-09-04T12:20:22.000Z</time>
      </trkpt>
      <trkpt lat="45.11704" lon="0.68105">
        <ele>190</ele>
        <time>2014-09-04T12:20:28.000Z</time>
      </trkpt>
      <trkpt lat="45.11717" lon="0.68128">
        <ele>189.19999694824</ele>
        <time>2014-09-04T12:20:33.000Z</time>
      </trkpt>
      <trkpt lat="45.11736" lon="0.68133">
        <ele>189</ele>
        <time>2014-09-04T12:20:37.000Z</time>
      </trkpt>
      <trkpt lat="45.11768" lon="0.68125">
        <ele>188.19999694824</ele>
        <time>2014-09-04T12:20:43.000Z</time>
      </trkpt>
      <trkpt lat="45.11784" lon="0.68118">
        <ele>187.80000305176</ele>
        <time>2014-09-04T12:20:46.000Z</time>
      </trkpt>
      <trkpt lat="45.11807" lon="0.68107">
        <ele>187.39999389648</ele>
        <time>2014-09-04T12:20:50.000Z</time>
      </trkpt>
      <trkpt lat="45.11849" lon="0.6808">
        <ele>188</ele>
        <time>2014-09-04T12:20:58.000Z</time>
      </trkpt>
      <trkpt lat="45.11877" lon="0.68048">
        <ele>188.39999389648</ele>
        <time>2014-09-04T12:21:05.000Z</time>
      </trkpt>
      <trkpt lat="45.11907" lon="0.68004">
        <ele>188.39999389648</ele>
        <time>2014-09-04T12:21:13.000Z</time>
      </trkpt>
      <trkpt lat="45.11933" lon="0.67963">
        <ele>188.60000610352</ele>
        <time>2014-09-04T12:21:21.000Z</time>
      </trkpt>
      <trkpt lat="45.11951" lon="0.67938">
        <ele>188.80000305176</ele>
        <time>2014-09-04T12:21:26.000Z</time>
      </trkpt>
      <trkpt lat="45.11956" lon="0.67934">
        <ele>188.80000305176</ele>
        <time>2014-09-04T12:21:27.000Z</time>
      </trkpt>
      <trkpt lat="45.1196" lon="0.67931">
        <ele>188.80000305176</ele>
        <time>2014-09-04T12:21:28.000Z</time>
      </trkpt>
      <trkpt lat="45.11981" lon="0.67928">
        <ele>188.80000305176</ele>
        <time>2014-09-04T12:21:32.000Z</time>
      </trkpt>
      <trkpt lat="45.11986" lon="0.67928">
        <ele>188.80000305176</ele>
        <time>2014-09-04T12:21:33.000Z</time>
      </trkpt>
      <trkpt lat="45.1201" lon="0.67929">
        <ele>189.19999694824</ele>
        <time>2014-09-04T12:21:38.000Z</time>
      </trkpt>
      <trkpt lat="45.12049" lon="0.67929">
        <ele>189.39999389648</ele>
        <time>2014-09-04T12:21:46.000Z</time>
      </trkpt>
      <trkpt lat="45.12098" lon="0.67929">
        <ele>189</ele>
        <time>2014-09-04T12:21:55.000Z</time>
      </trkpt>
      <trkpt lat="45.12143" lon="0.67939">
        <ele>188.60000610352</ele>
        <time>2014-09-04T12:22:03.000Z</time>
      </trkpt>
      <trkpt lat="45.12173" lon="0.6796">
        <ele>187.60000610352</ele>
        <time>2014-09-04T12:22:08.000Z</time>
      </trkpt>
      <trkpt lat="45.12202" lon="0.67978">
        <ele>186.39999389648</ele>
        <time>2014-09-04T12:22:12.000Z</time>
      </trkpt>
      <trkpt lat="45.12209" lon="0.67985">
        <ele>186</ele>
        <time>2014-09-04T12:22:13.000Z</time>
      </trkpt>
      <trkpt lat="45.12216" lon="0.67993">
        <ele>185.60000610352</ele>
        <time>2014-09-04T12:22:14.000Z</time>
      </trkpt>
      <trkpt lat="45.12223" lon="0.68001">
        <ele>185.19999694824</ele>
        <time>2014-09-04T12:22:15.000Z</time>
      </trkpt>
      <trkpt lat="45.12246" lon="0.68021">
        <ele>184</ele>
        <time>2014-09-04T12:22:18.000Z</time>
      </trkpt>
      <trkpt lat="45.12254" lon="0.68027">
        <ele>183</ele>
        <time>2014-09-04T12:22:19.000Z</time>
      </trkpt>
      <trkpt lat="45.1227" lon="0.68042">
        <ele>181.80000305176</ele>
        <time>2014-09-04T12:22:21.000Z</time>
      </trkpt>
      <trkpt lat="45.12286" lon="0.68057">
        <ele>180</ele>
        <time>2014-09-04T12:22:23.000Z</time>
      </trkpt>
      <trkpt lat="45.12294" lon="0.68064">
        <ele>179</ele>
        <time>2014-09-04T12:22:24.000Z</time>
      </trkpt>
      <trkpt lat="45.12302" lon="0.68071">
        <ele>178</ele>
        <time>2014-09-04T12:22:25.000Z</time>
      </trkpt>
      <trkpt lat="45.1231" lon="0.68076">
        <ele>177.19999694824</ele>
        <time>2014-09-04T12:22:26.000Z</time>
      </trkpt>
      <trkpt lat="45.12321" lon="0.6809">
        <ele>175.80000305176</ele>
        <time>2014-09-04T12:22:28.000Z</time>
      </trkpt>
      <trkpt lat="45.12324" lon="0.68099">
        <ele>175.39999389648</ele>
        <time>2014-09-04T12:22:29.000Z</time>
      </trkpt>
      <trkpt lat="45.12328" lon="0.6812">
        <ele>175</ele>
        <time>2014-09-04T12:22:32.000Z</time>
      </trkpt>
      <trkpt lat="45.12327" lon="0.68126">
        <ele>174.60000610352</ele>
        <time>2014-09-04T12:22:33.000Z</time>
      </trkpt>
      <trkpt lat="45.12321" lon="0.68136">
        <ele>174.39999389648</ele>
        <time>2014-09-04T12:22:35.000Z</time>
      </trkpt>
      <trkpt lat="45.12312" lon="0.68147">
        <ele>173.39999389648</ele>
        <time>2014-09-04T12:22:37.000Z</time>
      </trkpt>
      <trkpt lat="45.1231" lon="0.68154">
        <ele>172.19999694824</ele>
        <time>2014-09-04T12:22:38.000Z</time>
      </trkpt>
      <trkpt lat="45.12309" lon="0.68158">
        <ele>171</ele>
        <time>2014-09-04T12:22:39.000Z</time>
      </trkpt>
      <trkpt lat="45.12309" lon="0.6816">
        <ele>170</ele>
        <time>2014-09-04T12:22:40.000Z</time>
      </trkpt>
      <trkpt lat="45.12311" lon="0.68167">
        <ele>168.80000305176</ele>
        <time>2014-09-04T12:22:42.000Z</time>
      </trkpt>
      <trkpt lat="45.12314" lon="0.68169">
        <ele>167.60000610352</ele>
        <time>2014-09-04T12:22:43.000Z</time>
      </trkpt>
      <trkpt lat="45.12321" lon="0.68174">
        <ele>166.39999389648</ele>
        <time>2014-09-04T12:22:45.000Z</time>
      </trkpt>
      <trkpt lat="45.12326" lon="0.68178">
        <ele>165.80000305176</ele>
        <time>2014-09-04T12:22:46.000Z</time>
      </trkpt>
      <trkpt lat="45.12334" lon="0.68184">
        <ele>165</ele>
        <time>2014-09-04T12:22:47.000Z</time>
      </trkpt>
      <trkpt lat="45.1235" lon="0.68197">
        <ele>163.60000610352</ele>
        <time>2014-09-04T12:22:49.000Z</time>
      </trkpt>
      <trkpt lat="45.12367" lon="0.68212">
        <ele>162.19999694824</ele>
        <time>2014-09-04T12:22:51.000Z</time>
      </trkpt>
      <trkpt lat="45.12398" lon="0.68227">
        <ele>161</ele>
        <time>2014-09-04T12:22:54.000Z</time>
      </trkpt>
      <trkpt lat="45.12443" lon="0.68253">
        <ele>159.80000305176</ele>
        <time>2014-09-04T12:22:59.000Z</time>
      </trkpt>
      <trkpt lat="45.1245" lon="0.68258">
        <ele>159.19999694824</ele>
        <time>2014-09-04T12:23:00.000Z</time>
      </trkpt>
      <trkpt lat="45.12457" lon="0.68265">
        <ele>158.60000610352</ele>
        <time>2014-09-04T12:23:01.000Z</time>
      </trkpt>
      <trkpt lat="45.12482" lon="0.68287">
        <ele>157.80000305176</ele>
        <time>2014-09-04T12:23:05.000Z</time>
      </trkpt>
      <trkpt lat="45.12492" lon="0.68297">
        <ele>157.19999694824</ele>
        <time>2014-09-04T12:23:07.000Z</time>
      </trkpt>
      <trkpt lat="45.12511" lon="0.68314">
        <ele>157.39999389648</ele>
        <time>2014-09-04T12:23:11.000Z</time>
      </trkpt>
      <trkpt lat="45.12531" lon="0.6833">
        <ele>156.19999694824</ele>
        <time>2014-09-04T12:23:15.000Z</time>
      </trkpt>
      <trkpt lat="45.12543" lon="0.68338">
        <ele>155</ele>
        <time>2014-09-04T12:23:17.000Z</time>
      </trkpt>
      <trkpt lat="45.12549" lon="0.68344">
        <ele>154.19999694824</ele>
        <time>2014-09-04T12:23:18.000Z</time>
      </trkpt>
      <trkpt lat="45.12554" lon="0.68349">
        <ele>153.80000305176</ele>
        <time>2014-09-04T12:23:19.000Z</time>
      </trkpt>
      <trkpt lat="45.12574" lon="0.68364">
        <ele>153</ele>
        <time>2014-09-04T12:23:22.000Z</time>
      </trkpt>
      <trkpt lat="45.12581" lon="0.6837">
        <ele>152.39999389648</ele>
        <time>2014-09-04T12:23:23.000Z</time>
      </trkpt>
      <trkpt lat="45.12615" lon="0.68403">
        <ele>151</ele>
        <time>2014-09-04T12:23:28.000Z</time>
      </trkpt>
      <trkpt lat="45.12622" lon="0.68409">
        <ele>150.60000610352</ele>
        <time>2014-09-04T12:23:29.000Z</time>
      </trkpt>
      <trkpt lat="45.12635" lon="0.68422">
        <ele>149.60000610352</ele>
        <time>2014-09-04T12:23:31.000Z</time>
      </trkpt>
      <trkpt lat="45.12651" lon="0.68436">
        <ele>148.39999389648</ele>
        <time>2014-09-04T12:23:33.000Z</time>
      </trkpt>
      <trkpt lat="45.12667" lon="0.68452">
        <ele>147</ele>
        <time>2014-09-04T12:23:35.000Z</time>
      </trkpt>
      <trkpt lat="45.12686" lon="0.68467">
        <ele>145.39999389648</ele>
        <time>2014-09-04T12:23:37.000Z</time>
      </trkpt>
      <trkpt lat="45.12706" lon="0.68482">
        <ele>143.39999389648</ele>
        <time>2014-09-04T12:23:39.000Z</time>
      </trkpt>
      <trkpt lat="45.12716" lon="0.6849">
        <ele>142.39999389648</ele>
        <time>2014-09-04T12:23:40.000Z</time>
      </trkpt>
      <trkpt lat="45.12726" lon="0.68497">
        <ele>141.39999389648</ele>
        <time>2014-09-04T12:23:41.000Z</time>
      </trkpt>
      <trkpt lat="45.12737" lon="0.68505">
        <ele>140.39999389648</ele>
        <time>2014-09-04T12:23:42.000Z</time>
      </trkpt>
      <trkpt lat="45.12758" lon="0.6852">
        <ele>138.80000305176</ele>
        <time>2014-09-04T12:23:44.000Z</time>
      </trkpt>
      <trkpt lat="45.12776" lon="0.68535">
        <ele>137.60000610352</ele>
        <time>2014-09-04T12:23:46.000Z</time>
      </trkpt>
      <trkpt lat="45.12793" lon="0.68551">
        <ele>136.60000610352</ele>
        <time>2014-09-04T12:23:48.000Z</time>
      </trkpt>
      <trkpt lat="45.12801" lon="0.68561">
        <ele>136.19999694824</ele>
        <time>2014-09-04T12:23:49.000Z</time>
      </trkpt>
      <trkpt lat="45.12814" lon="0.68583">
        <ele>135.39999389648</ele>
        <time>2014-09-04T12:23:51.000Z</time>
      </trkpt>
      <trkpt lat="45.12821" lon="0.68593">
        <ele>134.60000610352</ele>
        <time>2014-09-04T12:23:52.000Z</time>
      </trkpt>
      <trkpt lat="45.12828" lon="0.68603">
        <ele>134</ele>
        <time>2014-09-04T12:23:53.000Z</time>
      </trkpt>
      <trkpt lat="45.12842" lon="0.68623">
        <ele>131.19999694824</ele>
        <time>2014-09-04T12:23:55.000Z</time>
      </trkpt>
      <trkpt lat="45.12847" lon="0.68634">
        <ele>130.39999389648</ele>
        <time>2014-09-04T12:23:56.000Z</time>
      </trkpt>
      <trkpt lat="45.12852" lon="0.68645">
        <ele>129.39999389648</ele>
        <time>2014-09-04T12:23:57.000Z</time>
      </trkpt>
      <trkpt lat="45.12863" lon="0.68668">
        <ele>127.59999847412</ele>
        <time>2014-09-04T12:23:59.000Z</time>
      </trkpt>
      <trkpt lat="45.12873" lon="0.68691">
        <ele>126.19999694824</ele>
        <time>2014-09-04T12:24:01.000Z</time>
      </trkpt>
      <trkpt lat="45.12888" lon="0.68723">
        <ele>126</ele>
        <time>2014-09-04T12:24:04.000Z</time>
      </trkpt>
      <trkpt lat="45.12902" lon="0.68753">
        <ele>126.80000305176</ele>
        <time>2014-09-04T12:24:08.000Z</time>
      </trkpt>
      <trkpt lat="45.12903" lon="0.6876">
        <ele>127</ele>
        <time>2014-09-04T12:24:09.000Z</time>
      </trkpt>
      <trkpt lat="45.12901" lon="0.68771">
        <ele>127.40000152588</ele>
        <time>2014-09-04T12:24:11.000Z</time>
      </trkpt>
      <trkpt lat="45.12891" lon="0.68779">
        <ele>127.80000305176</ele>
        <time>2014-09-04T12:24:14.000Z</time>
      </trkpt>
      <trkpt lat="45.12887" lon="0.68782">
        <ele>127.80000305176</ele>
        <time>2014-09-04T12:24:15.000Z</time>
      </trkpt>
      <trkpt lat="45.12875" lon="0.6879">
        <ele>128.39999389648</ele>
        <time>2014-09-04T12:24:19.000Z</time>
      </trkpt>
      <trkpt lat="45.1287" lon="0.68794">
        <ele>128.60000610352</ele>
        <time>2014-09-04T12:24:21.000Z</time>
      </trkpt>
      <trkpt lat="45.12861" lon="0.688">
        <ele>129.60000610352</ele>
        <time>2014-09-04T12:24:25.000Z</time>
      </trkpt>
      <trkpt lat="45.12853" lon="0.68806">
        <ele>130.60000610352</ele>
        <time>2014-09-04T12:24:29.000Z</time>
      </trkpt>
      <trkpt lat="45.12846" lon="0.6881">
        <ele>131.19999694824</ele>
        <time>2014-09-04T12:24:32.000Z</time>
      </trkpt>
      <trkpt lat="45.12841" lon="0.68816">
        <ele>131.80000305176</ele>
        <time>2014-09-04T12:24:35.000Z</time>
      </trkpt>
      <trkpt lat="45.12833" lon="0.68824">
        <ele>132.80000305176</ele>
        <time>2014-09-04T12:24:39.000Z</time>
      </trkpt>
      <trkpt lat="45.12831" lon="0.68826">
        <ele>133</ele>
        <time>2014-09-04T12:24:40.000Z</time>
      </trkpt>
      <trkpt lat="45.12818" lon="0.68841">
        <ele>134</ele>
        <time>2014-09-04T12:24:47.000Z</time>
      </trkpt>
      <trkpt lat="45.12814" lon="0.68846">
        <ele>134.19999694824</ele>
        <time>2014-09-04T12:24:49.000Z</time>
      </trkpt>
      <trkpt lat="45.12803" lon="0.68855">
        <ele>135.19999694824</ele>
        <time>2014-09-04T12:24:54.000Z</time>
      </trkpt>
      <trkpt lat="45.12796" lon="0.6886">
        <ele>135.60000610352</ele>
        <time>2014-09-04T12:24:57.000Z</time>
      </trkpt>
      <trkpt lat="45.12787" lon="0.68865">
        <ele>136.39999389648</ele>
        <time>2014-09-04T12:25:01.000Z</time>
      </trkpt>
      <trkpt lat="45.12773" lon="0.68873">
        <ele>137.60000610352</ele>
        <time>2014-09-04T12:25:07.000Z</time>
      </trkpt>
      <trkpt lat="45.1276" lon="0.68877">
        <ele>138.80000305176</ele>
        <time>2014-09-04T12:25:13.000Z</time>
      </trkpt>
      <trkpt lat="45.12754" lon="0.6888">
        <ele>139.39999389648</ele>
        <time>2014-09-04T12:25:16.000Z</time>
      </trkpt>
      <trkpt lat="45.12749" lon="0.68881">
        <ele>140</ele>
        <time>2014-09-04T12:25:18.000Z</time>
      </trkpt>
      <trkpt lat="45.12736" lon="0.68882">
        <ele>141</ele>
        <time>2014-09-04T12:25:24.000Z</time>
      </trkpt>
      <trkpt lat="45.12733" lon="0.68882">
        <ele>141.19999694824</ele>
        <time>2014-09-04T12:25:25.000Z</time>
      </trkpt>
      <trkpt lat="45.12719" lon="0.68882">
        <ele>142</ele>
        <time>2014-09-04T12:25:31.000Z</time>
      </trkpt>
      <trkpt lat="45.12712" lon="0.68881">
        <ele>142.39999389648</ele>
        <time>2014-09-04T12:25:34.000Z</time>
      </trkpt>
      <trkpt lat="45.12698" lon="0.6888">
        <ele>143.19999694824</ele>
        <time>2014-09-04T12:25:40.000Z</time>
      </trkpt>
      <trkpt lat="45.12691" lon="0.6888">
        <ele>143.39999389648</ele>
        <time>2014-09-04T12:25:43.000Z</time>
      </trkpt>
      <trkpt lat="45.12681" lon="0.6888">
        <ele>144.19999694824</ele>
        <time>2014-09-04T12:25:48.000Z</time>
      </trkpt>
      <trkpt lat="45.12675" lon="0.68879">
        <ele>144.80000305176</ele>
        <time>2014-09-04T12:25:51.000Z</time>
      </trkpt>
      <trkpt lat="45.12667" lon="0.68878">
        <ele>145.60000610352</ele>
        <time>2014-09-04T12:25:55.000Z</time>
      </trkpt>
      <trkpt lat="45.12657" lon="0.68877">
        <ele>146</ele>
        <time>2014-09-04T12:26:00.000Z</time>
      </trkpt>
      <trkpt lat="45.12646" lon="0.68876">
        <ele>146.80000305176</ele>
        <time>2014-09-04T12:26:05.000Z</time>
      </trkpt>
      <trkpt lat="45.12636" lon="0.68875">
        <ele>147.80000305176</ele>
        <time>2014-09-04T12:26:10.000Z</time>
      </trkpt>
      <trkpt lat="45.12625" lon="0.68873">
        <ele>149</ele>
        <time>2014-09-04T12:26:15.000Z</time>
      </trkpt>
      <trkpt lat="45.12619" lon="0.68872">
        <ele>149.60000610352</ele>
        <time>2014-09-04T12:26:18.000Z</time>
      </trkpt>
      <trkpt lat="45.12617" lon="0.68871">
        <ele>150</ele>
        <time>2014-09-04T12:26:19.000Z</time>
      </trkpt>
      <trkpt lat="45.12605" lon="0.68865">
        <ele>151.19999694824</ele>
        <time>2014-09-04T12:26:26.000Z</time>
      </trkpt>
      <trkpt lat="45.12602" lon="0.68863">
        <ele>151.60000610352</ele>
        <time>2014-09-04T12:26:28.000Z</time>
      </trkpt>
      <trkpt lat="45.12597" lon="0.6886">
        <ele>152.19999694824</ele>
        <time>2014-09-04T12:26:31.000Z</time>
      </trkpt>
      <trkpt lat="45.12592" lon="0.68857">
        <ele>152.60000610352</ele>
        <time>2014-09-04T12:26:34.000Z</time>
      </trkpt>
      <trkpt lat="45.12582" lon="0.6885">
        <ele>153.60000610352</ele>
        <time>2014-09-04T12:26:39.000Z</time>
      </trkpt>
      <trkpt lat="45.12578" lon="0.68849">
        <ele>154</ele>
        <time>2014-09-04T12:26:41.000Z</time>
      </trkpt>
      <trkpt lat="45.12572" lon="0.68847">
        <ele>154.80000305176</ele>
        <time>2014-09-04T12:26:44.000Z</time>
      </trkpt>
      <trkpt lat="45.12562" lon="0.68845">
        <ele>155.80000305176</ele>
        <time>2014-09-04T12:26:49.000Z</time>
      </trkpt>
      <trkpt lat="45.12561" lon="0.68845">
        <ele>155.80000305176</ele>
        <time>2014-09-04T12:26:50.000Z</time>
      </trkpt>
      <trkpt lat="45.12551" lon="0.68845">
        <ele>157</ele>
        <time>2014-09-04T12:26:56.000Z</time>
      </trkpt>
      <trkpt lat="45.1255" lon="0.68845">
        <ele>157.19999694824</ele>
        <time>2014-09-04T12:26:57.000Z</time>
      </trkpt>
      <trkpt lat="45.12543" lon="0.68844">
        <ele>158.19999694824</ele>
        <time>2014-09-04T12:27:01.000Z</time>
      </trkpt>
      <trkpt lat="45.12537" lon="0.68844">
        <ele>159.19999694824</ele>
        <time>2014-09-04T12:27:05.000Z</time>
      </trkpt>
      <trkpt lat="45.12536" lon="0.68844">
        <ele>159.39999389648</ele>
        <time>2014-09-04T12:27:06.000Z</time>
      </trkpt>
      <trkpt lat="45.12527" lon="0.68843">
        <ele>160.39999389648</ele>
        <time>2014-09-04T12:27:12.000Z</time>
      </trkpt>
      <trkpt lat="45.12525" lon="0.68843">
        <ele>160.60000610352</ele>
        <time>2014-09-04T12:27:13.000Z</time>
      </trkpt>
      <trkpt lat="45.12509" lon="0.68841">
        <ele>161.60000610352</ele>
        <time>2014-09-04T12:27:21.000Z</time>
      </trkpt>
      <trkpt lat="45.12496" lon="0.68841">
        <ele>162.60000610352</ele>
        <time>2014-09-04T12:27:27.000Z</time>
      </trkpt>
      <trkpt lat="45.12494" lon="0.68841">
        <ele>162.80000305176</ele>
        <time>2014-09-04T12:27:28.000Z</time>
      </trkpt>
      <trkpt lat="45.12478" lon="0.68843">
        <ele>163.60000610352</ele>
        <time>2014-09-04T12:27:33.000Z</time>
      </trkpt>
      <trkpt lat="45.12469" lon="0.68844">
        <ele>164.39999389648</ele>
        <time>2014-09-04T12:27:36.000Z</time>
      </trkpt>
      <trkpt lat="45.12461" lon="0.68846">
        <ele>164.80000305176</ele>
        <time>2014-09-04T12:27:39.000Z</time>
      </trkpt>
      <trkpt lat="45.12452" lon="0.68848">
        <ele>165.39999389648</ele>
        <time>2014-09-04T12:27:44.000Z</time>
      </trkpt>
      <trkpt lat="45.1245" lon="0.6885">
        <ele>165.80000305176</ele>
        <time>2014-09-04T12:27:46.000Z</time>
      </trkpt>
      <trkpt lat="45.12437" lon="0.6885">
        <ele>167</ele>
        <time>2014-09-04T12:27:52.000Z</time>
      </trkpt>
      <trkpt lat="45.12428" lon="0.6885">
        <ele>168</ele>
        <time>2014-09-04T12:27:56.000Z</time>
      </trkpt>
      <trkpt lat="45.12421" lon="0.6885">
        <ele>168.60000610352</ele>
        <time>2014-09-04T12:27:59.000Z</time>
      </trkpt>
      <trkpt lat="45.12408" lon="0.6885">
        <ele>169</ele>
        <time>2014-09-04T12:28:05.000Z</time>
      </trkpt>
      <trkpt lat="45.12402" lon="0.68848">
        <ele>169.60000610352</ele>
        <time>2014-09-04T12:28:08.000Z</time>
      </trkpt>
      <trkpt lat="45.12398" lon="0.68847">
        <ele>170</ele>
        <time>2014-09-04T12:28:10.000Z</time>
      </trkpt>
      <trkpt lat="45.12385" lon="0.68841">
        <ele>171.19999694824</ele>
        <time>2014-09-04T12:28:17.000Z</time>
      </trkpt>
      <trkpt lat="45.12377" lon="0.6884">
        <ele>172.19999694824</ele>
        <time>2014-09-04T12:28:21.000Z</time>
      </trkpt>
      <trkpt lat="45.12369" lon="0.68838">
        <ele>172.80000305176</ele>
        <time>2014-09-04T12:28:25.000Z</time>
      </trkpt>
      <trkpt lat="45.12366" lon="0.68838">
        <ele>173.19999694824</ele>
        <time>2014-09-04T12:28:27.000Z</time>
      </trkpt>
      <trkpt lat="45.12356" lon="0.68836">
        <ele>174.19999694824</ele>
        <time>2014-09-04T12:28:32.000Z</time>
      </trkpt>
      <trkpt lat="45.12346" lon="0.68833">
        <ele>175.39999389648</ele>
        <time>2014-09-04T12:28:38.000Z</time>
      </trkpt>
      <trkpt lat="45.12342" lon="0.68832">
        <ele>175.80000305176</ele>
        <time>2014-09-04T12:28:40.000Z</time>
      </trkpt>
      <trkpt lat="45.12337" lon="0.68831">
        <ele>176.80000305176</ele>
        <time>2014-09-04T12:28:43.000Z</time>
      </trkpt>
      <trkpt lat="45.12331" lon="0.68829">
        <ele>177.60000610352</ele>
        <time>2014-09-04T12:28:47.000Z</time>
      </trkpt>
      <trkpt lat="45.12329" lon="0.68829">
        <ele>177.80000305176</ele>
        <time>2014-09-04T12:28:48.000Z</time>
      </trkpt>
      <trkpt lat="45.12323" lon="0.68827">
        <ele>178.80000305176</ele>
        <time>2014-09-04T12:28:52.000Z</time>
      </trkpt>
      <trkpt lat="45.12318" lon="0.68826">
        <ele>179.80000305176</ele>
        <time>2014-09-04T12:28:55.000Z</time>
      </trkpt>
      <trkpt lat="45.12316" lon="0.68826">
        <ele>180</ele>
        <time>2014-09-04T12:28:56.000Z</time>
      </trkpt>
      <trkpt lat="45.12306" lon="0.68823">
        <ele>181.19999694824</ele>
        <time>2014-09-04T12:29:02.000Z</time>
      </trkpt>
      <trkpt lat="45.12302" lon="0.68822">
        <ele>181.60000610352</ele>
        <time>2014-09-04T12:29:04.000Z</time>
      </trkpt>
      <trkpt lat="45.12297" lon="0.6882">
        <ele>182.39999389648</ele>
        <time>2014-09-04T12:29:07.000Z</time>
      </trkpt>
      <trkpt lat="45.12288" lon="0.68817">
        <ele>183.39999389648</ele>
        <time>2014-09-04T12:29:12.000Z</time>
      </trkpt>
      <trkpt lat="45.12278" lon="0.68815">
        <ele>184.80000305176</ele>
        <time>2014-09-04T12:29:18.000Z</time>
      </trkpt>
      <trkpt lat="45.12274" lon="0.68816">
        <ele>185.19999694824</ele>
        <time>2014-09-04T12:29:20.000Z</time>
      </trkpt>
      <trkpt lat="45.12267" lon="0.68817">
        <ele>185.80000305176</ele>
        <time>2014-09-04T12:29:24.000Z</time>
      </trkpt>
      <trkpt lat="45.12263" lon="0.68822">
        <ele>186.19999694824</ele>
        <time>2014-09-04T12:29:27.000Z</time>
      </trkpt>
      <trkpt lat="45.12257" lon="0.68831">
        <ele>187</ele>
        <time>2014-09-04T12:29:32.000Z</time>
      </trkpt>
      <trkpt lat="45.12254" lon="0.68837">
        <ele>187.60000610352</ele>
        <time>2014-09-04T12:29:35.000Z</time>
      </trkpt>
      <trkpt lat="45.12253" lon="0.68839">
        <ele>187.60000610352</ele>
        <time>2014-09-04T12:29:36.000Z</time>
      </trkpt>
      <trkpt lat="45.12252" lon="0.68843">
        <ele>188</ele>
        <time>2014-09-04T12:29:38.000Z</time>
      </trkpt>
      <trkpt lat="45.12249" lon="0.6885">
        <ele>188.60000610352</ele>
        <time>2014-09-04T12:29:42.000Z</time>
      </trkpt>
      <trkpt lat="45.12247" lon="0.68864">
        <ele>188.80000305176</ele>
        <time>2014-09-04T12:29:48.000Z</time>
      </trkpt>
      <trkpt lat="45.1224" lon="0.68882">
        <ele>188.60000610352</ele>
        <time>2014-09-04T12:29:53.000Z</time>
      </trkpt>
      <trkpt lat="45.12226" lon="0.68892">
        <ele>189.19999694824</ele>
        <time>2014-09-04T12:29:58.000Z</time>
      </trkpt>
      <trkpt lat="45.12212" lon="0.68897">
        <ele>190.19999694824</ele>
        <time>2014-09-04T12:30:03.000Z</time>
      </trkpt>
      <trkpt lat="45.12206" lon="0.68901">
        <ele>190.60000610352</ele>
        <time>2014-09-04T12:30:05.000Z</time>
      </trkpt>
      <trkpt lat="45.12188" lon="0.6892">
        <ele>191.19999694824</ele>
        <time>2014-09-04T12:30:12.000Z</time>
      </trkpt>
      <trkpt lat="45.12186" lon="0.68922">
        <ele>191.39999389648</ele>
        <time>2014-09-04T12:30:13.000Z</time>
      </trkpt>
      <trkpt lat="45.12165" lon="0.68937">
        <ele>192.19999694824</ele>
        <time>2014-09-04T12:30:21.000Z</time>
      </trkpt>
      <trkpt lat="45.12162" lon="0.68939">
        <ele>192.39999389648</ele>
        <time>2014-09-04T12:30:22.000Z</time>
      </trkpt>
      <trkpt lat="45.12143" lon="0.68945">
        <ele>193.39999389648</ele>
        <time>2014-09-04T12:30:29.000Z</time>
      </trkpt>
      <trkpt lat="45.12141" lon="0.68945">
        <ele>193.60000610352</ele>
        <time>2014-09-04T12:30:30.000Z</time>
      </trkpt>
      <trkpt lat="45.12131" lon="0.68948">
        <ele>194.60000610352</ele>
        <time>2014-09-04T12:30:34.000Z</time>
      </trkpt>
      <trkpt lat="45.12115" lon="0.68952">
        <ele>195.60000610352</ele>
        <time>2014-09-04T12:30:40.000Z</time>
      </trkpt>
      <trkpt lat="45.12107" lon="0.68955">
        <ele>195.80000305176</ele>
        <time>2014-09-04T12:30:43.000Z</time>
      </trkpt>
      <trkpt lat="45.12097" lon="0.68958">
        <ele>197</ele>
        <time>2014-09-04T12:30:47.000Z</time>
      </trkpt>
      <trkpt lat="45.1209" lon="0.68961">
        <ele>197.39999389648</ele>
        <time>2014-09-04T12:30:50.000Z</time>
      </trkpt>
      <trkpt lat="45.12079" lon="0.68962">
        <ele>198</ele>
        <time>2014-09-04T12:30:54.000Z</time>
      </trkpt>
      <trkpt lat="45.12072" lon="0.68963">
        <ele>198.39999389648</ele>
        <time>2014-09-04T12:30:57.000Z</time>
      </trkpt>
      <trkpt lat="45.12057" lon="0.68964">
        <ele>199.19999694824</ele>
        <time>2014-09-04T12:31:03.000Z</time>
      </trkpt>
      <trkpt lat="45.12052" lon="0.68965">
        <ele>199.39999389648</ele>
        <time>2014-09-04T12:31:05.000Z</time>
      </trkpt>
      <trkpt lat="45.1203" lon="0.68967">
        <ele>200</ele>
        <time>2014-09-04T12:31:13.000Z</time>
      </trkpt>
      <trkpt lat="45.12025" lon="0.68968">
        <ele>200.19999694824</ele>
        <time>2014-09-04T12:31:15.000Z</time>
      </trkpt>
      <trkpt lat="45.12008" lon="0.6897">
        <ele>200.80000305176</ele>
        <time>2014-09-04T12:31:21.000Z</time>
      </trkpt>
      <trkpt lat="45.11976" lon="0.68972">
        <ele>200.19999694824</ele>
        <time>2014-09-04T12:31:30.000Z</time>
      </trkpt>
      <trkpt lat="45.11956" lon="0.68976">
        <ele>199.60000610352</ele>
        <time>2014-09-04T12:31:35.000Z</time>
      </trkpt>
      <trkpt lat="45.11947" lon="0.6898">
        <ele>199.60000610352</ele>
        <time>2014-09-04T12:31:37.000Z</time>
      </trkpt>
      <trkpt lat="45.11943" lon="0.68982">
        <ele>199.60000610352</ele>
        <time>2014-09-04T12:31:38.000Z</time>
      </trkpt>
      <trkpt lat="45.11929" lon="0.68998">
        <ele>199.39999389648</ele>
        <time>2014-09-04T12:31:42.000Z</time>
      </trkpt>
      <trkpt lat="45.11926" lon="0.69002">
        <ele>199.39999389648</ele>
        <time>2014-09-04T12:31:43.000Z</time>
      </trkpt>
      <trkpt lat="45.11915" lon="0.69021">
        <ele>199.60000610352</ele>
        <time>2014-09-04T12:31:47.000Z</time>
      </trkpt>
      <trkpt lat="45.11907" lon="0.69036">
        <ele>200.39999389648</ele>
        <time>2014-09-04T12:31:50.000Z</time>
      </trkpt>
      <trkpt lat="45.11904" lon="0.6904">
        <ele>200.39999389648</ele>
        <time>2014-09-04T12:31:51.000Z</time>
      </trkpt>
      <trkpt lat="45.11891" lon="0.69064">
        <ele>201.39999389648</ele>
        <time>2014-09-04T12:31:56.000Z</time>
      </trkpt>
      <trkpt lat="45.11879" lon="0.69087">
        <ele>202.39999389648</ele>
        <time>2014-09-04T12:32:01.000Z</time>
      </trkpt>
      <trkpt lat="45.11877" lon="0.69091">
        <ele>202.39999389648</ele>
        <time>2014-09-04T12:32:02.000Z</time>
      </trkpt>
      <trkpt lat="45.11868" lon="0.69117">
        <ele>202.60000610352</ele>
        <time>2014-09-04T12:32:07.000Z</time>
      </trkpt>
      <trkpt lat="45.11867" lon="0.69122">
        <ele>202.60000610352</ele>
        <time>2014-09-04T12:32:08.000Z</time>
      </trkpt>
      <trkpt lat="45.11857" lon="0.69176">
        <ele>201.80000305176</ele>
        <time>2014-09-04T12:32:17.000Z</time>
      </trkpt>
      <trkpt lat="45.11851" lon="0.692">
        <ele>203</ele>
        <time>2014-09-04T12:32:21.000Z</time>
      </trkpt>
      <trkpt lat="45.11846" lon="0.6922">
        <ele>202.39999389648</ele>
        <time>2014-09-04T12:32:24.000Z</time>
      </trkpt>
      <trkpt lat="45.11833" lon="0.69262">
        <ele>201.39999389648</ele>
        <time>2014-09-04T12:32:30.000Z</time>
      </trkpt>
      <trkpt lat="45.1183" lon="0.69269">
        <ele>201.19999694824</ele>
        <time>2014-09-04T12:32:31.000Z</time>
      </trkpt>
      <trkpt lat="45.11798" lon="0.69335">
        <ele>201</ele>
        <time>2014-09-04T12:32:41.000Z</time>
      </trkpt>
      <trkpt lat="45.11794" lon="0.69342">
        <ele>200.80000305176</ele>
        <time>2014-09-04T12:32:42.000Z</time>
      </trkpt>
      <trkpt lat="45.11791" lon="0.69348">
        <ele>200.19999694824</ele>
        <time>2014-09-04T12:32:43.000Z</time>
      </trkpt>
      <trkpt lat="45.11762" lon="0.69396">
        <ele>200.19999694824</ele>
        <time>2014-09-04T12:32:51.000Z</time>
      </trkpt>
      <trkpt lat="45.11735" lon="0.69435">
        <ele>200.19999694824</ele>
        <time>2014-09-04T12:32:58.000Z</time>
      </trkpt>
      <trkpt lat="45.11731" lon="0.69439">
        <ele>200.19999694824</ele>
        <time>2014-09-04T12:32:59.000Z</time>
      </trkpt>
      <trkpt lat="45.11711" lon="0.69443">
        <ele>200.39999389648</ele>
        <time>2014-09-04T12:33:03.000Z</time>
      </trkpt>
      <trkpt lat="45.11696" lon="0.69445">
        <ele>200.19999694824</ele>
        <time>2014-09-04T12:33:06.000Z</time>
      </trkpt>
      <trkpt lat="45.11688" lon="0.69452">
        <ele>200.39999389648</ele>
        <time>2014-09-04T12:33:08.000Z</time>
      </trkpt>
      <trkpt lat="45.11683" lon="0.69469">
        <ele>201.19999694824</ele>
        <time>2014-09-04T12:33:11.000Z</time>
      </trkpt>
      <trkpt lat="45.11682" lon="0.69475">
        <ele>201.39999389648</ele>
        <time>2014-09-04T12:33:12.000Z</time>
      </trkpt>
      <trkpt lat="45.1168" lon="0.69517">
        <ele>201</ele>
        <time>2014-09-04T12:33:18.000Z</time>
      </trkpt>
      <trkpt lat="45.1168" lon="0.69596">
        <ele>200.39999389648</ele>
        <time>2014-09-04T12:33:28.000Z</time>
      </trkpt>
      <trkpt lat="45.1168" lon="0.69604">
        <ele>200.19999694824</ele>
        <time>2014-09-04T12:33:29.000Z</time>
      </trkpt>
      <trkpt lat="45.1168" lon="0.69631">
        <ele>199</ele>
        <time>2014-09-04T12:33:32.000Z</time>
      </trkpt>
      <trkpt lat="45.11679" lon="0.69678">
        <ele>198</ele>
        <time>2014-09-04T12:33:37.000Z</time>
      </trkpt>
      <trkpt lat="45.11678" lon="0.69714">
        <ele>196.60000610352</ele>
        <time>2014-09-04T12:33:41.000Z</time>
      </trkpt>
      <trkpt lat="45.11677" lon="0.69721">
        <ele>196.19999694824</ele>
        <time>2014-09-04T12:33:42.000Z</time>
      </trkpt>
      <trkpt lat="45.11675" lon="0.69725">
        <ele>195.60000610352</ele>
        <time>2014-09-04T12:33:43.000Z</time>
      </trkpt>
      <trkpt lat="45.11669" lon="0.69728">
        <ele>195</ele>
        <time>2014-09-04T12:33:45.000Z</time>
      </trkpt>
      <trkpt lat="45.11659" lon="0.69723">
        <ele>195.19999694824</ele>
        <time>2014-09-04T12:33:48.000Z</time>
      </trkpt>
      <trkpt lat="45.11652" lon="0.69719">
        <ele>195.19999694824</ele>
        <time>2014-09-04T12:33:50.000Z</time>
      </trkpt>
      <trkpt lat="45.11632" lon="0.69706">
        <ele>196.39999389648</ele>
        <time>2014-09-04T12:33:56.000Z</time>
      </trkpt>
      <trkpt lat="45.11626" lon="0.69701">
        <ele>196.80000305176</ele>
        <time>2014-09-04T12:33:58.000Z</time>
      </trkpt>
      <trkpt lat="45.1161" lon="0.69691">
        <ele>197.19999694824</ele>
        <time>2014-09-04T12:34:03.000Z</time>
      </trkpt>
      <trkpt lat="45.11585" lon="0.6967">
        <ele>197.39999389648</ele>
        <time>2014-09-04T12:34:10.000Z</time>
      </trkpt>
      <trkpt lat="45.1158" lon="0.69667">
        <ele>197.19999694824</ele>
        <time>2014-09-04T12:34:11.000Z</time>
      </trkpt>
      <trkpt lat="45.11559" lon="0.69659">
        <ele>196.39999389648</ele>
        <time>2014-09-04T12:34:15.000Z</time>
      </trkpt>
      <trkpt lat="45.11542" lon="0.69653">
        <ele>195.60000610352</ele>
        <time>2014-09-04T12:34:18.000Z</time>
      </trkpt>
      <trkpt lat="45.11529" lon="0.69648">
        <ele>194.39999389648</ele>
        <time>2014-09-04T12:34:20.000Z</time>
      </trkpt>
      <trkpt lat="45.11521" lon="0.69646">
        <ele>194</ele>
        <time>2014-09-04T12:34:21.000Z</time>
      </trkpt>
      <trkpt lat="45.11507" lon="0.6964">
        <ele>192.80000305176</ele>
        <time>2014-09-04T12:34:23.000Z</time>
      </trkpt>
      <trkpt lat="45.1149" lon="0.69635">
        <ele>191.39999389648</ele>
        <time>2014-09-04T12:34:25.000Z</time>
      </trkpt>
      <trkpt lat="45.11481" lon="0.69634">
        <ele>190.60000610352</ele>
        <time>2014-09-04T12:34:26.000Z</time>
      </trkpt>
      <trkpt lat="45.11472" lon="0.69632">
        <ele>189.80000305176</ele>
        <time>2014-09-04T12:34:27.000Z</time>
      </trkpt>
      <trkpt lat="45.11454" lon="0.69629">
        <ele>188.39999389648</ele>
        <time>2014-09-04T12:34:29.000Z</time>
      </trkpt>
      <trkpt lat="45.11417" lon="0.69618">
        <ele>187.60000610352</ele>
        <time>2014-09-04T12:34:33.000Z</time>
      </trkpt>
      <trkpt lat="45.11408" lon="0.69616">
        <ele>187.60000610352</ele>
        <time>2014-09-04T12:34:34.000Z</time>
      </trkpt>
      <trkpt lat="45.11392" lon="0.69615">
        <ele>187.80000305176</ele>
        <time>2014-09-04T12:34:36.000Z</time>
      </trkpt>
      <trkpt lat="45.11362" lon="0.69611">
        <ele>188.80000305176</ele>
        <time>2014-09-04T12:34:41.000Z</time>
      </trkpt>
      <trkpt lat="45.11326" lon="0.69605">
        <ele>189</ele>
        <time>2014-09-04T12:34:48.000Z</time>
      </trkpt>
      <trkpt lat="45.11307" lon="0.69607">
        <ele>189.19999694824</ele>
        <time>2014-09-04T12:34:53.000Z</time>
      </trkpt>
      <trkpt lat="45.11298" lon="0.69632">
        <ele>187.19999694824</ele>
        <time>2014-09-04T12:34:57.000Z</time>
      </trkpt>
      <trkpt lat="45.11293" lon="0.69647">
        <ele>185.39999389648</ele>
        <time>2014-09-04T12:34:59.000Z</time>
      </trkpt>
      <trkpt lat="45.1129" lon="0.69655">
        <ele>183.80000305176</ele>
        <time>2014-09-04T12:35:00.000Z</time>
      </trkpt>
      <trkpt lat="45.11288" lon="0.69662">
        <ele>182.19999694824</ele>
        <time>2014-09-04T12:35:01.000Z</time>
      </trkpt>
      <trkpt lat="45.11285" lon="0.69667">
        <ele>180.60000610352</ele>
        <time>2014-09-04T12:35:02.000Z</time>
      </trkpt>
      <trkpt lat="45.11282" lon="0.69669">
        <ele>179.39999389648</ele>
        <time>2014-09-04T12:35:03.000Z</time>
      </trkpt>
      <trkpt lat="45.11279" lon="0.69669">
        <ele>178.80000305176</ele>
        <time>2014-09-04T12:35:04.000Z</time>
      </trkpt>
      <trkpt lat="45.11274" lon="0.69664">
        <ele>178.80000305176</ele>
        <time>2014-09-04T12:35:06.000Z</time>
      </trkpt>
      <trkpt lat="45.11268" lon="0.69659">
        <ele>179.19999694824</ele>
        <time>2014-09-04T12:35:08.000Z</time>
      </trkpt>
      <trkpt lat="45.11252" lon="0.69647">
        <ele>180.39999389648</ele>
        <time>2014-09-04T12:35:13.000Z</time>
      </trkpt>
      <trkpt lat="45.11241" lon="0.6964">
        <ele>180.19999694824</ele>
        <time>2014-09-04T12:35:16.000Z</time>
      </trkpt>
      <trkpt lat="45.11219" lon="0.69625">
        <ele>180.60000610352</ele>
        <time>2014-09-04T12:35:23.000Z</time>
      </trkpt>
      <trkpt lat="45.11202" lon="0.69618">
        <ele>180.60000610352</ele>
        <time>2014-09-04T12:35:29.000Z</time>
      </trkpt>
      <trkpt lat="45.112" lon="0.69619">
        <ele>180.60000610352</ele>
        <time>2014-09-04T12:35:30.000Z</time>
      </trkpt>
      <trkpt lat="45.11194" lon="0.69627">
        <ele>180.19999694824</ele>
        <time>2014-09-04T12:35:33.000Z</time>
      </trkpt>
      <trkpt lat="45.11192" lon="0.69631">
        <ele>180.60000610352</ele>
        <time>2014-09-04T12:35:34.000Z</time>
      </trkpt>
      <trkpt lat="45.1119" lon="0.69638">
        <ele>181.39999389648</ele>
        <time>2014-09-04T12:35:36.000Z</time>
      </trkpt>
      <trkpt lat="45.11188" lon="0.69644">
        <ele>182.60000610352</ele>
        <time>2014-09-04T12:35:38.000Z</time>
      </trkpt>
      <trkpt lat="45.11187" lon="0.69647">
        <ele>183.19999694824</ele>
        <time>2014-09-04T12:35:39.000Z</time>
      </trkpt>
      <trkpt lat="45.11185" lon="0.69649">
        <ele>183.80000305176</ele>
        <time>2014-09-04T12:35:40.000Z</time>
      </trkpt>
      <trkpt lat="45.11182" lon="0.69656">
        <ele>184.80000305176</ele>
        <time>2014-09-04T12:35:43.000Z</time>
      </trkpt>
      <trkpt lat="45.1118" lon="0.69663">
        <ele>185.80000305176</ele>
        <time>2014-09-04T12:35:46.000Z</time>
      </trkpt>
      <trkpt lat="45.11178" lon="0.69665">
        <ele>186.19999694824</ele>
        <time>2014-09-04T12:35:47.000Z</time>
      </trkpt>
      <trkpt lat="45.11169" lon="0.69678">
        <ele>187.19999694824</ele>
        <time>2014-09-04T12:35:52.000Z</time>
      </trkpt>
      <trkpt lat="45.11168" lon="0.69681">
        <ele>187.39999389648</ele>
        <time>2014-09-04T12:35:53.000Z</time>
      </trkpt>
      <trkpt lat="45.11163" lon="0.6969">
        <ele>188.19999694824</ele>
        <time>2014-09-04T12:35:56.000Z</time>
      </trkpt>
      <trkpt lat="45.11156" lon="0.69708">
        <ele>188.80000305176</ele>
        <time>2014-09-04T12:36:02.000Z</time>
      </trkpt>
      <trkpt lat="45.11151" lon="0.69721">
        <ele>189.19999694824</ele>
        <time>2014-09-04T12:36:06.000Z</time>
      </trkpt>
      <trkpt lat="45.11147" lon="0.69724">
        <ele>189.60000610352</ele>
        <time>2014-09-04T12:36:08.000Z</time>
      </trkpt>
      <trkpt lat="45.11132" lon="0.69726">
        <ele>190.39999389648</ele>
        <time>2014-09-04T12:36:15.000Z</time>
      </trkpt>
      <trkpt lat="45.1113" lon="0.69726">
        <ele>190.60000610352</ele>
        <time>2014-09-04T12:36:16.000Z</time>
      </trkpt>
      <trkpt lat="45.11107" lon="0.69726">
        <ele>190.80000305176</ele>
        <time>2014-09-04T12:36:25.000Z</time>
      </trkpt>
      <trkpt lat="45.11086" lon="0.69724">
        <ele>191.39999389648</ele>
        <time>2014-09-04T12:36:33.000Z</time>
      </trkpt>
      <trkpt lat="45.11054" lon="0.69717">
        <ele>192.19999694824</ele>
        <time>2014-09-04T12:36:44.000Z</time>
      </trkpt>
      <trkpt lat="45.11046" lon="0.69718">
        <ele>192.39999389648</ele>
        <time>2014-09-04T12:36:47.000Z</time>
      </trkpt>
      <trkpt lat="45.11045" lon="0.69722">
        <ele>192.60000610352</ele>
        <time>2014-09-04T12:36:48.000Z</time>
      </trkpt>
      <trkpt lat="45.11049" lon="0.69735">
        <ele>192.19999694824</ele>
        <time>2014-09-04T12:36:51.000Z</time>
      </trkpt>
      <trkpt lat="45.11057" lon="0.69773">
        <ele>191.39999389648</ele>
        <time>2014-09-04T12:36:57.000Z</time>
      </trkpt>
      <trkpt lat="45.11058" lon="0.6978">
        <ele>191.39999389648</ele>
        <time>2014-09-04T12:36:58.000Z</time>
      </trkpt>
      <trkpt lat="45.11061" lon="0.69811">
        <ele>190.19999694824</ele>
        <time>2014-09-04T12:37:02.000Z</time>
      </trkpt>
      <trkpt lat="45.11063" lon="0.69834">
        <ele>189.60000610352</ele>
        <time>2014-09-04T12:37:05.000Z</time>
      </trkpt>
      <trkpt lat="45.11067" lon="0.69857">
        <ele>189</ele>
        <time>2014-09-04T12:37:08.000Z</time>
      </trkpt>
      <trkpt lat="45.11073" lon="0.69888">
        <ele>188.60000610352</ele>
        <time>2014-09-04T12:37:12.000Z</time>
      </trkpt>
      <trkpt lat="45.11085" lon="0.69917">
        <ele>188.60000610352</ele>
        <time>2014-09-04T12:37:16.000Z</time>
      </trkpt>
      <trkpt lat="45.11089" lon="0.69924">
        <ele>188.60000610352</ele>
        <time>2014-09-04T12:37:17.000Z</time>
      </trkpt>
      <trkpt lat="45.11106" lon="0.69946">
        <ele>188.60000610352</ele>
        <time>2014-09-04T12:37:21.000Z</time>
      </trkpt>
      <trkpt lat="45.1111" lon="0.69951">
        <ele>188.60000610352</ele>
        <time>2014-09-04T12:37:22.000Z</time>
      </trkpt>
      <trkpt lat="45.11115" lon="0.69956">
        <ele>188.60000610352</ele>
        <time>2014-09-04T12:37:23.000Z</time>
      </trkpt>
      <trkpt lat="45.11138" lon="0.69988">
        <ele>188.39999389648</ele>
        <time>2014-09-04T12:37:29.000Z</time>
      </trkpt>
      <trkpt lat="45.11164" lon="0.70037">
        <ele>188.19999694824</ele>
        <time>2014-09-04T12:37:37.000Z</time>
      </trkpt>
      <trkpt lat="45.11167" lon="0.70044">
        <ele>188</ele>
        <time>2014-09-04T12:37:38.000Z</time>
      </trkpt>
      <trkpt lat="45.11192" lon="0.70079">
        <ele>187.19999694824</ele>
        <time>2014-09-04T12:37:44.000Z</time>
      </trkpt>
      <trkpt lat="45.11201" lon="0.70089">
        <ele>186.80000305176</ele>
        <time>2014-09-04T12:37:46.000Z</time>
      </trkpt>
      <trkpt lat="45.11227" lon="0.70117">
        <ele>186</ele>
        <time>2014-09-04T12:37:51.000Z</time>
      </trkpt>
      <trkpt lat="45.11249" lon="0.70137">
        <ele>185.60000610352</ele>
        <time>2014-09-04T12:37:55.000Z</time>
      </trkpt>
      <trkpt lat="45.11271" lon="0.70157">
        <ele>184.39999389648</ele>
        <time>2014-09-04T12:37:59.000Z</time>
      </trkpt>
      <trkpt lat="45.11277" lon="0.70163">
        <ele>184.19999694824</ele>
        <time>2014-09-04T12:38:00.000Z</time>
      </trkpt>
      <trkpt lat="45.11303" lon="0.70194">
        <ele>184.19999694824</ele>
        <time>2014-09-04T12:38:06.000Z</time>
      </trkpt>
      <trkpt lat="45.11306" lon="0.70201">
        <ele>184</ele>
        <time>2014-09-04T12:38:07.000Z</time>
      </trkpt>
      <trkpt lat="45.11305" lon="0.7022">
        <ele>183.39999389648</ele>
        <time>2014-09-04T12:38:10.000Z</time>
      </trkpt>
      <trkpt lat="45.11303" lon="0.70227">
        <ele>183.19999694824</ele>
        <time>2014-09-04T12:38:11.000Z</time>
      </trkpt>
      <trkpt lat="45.11302" lon="0.70234">
        <ele>182.60000610352</ele>
        <time>2014-09-04T12:38:12.000Z</time>
      </trkpt>
      <trkpt lat="45.11302" lon="0.70242">
        <ele>182</ele>
        <time>2014-09-04T12:38:13.000Z</time>
      </trkpt>
      <trkpt lat="45.11305" lon="0.70249">
        <ele>181.19999694824</ele>
        <time>2014-09-04T12:38:14.000Z</time>
      </trkpt>
      <trkpt lat="45.1131" lon="0.70256">
        <ele>180.19999694824</ele>
        <time>2014-09-04T12:38:15.000Z</time>
      </trkpt>
      <trkpt lat="45.11315" lon="0.70263">
        <ele>179</ele>
        <time>2014-09-04T12:38:16.000Z</time>
      </trkpt>
      <trkpt lat="45.1132" lon="0.70268">
        <ele>177.80000305176</ele>
        <time>2014-09-04T12:38:17.000Z</time>
      </trkpt>
      <trkpt lat="45.11326" lon="0.70274">
        <ele>177</ele>
        <time>2014-09-04T12:38:18.000Z</time>
      </trkpt>
      <trkpt lat="45.1133" lon="0.7028">
        <ele>176.39999389648</ele>
        <time>2014-09-04T12:38:19.000Z</time>
      </trkpt>
      <trkpt lat="45.11332" lon="0.70286">
        <ele>175.39999389648</ele>
        <time>2014-09-04T12:38:20.000Z</time>
      </trkpt>
      <trkpt lat="45.11329" lon="0.703">
        <ele>174</ele>
        <time>2014-09-04T12:38:23.000Z</time>
      </trkpt>
      <trkpt lat="45.11319" lon="0.70304">
        <ele>172.39999389648</ele>
        <time>2014-09-04T12:38:25.000Z</time>
      </trkpt>
      <trkpt lat="45.11311" lon="0.70307">
        <ele>171.39999389648</ele>
        <time>2014-09-04T12:38:26.000Z</time>
      </trkpt>
      <trkpt lat="45.11301" lon="0.70309">
        <ele>170.60000610352</ele>
        <time>2014-09-04T12:38:27.000Z</time>
      </trkpt>
      <trkpt lat="45.11289" lon="0.70312">
        <ele>169.60000610352</ele>
        <time>2014-09-04T12:38:28.000Z</time>
      </trkpt>
      <trkpt lat="45.11271" lon="0.70319">
        <ele>167.60000610352</ele>
        <time>2014-09-04T12:38:30.000Z</time>
      </trkpt>
      <trkpt lat="45.11264" lon="0.70324">
        <ele>167</ele>
        <time>2014-09-04T12:38:31.000Z</time>
      </trkpt>
      <trkpt lat="45.11259" lon="0.70331">
        <ele>166.19999694824</ele>
        <time>2014-09-04T12:38:32.000Z</time>
      </trkpt>
      <trkpt lat="45.11252" lon="0.7035">
        <ele>164.19999694824</ele>
        <time>2014-09-04T12:38:34.000Z</time>
      </trkpt>
      <trkpt lat="45.11251" lon="0.70363">
        <ele>163</ele>
        <time>2014-09-04T12:38:35.000Z</time>
      </trkpt>
      <trkpt lat="45.11249" lon="0.70376">
        <ele>161.80000305176</ele>
        <time>2014-09-04T12:38:36.000Z</time>
      </trkpt>
      <trkpt lat="45.11247" lon="0.70391">
        <ele>160.39999389648</ele>
        <time>2014-09-04T12:38:37.000Z</time>
      </trkpt>
      <trkpt lat="45.11245" lon="0.70408">
        <ele>158.60000610352</ele>
        <time>2014-09-04T12:38:38.000Z</time>
      </trkpt>
      <trkpt lat="45.11243" lon="0.70424">
        <ele>156.60000610352</ele>
        <time>2014-09-04T12:38:39.000Z</time>
      </trkpt>
      <trkpt lat="45.11241" lon="0.7044">
        <ele>154.39999389648</ele>
        <time>2014-09-04T12:38:40.000Z</time>
      </trkpt>
      <trkpt lat="45.1124" lon="0.70454">
        <ele>152.60000610352</ele>
        <time>2014-09-04T12:38:41.000Z</time>
      </trkpt>
      <trkpt lat="45.11241" lon="0.70466">
        <ele>151.19999694824</ele>
        <time>2014-09-04T12:38:42.000Z</time>
      </trkpt>
      <trkpt lat="45.11242" lon="0.70476">
        <ele>149.80000305176</ele>
        <time>2014-09-04T12:38:43.000Z</time>
      </trkpt>
      <trkpt lat="45.11245" lon="0.70482">
        <ele>148.60000610352</ele>
        <time>2014-09-04T12:38:44.000Z</time>
      </trkpt>
      <trkpt lat="45.1126" lon="0.70487">
        <ele>148.80000305176</ele>
        <time>2014-09-04T12:38:47.000Z</time>
      </trkpt>
      <trkpt lat="45.11279" lon="0.70493">
        <ele>148.60000610352</ele>
        <time>2014-09-04T12:38:51.000Z</time>
      </trkpt>
      <trkpt lat="45.11288" lon="0.70498">
        <ele>148.60000610352</ele>
        <time>2014-09-04T12:38:53.000Z</time>
      </trkpt>
      <trkpt lat="45.11313" lon="0.70512">
        <ele>148</ele>
        <time>2014-09-04T12:38:59.000Z</time>
      </trkpt>
      <trkpt lat="45.11327" lon="0.70516">
        <ele>147.60000610352</ele>
        <time>2014-09-04T12:39:02.000Z</time>
      </trkpt>
      <trkpt lat="45.11339" lon="0.7052">
        <ele>147.39999389648</ele>
        <time>2014-09-04T12:39:05.000Z</time>
      </trkpt>
      <trkpt lat="45.11375" lon="0.70533">
        <ele>147.19999694824</ele>
        <time>2014-09-04T12:39:14.000Z</time>
      </trkpt>
      <trkpt lat="45.11408" lon="0.70547">
        <ele>148</ele>
        <time>2014-09-04T12:39:23.000Z</time>
      </trkpt>
      <trkpt lat="45.11431" lon="0.70557">
        <ele>148.60000610352</ele>
        <time>2014-09-04T12:39:30.000Z</time>
      </trkpt>
      <trkpt lat="45.11438" lon="0.7056">
        <ele>149</ele>
        <time>2014-09-04T12:39:32.000Z</time>
      </trkpt>
      <trkpt lat="45.11447" lon="0.70565">
        <ele>149.80000305176</ele>
        <time>2014-09-04T12:39:35.000Z</time>
      </trkpt>
      <trkpt lat="45.11458" lon="0.70571">
        <ele>150.60000610352</ele>
        <time>2014-09-04T12:39:39.000Z</time>
      </trkpt>
      <trkpt lat="45.11461" lon="0.70572">
        <ele>150.80000305176</ele>
        <time>2014-09-04T12:39:40.000Z</time>
      </trkpt>
      <trkpt lat="45.11471" lon="0.70578">
        <ele>151.80000305176</ele>
        <time>2014-09-04T12:39:45.000Z</time>
      </trkpt>
      <trkpt lat="45.11478" lon="0.70583">
        <ele>153.19999694824</ele>
        <time>2014-09-04T12:39:49.000Z</time>
      </trkpt>
      <trkpt lat="45.11487" lon="0.70589">
        <ele>154</ele>
        <time>2014-09-04T12:39:53.000Z</time>
      </trkpt>
      <trkpt lat="45.11491" lon="0.70592">
        <ele>154.19999694824</ele>
        <time>2014-09-04T12:39:55.000Z</time>
      </trkpt>
      <trkpt lat="45.11503" lon="0.70605">
        <ele>155.19999694824</ele>
        <time>2014-09-04T12:40:00.000Z</time>
      </trkpt>
      <trkpt lat="45.1151" lon="0.70611">
        <ele>155.39999389648</ele>
        <time>2014-09-04T12:40:02.000Z</time>
      </trkpt>
      <trkpt lat="45.11525" lon="0.70629">
        <ele>156</ele>
        <time>2014-09-04T12:40:08.000Z</time>
      </trkpt>
      <trkpt lat="45.1153" lon="0.7064">
        <ele>156.39999389648</ele>
        <time>2014-09-04T12:40:11.000Z</time>
      </trkpt>
      <trkpt lat="45.11539" lon="0.70656">
        <ele>157.60000610352</ele>
        <time>2014-09-04T12:40:17.000Z</time>
      </trkpt>
      <trkpt lat="45.1155" lon="0.70673">
        <ele>158.60000610352</ele>
        <time>2014-09-04T12:40:23.000Z</time>
      </trkpt>
      <trkpt lat="45.11554" lon="0.70678">
        <ele>159</ele>
        <time>2014-09-04T12:40:25.000Z</time>
      </trkpt>
      <trkpt lat="45.11559" lon="0.70686">
        <ele>159.80000305176</ele>
        <time>2014-09-04T12:40:29.000Z</time>
      </trkpt>
      <trkpt lat="45.11568" lon="0.70699">
        <ele>160.80000305176</ele>
        <time>2014-09-04T12:40:34.000Z</time>
      </trkpt>
      <trkpt lat="45.11574" lon="0.70709">
        <ele>162</ele>
        <time>2014-09-04T12:40:39.000Z</time>
      </trkpt>
      <trkpt lat="45.11576" lon="0.70713">
        <ele>162.39999389648</ele>
        <time>2014-09-04T12:40:41.000Z</time>
      </trkpt>
      <trkpt lat="45.11579" lon="0.70718">
        <ele>163.39999389648</ele>
        <time>2014-09-04T12:40:44.000Z</time>
      </trkpt>
      <trkpt lat="45.11585" lon="0.70728">
        <ele>164.39999389648</ele>
        <time>2014-09-04T12:40:49.000Z</time>
      </trkpt>
      <trkpt lat="45.11585" lon="0.7073">
        <ele>164.60000610352</ele>
        <time>2014-09-04T12:40:50.000Z</time>
      </trkpt>
      <trkpt lat="45.11586" lon="0.70731">
        <ele>165</ele>
        <time>2014-09-04T12:40:51.000Z</time>
      </trkpt>
      <trkpt lat="45.11591" lon="0.7074">
        <ele>165.80000305176</ele>
        <time>2014-09-04T12:40:55.000Z</time>
      </trkpt>
      <trkpt lat="45.11593" lon="0.70744">
        <ele>166.19999694824</ele>
        <time>2014-09-04T12:40:57.000Z</time>
      </trkpt>
      <trkpt lat="45.11597" lon="0.70749">
        <ele>166.80000305176</ele>
        <time>2014-09-04T12:41:00.000Z</time>
      </trkpt>
      <trkpt lat="45.116" lon="0.70754">
        <ele>167.60000610352</ele>
        <time>2014-09-04T12:41:04.000Z</time>
      </trkpt>
      <trkpt lat="45.11602" lon="0.70758">
        <ele>168</ele>
        <time>2014-09-04T12:41:06.000Z</time>
      </trkpt>
      <trkpt lat="45.11608" lon="0.70767">
        <ele>169</ele>
        <time>2014-09-04T12:41:11.000Z</time>
      </trkpt>
      <trkpt lat="45.11609" lon="0.70768">
        <ele>169.19999694824</ele>
        <time>2014-09-04T12:41:12.000Z</time>
      </trkpt>
      <trkpt lat="45.11616" lon="0.70777">
        <ele>170.19999694824</ele>
        <time>2014-09-04T12:41:17.000Z</time>
      </trkpt>
      <trkpt lat="45.11621" lon="0.70781">
        <ele>170.80000305176</ele>
        <time>2014-09-04T12:41:21.000Z</time>
      </trkpt>
      <trkpt lat="45.11626" lon="0.70784">
        <ele>171.19999694824</ele>
        <time>2014-09-04T12:41:25.000Z</time>
      </trkpt>
      <trkpt lat="45.11633" lon="0.7079">
        <ele>171.60000610352</ele>
        <time>2014-09-04T12:41:29.000Z</time>
      </trkpt>
      <trkpt lat="45.11642" lon="0.70799">
        <ele>172.39999389648</ele>
        <time>2014-09-04T12:41:34.000Z</time>
      </trkpt>
      <trkpt lat="45.11648" lon="0.70804">
        <ele>172.80000305176</ele>
        <time>2014-09-04T12:41:37.000Z</time>
      </trkpt>
      <trkpt lat="45.11663" lon="0.70817">
        <ele>173.39999389648</ele>
        <time>2014-09-04T12:41:44.000Z</time>
      </trkpt>
      <trkpt lat="45.11665" lon="0.70819">
        <ele>173.60000610352</ele>
        <time>2014-09-04T12:41:45.000Z</time>
      </trkpt>
      <trkpt lat="45.11675" lon="0.70829">
        <ele>174.39999389648</ele>
        <time>2014-09-04T12:41:51.000Z</time>
      </trkpt>
      <trkpt lat="45.11677" lon="0.70831">
        <ele>174.60000610352</ele>
        <time>2014-09-04T12:41:52.000Z</time>
      </trkpt>
      <trkpt lat="45.11692" lon="0.70845">
        <ele>175.60000610352</ele>
        <time>2014-09-04T12:41:59.000Z</time>
      </trkpt>
      <trkpt lat="45.11696" lon="0.70849">
        <ele>175.80000305176</ele>
        <time>2014-09-04T12:42:01.000Z</time>
      </trkpt>
      <trkpt lat="45.11703" lon="0.70859">
        <ele>176.80000305176</ele>
        <time>2014-09-04T12:42:06.000Z</time>
      </trkpt>
      <trkpt lat="45.11708" lon="0.70864">
        <ele>177.19999694824</ele>
        <time>2014-09-04T12:42:09.000Z</time>
      </trkpt>
      <trkpt lat="45.11718" lon="0.70872">
        <ele>177.80000305176</ele>
        <time>2014-09-04T12:42:15.000Z</time>
      </trkpt>
      <trkpt lat="45.11721" lon="0.70875">
        <ele>178</ele>
        <time>2014-09-04T12:42:17.000Z</time>
      </trkpt>
      <trkpt lat="45.11737" lon="0.70884">
        <ele>178.39999389648</ele>
        <time>2014-09-04T12:42:25.000Z</time>
      </trkpt>
      <trkpt lat="45.11747" lon="0.70891">
        <ele>178.80000305176</ele>
        <time>2014-09-04T12:42:30.000Z</time>
      </trkpt>
      <trkpt lat="45.11756" lon="0.70898">
        <ele>179.19999694824</ele>
        <time>2014-09-04T12:42:34.000Z</time>
      </trkpt>
      <trkpt lat="45.11778" lon="0.70911">
        <ele>179.80000305176</ele>
        <time>2014-09-04T12:42:42.000Z</time>
      </trkpt>
      <trkpt lat="45.11803" lon="0.70925">
        <ele>179</ele>
        <time>2014-09-04T12:42:49.000Z</time>
      </trkpt>
      <trkpt lat="45.11827" lon="0.70949">
        <ele>178</ele>
        <time>2014-09-04T12:42:55.000Z</time>
      </trkpt>
      <trkpt lat="45.11831" lon="0.70954">
        <ele>177.80000305176</ele>
        <time>2014-09-04T12:42:56.000Z</time>
      </trkpt>
      <trkpt lat="45.11837" lon="0.70958">
        <ele>177.60000610352</ele>
        <time>2014-09-04T12:42:57.000Z</time>
      </trkpt>
      <trkpt lat="45.11847" lon="0.70965">
        <ele>176.80000305176</ele>
        <time>2014-09-04T12:42:59.000Z</time>
      </trkpt>
      <trkpt lat="45.11853" lon="0.70969">
        <ele>176.39999389648</ele>
        <time>2014-09-04T12:43:00.000Z</time>
      </trkpt>
      <trkpt lat="45.1187" lon="0.70987">
        <ele>176</ele>
        <time>2014-09-04T12:43:03.000Z</time>
      </trkpt>
      <trkpt lat="45.11881" lon="0.71">
        <ele>175.39999389648</ele>
        <time>2014-09-04T12:43:05.000Z</time>
      </trkpt>
      <trkpt lat="45.11895" lon="0.71007">
        <ele>174.60000610352</ele>
        <time>2014-09-04T12:43:07.000Z</time>
      </trkpt>
      <trkpt lat="45.11903" lon="0.71009">
        <ele>174.19999694824</ele>
        <time>2014-09-04T12:43:08.000Z</time>
      </trkpt>
      <trkpt lat="45.11919" lon="0.71014">
        <ele>172.80000305176</ele>
        <time>2014-09-04T12:43:10.000Z</time>
      </trkpt>
      <trkpt lat="45.11943" lon="0.71018">
        <ele>172</ele>
        <time>2014-09-04T12:43:13.000Z</time>
      </trkpt>
      <trkpt lat="45.11959" lon="0.71022">
        <ele>171.60000610352</ele>
        <time>2014-09-04T12:43:15.000Z</time>
      </trkpt>
      <trkpt lat="45.11983" lon="0.71029">
        <ele>170.60000610352</ele>
        <time>2014-09-04T12:43:18.000Z</time>
      </trkpt>
      <trkpt lat="45.11997" lon="0.71031">
        <ele>170.39999389648</ele>
        <time>2014-09-04T12:43:20.000Z</time>
      </trkpt>
      <trkpt lat="45.12005" lon="0.71031">
        <ele>170.39999389648</ele>
        <time>2014-09-04T12:43:21.000Z</time>
      </trkpt>
      <trkpt lat="45.12018" lon="0.71024">
        <ele>170</ele>
        <time>2014-09-04T12:43:23.000Z</time>
      </trkpt>
      <trkpt lat="45.1203" lon="0.71015">
        <ele>170</ele>
        <time>2014-09-04T12:43:25.000Z</time>
      </trkpt>
      <trkpt lat="45.12048" lon="0.71001">
        <ele>170</ele>
        <time>2014-09-04T12:43:28.000Z</time>
      </trkpt>
      <trkpt lat="45.12054" lon="0.70999">
        <ele>169.60000610352</ele>
        <time>2014-09-04T12:43:29.000Z</time>
      </trkpt>
      <trkpt lat="45.1206" lon="0.70997">
        <ele>169.39999389648</ele>
        <time>2014-09-04T12:43:30.000Z</time>
      </trkpt>
      <trkpt lat="45.12072" lon="0.70996">
        <ele>169.80000305176</ele>
        <time>2014-09-04T12:43:32.000Z</time>
      </trkpt>
      <trkpt lat="45.12077" lon="0.70997">
        <ele>170</ele>
        <time>2014-09-04T12:43:33.000Z</time>
      </trkpt>
      <trkpt lat="45.12083" lon="0.70999">
        <ele>169.80000305176</ele>
        <time>2014-09-04T12:43:34.000Z</time>
      </trkpt>
      <trkpt lat="45.12097" lon="0.71013">
        <ele>169.19999694824</ele>
        <time>2014-09-04T12:43:37.000Z</time>
      </trkpt>
      <trkpt lat="45.12102" lon="0.71019">
        <ele>169</ele>
        <time>2014-09-04T12:43:38.000Z</time>
      </trkpt>
      <trkpt lat="45.12112" lon="0.7103">
        <ele>168.19999694824</ele>
        <time>2014-09-04T12:43:40.000Z</time>
      </trkpt>
      <trkpt lat="45.12115" lon="0.7105">
        <ele>167.60000610352</ele>
        <time>2014-09-04T12:43:42.000Z</time>
      </trkpt>
      <trkpt lat="45.12107" lon="0.71073">
        <ele>166.60000610352</ele>
        <time>2014-09-04T12:43:44.000Z</time>
      </trkpt>
      <trkpt lat="45.12096" lon="0.71095">
        <ele>165.19999694824</ele>
        <time>2014-09-04T12:43:46.000Z</time>
      </trkpt>
      <trkpt lat="45.12084" lon="0.71119">
        <ele>163.39999389648</ele>
        <time>2014-09-04T12:43:48.000Z</time>
      </trkpt>
      <trkpt lat="45.12078" lon="0.71132">
        <ele>162.19999694824</ele>
        <time>2014-09-04T12:43:49.000Z</time>
      </trkpt>
      <trkpt lat="45.12073" lon="0.71146">
        <ele>160.39999389648</ele>
        <time>2014-09-04T12:43:50.000Z</time>
      </trkpt>
      <trkpt lat="45.12067" lon="0.71162">
        <ele>159</ele>
        <time>2014-09-04T12:43:51.000Z</time>
      </trkpt>
      <trkpt lat="45.12062" lon="0.71178">
        <ele>157.60000610352</ele>
        <time>2014-09-04T12:43:52.000Z</time>
      </trkpt>
      <trkpt lat="45.12057" lon="0.71191">
        <ele>157</ele>
        <time>2014-09-04T12:43:53.000Z</time>
      </trkpt>
      <trkpt lat="45.12053" lon="0.71203">
        <ele>155.80000305176</ele>
        <time>2014-09-04T12:43:54.000Z</time>
      </trkpt>
      <trkpt lat="45.12048" lon="0.71214">
        <ele>154.39999389648</ele>
        <time>2014-09-04T12:43:55.000Z</time>
      </trkpt>
      <trkpt lat="45.12042" lon="0.71224">
        <ele>153</ele>
        <time>2014-09-04T12:43:56.000Z</time>
      </trkpt>
      <trkpt lat="45.12038" lon="0.71235">
        <ele>150.19999694824</ele>
        <time>2014-09-04T12:43:57.000Z</time>
      </trkpt>
      <trkpt lat="45.12035" lon="0.71248">
        <ele>149</ele>
        <time>2014-09-04T12:43:58.000Z</time>
      </trkpt>
      <trkpt lat="45.12035" lon="0.71261">
        <ele>147.80000305176</ele>
        <time>2014-09-04T12:43:59.000Z</time>
      </trkpt>
      <trkpt lat="45.12042" lon="0.71277">
        <ele>146</ele>
        <time>2014-09-04T12:44:01.000Z</time>
      </trkpt>
      <trkpt lat="45.12056" lon="0.7128">
        <ele>145</ele>
        <time>2014-09-04T12:44:03.000Z</time>
      </trkpt>
      <trkpt lat="45.12064" lon="0.71279">
        <ele>145</ele>
        <time>2014-09-04T12:44:04.000Z</time>
      </trkpt>
      <trkpt lat="45.12092" lon="0.71287">
        <ele>145</ele>
        <time>2014-09-04T12:44:08.000Z</time>
      </trkpt>
      <trkpt lat="45.12124" lon="0.71307">
        <ele>146</ele>
        <time>2014-09-04T12:44:13.000Z</time>
      </trkpt>
      <trkpt lat="45.12129" lon="0.71312">
        <ele>146.39999389648</ele>
        <time>2014-09-04T12:44:14.000Z</time>
      </trkpt>
      <trkpt lat="45.12138" lon="0.7132">
        <ele>147.19999694824</ele>
        <time>2014-09-04T12:44:16.000Z</time>
      </trkpt>
      <trkpt lat="45.12154" lon="0.7134">
        <ele>147.60000610352</ele>
        <time>2014-09-04T12:44:20.000Z</time>
      </trkpt>
      <trkpt lat="45.12174" lon="0.71368">
        <ele>146</ele>
        <time>2014-09-04T12:44:25.000Z</time>
      </trkpt>
      <trkpt lat="45.12176" lon="0.71378">
        <ele>145.60000610352</ele>
        <time>2014-09-04T12:44:26.000Z</time>
      </trkpt>
      <trkpt lat="45.12173" lon="0.71399">
        <ele>144.80000305176</ele>
        <time>2014-09-04T12:44:28.000Z</time>
      </trkpt>
      <trkpt lat="45.1217" lon="0.71408">
        <ele>144.60000610352</ele>
        <time>2014-09-04T12:44:29.000Z</time>
      </trkpt>
      <trkpt lat="45.12162" lon="0.71424">
        <ele>144.19999694824</ele>
        <time>2014-09-04T12:44:31.000Z</time>
      </trkpt>
      <trkpt lat="45.12157" lon="0.71431">
        <ele>144.19999694824</ele>
        <time>2014-09-04T12:44:32.000Z</time>
      </trkpt>
      <trkpt lat="45.12151" lon="0.71436">
        <ele>144.39999389648</ele>
        <time>2014-09-04T12:44:33.000Z</time>
      </trkpt>
      <trkpt lat="45.12141" lon="0.71445">
        <ele>144.60000610352</ele>
        <time>2014-09-04T12:44:35.000Z</time>
      </trkpt>
      <trkpt lat="45.12133" lon="0.71451">
        <ele>145.19999694824</ele>
        <time>2014-09-04T12:44:37.000Z</time>
      </trkpt>
      <trkpt lat="45.12124" lon="0.71457">
        <ele>146</ele>
        <time>2014-09-04T12:44:40.000Z</time>
      </trkpt>
      <trkpt lat="45.12116" lon="0.71463">
        <ele>146.60000610352</ele>
        <time>2014-09-04T12:44:43.000Z</time>
      </trkpt>
      <trkpt lat="45.12111" lon="0.71466">
        <ele>147.19999694824</ele>
        <time>2014-09-04T12:44:45.000Z</time>
      </trkpt>
      <trkpt lat="45.12101" lon="0.71473">
        <ele>148</ele>
        <time>2014-09-04T12:44:49.000Z</time>
      </trkpt>
      <trkpt lat="45.12096" lon="0.71476">
        <ele>148.60000610352</ele>
        <time>2014-09-04T12:44:51.000Z</time>
      </trkpt>
      <trkpt lat="45.12082" lon="0.71484">
        <ele>149.60000610352</ele>
        <time>2014-09-04T12:44:56.000Z</time>
      </trkpt>
      <trkpt lat="45.1208" lon="0.71485">
        <ele>149.80000305176</ele>
        <time>2014-09-04T12:44:57.000Z</time>
      </trkpt>
      <trkpt lat="45.12072" lon="0.71487">
        <ele>150.60000610352</ele>
        <time>2014-09-04T12:45:00.000Z</time>
      </trkpt>
      <trkpt lat="45.12063" lon="0.71487">
        <ele>151.39999389648</ele>
        <time>2014-09-04T12:45:03.000Z</time>
      </trkpt>
      <trkpt lat="45.12061" lon="0.71487">
        <ele>151.60000610352</ele>
        <time>2014-09-04T12:45:04.000Z</time>
      </trkpt>
      <trkpt lat="45.12051" lon="0.71487">
        <ele>152.80000305176</ele>
        <time>2014-09-04T12:45:08.000Z</time>
      </trkpt>
      <trkpt lat="45.12043" lon="0.71489">
        <ele>153.60000610352</ele>
        <time>2014-09-04T12:45:11.000Z</time>
      </trkpt>
      <trkpt lat="45.12037" lon="0.7149">
        <ele>154</ele>
        <time>2014-09-04T12:45:13.000Z</time>
      </trkpt>
      <trkpt lat="45.12025" lon="0.71493">
        <ele>154.80000305176</ele>
        <time>2014-09-04T12:45:18.000Z</time>
      </trkpt>
      <trkpt lat="45.1202" lon="0.71493">
        <ele>155</ele>
        <time>2014-09-04T12:45:20.000Z</time>
      </trkpt>
      <trkpt lat="45.12009" lon="0.71495">
        <ele>156.19999694824</ele>
        <time>2014-09-04T12:45:25.000Z</time>
      </trkpt>
      <trkpt lat="45.12005" lon="0.71495">
        <ele>156.80000305176</ele>
        <time>2014-09-04T12:45:27.000Z</time>
      </trkpt>
      <trkpt lat="45.12002" lon="0.71496">
        <ele>157.19999694824</ele>
        <time>2014-09-04T12:45:29.000Z</time>
      </trkpt>
      <trkpt lat="45.11995" lon="0.71495">
        <ele>158.60000610352</ele>
        <time>2014-09-04T12:45:33.000Z</time>
      </trkpt>
      <trkpt lat="45.11994" lon="0.71494">
        <ele>158.80000305176</ele>
        <time>2014-09-04T12:45:34.000Z</time>
      </trkpt>
      <trkpt lat="45.11987" lon="0.7149">
        <ele>159.60000610352</ele>
        <time>2014-09-04T12:45:37.000Z</time>
      </trkpt>
      <trkpt lat="45.11979" lon="0.71488">
        <ele>160.60000610352</ele>
        <time>2014-09-04T12:45:41.000Z</time>
      </trkpt>
      <trkpt lat="45.11977" lon="0.71489">
        <ele>160.80000305176</ele>
        <time>2014-09-04T12:45:42.000Z</time>
      </trkpt>
      <trkpt lat="45.11968" lon="0.71494">
        <ele>162.19999694824</ele>
        <time>2014-09-04T12:45:46.000Z</time>
      </trkpt>
      <trkpt lat="45.11966" lon="0.71495">
        <ele>162.39999389648</ele>
        <time>2014-09-04T12:45:47.000Z</time>
      </trkpt>
      <trkpt lat="45.11961" lon="0.715">
        <ele>163.39999389648</ele>
        <time>2014-09-04T12:45:50.000Z</time>
      </trkpt>
      <trkpt lat="45.11958" lon="0.71503">
        <ele>164</ele>
        <time>2014-09-04T12:45:52.000Z</time>
      </trkpt>
      <trkpt lat="45.11956" lon="0.71506">
        <ele>164.60000610352</ele>
        <time>2014-09-04T12:45:54.000Z</time>
      </trkpt>
      <trkpt lat="45.11952" lon="0.71511">
        <ele>166</ele>
        <time>2014-09-04T12:45:57.000Z</time>
      </trkpt>
      <trkpt lat="45.11948" lon="0.71516">
        <ele>166.80000305176</ele>
        <time>2014-09-04T12:46:00.000Z</time>
      </trkpt>
      <trkpt lat="45.11947" lon="0.71518">
        <ele>167.19999694824</ele>
        <time>2014-09-04T12:46:01.000Z</time>
      </trkpt>
      <trkpt lat="45.1194" lon="0.71526">
        <ele>168.19999694824</ele>
        <time>2014-09-04T12:46:05.000Z</time>
      </trkpt>
      <trkpt lat="45.11935" lon="0.71533">
        <ele>168.39999389648</ele>
        <time>2014-09-04T12:46:08.000Z</time>
      </trkpt>
      <trkpt lat="45.11916" lon="0.7155">
        <ele>169.19999694824</ele>
        <time>2014-09-04T12:46:18.000Z</time>
      </trkpt>
      <trkpt lat="45.11897" lon="0.71561">
        <ele>170.19999694824</ele>
        <time>2014-09-04T12:46:28.000Z</time>
      </trkpt>
      <trkpt lat="45.11882" lon="0.71566">
        <ele>171</ele>
        <time>2014-09-04T12:46:36.000Z</time>
      </trkpt>
      <trkpt lat="45.11878" lon="0.71568">
        <ele>171.19999694824</ele>
        <time>2014-09-04T12:46:38.000Z</time>
      </trkpt>
      <trkpt lat="45.11864" lon="0.71571">
        <ele>172.19999694824</ele>
        <time>2014-09-04T12:46:44.000Z</time>
      </trkpt>
      <trkpt lat="45.11862" lon="0.71571">
        <ele>172.39999389648</ele>
        <time>2014-09-04T12:46:45.000Z</time>
      </trkpt>
      <trkpt lat="45.1185" lon="0.71572">
        <ele>173.39999389648</ele>
        <time>2014-09-04T12:46:51.000Z</time>
      </trkpt>
      <trkpt lat="45.11841" lon="0.71579">
        <ele>174.60000610352</ele>
        <time>2014-09-04T12:46:59.000Z</time>
      </trkpt>
      <trkpt lat="45.1184" lon="0.7158">
        <ele>174.80000305176</ele>
        <time>2014-09-04T12:47:00.000Z</time>
      </trkpt>
      <trkpt lat="45.11829" lon="0.71588">
        <ele>175.60000610352</ele>
        <time>2014-09-04T12:47:06.000Z</time>
      </trkpt>
      <trkpt lat="45.11827" lon="0.71589">
        <ele>175.80000305176</ele>
        <time>2014-09-04T12:47:07.000Z</time>
      </trkpt>
      <trkpt lat="45.11816" lon="0.71592">
        <ele>176.60000610352</ele>
        <time>2014-09-04T12:47:12.000Z</time>
      </trkpt>
      <trkpt lat="45.1181" lon="0.71595">
        <ele>177</ele>
        <time>2014-09-04T12:47:14.000Z</time>
      </trkpt>
      <trkpt lat="45.11804" lon="0.71597">
        <ele>177.60000610352</ele>
        <time>2014-09-04T12:47:17.000Z</time>
      </trkpt>
      <trkpt lat="45.11794" lon="0.716">
        <ele>178.19999694824</ele>
        <time>2014-09-04T12:47:22.000Z</time>
      </trkpt>
      <trkpt lat="45.11789" lon="0.71599">
        <ele>178.80000305176</ele>
        <time>2014-09-04T12:47:25.000Z</time>
      </trkpt>
      <trkpt lat="45.11781" lon="0.71599">
        <ele>179.39999389648</ele>
        <time>2014-09-04T12:47:29.000Z</time>
      </trkpt>
      <trkpt lat="45.11775" lon="0.71598">
        <ele>180</ele>
        <time>2014-09-04T12:47:32.000Z</time>
      </trkpt>
      <trkpt lat="45.11764" lon="0.71598">
        <ele>180.80000305176</ele>
        <time>2014-09-04T12:47:36.000Z</time>
      </trkpt>
      <trkpt lat="45.11759" lon="0.71598">
        <ele>181</ele>
        <time>2014-09-04T12:47:38.000Z</time>
      </trkpt>
      <trkpt lat="45.11744" lon="0.71602">
        <ele>181.60000610352</ele>
        <time>2014-09-04T12:47:44.000Z</time>
      </trkpt>
      <trkpt lat="45.11731" lon="0.71604">
        <ele>182</ele>
        <time>2014-09-04T12:47:49.000Z</time>
      </trkpt>
      <trkpt lat="45.11726" lon="0.71604">
        <ele>182</ele>
        <time>2014-09-04T12:47:51.000Z</time>
      </trkpt>
      <trkpt lat="45.11722" lon="0.71603">
        <ele>182.19999694824</ele>
        <time>2014-09-04T12:47:53.000Z</time>
      </trkpt>
      <trkpt lat="45.11716" lon="0.71597">
        <ele>182.60000610352</ele>
        <time>2014-09-04T12:47:56.000Z</time>
      </trkpt>
      <trkpt lat="45.11713" lon="0.71592">
        <ele>183</ele>
        <time>2014-09-04T12:47:58.000Z</time>
      </trkpt>
      <trkpt lat="45.11705" lon="0.71584">
        <ele>183.60000610352</ele>
        <time>2014-09-04T12:48:03.000Z</time>
      </trkpt>
      <trkpt lat="45.11701" lon="0.71581">
        <ele>184.19999694824</ele>
        <time>2014-09-04T12:48:06.000Z</time>
      </trkpt>
      <trkpt lat="45.1169" lon="0.71575">
        <ele>185</ele>
        <time>2014-09-04T12:48:11.000Z</time>
      </trkpt>
      <trkpt lat="45.11686" lon="0.71573">
        <ele>185.19999694824</ele>
        <time>2014-09-04T12:48:13.000Z</time>
      </trkpt>
      <trkpt lat="45.11674" lon="0.71568">
        <ele>186.19999694824</ele>
        <time>2014-09-04T12:48:19.000Z</time>
      </trkpt>
      <trkpt lat="45.11659" lon="0.71558">
        <ele>187.39999389648</ele>
        <time>2014-09-04T12:48:26.000Z</time>
      </trkpt>
      <trkpt lat="45.11658" lon="0.71557">
        <ele>187.60000610352</ele>
        <time>2014-09-04T12:48:27.000Z</time>
      </trkpt>
      <trkpt lat="45.11643" lon="0.71549">
        <ele>188.39999389648</ele>
        <time>2014-09-04T12:48:34.000Z</time>
      </trkpt>
      <trkpt lat="45.11627" lon="0.71539">
        <ele>189.39999389648</ele>
        <time>2014-09-04T12:48:42.000Z</time>
      </trkpt>
      <trkpt lat="45.11623" lon="0.71537">
        <ele>189.80000305176</ele>
        <time>2014-09-04T12:48:44.000Z</time>
      </trkpt>
      <trkpt lat="45.11614" lon="0.71535">
        <ele>190.60000610352</ele>
        <time>2014-09-04T12:48:48.000Z</time>
      </trkpt>
      <trkpt lat="45.11604" lon="0.71532">
        <ele>191.80000305176</ele>
        <time>2014-09-04T12:48:52.000Z</time>
      </trkpt>
      <trkpt lat="45.11601" lon="0.71532">
        <ele>192</ele>
        <time>2014-09-04T12:48:53.000Z</time>
      </trkpt>
      <trkpt lat="45.11593" lon="0.7153">
        <ele>192.80000305176</ele>
        <time>2014-09-04T12:48:57.000Z</time>
      </trkpt>
      <trkpt lat="45.11586" lon="0.71529">
        <ele>193.60000610352</ele>
        <time>2014-09-04T12:49:01.000Z</time>
      </trkpt>
      <trkpt lat="45.11583" lon="0.71528">
        <ele>193.80000305176</ele>
        <time>2014-09-04T12:49:02.000Z</time>
      </trkpt>
      <trkpt lat="45.11567" lon="0.71524">
        <ele>195</ele>
        <time>2014-09-04T12:49:09.000Z</time>
      </trkpt>
      <trkpt lat="45.11549" lon="0.71518">
        <ele>195.60000610352</ele>
        <time>2014-09-04T12:49:17.000Z</time>
      </trkpt>
      <trkpt lat="45.11541" lon="0.71514">
        <ele>196</ele>
        <time>2014-09-04T12:49:22.000Z</time>
      </trkpt>
      <trkpt lat="45.11537" lon="0.71513">
        <ele>196.39999389648</ele>
        <time>2014-09-04T12:49:24.000Z</time>
      </trkpt>
      <trkpt lat="45.11521" lon="0.71508">
        <ele>197.19999694824</ele>
        <time>2014-09-04T12:49:32.000Z</time>
      </trkpt>
      <trkpt lat="45.11507" lon="0.71497">
        <ele>198.19999694824</ele>
        <time>2014-09-04T12:49:39.000Z</time>
      </trkpt>
      <trkpt lat="45.11503" lon="0.71494">
        <ele>198.60000610352</ele>
        <time>2014-09-04T12:49:41.000Z</time>
      </trkpt>
      <trkpt lat="45.11488" lon="0.71485">
        <ele>198.80000305176</ele>
        <time>2014-09-04T12:49:47.000Z</time>
      </trkpt>
      <trkpt lat="45.11471" lon="0.71468">
        <ele>198.80000305176</ele>
        <time>2014-09-04T12:49:55.000Z</time>
      </trkpt>
      <trkpt lat="45.11459" lon="0.71459">
        <ele>199.39999389648</ele>
        <time>2014-09-04T12:50:00.000Z</time>
      </trkpt>
      <trkpt lat="45.11456" lon="0.71459">
        <ele>199.39999389648</ele>
        <time>2014-09-04T12:50:01.000Z</time>
      </trkpt>
      <trkpt lat="45.11443" lon="0.71462">
        <ele>200.39999389648</ele>
        <time>2014-09-04T12:50:06.000Z</time>
      </trkpt>
      <trkpt lat="45.11434" lon="0.71465">
        <ele>201.39999389648</ele>
        <time>2014-09-04T12:50:10.000Z</time>
      </trkpt>
      <trkpt lat="45.1143" lon="0.71467">
        <ele>201.60000610352</ele>
        <time>2014-09-04T12:50:12.000Z</time>
      </trkpt>
      <trkpt lat="45.11422" lon="0.71472">
        <ele>202.80000305176</ele>
        <time>2014-09-04T12:50:17.000Z</time>
      </trkpt>
      <trkpt lat="45.11412" lon="0.71476">
        <ele>204</ele>
        <time>2014-09-04T12:50:22.000Z</time>
      </trkpt>
      <trkpt lat="45.11407" lon="0.71478">
        <ele>204.60000610352</ele>
        <time>2014-09-04T12:50:25.000Z</time>
      </trkpt>
      <trkpt lat="45.11404" lon="0.7148">
        <ele>205</ele>
        <time>2014-09-04T12:50:27.000Z</time>
      </trkpt>
      <trkpt lat="45.11392" lon="0.71487">
        <ele>206</ele>
        <time>2014-09-04T12:50:33.000Z</time>
      </trkpt>
      <trkpt lat="45.11374" lon="0.71496">
        <ele>206.80000305176</ele>
        <time>2014-09-04T12:50:42.000Z</time>
      </trkpt>
      <trkpt lat="45.11367" lon="0.71499">
        <ele>207.19999694824</ele>
        <time>2014-09-04T12:50:45.000Z</time>
      </trkpt>
      <trkpt lat="45.11356" lon="0.71506">
        <ele>208</ele>
        <time>2014-09-04T12:50:51.000Z</time>
      </trkpt>
      <trkpt lat="45.11352" lon="0.71508">
        <ele>208.19999694824</ele>
        <time>2014-09-04T12:50:53.000Z</time>
      </trkpt>
      <trkpt lat="45.1134" lon="0.71516">
        <ele>209.19999694824</ele>
        <time>2014-09-04T12:51:00.000Z</time>
      </trkpt>
      <trkpt lat="45.11338" lon="0.71517">
        <ele>209.39999389648</ele>
        <time>2014-09-04T12:51:01.000Z</time>
      </trkpt>
      <trkpt lat="45.11327" lon="0.71525">
        <ele>210.39999389648</ele>
        <time>2014-09-04T12:51:07.000Z</time>
      </trkpt>
      <trkpt lat="45.11319" lon="0.71529">
        <ele>211.39999389648</ele>
        <time>2014-09-04T12:51:12.000Z</time>
      </trkpt>
      <trkpt lat="45.11312" lon="0.71533">
        <ele>212.19999694824</ele>
        <time>2014-09-04T12:51:16.000Z</time>
      </trkpt>
      <trkpt lat="45.11307" lon="0.71536">
        <ele>212.60000610352</ele>
        <time>2014-09-04T12:51:19.000Z</time>
      </trkpt>
      <trkpt lat="45.11301" lon="0.7154">
        <ele>213</ele>
        <time>2014-09-04T12:51:23.000Z</time>
      </trkpt>
      <trkpt lat="45.11296" lon="0.71544">
        <ele>213.80000305176</ele>
        <time>2014-09-04T12:51:27.000Z</time>
      </trkpt>
      <trkpt lat="45.1129" lon="0.71546">
        <ele>214.19999694824</ele>
        <time>2014-09-04T12:51:31.000Z</time>
      </trkpt>
      <trkpt lat="45.1129" lon="0.71548">
        <ele>214.19999694824</ele>
        <time>2014-09-04T12:51:32.000Z</time>
      </trkpt>
      <trkpt lat="45.1129" lon="0.71558">
        <ele>214.39999389648</ele>
        <time>2014-09-04T12:51:36.000Z</time>
      </trkpt>
      <trkpt lat="45.1129" lon="0.71564">
        <ele>214.60000610352</ele>
        <time>2014-09-04T12:51:38.000Z</time>
      </trkpt>
      <trkpt lat="45.1129" lon="0.71597">
        <ele>214.19999694824</ele>
        <time>2014-09-04T12:51:47.000Z</time>
      </trkpt>
      <trkpt lat="45.1129" lon="0.71632">
        <ele>213.60000610352</ele>
        <time>2014-09-04T12:51:54.000Z</time>
      </trkpt>
      <trkpt lat="45.11289" lon="0.71637">
        <ele>213.39999389648</ele>
        <time>2014-09-04T12:51:55.000Z</time>
      </trkpt>
      <trkpt lat="45.1128" lon="0.71661">
        <ele>212.39999389648</ele>
        <time>2014-09-04T12:51:59.000Z</time>
      </trkpt>
      <trkpt lat="45.11266" lon="0.71688">
        <ele>211.19999694824</ele>
        <time>2014-09-04T12:52:03.000Z</time>
      </trkpt>
      <trkpt lat="45.11261" lon="0.71696">
        <ele>210.60000610352</ele>
        <time>2014-09-04T12:52:04.000Z</time>
      </trkpt>
      <trkpt lat="45.11256" lon="0.71704">
        <ele>210</ele>
        <time>2014-09-04T12:52:05.000Z</time>
      </trkpt>
      <trkpt lat="45.11251" lon="0.71713">
        <ele>209</ele>
        <time>2014-09-04T12:52:06.000Z</time>
      </trkpt>
      <trkpt lat="45.11242" lon="0.71735">
        <ele>207.19999694824</ele>
        <time>2014-09-04T12:52:08.000Z</time>
      </trkpt>
      <trkpt lat="45.11234" lon="0.71761">
        <ele>205.80000305176</ele>
        <time>2014-09-04T12:52:10.000Z</time>
      </trkpt>
      <trkpt lat="45.1123" lon="0.71774">
        <ele>204.80000305176</ele>
        <time>2014-09-04T12:52:11.000Z</time>
      </trkpt>
      <trkpt lat="45.11222" lon="0.71798">
        <ele>203</ele>
        <time>2014-09-04T12:52:13.000Z</time>
      </trkpt>
      <trkpt lat="45.11216" lon="0.71808">
        <ele>202.60000610352</ele>
        <time>2014-09-04T12:52:14.000Z</time>
      </trkpt>
      <trkpt lat="45.11209" lon="0.71818">
        <ele>201.19999694824</ele>
        <time>2014-09-04T12:52:15.000Z</time>
      </trkpt>
      <trkpt lat="45.11202" lon="0.71826">
        <ele>200.19999694824</ele>
        <time>2014-09-04T12:52:16.000Z</time>
      </trkpt>
      <trkpt lat="45.11193" lon="0.71833">
        <ele>199.19999694824</ele>
        <time>2014-09-04T12:52:17.000Z</time>
      </trkpt>
      <trkpt lat="45.11177" lon="0.71843">
        <ele>198</ele>
        <time>2014-09-04T12:52:19.000Z</time>
      </trkpt>
      <trkpt lat="45.11156" lon="0.71838">
        <ele>196.80000305176</ele>
        <time>2014-09-04T12:52:21.000Z</time>
      </trkpt>
      <trkpt lat="45.11147" lon="0.71837">
        <ele>194.60000610352</ele>
        <time>2014-09-04T12:52:22.000Z</time>
      </trkpt>
      <trkpt lat="45.11126" lon="0.71829">
        <ele>193</ele>
        <time>2014-09-04T12:52:24.000Z</time>
      </trkpt>
      <trkpt lat="45.11116" lon="0.71826">
        <ele>192.39999389648</ele>
        <time>2014-09-04T12:52:25.000Z</time>
      </trkpt>
      <trkpt lat="45.11097" lon="0.71817">
        <ele>191.60000610352</ele>
        <time>2014-09-04T12:52:27.000Z</time>
      </trkpt>
      <trkpt lat="45.11071" lon="0.71801">
        <ele>190.60000610352</ele>
        <time>2014-09-04T12:52:30.000Z</time>
      </trkpt>
      <trkpt lat="45.11042" lon="0.71777">
        <ele>189.60000610352</ele>
        <time>2014-09-04T12:52:34.000Z</time>
      </trkpt>
      <trkpt lat="45.11018" lon="0.71757">
        <ele>189.39999389648</ele>
        <time>2014-09-04T12:52:38.000Z</time>
      </trkpt>
      <trkpt lat="45.10991" lon="0.71735">
        <ele>190.19999694824</ele>
        <time>2014-09-04T12:52:44.000Z</time>
      </trkpt>
      <trkpt lat="45.10985" lon="0.71729">
        <ele>190.80000305176</ele>
        <time>2014-09-04T12:52:46.000Z</time>
      </trkpt>
      <trkpt lat="45.10979" lon="0.71723">
        <ele>192</ele>
        <time>2014-09-04T12:52:48.000Z</time>
      </trkpt>
      <trkpt lat="45.10977" lon="0.7172">
        <ele>192.39999389648</ele>
        <time>2014-09-04T12:52:49.000Z</time>
      </trkpt>
      <trkpt lat="45.10966" lon="0.7171">
        <ele>193.19999694824</ele>
        <time>2014-09-04T12:52:53.000Z</time>
      </trkpt>
      <trkpt lat="45.1096" lon="0.71702">
        <ele>193.39999389648</ele>
        <time>2014-09-04T12:52:56.000Z</time>
      </trkpt>
      <trkpt lat="45.10946" lon="0.71677">
        <ele>192.80000305176</ele>
        <time>2014-09-04T12:53:02.000Z</time>
      </trkpt>
      <trkpt lat="45.10936" lon="0.71659">
        <ele>191.80000305176</ele>
        <time>2014-09-04T12:53:05.000Z</time>
      </trkpt>
      <trkpt lat="45.10928" lon="0.71645">
        <ele>190.19999694824</ele>
        <time>2014-09-04T12:53:07.000Z</time>
      </trkpt>
      <trkpt lat="45.10924" lon="0.71641">
        <ele>189.39999389648</ele>
        <time>2014-09-04T12:53:08.000Z</time>
      </trkpt>
      <trkpt lat="45.10919" lon="0.7164">
        <ele>189</ele>
        <time>2014-09-04T12:53:09.000Z</time>
      </trkpt>
      <trkpt lat="45.10914" lon="0.71641">
        <ele>188</ele>
        <time>2014-09-04T12:53:10.000Z</time>
      </trkpt>
      <trkpt lat="45.10909" lon="0.71652">
        <ele>187.19999694824</ele>
        <time>2014-09-04T12:53:12.000Z</time>
      </trkpt>
      <trkpt lat="45.10905" lon="0.71659">
        <ele>186.80000305176</ele>
        <time>2014-09-04T12:53:13.000Z</time>
      </trkpt>
      <trkpt lat="45.10902" lon="0.71665">
        <ele>186.39999389648</ele>
        <time>2014-09-04T12:53:14.000Z</time>
      </trkpt>
      <trkpt lat="45.10891" lon="0.71677">
        <ele>185.60000610352</ele>
        <time>2014-09-04T12:53:16.000Z</time>
      </trkpt>
      <trkpt lat="45.10878" lon="0.7169">
        <ele>184.19999694824</ele>
        <time>2014-09-04T12:53:18.000Z</time>
      </trkpt>
      <trkpt lat="45.10871" lon="0.71695">
        <ele>183.39999389648</ele>
        <time>2014-09-04T12:53:19.000Z</time>
      </trkpt>
      <trkpt lat="45.10864" lon="0.71701">
        <ele>183</ele>
        <time>2014-09-04T12:53:20.000Z</time>
      </trkpt>
      <trkpt lat="45.10859" lon="0.71708">
        <ele>182.39999389648</ele>
        <time>2014-09-04T12:53:21.000Z</time>
      </trkpt>
      <trkpt lat="45.10856" lon="0.71718">
        <ele>182</ele>
        <time>2014-09-04T12:53:22.000Z</time>
      </trkpt>
      <trkpt lat="45.10853" lon="0.71727">
        <ele>181</ele>
        <time>2014-09-04T12:53:23.000Z</time>
      </trkpt>
      <trkpt lat="45.10851" lon="0.71739">
        <ele>180</ele>
        <time>2014-09-04T12:53:24.000Z</time>
      </trkpt>
      <trkpt lat="45.10848" lon="0.71751">
        <ele>179.19999694824</ele>
        <time>2014-09-04T12:53:25.000Z</time>
      </trkpt>
      <trkpt lat="45.1084" lon="0.71773">
        <ele>177.60000610352</ele>
        <time>2014-09-04T12:53:27.000Z</time>
      </trkpt>
      <trkpt lat="45.10836" lon="0.71782">
        <ele>177.19999694824</ele>
        <time>2014-09-04T12:53:28.000Z</time>
      </trkpt>
      <trkpt lat="45.10833" lon="0.71791">
        <ele>176.60000610352</ele>
        <time>2014-09-04T12:53:29.000Z</time>
      </trkpt>
      <trkpt lat="45.10831" lon="0.718">
        <ele>176.19999694824</ele>
        <time>2014-09-04T12:53:30.000Z</time>
      </trkpt>
      <trkpt lat="45.10829" lon="0.71808">
        <ele>175.39999389648</ele>
        <time>2014-09-04T12:53:31.000Z</time>
      </trkpt>
      <trkpt lat="45.10827" lon="0.71816">
        <ele>174.80000305176</ele>
        <time>2014-09-04T12:53:32.000Z</time>
      </trkpt>
      <trkpt lat="45.10825" lon="0.71835">
        <ele>172.60000610352</ele>
        <time>2014-09-04T12:53:34.000Z</time>
      </trkpt>
      <trkpt lat="45.10825" lon="0.71846">
        <ele>172</ele>
        <time>2014-09-04T12:53:35.000Z</time>
      </trkpt>
      <trkpt lat="45.10827" lon="0.71858">
        <ele>171</ele>
        <time>2014-09-04T12:53:36.000Z</time>
      </trkpt>
      <trkpt lat="45.10832" lon="0.71884">
        <ele>169.80000305176</ele>
        <time>2014-09-04T12:53:38.000Z</time>
      </trkpt>
      <trkpt lat="45.10837" lon="0.71911">
        <ele>168.60000610352</ele>
        <time>2014-09-04T12:53:40.000Z</time>
      </trkpt>
      <trkpt lat="45.10843" lon="0.7194">
        <ele>166.80000305176</ele>
        <time>2014-09-04T12:53:42.000Z</time>
      </trkpt>
      <trkpt lat="45.1085" lon="0.71981">
        <ele>165.80000305176</ele>
        <time>2014-09-04T12:53:45.000Z</time>
      </trkpt>
      <trkpt lat="45.10852" lon="0.71994">
        <ele>165.60000610352</ele>
        <time>2014-09-04T12:53:46.000Z</time>
      </trkpt>
      <trkpt lat="45.10859" lon="0.72039">
        <ele>165.19999694824</ele>
        <time>2014-09-04T12:53:50.000Z</time>
      </trkpt>
      <trkpt lat="45.10862" lon="0.72071">
        <ele>164.39999389648</ele>
        <time>2014-09-04T12:53:53.000Z</time>
      </trkpt>
      <trkpt lat="45.10864" lon="0.72091">
        <ele>164.19999694824</ele>
        <time>2014-09-04T12:53:55.000Z</time>
      </trkpt>
      <trkpt lat="45.10864" lon="0.72135">
        <ele>163.19999694824</ele>
        <time>2014-09-04T12:54:00.000Z</time>
      </trkpt>
      <trkpt lat="45.1086" lon="0.7217">
        <ele>162.19999694824</ele>
        <time>2014-09-04T12:54:04.000Z</time>
      </trkpt>
      <trkpt lat="45.10857" lon="0.72188">
        <ele>161.60000610352</ele>
        <time>2014-09-04T12:54:06.000Z</time>
      </trkpt>
      <trkpt lat="45.10854" lon="0.72196">
        <ele>161.39999389648</ele>
        <time>2014-09-04T12:54:07.000Z</time>
      </trkpt>
      <trkpt lat="45.10851" lon="0.72203">
        <ele>161</ele>
        <time>2014-09-04T12:54:08.000Z</time>
      </trkpt>
      <trkpt lat="45.10843" lon="0.72219">
        <ele>160</ele>
        <time>2014-09-04T12:54:10.000Z</time>
      </trkpt>
      <trkpt lat="45.1084" lon="0.72228">
        <ele>158.80000305176</ele>
        <time>2014-09-04T12:54:11.000Z</time>
      </trkpt>
      <trkpt lat="45.10836" lon="0.72238">
        <ele>157.80000305176</ele>
        <time>2014-09-04T12:54:12.000Z</time>
      </trkpt>
      <trkpt lat="45.10832" lon="0.72248">
        <ele>156.60000610352</ele>
        <time>2014-09-04T12:54:13.000Z</time>
      </trkpt>
      <trkpt lat="45.10824" lon="0.72271">
        <ele>154.39999389648</ele>
        <time>2014-09-04T12:54:15.000Z</time>
      </trkpt>
      <trkpt lat="45.1082" lon="0.72281">
        <ele>153.19999694824</ele>
        <time>2014-09-04T12:54:16.000Z</time>
      </trkpt>
      <trkpt lat="45.10816" lon="0.72289">
        <ele>152.39999389648</ele>
        <time>2014-09-04T12:54:17.000Z</time>
      </trkpt>
      <trkpt lat="45.10812" lon="0.72296">
        <ele>152.19999694824</ele>
        <time>2014-09-04T12:54:18.000Z</time>
      </trkpt>
      <trkpt lat="45.10803" lon="0.72305">
        <ele>151</ele>
        <time>2014-09-04T12:54:20.000Z</time>
      </trkpt>
      <trkpt lat="45.10793" lon="0.72304">
        <ele>149.39999389648</ele>
        <time>2014-09-04T12:54:22.000Z</time>
      </trkpt>
      <trkpt lat="45.10788" lon="0.72302">
        <ele>149.39999389648</ele>
        <time>2014-09-04T12:54:23.000Z</time>
      </trkpt>
      <trkpt lat="45.10783" lon="0.72299">
        <ele>149.39999389648</ele>
        <time>2014-09-04T12:54:24.000Z</time>
      </trkpt>
      <trkpt lat="45.10749" lon="0.72285">
        <ele>149.19999694824</ele>
        <time>2014-09-04T12:54:31.000Z</time>
      </trkpt>
      <trkpt lat="45.10721" lon="0.72267">
        <ele>149.19999694824</ele>
        <time>2014-09-04T12:54:38.000Z</time>
      </trkpt>
      <trkpt lat="45.10693" lon="0.72252">
        <ele>150.60000610352</ele>
        <time>2014-09-04T12:54:46.000Z</time>
      </trkpt>
      <trkpt lat="45.10689" lon="0.72251">
        <ele>150.80000305176</ele>
        <time>2014-09-04T12:54:47.000Z</time>
      </trkpt>
      <trkpt lat="45.10671" lon="0.72242">
        <ele>151.60000610352</ele>
        <time>2014-09-04T12:54:53.000Z</time>
      </trkpt>
      <trkpt lat="45.10666" lon="0.7224">
        <ele>151.80000305176</ele>
        <time>2014-09-04T12:54:55.000Z</time>
      </trkpt>
      <trkpt lat="45.10652" lon="0.72235">
        <ele>152.19999694824</ele>
        <time>2014-09-04T12:55:00.000Z</time>
      </trkpt>
      <trkpt lat="45.10633" lon="0.72228">
        <ele>152.19999694824</ele>
        <time>2014-09-04T12:55:06.000Z</time>
      </trkpt>
      <trkpt lat="45.10618" lon="0.72221">
        <ele>152.80000305176</ele>
        <time>2014-09-04T12:55:11.000Z</time>
      </trkpt>
      <trkpt lat="45.10604" lon="0.72213">
        <ele>152.39999389648</ele>
        <time>2014-09-04T12:55:16.000Z</time>
      </trkpt>
      <trkpt lat="45.10588" lon="0.72201">
        <ele>152.80000305176</ele>
        <time>2014-09-04T12:55:22.000Z</time>
      </trkpt>
      <trkpt lat="45.10567" lon="0.72181">
        <ele>152.80000305176</ele>
        <time>2014-09-04T12:55:29.000Z</time>
      </trkpt>
      <trkpt lat="45.10546" lon="0.72159">
        <ele>153</ele>
        <time>2014-09-04T12:55:37.000Z</time>
      </trkpt>
      <trkpt lat="45.10527" lon="0.72142">
        <ele>153</ele>
        <time>2014-09-04T12:55:44.000Z</time>
      </trkpt>
      <trkpt lat="45.10509" lon="0.72125">
        <ele>153.39999389648</ele>
        <time>2014-09-04T12:55:51.000Z</time>
      </trkpt>
      <trkpt lat="45.10492" lon="0.72104">
        <ele>153.60000610352</ele>
        <time>2014-09-04T12:55:59.000Z</time>
      </trkpt>
      <trkpt lat="45.10485" lon="0.72095">
        <ele>153.80000305176</ele>
        <time>2014-09-04T12:56:02.000Z</time>
      </trkpt>
      <trkpt lat="45.10471" lon="0.7208">
        <ele>154.19999694824</ele>
        <time>2014-09-04T12:56:07.000Z</time>
      </trkpt>
      <trkpt lat="45.10458" lon="0.72069">
        <ele>154.80000305176</ele>
        <time>2014-09-04T12:56:13.000Z</time>
      </trkpt>
      <trkpt lat="45.10456" lon="0.72068">
        <ele>154.80000305176</ele>
        <time>2014-09-04T12:56:14.000Z</time>
      </trkpt>
      <trkpt lat="45.10439" lon="0.72058">
        <ele>155.39999389648</ele>
        <time>2014-09-04T12:56:20.000Z</time>
      </trkpt>
      <trkpt lat="45.1042" lon="0.72052">
        <ele>155.60000610352</ele>
        <time>2014-09-04T12:56:26.000Z</time>
      </trkpt>
      <trkpt lat="45.10406" lon="0.72046">
        <ele>156</ele>
        <time>2014-09-04T12:56:30.000Z</time>
      </trkpt>
      <trkpt lat="45.10396" lon="0.72043">
        <ele>156</ele>
        <time>2014-09-04T12:56:33.000Z</time>
      </trkpt>
      <trkpt lat="45.1037" lon="0.72034">
        <ele>156.39999389648</ele>
        <time>2014-09-04T12:56:39.000Z</time>
      </trkpt>
      <trkpt lat="45.10343" lon="0.72025">
        <ele>157</ele>
        <time>2014-09-04T12:56:46.000Z</time>
      </trkpt>
      <trkpt lat="45.10338" lon="0.72023">
        <ele>157.19999694824</ele>
        <time>2014-09-04T12:56:48.000Z</time>
      </trkpt>
      <trkpt lat="45.10319" lon="0.72003">
        <ele>157.19999694824</ele>
        <time>2014-09-04T12:56:55.000Z</time>
      </trkpt>
      <trkpt lat="45.10305" lon="0.71987">
        <ele>157.19999694824</ele>
        <time>2014-09-04T12:57:00.000Z</time>
      </trkpt>
      <trkpt lat="45.10287" lon="0.7197">
        <ele>157.60000610352</ele>
        <time>2014-09-04T12:57:06.000Z</time>
      </trkpt>
      <trkpt lat="45.10268" lon="0.71955">
        <ele>158.19999694824</ele>
        <time>2014-09-04T12:57:12.000Z</time>
      </trkpt>
      <trkpt lat="45.10264" lon="0.71951">
        <ele>158.19999694824</ele>
        <time>2014-09-04T12:57:14.000Z</time>
      </trkpt>
      <trkpt lat="45.10244" lon="0.71936">
        <ele>158.60000610352</ele>
        <time>2014-09-04T12:57:19.000Z</time>
      </trkpt>
      <trkpt lat="45.10222" lon="0.7192">
        <ele>159</ele>
        <time>2014-09-04T12:57:26.000Z</time>
      </trkpt>
      <trkpt lat="45.10215" lon="0.71906">
        <ele>159.19999694824</ele>
        <time>2014-09-04T12:57:30.000Z</time>
      </trkpt>
      <trkpt lat="45.10211" lon="0.71899">
        <ele>159.19999694824</ele>
        <time>2014-09-04T12:57:32.000Z</time>
      </trkpt>
      <trkpt lat="45.10203" lon="0.71873">
        <ele>160</ele>
        <time>2014-09-04T12:57:38.000Z</time>
      </trkpt>
      <trkpt lat="45.10202" lon="0.7187">
        <ele>160.19999694824</ele>
        <time>2014-09-04T12:57:39.000Z</time>
      </trkpt>
      <trkpt lat="45.10201" lon="0.71867">
        <ele>160.19999694824</ele>
        <time>2014-09-04T12:57:40.000Z</time>
      </trkpt>
      <trkpt lat="45.10196" lon="0.71853">
        <ele>160.80000305176</ele>
        <time>2014-09-04T12:57:44.000Z</time>
      </trkpt>
      <trkpt lat="45.10193" lon="0.71841">
        <ele>161.39999389648</ele>
        <time>2014-09-04T12:57:47.000Z</time>
      </trkpt>
      <trkpt lat="45.10188" lon="0.71825">
        <ele>161.60000610352</ele>
        <time>2014-09-04T12:57:51.000Z</time>
      </trkpt>
      <trkpt lat="45.10181" lon="0.71803">
        <ele>162.39999389648</ele>
        <time>2014-09-04T12:57:57.000Z</time>
      </trkpt>
      <trkpt lat="45.10178" lon="0.71795">
        <ele>162.80000305176</ele>
        <time>2014-09-04T12:57:59.000Z</time>
      </trkpt>
      <trkpt lat="45.10171" lon="0.71779">
        <ele>163.60000610352</ele>
        <time>2014-09-04T12:58:04.000Z</time>
      </trkpt>
      <trkpt lat="45.10169" lon="0.71776">
        <ele>163.60000610352</ele>
        <time>2014-09-04T12:58:05.000Z</time>
      </trkpt>
      <trkpt lat="45.1016" lon="0.7175">
        <ele>164.39999389648</ele>
        <time>2014-09-04T12:58:12.000Z</time>
      </trkpt>
      <trkpt lat="45.10156" lon="0.71739">
        <ele>164.60000610352</ele>
        <time>2014-09-04T12:58:15.000Z</time>
      </trkpt>
      <trkpt lat="45.10153" lon="0.71734">
        <ele>165.19999694824</ele>
        <time>2014-09-04T12:58:17.000Z</time>
      </trkpt>
      <trkpt lat="45.10145" lon="0.71721">
        <ele>165.80000305176</ele>
        <time>2014-09-04T12:58:21.000Z</time>
      </trkpt>
      <trkpt lat="45.10138" lon="0.71712">
        <ele>166.39999389648</ele>
        <time>2014-09-04T12:58:24.000Z</time>
      </trkpt>
      <trkpt lat="45.10128" lon="0.71702">
        <ele>166.80000305176</ele>
        <time>2014-09-04T12:58:29.000Z</time>
      </trkpt>
      <trkpt lat="45.10126" lon="0.717">
        <ele>167</ele>
        <time>2014-09-04T12:58:30.000Z</time>
      </trkpt>
      <trkpt lat="45.10113" lon="0.71688">
        <ele>167.60000610352</ele>
        <time>2014-09-04T12:58:36.000Z</time>
      </trkpt>
      <trkpt lat="45.10107" lon="0.71679">
        <ele>168</ele>
        <time>2014-09-04T12:58:40.000Z</time>
      </trkpt>
      <trkpt lat="45.10102" lon="0.71671">
        <ele>168.39999389648</ele>
        <time>2014-09-04T12:58:43.000Z</time>
      </trkpt>
      <trkpt lat="45.10096" lon="0.71663">
        <ele>169.19999694824</ele>
        <time>2014-09-04T12:58:47.000Z</time>
      </trkpt>
      <trkpt lat="45.10091" lon="0.71656">
        <ele>169.80000305176</ele>
        <time>2014-09-04T12:58:50.000Z</time>
      </trkpt>
      <trkpt lat="45.10085" lon="0.71645">
        <ele>170.19999694824</ele>
        <time>2014-09-04T12:58:54.000Z</time>
      </trkpt>
      <trkpt lat="45.10078" lon="0.71632">
        <ele>171</ele>
        <time>2014-09-04T12:58:59.000Z</time>
      </trkpt>
      <trkpt lat="45.10072" lon="0.71622">
        <ele>171.19999694824</ele>
        <time>2014-09-04T12:59:02.000Z</time>
      </trkpt>
      <trkpt lat="45.10063" lon="0.71607">
        <ele>171.80000305176</ele>
        <time>2014-09-04T12:59:06.000Z</time>
      </trkpt>
      <trkpt lat="45.10054" lon="0.71589">
        <ele>172.19999694824</ele>
        <time>2014-09-04T12:59:12.000Z</time>
      </trkpt>
      <trkpt lat="45.10045" lon="0.71565">
        <ele>173</ele>
        <time>2014-09-04T12:59:20.000Z</time>
      </trkpt>
      <trkpt lat="45.10044" lon="0.71557">
        <ele>173.39999389648</ele>
        <time>2014-09-04T12:59:22.000Z</time>
      </trkpt>
      <trkpt lat="45.10035" lon="0.71537">
        <ele>174</ele>
        <time>2014-09-04T12:59:28.000Z</time>
      </trkpt>
      <trkpt lat="45.10031" lon="0.7153">
        <ele>174.60000610352</ele>
        <time>2014-09-04T12:59:31.000Z</time>
      </trkpt>
      <trkpt lat="45.10029" lon="0.71524">
        <ele>174.80000305176</ele>
        <time>2014-09-04T12:59:33.000Z</time>
      </trkpt>
      <trkpt lat="45.10023" lon="0.71508">
        <ele>175.80000305176</ele>
        <time>2014-09-04T12:59:38.000Z</time>
      </trkpt>
      <trkpt lat="45.1002" lon="0.71502">
        <ele>176</ele>
        <time>2014-09-04T12:59:40.000Z</time>
      </trkpt>
      <trkpt lat="45.10018" lon="0.71486">
        <ele>176.80000305176</ele>
        <time>2014-09-04T12:59:45.000Z</time>
      </trkpt>
      <trkpt lat="45.10017" lon="0.71483">
        <ele>177</ele>
        <time>2014-09-04T12:59:46.000Z</time>
      </trkpt>
      <trkpt lat="45.10014" lon="0.71469">
        <ele>177.39999389648</ele>
        <time>2014-09-04T12:59:51.000Z</time>
      </trkpt>
      <trkpt lat="45.10007" lon="0.71453">
        <ele>178.19999694824</ele>
        <time>2014-09-04T12:59:56.000Z</time>
      </trkpt>
      <trkpt lat="45.10004" lon="0.71447">
        <ele>178.60000610352</ele>
        <time>2014-09-04T12:59:58.000Z</time>
      </trkpt>
      <trkpt lat="45.1" lon="0.7144">
        <ele>179.19999694824</ele>
        <time>2014-09-04T13:00:00.000Z</time>
      </trkpt>
      <trkpt lat="45.09989" lon="0.71429">
        <ele>180</ele>
        <time>2014-09-04T13:00:05.000Z</time>
      </trkpt>
      <trkpt lat="45.09986" lon="0.71427">
        <ele>180.19999694824</ele>
        <time>2014-09-04T13:00:06.000Z</time>
      </trkpt>
      <trkpt lat="45.09977" lon="0.71419">
        <ele>180.80000305176</ele>
        <time>2014-09-04T13:00:11.000Z</time>
      </trkpt>
      <trkpt lat="45.09969" lon="0.71413">
        <ele>181.39999389648</ele>
        <time>2014-09-04T13:00:14.000Z</time>
      </trkpt>
      <trkpt lat="45.09958" lon="0.71406">
        <ele>182</ele>
        <time>2014-09-04T13:00:19.000Z</time>
      </trkpt>
      <trkpt lat="45.09952" lon="0.71403">
        <ele>182.60000610352</ele>
        <time>2014-09-04T13:00:22.000Z</time>
      </trkpt>
      <trkpt lat="45.09943" lon="0.714">
        <ele>183.19999694824</ele>
        <time>2014-09-04T13:00:27.000Z</time>
      </trkpt>
      <trkpt lat="45.09938" lon="0.71398">
        <ele>183.80000305176</ele>
        <time>2014-09-04T13:00:30.000Z</time>
      </trkpt>
      <trkpt lat="45.09931" lon="0.71396">
        <ele>184.19999694824</ele>
        <time>2014-09-04T13:00:34.000Z</time>
      </trkpt>
      <trkpt lat="45.09917" lon="0.71392">
        <ele>185</ele>
        <time>2014-09-04T13:00:39.000Z</time>
      </trkpt>
      <trkpt lat="45.09912" lon="0.71389">
        <ele>185.19999694824</ele>
        <time>2014-09-04T13:00:41.000Z</time>
      </trkpt>
      <trkpt lat="45.09899" lon="0.71376">
        <ele>186</ele>
        <time>2014-09-04T13:00:47.000Z</time>
      </trkpt>
      <trkpt lat="45.09884" lon="0.71362">
        <ele>187.19999694824</ele>
        <time>2014-09-04T13:00:54.000Z</time>
      </trkpt>
      <trkpt lat="45.09882" lon="0.71361">
        <ele>187.39999389648</ele>
        <time>2014-09-04T13:00:55.000Z</time>
      </trkpt>
      <trkpt lat="45.09865" lon="0.71353">
        <ele>188</ele>
        <time>2014-09-04T13:01:01.000Z</time>
      </trkpt>
      <trkpt lat="45.09862" lon="0.71352">
        <ele>188.19999694824</ele>
        <time>2014-09-04T13:01:02.000Z</time>
      </trkpt>
      <trkpt lat="45.09859" lon="0.71351">
        <ele>188.39999389648</ele>
        <time>2014-09-04T13:01:03.000Z</time>
      </trkpt>
      <trkpt lat="45.0984" lon="0.71344">
        <ele>189</ele>
        <time>2014-09-04T13:01:10.000Z</time>
      </trkpt>
      <trkpt lat="45.09832" lon="0.71342">
        <ele>189.39999389648</ele>
        <time>2014-09-04T13:01:13.000Z</time>
      </trkpt>
      <trkpt lat="45.09823" lon="0.71338">
        <ele>190</ele>
        <time>2014-09-04T13:01:17.000Z</time>
      </trkpt>
      <trkpt lat="45.09816" lon="0.71335">
        <ele>190.60000610352</ele>
        <time>2014-09-04T13:01:20.000Z</time>
      </trkpt>
      <trkpt lat="45.09806" lon="0.71329">
        <ele>191.60000610352</ele>
        <time>2014-09-04T13:01:24.000Z</time>
      </trkpt>
      <trkpt lat="45.09802" lon="0.71328">
        <ele>191.60000610352</ele>
        <time>2014-09-04T13:01:26.000Z</time>
      </trkpt>
      <trkpt lat="45.09793" lon="0.71319">
        <ele>192.60000610352</ele>
        <time>2014-09-04T13:01:31.000Z</time>
      </trkpt>
      <trkpt lat="45.09791" lon="0.71317">
        <ele>192.80000305176</ele>
        <time>2014-09-04T13:01:32.000Z</time>
      </trkpt>
      <trkpt lat="45.09785" lon="0.71307">
        <ele>193.80000305176</ele>
        <time>2014-09-04T13:01:36.000Z</time>
      </trkpt>
      <trkpt lat="45.0978" lon="0.71298">
        <ele>194.19999694824</ele>
        <time>2014-09-04T13:01:39.000Z</time>
      </trkpt>
      <trkpt lat="45.09776" lon="0.7129">
        <ele>195.19999694824</ele>
        <time>2014-09-04T13:01:42.000Z</time>
      </trkpt>
      <trkpt lat="45.09769" lon="0.71277">
        <ele>196.19999694824</ele>
        <time>2014-09-04T13:01:47.000Z</time>
      </trkpt>
      <trkpt lat="45.09767" lon="0.7126">
        <ele>197.19999694824</ele>
        <time>2014-09-04T13:01:53.000Z</time>
      </trkpt>
      <trkpt lat="45.09766" lon="0.71255">
        <ele>197.39999389648</ele>
        <time>2014-09-04T13:01:55.000Z</time>
      </trkpt>
      <trkpt lat="45.09764" lon="0.71241">
        <ele>198.60000610352</ele>
        <time>2014-09-04T13:02:01.000Z</time>
      </trkpt>
      <trkpt lat="45.0976" lon="0.71227">
        <ele>199.80000305176</ele>
        <time>2014-09-04T13:02:07.000Z</time>
      </trkpt>
      <trkpt lat="45.09757" lon="0.71208">
        <ele>200.80000305176</ele>
        <time>2014-09-04T13:02:14.000Z</time>
      </trkpt>
      <trkpt lat="45.09752" lon="0.7119">
        <ele>201.80000305176</ele>
        <time>2014-09-04T13:02:20.000Z</time>
      </trkpt>
      <trkpt lat="45.0975" lon="0.71181">
        <ele>202</ele>
        <time>2014-09-04T13:02:23.000Z</time>
      </trkpt>
      <trkpt lat="45.09749" lon="0.71169">
        <ele>202.19999694824</ele>
        <time>2014-09-04T13:02:27.000Z</time>
      </trkpt>
      <trkpt lat="45.09749" lon="0.7115">
        <ele>202.80000305176</ele>
        <time>2014-09-04T13:02:33.000Z</time>
      </trkpt>
      <trkpt lat="45.09749" lon="0.71145">
        <ele>203</ele>
        <time>2014-09-04T13:02:35.000Z</time>
      </trkpt>
      <trkpt lat="45.09748" lon="0.71131">
        <ele>203.80000305176</ele>
        <time>2014-09-04T13:02:40.000Z</time>
      </trkpt>
      <trkpt lat="45.09747" lon="0.71124">
        <ele>204.19999694824</ele>
        <time>2014-09-04T13:02:42.000Z</time>
      </trkpt>
      <trkpt lat="45.09743" lon="0.71106">
        <ele>204.80000305176</ele>
        <time>2014-09-04T13:02:47.000Z</time>
      </trkpt>
      <trkpt lat="45.09742" lon="0.71097">
        <ele>205.19999694824</ele>
        <time>2014-09-04T13:02:50.000Z</time>
      </trkpt>
      <trkpt lat="45.09742" lon="0.71082">
        <ele>206.19999694824</ele>
        <time>2014-09-04T13:02:55.000Z</time>
      </trkpt>
      <trkpt lat="45.09743" lon="0.71079">
        <ele>206.39999389648</ele>
        <time>2014-09-04T13:02:56.000Z</time>
      </trkpt>
      <trkpt lat="45.09744" lon="0.71078">
        <ele>206.60000610352</ele>
        <time>2014-09-04T13:02:57.000Z</time>
      </trkpt>
      <trkpt lat="45.09745" lon="0.71071">
        <ele>207</ele>
        <time>2014-09-04T13:03:00.000Z</time>
      </trkpt>
      <trkpt lat="45.09746" lon="0.71069">
        <ele>207.39999389648</ele>
        <time>2014-09-04T13:03:01.000Z</time>
      </trkpt>
      <trkpt lat="45.09748" lon="0.71064">
        <ele>207.60000610352</ele>
        <time>2014-09-04T13:03:03.000Z</time>
      </trkpt>
      <trkpt lat="45.09754" lon="0.71054">
        <ele>207.60000610352</ele>
        <time>2014-09-04T13:03:07.000Z</time>
      </trkpt>
      <trkpt lat="45.09768" lon="0.71041">
        <ele>206.80000305176</ele>
        <time>2014-09-04T13:03:13.000Z</time>
      </trkpt>
      <trkpt lat="45.09786" lon="0.71026">
        <ele>206.39999389648</ele>
        <time>2014-09-04T13:03:19.000Z</time>
      </trkpt>
      <trkpt lat="45.09807" lon="0.71006">
        <ele>206</ele>
        <time>2014-09-04T13:03:25.000Z</time>
      </trkpt>
      <trkpt lat="45.09835" lon="0.70982">
        <ele>205.60000610352</ele>
        <time>2014-09-04T13:03:32.000Z</time>
      </trkpt>
      <trkpt lat="45.09845" lon="0.70975">
        <ele>205.39999389648</ele>
        <time>2014-09-04T13:03:34.000Z</time>
      </trkpt>
      <trkpt lat="45.09868" lon="0.70955">
        <ele>204.80000305176</ele>
        <time>2014-09-04T13:03:40.000Z</time>
      </trkpt>
      <trkpt lat="45.09882" lon="0.70942">
        <ele>204.60000610352</ele>
        <time>2014-09-04T13:03:45.000Z</time>
      </trkpt>
      <trkpt lat="45.09885" lon="0.70937">
        <ele>204.19999694824</ele>
        <time>2014-09-04T13:03:46.000Z</time>
      </trkpt>
      <trkpt lat="45.09899" lon="0.70924">
        <ele>203.80000305176</ele>
        <time>2014-09-04T13:03:49.000Z</time>
      </trkpt>
      <trkpt lat="45.09904" lon="0.7092">
        <ele>203.80000305176</ele>
        <time>2014-09-04T13:03:50.000Z</time>
      </trkpt>
      <trkpt lat="45.09922" lon="0.70904">
        <ele>203</ele>
        <time>2014-09-04T13:03:54.000Z</time>
      </trkpt>
      <trkpt lat="45.09932" lon="0.70897">
        <ele>202.80000305176</ele>
        <time>2014-09-04T13:03:56.000Z</time>
      </trkpt>
      <trkpt lat="45.09951" lon="0.70881">
        <ele>201.60000610352</ele>
        <time>2014-09-04T13:04:00.000Z</time>
      </trkpt>
      <trkpt lat="45.09967" lon="0.70863">
        <ele>200.60000610352</ele>
        <time>2014-09-04T13:04:03.000Z</time>
      </trkpt>
      <trkpt lat="45.09992" lon="0.7084">
        <ele>199.39999389648</ele>
        <time>2014-09-04T13:04:07.000Z</time>
      </trkpt>
      <trkpt lat="45.10009" lon="0.70824">
        <ele>198.80000305176</ele>
        <time>2014-09-04T13:04:10.000Z</time>
      </trkpt>
      <trkpt lat="45.1002" lon="0.70813">
        <ele>198.39999389648</ele>
        <time>2014-09-04T13:04:12.000Z</time>
      </trkpt>
      <trkpt lat="45.10042" lon="0.70794">
        <ele>197</ele>
        <time>2014-09-04T13:04:16.000Z</time>
      </trkpt>
      <trkpt lat="45.10047" lon="0.70792">
        <ele>196.80000305176</ele>
        <time>2014-09-04T13:04:17.000Z</time>
      </trkpt>
      <trkpt lat="45.10063" lon="0.70796">
        <ele>196.60000610352</ele>
        <time>2014-09-04T13:04:20.000Z</time>
      </trkpt>
      <trkpt lat="45.10082" lon="0.7081">
        <ele>196.39999389648</ele>
        <time>2014-09-04T13:04:24.000Z</time>
      </trkpt>
      <trkpt lat="45.10087" lon="0.70813">
        <ele>196.19999694824</ele>
        <time>2014-09-04T13:04:25.000Z</time>
      </trkpt>
      <trkpt lat="45.10102" lon="0.70819">
        <ele>196</ele>
        <time>2014-09-04T13:04:28.000Z</time>
      </trkpt>
      <trkpt lat="45.10113" lon="0.70822">
        <ele>195.80000305176</ele>
        <time>2014-09-04T13:04:30.000Z</time>
      </trkpt>
      <trkpt lat="45.10131" lon="0.70823">
        <ele>195.80000305176</ele>
        <time>2014-09-04T13:04:33.000Z</time>
      </trkpt>
      <trkpt lat="45.10143" lon="0.70819">
        <ele>195</ele>
        <time>2014-09-04T13:04:35.000Z</time>
      </trkpt>
      <trkpt lat="45.10149" lon="0.70817">
        <ele>194.80000305176</ele>
        <time>2014-09-04T13:04:36.000Z</time>
      </trkpt>
      <trkpt lat="45.10161" lon="0.70815">
        <ele>194.39999389648</ele>
        <time>2014-09-04T13:04:38.000Z</time>
      </trkpt>
      <trkpt lat="45.10172" lon="0.70815">
        <ele>194.39999389648</ele>
        <time>2014-09-04T13:04:40.000Z</time>
      </trkpt>
      <trkpt lat="45.10206" lon="0.70817">
        <ele>193.60000610352</ele>
        <time>2014-09-04T13:04:46.000Z</time>
      </trkpt>
      <trkpt lat="45.10213" lon="0.70816">
        <ele>193.19999694824</ele>
        <time>2014-09-04T13:04:47.000Z</time>
      </trkpt>
      <trkpt lat="45.10235" lon="0.70818">
        <ele>192.39999389648</ele>
        <time>2014-09-04T13:04:51.000Z</time>
      </trkpt>
      <trkpt lat="45.1024" lon="0.70818">
        <ele>192.19999694824</ele>
        <time>2014-09-04T13:04:52.000Z</time>
      </trkpt>
      <trkpt lat="45.10253" lon="0.7082">
        <ele>191.39999389648</ele>
        <time>2014-09-04T13:04:54.000Z</time>
      </trkpt>
      <trkpt lat="45.10273" lon="0.70822">
        <ele>190.60000610352</ele>
        <time>2014-09-04T13:04:57.000Z</time>
      </trkpt>
      <trkpt lat="45.1028" lon="0.70822">
        <ele>190</ele>
        <time>2014-09-04T13:04:58.000Z</time>
      </trkpt>
      <trkpt lat="45.1031" lon="0.70828">
        <ele>188.80000305176</ele>
        <time>2014-09-04T13:05:03.000Z</time>
      </trkpt>
      <trkpt lat="45.10334" lon="0.7083">
        <ele>187.80000305176</ele>
        <time>2014-09-04T13:05:07.000Z</time>
      </trkpt>
      <trkpt lat="45.1034" lon="0.70832">
        <ele>187.60000610352</ele>
        <time>2014-09-04T13:05:08.000Z</time>
      </trkpt>
      <trkpt lat="45.10357" lon="0.70835">
        <ele>186.39999389648</ele>
        <time>2014-09-04T13:05:11.000Z</time>
      </trkpt>
      <trkpt lat="45.10364" lon="0.70835">
        <ele>186.39999389648</ele>
        <time>2014-09-04T13:05:12.000Z</time>
      </trkpt>
      <trkpt lat="45.10387" lon="0.70838">
        <ele>185.39999389648</ele>
        <time>2014-09-04T13:05:16.000Z</time>
      </trkpt>
      <trkpt lat="45.10405" lon="0.70846">
        <ele>185</ele>
        <time>2014-09-04T13:05:19.000Z</time>
      </trkpt>
      <trkpt lat="45.10417" lon="0.70858">
        <ele>184.19999694824</ele>
        <time>2014-09-04T13:05:21.000Z</time>
      </trkpt>
      <trkpt lat="45.10428" lon="0.70873">
        <ele>183.39999389648</ele>
        <time>2014-09-04T13:05:23.000Z</time>
      </trkpt>
      <trkpt lat="45.10434" lon="0.7088">
        <ele>183</ele>
        <time>2014-09-04T13:05:24.000Z</time>
      </trkpt>
      <trkpt lat="45.10456" lon="0.7091">
        <ele>182</ele>
        <time>2014-09-04T13:05:28.000Z</time>
      </trkpt>
      <trkpt lat="45.10462" lon="0.70917">
        <ele>181.39999389648</ele>
        <time>2014-09-04T13:05:29.000Z</time>
      </trkpt>
      <trkpt lat="45.10473" lon="0.70932">
        <ele>180.39999389648</ele>
        <time>2014-09-04T13:05:31.000Z</time>
      </trkpt>
      <trkpt lat="45.10494" lon="0.70958">
        <ele>178.80000305176</ele>
        <time>2014-09-04T13:05:35.000Z</time>
      </trkpt>
      <trkpt lat="45.10499" lon="0.70965">
        <ele>178.60000610352</ele>
        <time>2014-09-04T13:05:36.000Z</time>
      </trkpt>
      <trkpt lat="45.10516" lon="0.70984">
        <ele>177.60000610352</ele>
        <time>2014-09-04T13:05:39.000Z</time>
      </trkpt>
      <trkpt lat="45.10533" lon="0.71004">
        <ele>176.39999389648</ele>
        <time>2014-09-04T13:05:42.000Z</time>
      </trkpt>
      <trkpt lat="45.10538" lon="0.71013">
        <ele>176</ele>
        <time>2014-09-04T13:05:43.000Z</time>
      </trkpt>
      <trkpt lat="45.10549" lon="0.71031">
        <ele>175.19999694824</ele>
        <time>2014-09-04T13:05:45.000Z</time>
      </trkpt>
      <trkpt lat="45.10554" lon="0.7104">
        <ele>174.80000305176</ele>
        <time>2014-09-04T13:05:46.000Z</time>
      </trkpt>
      <trkpt lat="45.10563" lon="0.71058">
        <ele>174.19999694824</ele>
        <time>2014-09-04T13:05:48.000Z</time>
      </trkpt>
      <trkpt lat="45.10582" lon="0.71097">
        <ele>173</ele>
        <time>2014-09-04T13:05:52.000Z</time>
      </trkpt>
      <trkpt lat="45.10587" lon="0.71107">
        <ele>172.19999694824</ele>
        <time>2014-09-04T13:05:53.000Z</time>
      </trkpt>
      <trkpt lat="45.10592" lon="0.71116">
        <ele>171.60000610352</ele>
        <time>2014-09-04T13:05:54.000Z</time>
      </trkpt>
      <trkpt lat="45.10611" lon="0.71142">
        <ele>170.19999694824</ele>
        <time>2014-09-04T13:05:57.000Z</time>
      </trkpt>
      <trkpt lat="45.10617" lon="0.71149">
        <ele>170</ele>
        <time>2014-09-04T13:05:58.000Z</time>
      </trkpt>
      <trkpt lat="45.1063" lon="0.71161">
        <ele>169.19999694824</ele>
        <time>2014-09-04T13:06:00.000Z</time>
      </trkpt>
      <trkpt lat="45.1065" lon="0.71178">
        <ele>168.39999389648</ele>
        <time>2014-09-04T13:06:03.000Z</time>
      </trkpt>
      <trkpt lat="45.10657" lon="0.7118">
        <ele>167.80000305176</ele>
        <time>2014-09-04T13:06:04.000Z</time>
      </trkpt>
      <trkpt lat="45.10671" lon="0.71181">
        <ele>167.60000610352</ele>
        <time>2014-09-04T13:06:06.000Z</time>
      </trkpt>
      <trkpt lat="45.10677" lon="0.71183">
        <ele>167.60000610352</ele>
        <time>2014-09-04T13:06:07.000Z</time>
      </trkpt>
      <trkpt lat="45.10694" lon="0.7119">
        <ele>167.39999389648</ele>
        <time>2014-09-04T13:06:10.000Z</time>
      </trkpt>
      <trkpt lat="45.10714" lon="0.71188">
        <ele>166.39999389648</ele>
        <time>2014-09-04T13:06:13.000Z</time>
      </trkpt>
      <trkpt lat="45.1072" lon="0.71187">
        <ele>166.19999694824</ele>
        <time>2014-09-04T13:06:14.000Z</time>
      </trkpt>
      <trkpt lat="45.10737" lon="0.7118">
        <ele>165.19999694824</ele>
        <time>2014-09-04T13:06:17.000Z</time>
      </trkpt>
      <trkpt lat="45.10747" lon="0.71175">
        <ele>165.19999694824</ele>
        <time>2014-09-04T13:06:19.000Z</time>
      </trkpt>
      <trkpt lat="45.10765" lon="0.71166">
        <ele>165</ele>
        <time>2014-09-04T13:06:24.000Z</time>
      </trkpt>
      <trkpt lat="45.1078" lon="0.71145">
        <ele>165.39999389648</ele>
        <time>2014-09-04T13:06:30.000Z</time>
      </trkpt>
      <trkpt lat="45.10794" lon="0.71113">
        <ele>164.80000305176</ele>
        <time>2014-09-04T13:06:38.000Z</time>
      </trkpt>
      <trkpt lat="45.10798" lon="0.71085">
        <ele>164.80000305176</ele>
        <time>2014-09-04T13:06:44.000Z</time>
      </trkpt>
      <trkpt lat="45.10797" lon="0.7104">
        <ele>164.19999694824</ele>
        <time>2014-09-04T13:06:50.000Z</time>
      </trkpt>
      <trkpt lat="45.10796" lon="0.71032">
        <ele>164</ele>
        <time>2014-09-04T13:06:51.000Z</time>
      </trkpt>
      <trkpt lat="45.10795" lon="0.71007">
        <ele>163.80000305176</ele>
        <time>2014-09-04T13:06:54.000Z</time>
      </trkpt>
      <trkpt lat="45.10797" lon="0.70992">
        <ele>163.60000610352</ele>
        <time>2014-09-04T13:06:56.000Z</time>
      </trkpt>
      <trkpt lat="45.10805" lon="0.70949">
        <ele>163.80000305176</ele>
        <time>2014-09-04T13:07:02.000Z</time>
      </trkpt>
      <trkpt lat="45.10814" lon="0.70922">
        <ele>165.39999389648</ele>
        <time>2014-09-04T13:07:08.000Z</time>
      </trkpt>
      <trkpt lat="45.10823" lon="0.70909">
        <ele>166.39999389648</ele>
        <time>2014-09-04T13:07:12.000Z</time>
      </trkpt>
      <trkpt lat="45.10826" lon="0.70907">
        <ele>166.19999694824</ele>
        <time>2014-09-04T13:07:13.000Z</time>
      </trkpt>
      <trkpt lat="45.10841" lon="0.70893">
        <ele>165.39999389648</ele>
        <time>2014-09-04T13:07:17.000Z</time>
      </trkpt>
      <trkpt lat="45.10846" lon="0.7089">
        <ele>165</ele>
        <time>2014-09-04T13:07:18.000Z</time>
      </trkpt>
      <trkpt lat="45.10853" lon="0.7088">
        <ele>164.19999694824</ele>
        <time>2014-09-04T13:07:20.000Z</time>
      </trkpt>
      <trkpt lat="45.10856" lon="0.70871">
        <ele>163.80000305176</ele>
        <time>2014-09-04T13:07:21.000Z</time>
      </trkpt>
      <trkpt lat="45.1086" lon="0.7086">
        <ele>163.39999389648</ele>
        <time>2014-09-04T13:07:22.000Z</time>
      </trkpt>
      <trkpt lat="45.10867" lon="0.70839">
        <ele>162.60000610352</ele>
        <time>2014-09-04T13:07:24.000Z</time>
      </trkpt>
      <trkpt lat="45.10869" lon="0.70829">
        <ele>162.19999694824</ele>
        <time>2014-09-04T13:07:25.000Z</time>
      </trkpt>
      <trkpt lat="45.10872" lon="0.70817">
        <ele>161.80000305176</ele>
        <time>2014-09-04T13:07:26.000Z</time>
      </trkpt>
      <trkpt lat="45.10874" lon="0.70806">
        <ele>161.39999389648</ele>
        <time>2014-09-04T13:07:27.000Z</time>
      </trkpt>
      <trkpt lat="45.10882" lon="0.70771">
        <ele>160.80000305176</ele>
        <time>2014-09-04T13:07:30.000Z</time>
      </trkpt>
      <trkpt lat="45.10886" lon="0.7076">
        <ele>160.19999694824</ele>
        <time>2014-09-04T13:07:31.000Z</time>
      </trkpt>
      <trkpt lat="45.1089" lon="0.70748">
        <ele>159.80000305176</ele>
        <time>2014-09-04T13:07:32.000Z</time>
      </trkpt>
      <trkpt lat="45.10893" lon="0.70737">
        <ele>159.19999694824</ele>
        <time>2014-09-04T13:07:33.000Z</time>
      </trkpt>
      <trkpt lat="45.10897" lon="0.70725">
        <ele>158.60000610352</ele>
        <time>2014-09-04T13:07:34.000Z</time>
      </trkpt>
      <trkpt lat="45.10901" lon="0.70714">
        <ele>157.80000305176</ele>
        <time>2014-09-04T13:07:35.000Z</time>
      </trkpt>
      <trkpt lat="45.10911" lon="0.7068">
        <ele>157</ele>
        <time>2014-09-04T13:07:38.000Z</time>
      </trkpt>
      <trkpt lat="45.10914" lon="0.70669">
        <ele>156.60000610352</ele>
        <time>2014-09-04T13:07:39.000Z</time>
      </trkpt>
      <trkpt lat="45.10922" lon="0.70646">
        <ele>155.39999389648</ele>
        <time>2014-09-04T13:07:41.000Z</time>
      </trkpt>
      <trkpt lat="45.10927" lon="0.70637">
        <ele>155</ele>
        <time>2014-09-04T13:07:42.000Z</time>
      </trkpt>
      <trkpt lat="45.10934" lon="0.70633">
        <ele>154.39999389648</ele>
        <time>2014-09-04T13:07:43.000Z</time>
      </trkpt>
      <trkpt lat="45.10951" lon="0.70627">
        <ele>154</ele>
        <time>2014-09-04T13:07:46.000Z</time>
      </trkpt>
      <trkpt lat="45.10975" lon="0.70614">
        <ele>153.60000610352</ele>
        <time>2014-09-04T13:07:51.000Z</time>
      </trkpt>
      <trkpt lat="45.10996" lon="0.70591">
        <ele>154</ele>
        <time>2014-09-04T13:07:57.000Z</time>
      </trkpt>
      <trkpt lat="45.11015" lon="0.70563">
        <ele>154.19999694824</ele>
        <time>2014-09-04T13:08:04.000Z</time>
      </trkpt>
      <trkpt lat="45.11033" lon="0.70533">
        <ele>154.39999389648</ele>
        <time>2014-09-04T13:08:12.000Z</time>
      </trkpt>
      <trkpt lat="45.11045" lon="0.70509">
        <ele>155</ele>
        <time>2014-09-04T13:08:19.000Z</time>
      </trkpt>
      <trkpt lat="45.11048" lon="0.70499">
        <ele>155</ele>
        <time>2014-09-04T13:08:22.000Z</time>
      </trkpt>
      <trkpt lat="45.11044" lon="0.70495">
        <ele>155.60000610352</ele>
        <time>2014-09-04T13:08:24.000Z</time>
      </trkpt>
      <trkpt lat="45.11038" lon="0.70491">
        <ele>156.80000305176</ele>
        <time>2014-09-04T13:08:28.000Z</time>
      </trkpt>
      <trkpt lat="45.11035" lon="0.70489">
        <ele>157.60000610352</ele>
        <time>2014-09-04T13:08:30.000Z</time>
      </trkpt>
      <trkpt lat="45.11033" lon="0.70486">
        <ele>158</ele>
        <time>2014-09-04T13:08:32.000Z</time>
      </trkpt>
      <trkpt lat="45.11031" lon="0.70484">
        <ele>158.39999389648</ele>
        <time>2014-09-04T13:08:33.000Z</time>
      </trkpt>
      <trkpt lat="45.11027" lon="0.7048">
        <ele>159.19999694824</ele>
        <time>2014-09-04T13:08:36.000Z</time>
      </trkpt>
      <trkpt lat="45.11026" lon="0.70479">
        <ele>159.60000610352</ele>
        <time>2014-09-04T13:08:37.000Z</time>
      </trkpt>
      <trkpt lat="45.11022" lon="0.70475">
        <ele>160.39999389648</ele>
        <time>2014-09-04T13:08:40.000Z</time>
      </trkpt>
      <trkpt lat="45.11016" lon="0.70468">
        <ele>161.39999389648</ele>
        <time>2014-09-04T13:08:45.000Z</time>
      </trkpt>
      <trkpt lat="45.11012" lon="0.70463">
        <ele>162.39999389648</ele>
        <time>2014-09-04T13:08:48.000Z</time>
      </trkpt>
      <trkpt lat="45.11008" lon="0.70459">
        <ele>163.39999389648</ele>
        <time>2014-09-04T13:08:52.000Z</time>
      </trkpt>
      <trkpt lat="45.11006" lon="0.70458">
        <ele>163.60000610352</ele>
        <time>2014-09-04T13:08:53.000Z</time>
      </trkpt>
      <trkpt lat="45.11" lon="0.70453">
        <ele>164.60000610352</ele>
        <time>2014-09-04T13:08:57.000Z</time>
      </trkpt>
      <trkpt lat="45.10996" lon="0.70448">
        <ele>165.60000610352</ele>
        <time>2014-09-04T13:09:01.000Z</time>
      </trkpt>
      <trkpt lat="45.10995" lon="0.70448">
        <ele>165.80000305176</ele>
        <time>2014-09-04T13:09:02.000Z</time>
      </trkpt>
      <trkpt lat="45.10994" lon="0.70448">
        <ele>166</ele>
        <time>2014-09-04T13:09:03.000Z</time>
      </trkpt>
      <trkpt lat="45.10989" lon="0.70444">
        <ele>166.80000305176</ele>
        <time>2014-09-04T13:09:07.000Z</time>
      </trkpt>
      <trkpt lat="45.10988" lon="0.70442">
        <ele>167.19999694824</ele>
        <time>2014-09-04T13:09:08.000Z</time>
      </trkpt>
      <trkpt lat="45.10976" lon="0.70426">
        <ele>170.60000610352</ele>
        <time>2014-09-04T13:09:22.000Z</time>
      </trkpt>
      <trkpt lat="45.10972" lon="0.70422">
        <ele>171.39999389648</ele>
        <time>2014-09-04T13:09:25.000Z</time>
      </trkpt>
      <trkpt lat="45.1097" lon="0.7042">
        <ele>171.60000610352</ele>
        <time>2014-09-04T13:09:27.000Z</time>
      </trkpt>
      <trkpt lat="45.10964" lon="0.70413">
        <ele>172.80000305176</ele>
        <time>2014-09-04T13:09:32.000Z</time>
      </trkpt>
      <trkpt lat="45.10963" lon="0.70412">
        <ele>173</ele>
        <time>2014-09-04T13:09:33.000Z</time>
      </trkpt>
      <trkpt lat="45.10948" lon="0.70398">
        <ele>176.39999389648</ele>
        <time>2014-09-04T13:09:48.000Z</time>
      </trkpt>
      <trkpt lat="45.10942" lon="0.70395">
        <ele>177</ele>
        <time>2014-09-04T13:09:52.000Z</time>
      </trkpt>
      <trkpt lat="45.1094" lon="0.70393">
        <ele>177.39999389648</ele>
        <time>2014-09-04T13:09:54.000Z</time>
      </trkpt>
      <trkpt lat="45.10933" lon="0.70385">
        <ele>178.39999389648</ele>
        <time>2014-09-04T13:10:01.000Z</time>
      </trkpt>
      <trkpt lat="45.10928" lon="0.70381">
        <ele>178.80000305176</ele>
        <time>2014-09-04T13:10:05.000Z</time>
      </trkpt>
      <trkpt lat="45.10923" lon="0.70377">
        <ele>179</ele>
        <time>2014-09-04T13:10:09.000Z</time>
      </trkpt>
      <trkpt lat="45.1092" lon="0.70374">
        <ele>179.60000610352</ele>
        <time>2014-09-04T13:10:11.000Z</time>
      </trkpt>
      <trkpt lat="45.10911" lon="0.70364">
        <ele>180</ele>
        <time>2014-09-04T13:10:17.000Z</time>
      </trkpt>
      <trkpt lat="45.10901" lon="0.70353">
        <ele>180.80000305176</ele>
        <time>2014-09-04T13:10:23.000Z</time>
      </trkpt>
      <trkpt lat="45.10899" lon="0.70351">
        <ele>180.80000305176</ele>
        <time>2014-09-04T13:10:24.000Z</time>
      </trkpt>
      <trkpt lat="45.10882" lon="0.70333">
        <ele>181.39999389648</ele>
        <time>2014-09-04T13:10:32.000Z</time>
      </trkpt>
      <trkpt lat="45.10863" lon="0.70314">
        <ele>181.80000305176</ele>
        <time>2014-09-04T13:10:39.000Z</time>
      </trkpt>
      <trkpt lat="45.10848" lon="0.70298">
        <ele>181.80000305176</ele>
        <time>2014-09-04T13:10:45.000Z</time>
      </trkpt>
      <trkpt lat="45.10845" lon="0.70295">
        <ele>181.80000305176</ele>
        <time>2014-09-04T13:10:46.000Z</time>
      </trkpt>
      <trkpt lat="45.10821" lon="0.7027">
        <ele>182.39999389648</ele>
        <time>2014-09-04T13:10:55.000Z</time>
      </trkpt>
      <trkpt lat="45.10801" lon="0.70253">
        <ele>182.80000305176</ele>
        <time>2014-09-04T13:11:03.000Z</time>
      </trkpt>
      <trkpt lat="45.10799" lon="0.7025">
        <ele>183</ele>
        <time>2014-09-04T13:11:04.000Z</time>
      </trkpt>
      <trkpt lat="45.10784" lon="0.70237">
        <ele>183.60000610352</ele>
        <time>2014-09-04T13:11:10.000Z</time>
      </trkpt>
      <trkpt lat="45.10771" lon="0.70223">
        <ele>184</ele>
        <time>2014-09-04T13:11:15.000Z</time>
      </trkpt>
      <trkpt lat="45.10766" lon="0.70217">
        <ele>184</ele>
        <time>2014-09-04T13:11:17.000Z</time>
      </trkpt>
      <trkpt lat="45.10755" lon="0.70197">
        <ele>185</ele>
        <time>2014-09-04T13:11:24.000Z</time>
      </trkpt>
      <trkpt lat="45.10753" lon="0.70194">
        <ele>185.19999694824</ele>
        <time>2014-09-04T13:11:25.000Z</time>
      </trkpt>
      <trkpt lat="45.10747" lon="0.70183">
        <ele>186</ele>
        <time>2014-09-04T13:11:29.000Z</time>
      </trkpt>
      <trkpt lat="45.10741" lon="0.70177">
        <ele>186.80000305176</ele>
        <time>2014-09-04T13:11:32.000Z</time>
      </trkpt>
      <trkpt lat="45.1074" lon="0.70175">
        <ele>187</ele>
        <time>2014-09-04T13:11:33.000Z</time>
      </trkpt>
      <trkpt lat="45.10733" lon="0.70167">
        <ele>188.19999694824</ele>
        <time>2014-09-04T13:11:37.000Z</time>
      </trkpt>
      <trkpt lat="45.10729" lon="0.7016">
        <ele>188.39999389648</ele>
        <time>2014-09-04T13:11:40.000Z</time>
      </trkpt>
      <trkpt lat="45.10717" lon="0.70144">
        <ele>189.19999694824</ele>
        <time>2014-09-04T13:11:47.000Z</time>
      </trkpt>
      <trkpt lat="45.10716" lon="0.70141">
        <ele>189.39999389648</ele>
        <time>2014-09-04T13:11:48.000Z</time>
      </trkpt>
      <trkpt lat="45.10709" lon="0.7013">
        <ele>190.19999694824</ele>
        <time>2014-09-04T13:11:52.000Z</time>
      </trkpt>
      <trkpt lat="45.10708" lon="0.70127">
        <ele>190.39999389648</ele>
        <time>2014-09-04T13:11:53.000Z</time>
      </trkpt>
      <trkpt lat="45.107" lon="0.70113">
        <ele>191.19999694824</ele>
        <time>2014-09-04T13:11:58.000Z</time>
      </trkpt>
      <trkpt lat="45.10694" lon="0.70104">
        <ele>191.80000305176</ele>
        <time>2014-09-04T13:12:01.000Z</time>
      </trkpt>
      <trkpt lat="45.10688" lon="0.70094">
        <ele>192.39999389648</ele>
        <time>2014-09-04T13:12:04.000Z</time>
      </trkpt>
      <trkpt lat="45.10681" lon="0.70076">
        <ele>193.39999389648</ele>
        <time>2014-09-04T13:12:10.000Z</time>
      </trkpt>
      <trkpt lat="45.1068" lon="0.70073">
        <ele>193.39999389648</ele>
        <time>2014-09-04T13:12:11.000Z</time>
      </trkpt>
      <trkpt lat="45.10674" lon="0.70058">
        <ele>194</ele>
        <time>2014-09-04T13:12:16.000Z</time>
      </trkpt>
      <trkpt lat="45.1067" lon="0.70049">
        <ele>194.60000610352</ele>
        <time>2014-09-04T13:12:19.000Z</time>
      </trkpt>
      <trkpt lat="45.10665" lon="0.70041">
        <ele>195</ele>
        <time>2014-09-04T13:12:22.000Z</time>
      </trkpt>
      <trkpt lat="45.10661" lon="0.70034">
        <ele>195.39999389648</ele>
        <time>2014-09-04T13:12:24.000Z</time>
      </trkpt>
      <trkpt lat="45.10658" lon="0.70028">
        <ele>195.60000610352</ele>
        <time>2014-09-04T13:12:26.000Z</time>
      </trkpt>
      <trkpt lat="45.10652" lon="0.70016">
        <ele>196</ele>
        <time>2014-09-04T13:12:30.000Z</time>
      </trkpt>
      <trkpt lat="45.10641" lon="0.69995">
        <ele>196.60000610352</ele>
        <time>2014-09-04T13:12:37.000Z</time>
      </trkpt>
      <trkpt lat="45.10639" lon="0.69993">
        <ele>196.80000305176</ele>
        <time>2014-09-04T13:12:38.000Z</time>
      </trkpt>
      <trkpt lat="45.10622" lon="0.69974">
        <ele>197.39999389648</ele>
        <time>2014-09-04T13:12:46.000Z</time>
      </trkpt>
      <trkpt lat="45.10608" lon="0.69961">
        <ele>197.80000305176</ele>
        <time>2014-09-04T13:12:52.000Z</time>
      </trkpt>
      <trkpt lat="45.10606" lon="0.69958">
        <ele>198</ele>
        <time>2014-09-04T13:12:53.000Z</time>
      </trkpt>
      <trkpt lat="45.10592" lon="0.69941">
        <ele>198.19999694824</ele>
        <time>2014-09-04T13:13:00.000Z</time>
      </trkpt>
      <trkpt lat="45.10581" lon="0.69915">
        <ele>198</ele>
        <time>2014-09-04T13:13:07.000Z</time>
      </trkpt>
      <trkpt lat="45.10569" lon="0.69893">
        <ele>198.19999694824</ele>
        <time>2014-09-04T13:13:13.000Z</time>
      </trkpt>
      <trkpt lat="45.10555" lon="0.69875">
        <ele>199</ele>
        <time>2014-09-04T13:13:19.000Z</time>
      </trkpt>
      <trkpt lat="45.1055" lon="0.69869">
        <ele>199.39999389648</ele>
        <time>2014-09-04T13:13:21.000Z</time>
      </trkpt>
      <trkpt lat="45.10541" lon="0.69855">
        <ele>200.39999389648</ele>
        <time>2014-09-04T13:13:25.000Z</time>
      </trkpt>
      <trkpt lat="45.10533" lon="0.69839">
        <ele>201</ele>
        <time>2014-09-04T13:13:29.000Z</time>
      </trkpt>
      <trkpt lat="45.10528" lon="0.69821">
        <ele>201.39999389648</ele>
        <time>2014-09-04T13:13:33.000Z</time>
      </trkpt>
      <trkpt lat="45.10521" lon="0.69799">
        <ele>201.80000305176</ele>
        <time>2014-09-04T13:13:38.000Z</time>
      </trkpt>
      <trkpt lat="45.10512" lon="0.69769">
        <ele>202.60000610352</ele>
        <time>2014-09-04T13:13:45.000Z</time>
      </trkpt>
      <trkpt lat="45.10507" lon="0.69751">
        <ele>201.80000305176</ele>
        <time>2014-09-04T13:13:49.000Z</time>
      </trkpt>
      <trkpt lat="45.10494" lon="0.69711">
        <ele>202.60000610352</ele>
        <time>2014-09-04T13:13:58.000Z</time>
      </trkpt>
      <trkpt lat="45.10486" lon="0.69676">
        <ele>203</ele>
        <time>2014-09-04T13:14:06.000Z</time>
      </trkpt>
      <trkpt lat="45.10483" lon="0.69669">
        <ele>203.60000610352</ele>
        <time>2014-09-04T13:14:08.000Z</time>
      </trkpt>
      <trkpt lat="45.10474" lon="0.69647">
        <ele>204.39999389648</ele>
        <time>2014-09-04T13:14:14.000Z</time>
      </trkpt>
      <trkpt lat="45.1047" lon="0.69641">
        <ele>204.60000610352</ele>
        <time>2014-09-04T13:14:16.000Z</time>
      </trkpt>
      <trkpt lat="45.10465" lon="0.69636">
        <ele>204.80000305176</ele>
        <time>2014-09-04T13:14:18.000Z</time>
      </trkpt>
      <trkpt lat="45.10456" lon="0.69625">
        <ele>205.19999694824</ele>
        <time>2014-09-04T13:14:22.000Z</time>
      </trkpt>
      <trkpt lat="45.1045" lon="0.69616">
        <ele>205.80000305176</ele>
        <time>2014-09-04T13:14:25.000Z</time>
      </trkpt>
      <trkpt lat="45.10442" lon="0.69599">
        <ele>206.19999694824</ele>
        <time>2014-09-04T13:14:30.000Z</time>
      </trkpt>
      <trkpt lat="45.10431" lon="0.6958">
        <ele>206.80000305176</ele>
        <time>2014-09-04T13:14:36.000Z</time>
      </trkpt>
      <trkpt lat="45.10428" lon="0.69577">
        <ele>206.80000305176</ele>
        <time>2014-09-04T13:14:37.000Z</time>
      </trkpt>
      <trkpt lat="45.10411" lon="0.69547">
        <ele>207.19999694824</ele>
        <time>2014-09-04T13:14:46.000Z</time>
      </trkpt>
      <trkpt lat="45.10399" lon="0.69523">
        <ele>207.39999389648</ele>
        <time>2014-09-04T13:14:53.000Z</time>
      </trkpt>
      <trkpt lat="45.10381" lon="0.69502">
        <ele>207.39999389648</ele>
        <time>2014-09-04T13:15:00.000Z</time>
      </trkpt>
      <trkpt lat="45.10366" lon="0.69485">
        <ele>207.60000610352</ele>
        <time>2014-09-04T13:15:05.000Z</time>
      </trkpt>
      <trkpt lat="45.1034" lon="0.69459">
        <ele>207.19999694824</ele>
        <time>2014-09-04T13:15:13.000Z</time>
      </trkpt>
      <trkpt lat="45.10326" lon="0.69448">
        <ele>207.60000610352</ele>
        <time>2014-09-04T13:15:17.000Z</time>
      </trkpt>
      <trkpt lat="45.1032" lon="0.69438">
        <ele>207.60000610352</ele>
        <time>2014-09-04T13:15:19.000Z</time>
      </trkpt>
      <trkpt lat="45.10316" lon="0.69428">
        <ele>208</ele>
        <time>2014-09-04T13:15:21.000Z</time>
      </trkpt>
      <trkpt lat="45.10314" lon="0.69414">
        <ele>209.19999694824</ele>
        <time>2014-09-04T13:15:24.000Z</time>
      </trkpt>
      <trkpt lat="45.10314" lon="0.69409">
        <ele>209.39999389648</ele>
        <time>2014-09-04T13:15:25.000Z</time>
      </trkpt>
      <trkpt lat="45.10313" lon="0.69402">
        <ele>210.39999389648</ele>
        <time>2014-09-04T13:15:27.000Z</time>
      </trkpt>
      <trkpt lat="45.10313" lon="0.69391">
        <ele>211.39999389648</ele>
        <time>2014-09-04T13:15:30.000Z</time>
      </trkpt>
      <trkpt lat="45.10313" lon="0.69384">
        <ele>211.80000305176</ele>
        <time>2014-09-04T13:15:32.000Z</time>
      </trkpt>
      <trkpt lat="45.10313" lon="0.6936">
        <ele>212.60000610352</ele>
        <time>2014-09-04T13:15:38.000Z</time>
      </trkpt>
      <trkpt lat="45.10313" lon="0.69356">
        <ele>212.80000305176</ele>
        <time>2014-09-04T13:15:39.000Z</time>
      </trkpt>
      <trkpt lat="45.10308" lon="0.69331">
        <ele>212.80000305176</ele>
        <time>2014-09-04T13:15:45.000Z</time>
      </trkpt>
      <trkpt lat="45.103" lon="0.693">
        <ele>213.80000305176</ele>
        <time>2014-09-04T13:15:53.000Z</time>
      </trkpt>
      <trkpt lat="45.10297" lon="0.69283">
        <ele>214.39999389648</ele>
        <time>2014-09-04T13:15:58.000Z</time>
      </trkpt>
      <trkpt lat="45.10295" lon="0.69268">
        <ele>214.80000305176</ele>
        <time>2014-09-04T13:16:02.000Z</time>
      </trkpt>
      <trkpt lat="45.10291" lon="0.69249">
        <ele>214.80000305176</ele>
        <time>2014-09-04T13:16:07.000Z</time>
      </trkpt>
      <trkpt lat="45.10284" lon="0.69229">
        <ele>215</ele>
        <time>2014-09-04T13:16:13.000Z</time>
      </trkpt>
      <trkpt lat="45.10282" lon="0.69225">
        <ele>215.19999694824</ele>
        <time>2014-09-04T13:16:22.000Z</time>
      </trkpt>
      <trkpt lat="45.10281" lon="0.69222">
        <ele>215</ele>
        <time>2014-09-04T13:16:24.000Z</time>
      </trkpt>
      <trkpt lat="45.10276" lon="0.69217">
        <ele>215.19999694824</ele>
        <time>2014-09-04T13:16:29.000Z</time>
      </trkpt>
      <trkpt lat="45.10272" lon="0.69216">
        <ele>215.39999389648</ele>
        <time>2014-09-04T13:16:31.000Z</time>
      </trkpt>
      <trkpt lat="45.10267" lon="0.69218">
        <ele>215.39999389648</ele>
        <time>2014-09-04T13:16:33.000Z</time>
      </trkpt>
      <trkpt lat="45.10263" lon="0.69224">
        <ele>215.19999694824</ele>
        <time>2014-09-04T13:16:35.000Z</time>
      </trkpt>
      <trkpt lat="45.10255" lon="0.69238">
        <ele>214.19999694824</ele>
        <time>2014-09-04T13:16:39.000Z</time>
      </trkpt>
      <trkpt lat="45.10253" lon="0.69241">
        <ele>214.19999694824</ele>
        <time>2014-09-04T13:16:40.000Z</time>
      </trkpt>
      <trkpt lat="45.10248" lon="0.69248">
        <ele>214</ele>
        <time>2014-09-04T13:16:44.000Z</time>
      </trkpt>
      <trkpt lat="45.10245" lon="0.69253">
        <ele>213.80000305176</ele>
        <time>2014-09-04T13:16:47.000Z</time>
      </trkpt>
      <trkpt lat="45.10245" lon="0.69254">
        <ele>214</ele>
        <time>2014-09-04T13:19:54.000Z</time>
      </trkpt>
      <trkpt lat="45.10236" lon="0.69268">
        <ele>213.39999389648</ele>
        <time>2014-09-04T13:20:00.000Z</time>
      </trkpt>
      <trkpt lat="45.1022" lon="0.69289">
        <ele>212.80000305176</ele>
        <time>2014-09-04T13:20:06.000Z</time>
      </trkpt>
      <trkpt lat="45.102" lon="0.69312">
        <ele>211.60000610352</ele>
        <time>2014-09-04T13:20:12.000Z</time>
      </trkpt>
      <trkpt lat="45.10189" lon="0.69324">
        <ele>211.60000610352</ele>
        <time>2014-09-04T13:20:15.000Z</time>
      </trkpt>
      <trkpt lat="45.10157" lon="0.69358">
        <ele>211.39999389648</ele>
        <time>2014-09-04T13:20:23.000Z</time>
      </trkpt>
      <trkpt lat="45.1015" lon="0.69366">
        <ele>210.60000610352</ele>
        <time>2014-09-04T13:20:25.000Z</time>
      </trkpt>
      <trkpt lat="45.10135" lon="0.69382">
        <ele>210</ele>
        <time>2014-09-04T13:20:29.000Z</time>
      </trkpt>
      <trkpt lat="45.10123" lon="0.69392">
        <ele>209.80000305176</ele>
        <time>2014-09-04T13:20:32.000Z</time>
      </trkpt>
      <trkpt lat="45.10118" lon="0.69395">
        <ele>209.60000610352</ele>
        <time>2014-09-04T13:20:33.000Z</time>
      </trkpt>
      <trkpt lat="45.10114" lon="0.69399">
        <ele>209.80000305176</ele>
        <time>2014-09-04T13:20:34.000Z</time>
      </trkpt>
      <trkpt lat="45.10083" lon="0.69433">
        <ele>209.19999694824</ele>
        <time>2014-09-04T13:20:41.000Z</time>
      </trkpt>
      <trkpt lat="45.10065" lon="0.69453">
        <ele>208.60000610352</ele>
        <time>2014-09-04T13:20:45.000Z</time>
      </trkpt>
      <trkpt lat="45.10056" lon="0.69451">
        <ele>208.19999694824</ele>
        <time>2014-09-04T13:20:47.000Z</time>
      </trkpt>
      <trkpt lat="45.10048" lon="0.69437">
        <ele>207.39999389648</ele>
        <time>2014-09-04T13:20:49.000Z</time>
      </trkpt>
      <trkpt lat="45.10044" lon="0.69429">
        <ele>207</ele>
        <time>2014-09-04T13:20:50.000Z</time>
      </trkpt>
      <trkpt lat="45.10041" lon="0.6942">
        <ele>206.60000610352</ele>
        <time>2014-09-04T13:20:51.000Z</time>
      </trkpt>
      <trkpt lat="45.10037" lon="0.6941">
        <ele>206.19999694824</ele>
        <time>2014-09-04T13:20:52.000Z</time>
      </trkpt>
      <trkpt lat="45.10031" lon="0.6939">
        <ele>204.60000610352</ele>
        <time>2014-09-04T13:20:54.000Z</time>
      </trkpt>
      <trkpt lat="45.10028" lon="0.69379">
        <ele>204</ele>
        <time>2014-09-04T13:20:55.000Z</time>
      </trkpt>
      <trkpt lat="45.10022" lon="0.69356">
        <ele>203.60000610352</ele>
        <time>2014-09-04T13:20:57.000Z</time>
      </trkpt>
      <trkpt lat="45.10014" lon="0.69334">
        <ele>202.39999389648</ele>
        <time>2014-09-04T13:20:59.000Z</time>
      </trkpt>
      <trkpt lat="45.1001" lon="0.69323">
        <ele>201.80000305176</ele>
        <time>2014-09-04T13:21:00.000Z</time>
      </trkpt>
      <trkpt lat="45.09999" lon="0.69302">
        <ele>201</ele>
        <time>2014-09-04T13:21:02.000Z</time>
      </trkpt>
      <trkpt lat="45.09988" lon="0.69279">
        <ele>199.80000305176</ele>
        <time>2014-09-04T13:21:04.000Z</time>
      </trkpt>
      <trkpt lat="45.09984" lon="0.69267">
        <ele>199.19999694824</ele>
        <time>2014-09-04T13:21:05.000Z</time>
      </trkpt>
      <trkpt lat="45.09981" lon="0.69254">
        <ele>198.80000305176</ele>
        <time>2014-09-04T13:21:06.000Z</time>
      </trkpt>
      <trkpt lat="45.09977" lon="0.69225">
        <ele>197.60000610352</ele>
        <time>2014-09-04T13:21:08.000Z</time>
      </trkpt>
      <trkpt lat="45.09974" lon="0.69195">
        <ele>196.19999694824</ele>
        <time>2014-09-04T13:21:10.000Z</time>
      </trkpt>
      <trkpt lat="45.09972" lon="0.69166">
        <ele>194.60000610352</ele>
        <time>2014-09-04T13:21:12.000Z</time>
      </trkpt>
      <trkpt lat="45.0997" lon="0.69151">
        <ele>194</ele>
        <time>2014-09-04T13:21:13.000Z</time>
      </trkpt>
      <trkpt lat="45.09964" lon="0.69139">
        <ele>193.19999694824</ele>
        <time>2014-09-04T13:21:14.000Z</time>
      </trkpt>
      <trkpt lat="45.09947" lon="0.69123">
        <ele>193</ele>
        <time>2014-09-04T13:21:16.000Z</time>
      </trkpt>
      <trkpt lat="45.09938" lon="0.69117">
        <ele>192.80000305176</ele>
        <time>2014-09-04T13:21:17.000Z</time>
      </trkpt>
      <trkpt lat="45.09921" lon="0.69104">
        <ele>192</ele>
        <time>2014-09-04T13:21:19.000Z</time>
      </trkpt>
      <trkpt lat="45.09907" lon="0.6909">
        <ele>192.19999694824</ele>
        <time>2014-09-04T13:21:21.000Z</time>
      </trkpt>
      <trkpt lat="45.09896" lon="0.69078">
        <ele>193</ele>
        <time>2014-09-04T13:21:23.000Z</time>
      </trkpt>
      <trkpt lat="45.09889" lon="0.69067">
        <ele>193.39999389648</ele>
        <time>2014-09-04T13:21:25.000Z</time>
      </trkpt>
      <trkpt lat="45.09886" lon="0.69063">
        <ele>193.39999389648</ele>
        <time>2014-09-04T13:21:26.000Z</time>
      </trkpt>
      <trkpt lat="45.09878" lon="0.69058">
        <ele>194</ele>
        <time>2014-09-04T13:21:28.000Z</time>
      </trkpt>
      <trkpt lat="45.09875" lon="0.69056">
        <ele>194</ele>
        <time>2014-09-04T13:21:29.000Z</time>
      </trkpt>
      <trkpt lat="45.09856" lon="0.69051">
        <ele>195</ele>
        <time>2014-09-04T13:21:35.000Z</time>
      </trkpt>
      <trkpt lat="45.09853" lon="0.69051">
        <ele>195.19999694824</ele>
        <time>2014-09-04T13:21:36.000Z</time>
      </trkpt>
      <trkpt lat="45.09838" lon="0.69048">
        <ele>196</ele>
        <time>2014-09-04T13:21:41.000Z</time>
      </trkpt>
      <trkpt lat="45.09828" lon="0.69045">
        <ele>196.39999389648</ele>
        <time>2014-09-04T13:21:44.000Z</time>
      </trkpt>
      <trkpt lat="45.09817" lon="0.6904">
        <ele>197.19999694824</ele>
        <time>2014-09-04T13:21:48.000Z</time>
      </trkpt>
      <trkpt lat="45.09815" lon="0.69039">
        <ele>197.60000610352</ele>
        <time>2014-09-04T13:21:49.000Z</time>
      </trkpt>
      <trkpt lat="45.09805" lon="0.69033">
        <ele>198.60000610352</ele>
        <time>2014-09-04T13:21:53.000Z</time>
      </trkpt>
      <trkpt lat="45.09797" lon="0.69028">
        <ele>199</ele>
        <time>2014-09-04T13:21:56.000Z</time>
      </trkpt>
      <trkpt lat="45.09793" lon="0.69026">
        <ele>199.60000610352</ele>
        <time>2014-09-04T13:21:58.000Z</time>
      </trkpt>
      <trkpt lat="45.09786" lon="0.69021">
        <ele>200.60000610352</ele>
        <time>2014-09-04T13:22:01.000Z</time>
      </trkpt>
      <trkpt lat="45.09782" lon="0.69018">
        <ele>201</ele>
        <time>2014-09-04T13:22:03.000Z</time>
      </trkpt>
      <trkpt lat="45.09773" lon="0.69013">
        <ele>201.60000610352</ele>
        <time>2014-09-04T13:22:07.000Z</time>
      </trkpt>
      <trkpt lat="45.09761" lon="0.69004">
        <ele>201.80000305176</ele>
        <time>2014-09-04T13:22:12.000Z</time>
      </trkpt>
      <trkpt lat="45.09744" lon="0.68991">
        <ele>202.60000610352</ele>
        <time>2014-09-04T13:22:19.000Z</time>
      </trkpt>
      <trkpt lat="45.09738" lon="0.68987">
        <ele>202.80000305176</ele>
        <time>2014-09-04T13:22:21.000Z</time>
      </trkpt>
      <trkpt lat="45.09723" lon="0.68973">
        <ele>203.80000305176</ele>
        <time>2014-09-04T13:22:27.000Z</time>
      </trkpt>
      <trkpt lat="45.09719" lon="0.68968">
        <ele>204</ele>
        <time>2014-09-04T13:22:29.000Z</time>
      </trkpt>
      <trkpt lat="45.09701" lon="0.68953">
        <ele>205</ele>
        <time>2014-09-04T13:22:36.000Z</time>
      </trkpt>
      <trkpt lat="45.09699" lon="0.6895">
        <ele>205.19999694824</ele>
        <time>2014-09-04T13:22:37.000Z</time>
      </trkpt>
      <trkpt lat="45.09684" lon="0.68937">
        <ele>206</ele>
        <time>2014-09-04T13:22:43.000Z</time>
      </trkpt>
      <trkpt lat="45.09676" lon="0.68932">
        <ele>206</ele>
        <time>2014-09-04T13:22:46.000Z</time>
      </trkpt>
      <trkpt lat="45.09667" lon="0.68922">
        <ele>206</ele>
        <time>2014-09-04T13:22:50.000Z</time>
      </trkpt>
      <trkpt lat="45.09667" lon="0.68915">
        <ele>206.39999389648</ele>
        <time>2014-09-04T13:22:52.000Z</time>
      </trkpt>
      <trkpt lat="45.09676" lon="0.68902">
        <ele>207</ele>
        <time>2014-09-04T13:22:57.000Z</time>
      </trkpt>
      <trkpt lat="45.09678" lon="0.68899">
        <ele>207.19999694824</ele>
        <time>2014-09-04T13:22:58.000Z</time>
      </trkpt>
      <trkpt lat="45.09694" lon="0.68877">
        <ele>208</ele>
        <time>2014-09-04T13:23:06.000Z</time>
      </trkpt>
      <trkpt lat="45.09696" lon="0.68874">
        <ele>208.39999389648</ele>
        <time>2014-09-04T13:23:07.000Z</time>
      </trkpt>
      <trkpt lat="45.09712" lon="0.68847">
        <ele>208.60000610352</ele>
        <time>2014-09-04T13:23:15.000Z</time>
      </trkpt>
      <trkpt lat="45.09719" lon="0.68827">
        <ele>207.80000305176</ele>
        <time>2014-09-04T13:23:19.000Z</time>
      </trkpt>
      <trkpt lat="45.09721" lon="0.68816">
        <ele>207.39999389648</ele>
        <time>2014-09-04T13:23:21.000Z</time>
      </trkpt>
      <trkpt lat="45.09722" lon="0.6881">
        <ele>207.39999389648</ele>
        <time>2014-09-04T13:23:22.000Z</time>
      </trkpt>
      <trkpt lat="45.09724" lon="0.68791">
        <ele>206.80000305176</ele>
        <time>2014-09-04T13:23:25.000Z</time>
      </trkpt>
      <trkpt lat="45.09724" lon="0.68779">
        <ele>206.60000610352</ele>
        <time>2014-09-04T13:23:27.000Z</time>
      </trkpt>
      <trkpt lat="45.09716" lon="0.68754">
        <ele>206.80000305176</ele>
        <time>2014-09-04T13:23:32.000Z</time>
      </trkpt>
      <trkpt lat="45.09707" lon="0.68732">
        <ele>208.39999389648</ele>
        <time>2014-09-04T13:23:37.000Z</time>
      </trkpt>
      <trkpt lat="45.09705" lon="0.68728">
        <ele>208.39999389648</ele>
        <time>2014-09-04T13:23:38.000Z</time>
      </trkpt>
      <trkpt lat="45.09692" lon="0.68697">
        <ele>208.80000305176</ele>
        <time>2014-09-04T13:23:45.000Z</time>
      </trkpt>
      <trkpt lat="45.09673" lon="0.68651">
        <ele>208.60000610352</ele>
        <time>2014-09-04T13:23:55.000Z</time>
      </trkpt>
      <trkpt lat="45.09653" lon="0.68619">
        <ele>209.39999389648</ele>
        <time>2014-09-04T13:24:04.000Z</time>
      </trkpt>
      <trkpt lat="45.09649" lon="0.68613">
        <ele>209.39999389648</ele>
        <time>2014-09-04T13:24:06.000Z</time>
      </trkpt>
      <trkpt lat="45.09635" lon="0.68601">
        <ele>209.80000305176</ele>
        <time>2014-09-04T13:24:12.000Z</time>
      </trkpt>
      <trkpt lat="45.09617" lon="0.68585">
        <ele>210.39999389648</ele>
        <time>2014-09-04T13:24:19.000Z</time>
      </trkpt>
      <trkpt lat="45.09614" lon="0.68583">
        <ele>210.39999389648</ele>
        <time>2014-09-04T13:24:20.000Z</time>
      </trkpt>
      <trkpt lat="45.0959" lon="0.68564">
        <ele>210.80000305176</ele>
        <time>2014-09-04T13:24:28.000Z</time>
      </trkpt>
      <trkpt lat="45.09568" lon="0.68546">
        <ele>211</ele>
        <time>2014-09-04T13:24:35.000Z</time>
      </trkpt>
      <trkpt lat="45.09553" lon="0.68532">
        <ele>211.39999389648</ele>
        <time>2014-09-04T13:24:41.000Z</time>
      </trkpt>
      <trkpt lat="45.09551" lon="0.68529">
        <ele>211.39999389648</ele>
        <time>2014-09-04T13:24:42.000Z</time>
      </trkpt>
      <trkpt lat="45.09537" lon="0.68515">
        <ele>211.39999389648</ele>
        <time>2014-09-04T13:24:47.000Z</time>
      </trkpt>
      <trkpt lat="45.09511" lon="0.68497">
        <ele>211.39999389648</ele>
        <time>2014-09-04T13:24:54.000Z</time>
      </trkpt>
      <trkpt lat="45.09485" lon="0.68487">
        <ele>211</ele>
        <time>2014-09-04T13:25:01.000Z</time>
      </trkpt>
      <trkpt lat="45.09466" lon="0.68482">
        <ele>211.19999694824</ele>
        <time>2014-09-04T13:25:08.000Z</time>
      </trkpt>
      <trkpt lat="45.09447" lon="0.68483">
        <ele>211.39999389648</ele>
        <time>2014-09-04T13:25:14.000Z</time>
      </trkpt>
      <trkpt lat="45.09423" lon="0.68486">
        <ele>211.80000305176</ele>
        <time>2014-09-04T13:25:21.000Z</time>
      </trkpt>
      <trkpt lat="45.09399" lon="0.68486">
        <ele>212.19999694824</ele>
        <time>2014-09-04T13:25:28.000Z</time>
      </trkpt>
      <trkpt lat="45.09386" lon="0.68482">
        <ele>212.19999694824</ele>
        <time>2014-09-04T13:25:32.000Z</time>
      </trkpt>
      <trkpt lat="45.09386" lon="0.68478">
        <ele>212.39999389648</ele>
        <time>2014-09-04T13:25:33.000Z</time>
      </trkpt>
      <trkpt lat="45.09386" lon="0.68475">
        <ele>212.60000610352</ele>
        <time>2014-09-04T13:25:34.000Z</time>
      </trkpt>
      <trkpt lat="45.0939" lon="0.68467">
        <ele>213</ele>
        <time>2014-09-04T13:25:36.000Z</time>
      </trkpt>
      <trkpt lat="45.09393" lon="0.68464">
        <ele>213</ele>
        <time>2014-09-04T13:25:37.000Z</time>
      </trkpt>
      <trkpt lat="45.09404" lon="0.68441">
        <ele>213.19999694824</ele>
        <time>2014-09-04T13:25:42.000Z</time>
      </trkpt>
      <trkpt lat="45.09421" lon="0.68393">
        <ele>213</ele>
        <time>2014-09-04T13:25:50.000Z</time>
      </trkpt>
      <trkpt lat="45.09436" lon="0.68337">
        <ele>213</ele>
        <time>2014-09-04T13:25:58.000Z</time>
      </trkpt>
      <trkpt lat="45.09447" lon="0.68278">
        <ele>211.80000305176</ele>
        <time>2014-09-04T13:26:06.000Z</time>
      </trkpt>
      <trkpt lat="45.09448" lon="0.68271">
        <ele>211</ele>
        <time>2014-09-04T13:26:07.000Z</time>
      </trkpt>
      <trkpt lat="45.0945" lon="0.68264">
        <ele>212.39999389648</ele>
        <time>2014-09-04T13:26:08.000Z</time>
      </trkpt>
      <trkpt lat="45.09451" lon="0.68251">
        <ele>213.60000610352</ele>
        <time>2014-09-04T13:26:10.000Z</time>
      </trkpt>
      <trkpt lat="45.09452" lon="0.68245">
        <ele>212.60000610352</ele>
        <time>2014-09-04T13:26:11.000Z</time>
      </trkpt>
      <trkpt lat="45.09453" lon="0.68239">
        <ele>212.39999389648</ele>
        <time>2014-09-04T13:26:12.000Z</time>
      </trkpt>
      <trkpt lat="45.09456" lon="0.68194">
        <ele>212</ele>
        <time>2014-09-04T13:26:19.000Z</time>
      </trkpt>
      <trkpt lat="45.09457" lon="0.68163">
        <ele>211.39999389648</ele>
        <time>2014-09-04T13:26:23.000Z</time>
      </trkpt>
      <trkpt lat="45.09457" lon="0.68139">
        <ele>210.80000305176</ele>
        <time>2014-09-04T13:26:26.000Z</time>
      </trkpt>
      <trkpt lat="45.09461" lon="0.68063">
        <ele>211.60000610352</ele>
        <time>2014-09-04T13:26:35.000Z</time>
      </trkpt>
      <trkpt lat="45.0946" lon="0.67995">
        <ele>211.39999389648</ele>
        <time>2014-09-04T13:26:43.000Z</time>
      </trkpt>
      <trkpt lat="45.09452" lon="0.67932">
        <ele>210.80000305176</ele>
        <time>2014-09-04T13:26:51.000Z</time>
      </trkpt>
      <trkpt lat="45.09437" lon="0.67854">
        <ele>210.60000610352</ele>
        <time>2014-09-04T13:27:01.000Z</time>
      </trkpt>
      <trkpt lat="45.09425" lon="0.67795">
        <ele>211.39999389648</ele>
        <time>2014-09-04T13:27:09.000Z</time>
      </trkpt>
      <trkpt lat="45.09417" lon="0.6775">
        <ele>212</ele>
        <time>2014-09-04T13:27:16.000Z</time>
      </trkpt>
      <trkpt lat="45.09415" lon="0.67724">
        <ele>212.60000610352</ele>
        <time>2014-09-04T13:27:20.000Z</time>
      </trkpt>
      <trkpt lat="45.09414" lon="0.67718">
        <ele>212.60000610352</ele>
        <time>2014-09-04T13:27:21.000Z</time>
      </trkpt>
      <trkpt lat="45.09415" lon="0.67699">
        <ele>212.39999389648</ele>
        <time>2014-09-04T13:27:24.000Z</time>
      </trkpt>
      <trkpt lat="45.09416" lon="0.67686">
        <ele>212.39999389648</ele>
        <time>2014-09-04T13:27:26.000Z</time>
      </trkpt>
      <trkpt lat="45.09421" lon="0.67666">
        <ele>211.80000305176</ele>
        <time>2014-09-04T13:27:29.000Z</time>
      </trkpt>
      <trkpt lat="45.09422" lon="0.67658">
        <ele>211.60000610352</ele>
        <time>2014-09-04T13:27:30.000Z</time>
      </trkpt>
      <trkpt lat="45.09431" lon="0.67606">
        <ele>211</ele>
        <time>2014-09-04T13:27:36.000Z</time>
      </trkpt>
      <trkpt lat="45.09432" lon="0.67596">
        <ele>210.39999389648</ele>
        <time>2014-09-04T13:27:37.000Z</time>
      </trkpt>
      <trkpt lat="45.09436" lon="0.67566">
        <ele>209.19999694824</ele>
        <time>2014-09-04T13:27:40.000Z</time>
      </trkpt>
      <trkpt lat="45.0944" lon="0.67527">
        <ele>208.60000610352</ele>
        <time>2014-09-04T13:27:44.000Z</time>
      </trkpt>
      <trkpt lat="45.09439" lon="0.67476">
        <ele>209</ele>
        <time>2014-09-04T13:27:50.000Z</time>
      </trkpt>
      <trkpt lat="45.09431" lon="0.67424">
        <ele>209.80000305176</ele>
        <time>2014-09-04T13:27:57.000Z</time>
      </trkpt>
      <trkpt lat="45.09426" lon="0.67403">
        <ele>210.39999389648</ele>
        <time>2014-09-04T13:28:00.000Z</time>
      </trkpt>
      <trkpt lat="45.09421" lon="0.6737">
        <ele>211.19999694824</ele>
        <time>2014-09-04T13:28:05.000Z</time>
      </trkpt>
      <trkpt lat="45.09421" lon="0.67364">
        <ele>211.39999389648</ele>
        <time>2014-09-04T13:28:06.000Z</time>
      </trkpt>
      <trkpt lat="45.09416" lon="0.67313">
        <ele>211.80000305176</ele>
        <time>2014-09-04T13:28:14.000Z</time>
      </trkpt>
      <trkpt lat="45.09415" lon="0.67293">
        <ele>212.60000610352</ele>
        <time>2014-09-04T13:28:17.000Z</time>
      </trkpt>
      <trkpt lat="45.09412" lon="0.67259">
        <ele>212.19999694824</ele>
        <time>2014-09-04T13:28:22.000Z</time>
      </trkpt>
      <trkpt lat="45.09405" lon="0.67182">
        <ele>211.80000305176</ele>
        <time>2014-09-04T13:28:33.000Z</time>
      </trkpt>
      <trkpt lat="45.09402" lon="0.67154">
        <ele>211.39999389648</ele>
        <time>2014-09-04T13:28:37.000Z</time>
      </trkpt>
      <trkpt lat="45.09398" lon="0.67112">
        <ele>211.60000610352</ele>
        <time>2014-09-04T13:28:43.000Z</time>
      </trkpt>
      <trkpt lat="45.09389" lon="0.67031">
        <ele>211.39999389648</ele>
        <time>2014-09-04T13:28:54.000Z</time>
      </trkpt>
      <trkpt lat="45.09387" lon="0.66966">
        <ele>211.19999694824</ele>
        <time>2014-09-04T13:29:03.000Z</time>
      </trkpt>
      <trkpt lat="45.09393" lon="0.66914">
        <ele>210.80000305176</ele>
        <time>2014-09-04T13:29:10.000Z</time>
      </trkpt>
      <trkpt lat="45.09396" lon="0.66892">
        <ele>210.39999389648</ele>
        <time>2014-09-04T13:29:13.000Z</time>
      </trkpt>
      <trkpt lat="45.09403" lon="0.66845">
        <ele>209.80000305176</ele>
        <time>2014-09-04T13:29:19.000Z</time>
      </trkpt>
      <trkpt lat="45.09411" lon="0.66804">
        <ele>209.39999389648</ele>
        <time>2014-09-04T13:29:24.000Z</time>
      </trkpt>
      <trkpt lat="45.09417" lon="0.6678">
        <ele>209.19999694824</ele>
        <time>2014-09-04T13:29:27.000Z</time>
      </trkpt>
      <trkpt lat="45.09426" lon="0.66756">
        <ele>208.39999389648</ele>
        <time>2014-09-04T13:29:30.000Z</time>
      </trkpt>
      <trkpt lat="45.0944" lon="0.66727">
        <ele>208.80000305176</ele>
        <time>2014-09-04T13:29:34.000Z</time>
      </trkpt>
      <trkpt lat="45.09468" lon="0.66668">
        <ele>207.60000610352</ele>
        <time>2014-09-04T13:29:42.000Z</time>
      </trkpt>
      <trkpt lat="45.09492" lon="0.66617">
        <ele>207.60000610352</ele>
        <time>2014-09-04T13:29:49.000Z</time>
      </trkpt>
      <trkpt lat="45.09499" lon="0.66602">
        <ele>207.39999389648</ele>
        <time>2014-09-04T13:29:51.000Z</time>
      </trkpt>
      <trkpt lat="45.09523" lon="0.6655">
        <ele>206.80000305176</ele>
        <time>2014-09-04T13:29:58.000Z</time>
      </trkpt>
      <trkpt lat="45.09544" lon="0.66505">
        <ele>206.39999389648</ele>
        <time>2014-09-04T13:30:04.000Z</time>
      </trkpt>
      <trkpt lat="45.09552" lon="0.66488">
        <ele>206</ele>
        <time>2014-09-04T13:30:06.000Z</time>
      </trkpt>
      <trkpt lat="45.09572" lon="0.66446">
        <ele>205.19999694824</ele>
        <time>2014-09-04T13:30:11.000Z</time>
      </trkpt>
      <trkpt lat="45.0958" lon="0.66427">
        <ele>204.60000610352</ele>
        <time>2014-09-04T13:30:13.000Z</time>
      </trkpt>
      <trkpt lat="45.09588" lon="0.66408">
        <ele>204</ele>
        <time>2014-09-04T13:30:15.000Z</time>
      </trkpt>
      <trkpt lat="45.09596" lon="0.66388">
        <ele>203</ele>
        <time>2014-09-04T13:30:17.000Z</time>
      </trkpt>
      <trkpt lat="45.09602" lon="0.66366">
        <ele>202.80000305176</ele>
        <time>2014-09-04T13:30:19.000Z</time>
      </trkpt>
      <trkpt lat="45.09606" lon="0.66332">
        <ele>202</ele>
        <time>2014-09-04T13:30:22.000Z</time>
      </trkpt>
      <trkpt lat="45.09606" lon="0.66321">
        <ele>201.80000305176</ele>
        <time>2014-09-04T13:30:23.000Z</time>
      </trkpt>
      <trkpt lat="45.096" lon="0.66276">
        <ele>200.80000305176</ele>
        <time>2014-09-04T13:30:27.000Z</time>
      </trkpt>
      <trkpt lat="45.09597" lon="0.66265">
        <ele>200.80000305176</ele>
        <time>2014-09-04T13:30:28.000Z</time>
      </trkpt>
      <trkpt lat="45.09583" lon="0.6623">
        <ele>200.39999389648</ele>
        <time>2014-09-04T13:30:32.000Z</time>
      </trkpt>
      <trkpt lat="45.09558" lon="0.6619">
        <ele>199.80000305176</ele>
        <time>2014-09-04T13:30:38.000Z</time>
      </trkpt>
      <trkpt lat="45.0953" lon="0.6615">
        <ele>200.39999389648</ele>
        <time>2014-09-04T13:30:45.000Z</time>
      </trkpt>
      <trkpt lat="45.09524" lon="0.6614">
        <ele>200.19999694824</ele>
        <time>2014-09-04T13:30:47.000Z</time>
      </trkpt>
      <trkpt lat="45.09522" lon="0.66128">
        <ele>200</ele>
        <time>2014-09-04T13:30:49.000Z</time>
      </trkpt>
      <trkpt lat="45.09529" lon="0.66107">
        <ele>199.80000305176</ele>
        <time>2014-09-04T13:30:53.000Z</time>
      </trkpt>
      <trkpt lat="45.09541" lon="0.66082">
        <ele>200</ele>
        <time>2014-09-04T13:30:58.000Z</time>
      </trkpt>
      <trkpt lat="45.09547" lon="0.66073">
        <ele>199.60000610352</ele>
        <time>2014-09-04T13:31:00.000Z</time>
      </trkpt>
      <trkpt lat="45.09555" lon="0.66064">
        <ele>199.39999389648</ele>
        <time>2014-09-04T13:31:02.000Z</time>
      </trkpt>
      <trkpt lat="45.09568" lon="0.66051">
        <ele>198.60000610352</ele>
        <time>2014-09-04T13:31:05.000Z</time>
      </trkpt>
      <trkpt lat="45.09572" lon="0.66046">
        <ele>198.19999694824</ele>
        <time>2014-09-04T13:31:06.000Z</time>
      </trkpt>
      <trkpt lat="45.09577" lon="0.66031">
        <ele>197.39999389648</ele>
        <time>2014-09-04T13:31:08.000Z</time>
      </trkpt>
      <trkpt lat="45.09578" lon="0.66011">
        <ele>196.19999694824</ele>
        <time>2014-09-04T13:31:10.000Z</time>
      </trkpt>
      <trkpt lat="45.09579" lon="0.65999">
        <ele>195.60000610352</ele>
        <time>2014-09-04T13:31:11.000Z</time>
      </trkpt>
      <trkpt lat="45.0958" lon="0.65987">
        <ele>195</ele>
        <time>2014-09-04T13:31:12.000Z</time>
      </trkpt>
      <trkpt lat="45.09583" lon="0.65975">
        <ele>192.80000305176</ele>
        <time>2014-09-04T13:31:13.000Z</time>
      </trkpt>
      <trkpt lat="45.09592" lon="0.65951">
        <ele>191.80000305176</ele>
        <time>2014-09-04T13:31:15.000Z</time>
      </trkpt>
      <trkpt lat="45.09597" lon="0.65939">
        <ele>191.60000610352</ele>
        <time>2014-09-04T13:31:16.000Z</time>
      </trkpt>
      <trkpt lat="45.09607" lon="0.65916">
        <ele>190.39999389648</ele>
        <time>2014-09-04T13:31:18.000Z</time>
      </trkpt>
      <trkpt lat="45.09621" lon="0.65885">
        <ele>189.60000610352</ele>
        <time>2014-09-04T13:31:21.000Z</time>
      </trkpt>
      <trkpt lat="45.09625" lon="0.65877">
        <ele>189.39999389648</ele>
        <time>2014-09-04T13:31:22.000Z</time>
      </trkpt>
      <trkpt lat="45.09628" lon="0.65868">
        <ele>189</ele>
        <time>2014-09-04T13:31:23.000Z</time>
      </trkpt>
      <trkpt lat="45.0963" lon="0.65859">
        <ele>188.60000610352</ele>
        <time>2014-09-04T13:31:24.000Z</time>
      </trkpt>
      <trkpt lat="45.09632" lon="0.65824">
        <ele>189.19999694824</ele>
        <time>2014-09-04T13:31:28.000Z</time>
      </trkpt>
      <trkpt lat="45.09633" lon="0.65771">
        <ele>190.19999694824</ele>
        <time>2014-09-04T13:31:35.000Z</time>
      </trkpt>
      <trkpt lat="45.09632" lon="0.6574">
        <ele>189.60000610352</ele>
        <time>2014-09-04T13:31:39.000Z</time>
      </trkpt>
      <trkpt lat="45.09629" lon="0.65725">
        <ele>189.19999694824</ele>
        <time>2014-09-04T13:31:41.000Z</time>
      </trkpt>
      <trkpt lat="45.09627" lon="0.65703">
        <ele>189.19999694824</ele>
        <time>2014-09-04T13:31:44.000Z</time>
      </trkpt>
      <trkpt lat="45.09626" lon="0.6568">
        <ele>189.19999694824</ele>
        <time>2014-09-04T13:31:47.000Z</time>
      </trkpt>
      <trkpt lat="45.09625" lon="0.65666">
        <ele>189.19999694824</ele>
        <time>2014-09-04T13:31:49.000Z</time>
      </trkpt>
      <trkpt lat="45.09623" lon="0.65638">
        <ele>189.80000305176</ele>
        <time>2014-09-04T13:31:53.000Z</time>
      </trkpt>
      <trkpt lat="45.09619" lon="0.65613">
        <ele>190.19999694824</ele>
        <time>2014-09-04T13:31:57.000Z</time>
      </trkpt>
      <trkpt lat="45.09618" lon="0.65602">
        <ele>190.39999389648</ele>
        <time>2014-09-04T13:31:59.000Z</time>
      </trkpt>
      <trkpt lat="45.09614" lon="0.65573">
        <ele>191.60000610352</ele>
        <time>2014-09-04T13:32:04.000Z</time>
      </trkpt>
      <trkpt lat="45.09611" lon="0.65555">
        <ele>192.60000610352</ele>
        <time>2014-09-04T13:32:08.000Z</time>
      </trkpt>
      <trkpt lat="45.09611" lon="0.65552">
        <ele>192.60000610352</ele>
        <time>2014-09-04T13:32:09.000Z</time>
      </trkpt>
      <trkpt lat="45.09614" lon="0.65523">
        <ele>192.19999694824</ele>
        <time>2014-09-04T13:32:15.000Z</time>
      </trkpt>
      <trkpt lat="45.09611" lon="0.65488">
        <ele>191.60000610352</ele>
        <time>2014-09-04T13:32:20.000Z</time>
      </trkpt>
      <trkpt lat="45.0961" lon="0.65472">
        <ele>191</ele>
        <time>2014-09-04T13:32:22.000Z</time>
      </trkpt>
      <trkpt lat="45.09608" lon="0.65455">
        <ele>190.19999694824</ele>
        <time>2014-09-04T13:32:24.000Z</time>
      </trkpt>
      <trkpt lat="45.09605" lon="0.6543">
        <ele>189</ele>
        <time>2014-09-04T13:32:27.000Z</time>
      </trkpt>
      <trkpt lat="45.09603" lon="0.65422">
        <ele>188.60000610352</ele>
        <time>2014-09-04T13:32:28.000Z</time>
      </trkpt>
      <trkpt lat="45.09601" lon="0.65413">
        <ele>188</ele>
        <time>2014-09-04T13:32:29.000Z</time>
      </trkpt>
      <trkpt lat="45.09599" lon="0.65394">
        <ele>187</ele>
        <time>2014-09-04T13:32:31.000Z</time>
      </trkpt>
      <trkpt lat="45.09598" lon="0.65384">
        <ele>186.39999389648</ele>
        <time>2014-09-04T13:32:32.000Z</time>
      </trkpt>
      <trkpt lat="45.09597" lon="0.65374">
        <ele>185.39999389648</ele>
        <time>2014-09-04T13:32:33.000Z</time>
      </trkpt>
      <trkpt lat="45.09598" lon="0.65364">
        <ele>184.39999389648</ele>
        <time>2014-09-04T13:32:34.000Z</time>
      </trkpt>
      <trkpt lat="45.09599" lon="0.65341">
        <ele>182.80000305176</ele>
        <time>2014-09-04T13:32:36.000Z</time>
      </trkpt>
      <trkpt lat="45.096" lon="0.6533">
        <ele>182.19999694824</ele>
        <time>2014-09-04T13:32:37.000Z</time>
      </trkpt>
      <trkpt lat="45.09602" lon="0.65319">
        <ele>181.80000305176</ele>
        <time>2014-09-04T13:32:38.000Z</time>
      </trkpt>
      <trkpt lat="45.09604" lon="0.65289">
        <ele>182.19999694824</ele>
        <time>2014-09-04T13:32:41.000Z</time>
      </trkpt>
      <trkpt lat="45.09603" lon="0.6528">
        <ele>182.39999389648</ele>
        <time>2014-09-04T13:32:42.000Z</time>
      </trkpt>
      <trkpt lat="45.09603" lon="0.65272">
        <ele>183</ele>
        <time>2014-09-04T13:32:43.000Z</time>
      </trkpt>
      <trkpt lat="45.09602" lon="0.6526">
        <ele>184.80000305176</ele>
        <time>2014-09-04T13:32:45.000Z</time>
      </trkpt>
      <trkpt lat="45.09602" lon="0.65255">
        <ele>185.39999389648</ele>
        <time>2014-09-04T13:32:46.000Z</time>
      </trkpt>
      <trkpt lat="45.09601" lon="0.65246">
        <ele>186</ele>
        <time>2014-09-04T13:32:48.000Z</time>
      </trkpt>
      <trkpt lat="45.096" lon="0.6524">
        <ele>186.80000305176</ele>
        <time>2014-09-04T13:32:50.000Z</time>
      </trkpt>
      <trkpt lat="45.096" lon="0.65237">
        <ele>187.19999694824</ele>
        <time>2014-09-04T13:32:51.000Z</time>
      </trkpt>
      <trkpt lat="45.09599" lon="0.65228">
        <ele>189</ele>
        <time>2014-09-04T13:32:58.000Z</time>
      </trkpt>
      <trkpt lat="45.09598" lon="0.65225">
        <ele>189.19999694824</ele>
        <time>2014-09-04T13:32:59.000Z</time>
      </trkpt>
      <trkpt lat="45.09597" lon="0.65219">
        <ele>189.80000305176</ele>
        <time>2014-09-04T13:33:01.000Z</time>
      </trkpt>
      <trkpt lat="45.09595" lon="0.65201">
        <ele>191</ele>
        <time>2014-09-04T13:33:07.000Z</time>
      </trkpt>
      <trkpt lat="45.09592" lon="0.65183">
        <ele>192.19999694824</ele>
        <time>2014-09-04T13:33:13.000Z</time>
      </trkpt>
      <trkpt lat="45.0959" lon="0.65172">
        <ele>192.80000305176</ele>
        <time>2014-09-04T13:33:17.000Z</time>
      </trkpt>
      <trkpt lat="45.09588" lon="0.65167">
        <ele>193.19999694824</ele>
        <time>2014-09-04T13:33:20.000Z</time>
      </trkpt>
      <trkpt lat="45.09587" lon="0.65165">
        <ele>193.19999694824</ele>
        <time>2014-09-04T13:33:21.000Z</time>
      </trkpt>
      <trkpt lat="45.09585" lon="0.65163">
        <ele>193.60000610352</ele>
        <time>2014-09-04T13:33:23.000Z</time>
      </trkpt>
      <trkpt lat="45.09574" lon="0.65157">
        <ele>193.80000305176</ele>
        <time>2014-09-04T13:33:29.000Z</time>
      </trkpt>
      <trkpt lat="45.09571" lon="0.65156">
        <ele>193.80000305176</ele>
        <time>2014-09-04T13:33:30.000Z</time>
      </trkpt>
      <trkpt lat="45.09549" lon="0.6515">
        <ele>193.80000305176</ele>
        <time>2014-09-04T13:33:38.000Z</time>
      </trkpt>
      <trkpt lat="45.0953" lon="0.65149">
        <ele>194</ele>
        <time>2014-09-04T13:33:44.000Z</time>
      </trkpt>
      <trkpt lat="45.09527" lon="0.65148">
        <ele>194</ele>
        <time>2014-09-04T13:33:45.000Z</time>
      </trkpt>
      <trkpt lat="45.09521" lon="0.65147">
        <ele>194.19999694824</ele>
        <time>2014-09-04T13:33:47.000Z</time>
      </trkpt>
      <trkpt lat="45.09508" lon="0.65148">
        <ele>195</ele>
        <time>2014-09-04T13:33:51.000Z</time>
      </trkpt>
      <trkpt lat="45.09502" lon="0.65146">
        <ele>195.39999389648</ele>
        <time>2014-09-04T13:33:53.000Z</time>
      </trkpt>
      <trkpt lat="45.09495" lon="0.65139">
        <ele>195.80000305176</ele>
        <time>2014-09-04T13:33:56.000Z</time>
      </trkpt>
      <trkpt lat="45.09486" lon="0.65118">
        <ele>195.80000305176</ele>
        <time>2014-09-04T13:34:02.000Z</time>
      </trkpt>
      <trkpt lat="45.09474" lon="0.65095">
        <ele>195.19999694824</ele>
        <time>2014-09-04T13:34:07.000Z</time>
      </trkpt>
      <trkpt lat="45.09465" lon="0.65078">
        <ele>194</ele>
        <time>2014-09-04T13:34:10.000Z</time>
      </trkpt>
      <trkpt lat="45.09459" lon="0.65065">
        <ele>192.60000610352</ele>
        <time>2014-09-04T13:34:12.000Z</time>
      </trkpt>
      <trkpt lat="45.09454" lon="0.65058">
        <ele>192</ele>
        <time>2014-09-04T13:34:13.000Z</time>
      </trkpt>
      <trkpt lat="45.09448" lon="0.65052">
        <ele>191.39999389648</ele>
        <time>2014-09-04T13:34:14.000Z</time>
      </trkpt>
      <trkpt lat="45.09436" lon="0.65038">
        <ele>190.60000610352</ele>
        <time>2014-09-04T13:34:16.000Z</time>
      </trkpt>
      <trkpt lat="45.09431" lon="0.65031">
        <ele>190.60000610352</ele>
        <time>2014-09-04T13:34:17.000Z</time>
      </trkpt>
      <trkpt lat="45.09417" lon="0.65004">
        <ele>191</ele>
        <time>2014-09-04T13:34:21.000Z</time>
      </trkpt>
      <trkpt lat="45.09406" lon="0.64978">
        <ele>191.60000610352</ele>
        <time>2014-09-04T13:34:25.000Z</time>
      </trkpt>
      <trkpt lat="45.09402" lon="0.64965">
        <ele>191.80000305176</ele>
        <time>2014-09-04T13:34:27.000Z</time>
      </trkpt>
      <trkpt lat="45.09397" lon="0.64943">
        <ele>192.60000610352</ele>
        <time>2014-09-04T13:34:31.000Z</time>
      </trkpt>
      <trkpt lat="45.09394" lon="0.64933">
        <ele>193.39999389648</ele>
        <time>2014-09-04T13:34:33.000Z</time>
      </trkpt>
      <trkpt lat="45.0939" lon="0.64917">
        <ele>194</ele>
        <time>2014-09-04T13:34:37.000Z</time>
      </trkpt>
      <trkpt lat="45.09389" lon="0.64913">
        <ele>194.19999694824</ele>
        <time>2014-09-04T13:34:38.000Z</time>
      </trkpt>
      <trkpt lat="45.09385" lon="0.64892">
        <ele>195</ele>
        <time>2014-09-04T13:34:43.000Z</time>
      </trkpt>
      <trkpt lat="45.09384" lon="0.64887">
        <ele>195</ele>
        <time>2014-09-04T13:34:44.000Z</time>
      </trkpt>
      <trkpt lat="45.09378" lon="0.64856">
        <ele>195.39999389648</ele>
        <time>2014-09-04T13:34:51.000Z</time>
      </trkpt>
      <trkpt lat="45.09379" lon="0.64833">
        <ele>195.60000610352</ele>
        <time>2014-09-04T13:34:56.000Z</time>
      </trkpt>
      <trkpt lat="45.09383" lon="0.64807">
        <ele>195</ele>
        <time>2014-09-04T13:35:01.000Z</time>
      </trkpt>
      <trkpt lat="45.09389" lon="0.64783">
        <ele>194.60000610352</ele>
        <time>2014-09-04T13:35:05.000Z</time>
      </trkpt>
      <trkpt lat="45.09392" lon="0.64776">
        <ele>194.39999389648</ele>
        <time>2014-09-04T13:35:06.000Z</time>
      </trkpt>
      <trkpt lat="45.09393" lon="0.64769">
        <ele>194.19999694824</ele>
        <time>2014-09-04T13:35:07.000Z</time>
      </trkpt>
      <trkpt lat="45.09396" lon="0.64755">
        <ele>193.80000305176</ele>
        <time>2014-09-04T13:35:09.000Z</time>
      </trkpt>
      <trkpt lat="45.09396" lon="0.64748">
        <ele>193.80000305176</ele>
        <time>2014-09-04T13:35:10.000Z</time>
      </trkpt>
      <trkpt lat="45.09401" lon="0.64704">
        <ele>193.39999389648</ele>
        <time>2014-09-04T13:35:17.000Z</time>
      </trkpt>
      <trkpt lat="45.09409" lon="0.64686">
        <ele>193</ele>
        <time>2014-09-04T13:35:21.000Z</time>
      </trkpt>
      <trkpt lat="45.09413" lon="0.64681">
        <ele>192.80000305176</ele>
        <time>2014-09-04T13:35:22.000Z</time>
      </trkpt>
      <trkpt lat="45.09427" lon="0.64664">
        <ele>191.60000610352</ele>
        <time>2014-09-04T13:35:26.000Z</time>
      </trkpt>
      <trkpt lat="45.09429" lon="0.6466">
        <ele>191.39999389648</ele>
        <time>2014-09-04T13:35:27.000Z</time>
      </trkpt>
      <trkpt lat="45.0943" lon="0.64655">
        <ele>191</ele>
        <time>2014-09-04T13:35:28.000Z</time>
      </trkpt>
      <trkpt lat="45.09426" lon="0.64647">
        <ele>190.60000610352</ele>
        <time>2014-09-04T13:35:30.000Z</time>
      </trkpt>
      <trkpt lat="45.09411" lon="0.64632">
        <ele>190.19999694824</ele>
        <time>2014-09-04T13:35:35.000Z</time>
      </trkpt>
      <trkpt lat="45.09409" lon="0.64613">
        <ele>191.60000610352</ele>
        <time>2014-09-04T13:35:39.000Z</time>
      </trkpt>
      <trkpt lat="45.09409" lon="0.64607">
        <ele>191.80000305176</ele>
        <time>2014-09-04T13:35:40.000Z</time>
      </trkpt>
      <trkpt lat="45.0941" lon="0.64589">
        <ele>192.60000610352</ele>
        <time>2014-09-04T13:35:44.000Z</time>
      </trkpt>
      <trkpt lat="45.0941" lon="0.64581">
        <ele>193.19999694824</ele>
        <time>2014-09-04T13:35:46.000Z</time>
      </trkpt>
      <trkpt lat="45.09411" lon="0.64571">
        <ele>193.80000305176</ele>
        <time>2014-09-04T13:35:48.000Z</time>
      </trkpt>
      <trkpt lat="45.09411" lon="0.64556">
        <ele>194.80000305176</ele>
        <time>2014-09-04T13:35:52.000Z</time>
      </trkpt>
      <trkpt lat="45.09411" lon="0.6454">
        <ele>195.80000305176</ele>
        <time>2014-09-04T13:35:57.000Z</time>
      </trkpt>
      <trkpt lat="45.09414" lon="0.64534">
        <ele>196.19999694824</ele>
        <time>2014-09-04T13:35:59.000Z</time>
      </trkpt>
      <trkpt lat="45.09427" lon="0.64509">
        <ele>196.80000305176</ele>
        <time>2014-09-04T13:36:07.000Z</time>
      </trkpt>
      <trkpt lat="45.09431" lon="0.64502">
        <ele>196.80000305176</ele>
        <time>2014-09-04T13:36:09.000Z</time>
      </trkpt>
      <trkpt lat="45.09441" lon="0.64486">
        <ele>196.60000610352</ele>
        <time>2014-09-04T13:36:14.000Z</time>
      </trkpt>
      <trkpt lat="45.09449" lon="0.64471">
        <ele>195.80000305176</ele>
        <time>2014-09-04T13:36:18.000Z</time>
      </trkpt>
      <trkpt lat="45.09455" lon="0.64461">
        <ele>195.80000305176</ele>
        <time>2014-09-04T13:36:20.000Z</time>
      </trkpt>
      <trkpt lat="45.09465" lon="0.64436">
        <ele>194.39999389648</ele>
        <time>2014-09-04T13:36:26.000Z</time>
      </trkpt>
      <trkpt lat="45.09465" lon="0.64429">
        <ele>194.19999694824</ele>
        <time>2014-09-04T13:36:27.000Z</time>
      </trkpt>
      <trkpt lat="45.09464" lon="0.64386">
        <ele>193.60000610352</ele>
        <time>2014-09-04T13:36:34.000Z</time>
      </trkpt>
      <trkpt lat="45.09462" lon="0.6435">
        <ele>193.39999389648</ele>
        <time>2014-09-04T13:36:40.000Z</time>
      </trkpt>
      <trkpt lat="45.09462" lon="0.6432">
        <ele>193.39999389648</ele>
        <time>2014-09-04T13:36:45.000Z</time>
      </trkpt>
      <trkpt lat="45.09462" lon="0.64293">
        <ele>193.39999389648</ele>
        <time>2014-09-04T13:36:49.000Z</time>
      </trkpt>
      <trkpt lat="45.09461" lon="0.64272">
        <ele>193.19999694824</ele>
        <time>2014-09-04T13:36:52.000Z</time>
      </trkpt>
      <trkpt lat="45.0946" lon="0.64212">
        <ele>192.80000305176</ele>
        <time>2014-09-04T13:37:00.000Z</time>
      </trkpt>
      <trkpt lat="45.09459" lon="0.64189">
        <ele>192.19999694824</ele>
        <time>2014-09-04T13:37:03.000Z</time>
      </trkpt>
      <trkpt lat="45.09455" lon="0.64156">
        <ele>192</ele>
        <time>2014-09-04T13:37:07.000Z</time>
      </trkpt>
      <trkpt lat="45.0945" lon="0.64121">
        <ele>191.19999694824</ele>
        <time>2014-09-04T13:37:11.000Z</time>
      </trkpt>
      <trkpt lat="45.09444" lon="0.64094">
        <ele>190</ele>
        <time>2014-09-04T13:37:14.000Z</time>
      </trkpt>
      <trkpt lat="45.09431" lon="0.64057">
        <ele>188.80000305176</ele>
        <time>2014-09-04T13:37:18.000Z</time>
      </trkpt>
      <trkpt lat="45.09424" lon="0.64038">
        <ele>188.19999694824</ele>
        <time>2014-09-04T13:37:20.000Z</time>
      </trkpt>
      <trkpt lat="45.09416" lon="0.6402">
        <ele>187.80000305176</ele>
        <time>2014-09-04T13:37:22.000Z</time>
      </trkpt>
      <trkpt lat="45.09402" lon="0.63986">
        <ele>187.39999389648</ele>
        <time>2014-09-04T13:37:26.000Z</time>
      </trkpt>
      <trkpt lat="45.09398" lon="0.63978">
        <ele>187.19999694824</ele>
        <time>2014-09-04T13:37:27.000Z</time>
      </trkpt>
      <trkpt lat="45.09389" lon="0.63964">
        <ele>186.60000610352</ele>
        <time>2014-09-04T13:37:29.000Z</time>
      </trkpt>
      <trkpt lat="45.09379" lon="0.63951">
        <ele>186.19999694824</ele>
        <time>2014-09-04T13:37:31.000Z</time>
      </trkpt>
      <trkpt lat="45.09355" lon="0.63915">
        <ele>186</ele>
        <time>2014-09-04T13:37:37.000Z</time>
      </trkpt>
      <trkpt lat="45.0935" lon="0.63908">
        <ele>185.60000610352</ele>
        <time>2014-09-04T13:37:39.000Z</time>
      </trkpt>
      <trkpt lat="45.09346" lon="0.63906">
        <ele>185.19999694824</ele>
        <time>2014-09-04T13:37:41.000Z</time>
      </trkpt>
      <trkpt lat="45.09344" lon="0.63907">
        <ele>185</ele>
        <time>2014-09-04T13:37:42.000Z</time>
      </trkpt>
      <trkpt lat="45.09342" lon="0.63908">
        <ele>184.80000305176</ele>
        <time>2014-09-04T13:38:29.000Z</time>
      </trkpt>
      <trkpt lat="45.09342" lon="0.63906">
        <ele>184.60000610352</ele>
        <time>2014-09-04T13:38:30.000Z</time>
      </trkpt>
      <trkpt lat="45.0934" lon="0.63901">
        <ele>184.60000610352</ele>
        <time>2014-09-04T13:38:32.000Z</time>
      </trkpt>
      <trkpt lat="45.09336" lon="0.63898">
        <ele>184.39999389648</ele>
        <time>2014-09-04T13:38:34.000Z</time>
      </trkpt>
      <trkpt lat="45.09323" lon="0.63893">
        <ele>183.39999389648</ele>
        <time>2014-09-04T13:38:39.000Z</time>
      </trkpt>
      <trkpt lat="45.09308" lon="0.63889">
        <ele>182.19999694824</ele>
        <time>2014-09-04T13:38:44.000Z</time>
      </trkpt>
      <trkpt lat="45.09304" lon="0.63888">
        <ele>181.60000610352</ele>
        <time>2014-09-04T13:38:45.000Z</time>
      </trkpt>
      <trkpt lat="45.09301" lon="0.63886">
        <ele>181</ele>
        <time>2014-09-04T13:38:46.000Z</time>
      </trkpt>
      <trkpt lat="45.09295" lon="0.63882">
        <ele>179.60000610352</ele>
        <time>2014-09-04T13:38:48.000Z</time>
      </trkpt>
      <trkpt lat="45.09286" lon="0.63873">
        <ele>176.80000305176</ele>
        <time>2014-09-04T13:38:50.000Z</time>
      </trkpt>
      <trkpt lat="45.09272" lon="0.6386">
        <ele>175.19999694824</ele>
        <time>2014-09-04T13:38:52.000Z</time>
      </trkpt>
      <trkpt lat="45.09265" lon="0.63854">
        <ele>174.19999694824</ele>
        <time>2014-09-04T13:38:53.000Z</time>
      </trkpt>
      <trkpt lat="45.09258" lon="0.63847">
        <ele>173.19999694824</ele>
        <time>2014-09-04T13:38:54.000Z</time>
      </trkpt>
      <trkpt lat="45.09251" lon="0.63841">
        <ele>172</ele>
        <time>2014-09-04T13:38:55.000Z</time>
      </trkpt>
      <trkpt lat="45.09238" lon="0.63828">
        <ele>170.39999389648</ele>
        <time>2014-09-04T13:38:57.000Z</time>
      </trkpt>
      <trkpt lat="45.09223" lon="0.63816">
        <ele>169.19999694824</ele>
        <time>2014-09-04T13:38:59.000Z</time>
      </trkpt>
      <trkpt lat="45.09209" lon="0.63803">
        <ele>168.19999694824</ele>
        <time>2014-09-04T13:39:01.000Z</time>
      </trkpt>
      <trkpt lat="45.09201" lon="0.63794">
        <ele>167.60000610352</ele>
        <time>2014-09-04T13:39:02.000Z</time>
      </trkpt>
      <trkpt lat="45.09162" lon="0.63754">
        <ele>166.39999389648</ele>
        <time>2014-09-04T13:39:07.000Z</time>
      </trkpt>
      <trkpt lat="45.09139" lon="0.63731">
        <ele>165.39999389648</ele>
        <time>2014-09-04T13:39:10.000Z</time>
      </trkpt>
      <trkpt lat="45.09122" lon="0.63717">
        <ele>163.60000610352</ele>
        <time>2014-09-04T13:39:12.000Z</time>
      </trkpt>
      <trkpt lat="45.09113" lon="0.63711">
        <ele>162.60000610352</ele>
        <time>2014-09-04T13:39:13.000Z</time>
      </trkpt>
      <trkpt lat="45.09104" lon="0.63705">
        <ele>159.80000305176</ele>
        <time>2014-09-04T13:39:14.000Z</time>
      </trkpt>
      <trkpt lat="45.09094" lon="0.637">
        <ele>157.80000305176</ele>
        <time>2014-09-04T13:39:15.000Z</time>
      </trkpt>
      <trkpt lat="45.09085" lon="0.63694">
        <ele>156.19999694824</ele>
        <time>2014-09-04T13:39:16.000Z</time>
      </trkpt>
      <trkpt lat="45.09076" lon="0.63687">
        <ele>154.60000610352</ele>
        <time>2014-09-04T13:39:17.000Z</time>
      </trkpt>
      <trkpt lat="45.09067" lon="0.63679">
        <ele>153</ele>
        <time>2014-09-04T13:39:18.000Z</time>
      </trkpt>
      <trkpt lat="45.09058" lon="0.63669">
        <ele>151.60000610352</ele>
        <time>2014-09-04T13:39:19.000Z</time>
      </trkpt>
      <trkpt lat="45.09049" lon="0.63658">
        <ele>150.19999694824</ele>
        <time>2014-09-04T13:39:20.000Z</time>
      </trkpt>
      <trkpt lat="45.09042" lon="0.63647">
        <ele>148.80000305176</ele>
        <time>2014-09-04T13:39:21.000Z</time>
      </trkpt>
      <trkpt lat="45.09034" lon="0.63636">
        <ele>147.39999389648</ele>
        <time>2014-09-04T13:39:22.000Z</time>
      </trkpt>
      <trkpt lat="45.09027" lon="0.63626">
        <ele>146</ele>
        <time>2014-09-04T13:39:23.000Z</time>
      </trkpt>
      <trkpt lat="45.09021" lon="0.63617">
        <ele>144.39999389648</ele>
        <time>2014-09-04T13:39:24.000Z</time>
      </trkpt>
      <trkpt lat="45.09015" lon="0.63609">
        <ele>143.19999694824</ele>
        <time>2014-09-04T13:39:25.000Z</time>
      </trkpt>
      <trkpt lat="45.09009" lon="0.63604">
        <ele>141.80000305176</ele>
        <time>2014-09-04T13:39:26.000Z</time>
      </trkpt>
      <trkpt lat="45.09004" lon="0.636">
        <ele>140.60000610352</ele>
        <time>2014-09-04T13:39:27.000Z</time>
      </trkpt>
      <trkpt lat="45.08999" lon="0.63598">
        <ele>139.19999694824</ele>
        <time>2014-09-04T13:39:28.000Z</time>
      </trkpt>
      <trkpt lat="45.08995" lon="0.63596">
        <ele>138.19999694824</ele>
        <time>2014-09-04T13:39:29.000Z</time>
      </trkpt>
      <trkpt lat="45.0899" lon="0.63595">
        <ele>137</ele>
        <time>2014-09-04T13:39:30.000Z</time>
      </trkpt>
      <trkpt lat="45.08982" lon="0.63596">
        <ele>135.39999389648</ele>
        <time>2014-09-04T13:39:32.000Z</time>
      </trkpt>
      <trkpt lat="45.08976" lon="0.63599">
        <ele>134.19999694824</ele>
        <time>2014-09-04T13:39:34.000Z</time>
      </trkpt>
      <trkpt lat="45.08972" lon="0.63601">
        <ele>133.60000610352</ele>
        <time>2014-09-04T13:39:35.000Z</time>
      </trkpt>
      <trkpt lat="45.08968" lon="0.63603">
        <ele>133.19999694824</ele>
        <time>2014-09-04T13:39:36.000Z</time>
      </trkpt>
      <trkpt lat="45.08964" lon="0.63605">
        <ele>132.60000610352</ele>
        <time>2014-09-04T13:39:37.000Z</time>
      </trkpt>
      <trkpt lat="45.08959" lon="0.63608">
        <ele>131.19999694824</ele>
        <time>2014-09-04T13:39:38.000Z</time>
      </trkpt>
      <trkpt lat="45.08949" lon="0.63615">
        <ele>129.60000610352</ele>
        <time>2014-09-04T13:39:40.000Z</time>
      </trkpt>
      <trkpt lat="45.08939" lon="0.63628">
        <ele>127.59999847412</ele>
        <time>2014-09-04T13:39:42.000Z</time>
      </trkpt>
      <trkpt lat="45.08934" lon="0.63635">
        <ele>126.59999847412</ele>
        <time>2014-09-04T13:39:43.000Z</time>
      </trkpt>
      <trkpt lat="45.08928" lon="0.6364">
        <ele>125.59999847412</ele>
        <time>2014-09-04T13:39:44.000Z</time>
      </trkpt>
      <trkpt lat="45.08922" lon="0.63644">
        <ele>124.40000152588</ele>
        <time>2014-09-04T13:39:45.000Z</time>
      </trkpt>
      <trkpt lat="45.08915" lon="0.63647">
        <ele>123.40000152588</ele>
        <time>2014-09-04T13:39:46.000Z</time>
      </trkpt>
      <trkpt lat="45.08908" lon="0.63648">
        <ele>122.19999694824</ele>
        <time>2014-09-04T13:39:47.000Z</time>
      </trkpt>
      <trkpt lat="45.08901" lon="0.63647">
        <ele>121.19999694824</ele>
        <time>2014-09-04T13:39:48.000Z</time>
      </trkpt>
      <trkpt lat="45.08894" lon="0.63647">
        <ele>120</ele>
        <time>2014-09-04T13:39:49.000Z</time>
      </trkpt>
      <trkpt lat="45.08888" lon="0.63645">
        <ele>118.80000305176</ele>
        <time>2014-09-04T13:39:50.000Z</time>
      </trkpt>
      <trkpt lat="45.08883" lon="0.63644">
        <ele>117.80000305176</ele>
        <time>2014-09-04T13:39:51.000Z</time>
      </trkpt>
      <trkpt lat="45.08873" lon="0.63642">
        <ele>116.40000152588</ele>
        <time>2014-09-04T13:39:53.000Z</time>
      </trkpt>
      <trkpt lat="45.08868" lon="0.63639">
        <ele>115.59999847412</ele>
        <time>2014-09-04T13:39:54.000Z</time>
      </trkpt>
      <trkpt lat="45.08865" lon="0.63638">
        <ele>115</ele>
        <time>2014-09-04T13:39:55.000Z</time>
      </trkpt>
      <trkpt lat="45.08863" lon="0.63644">
        <ele>114.19999694824</ele>
        <time>2014-09-04T13:39:57.000Z</time>
      </trkpt>
      <trkpt lat="45.08863" lon="0.63648">
        <ele>114</ele>
        <time>2014-09-04T13:39:58.000Z</time>
      </trkpt>
      <trkpt lat="45.08863" lon="0.63661">
        <ele>114</ele>
        <time>2014-09-04T13:40:01.000Z</time>
      </trkpt>
      <trkpt lat="45.08863" lon="0.63666">
        <ele>114.19999694824</ele>
        <time>2014-09-04T13:40:02.000Z</time>
      </trkpt>
      <trkpt lat="45.08866" lon="0.63704">
        <ele>114.59999847412</ele>
        <time>2014-09-04T13:40:09.000Z</time>
      </trkpt>
      <trkpt lat="45.08871" lon="0.63747">
        <ele>115</ele>
        <time>2014-09-04T13:40:17.000Z</time>
      </trkpt>
      <trkpt lat="45.08872" lon="0.63752">
        <ele>115</ele>
        <time>2014-09-04T13:40:18.000Z</time>
      </trkpt>
      <trkpt lat="45.0887" lon="0.63775">
        <ele>115.40000152588</ele>
        <time>2014-09-04T13:40:23.000Z</time>
      </trkpt>
      <trkpt lat="45.08864" lon="0.63803">
        <ele>115.80000305176</ele>
        <time>2014-09-04T13:40:29.000Z</time>
      </trkpt>
      <trkpt lat="45.08848" lon="0.63837">
        <ele>115.19999694824</ele>
        <time>2014-09-04T13:40:36.000Z</time>
      </trkpt>
      <trkpt lat="45.08834" lon="0.63859">
        <ele>114</ele>
        <time>2014-09-04T13:40:40.000Z</time>
      </trkpt>
      <trkpt lat="45.08829" lon="0.63862">
        <ele>113.80000305176</ele>
        <time>2014-09-04T13:40:41.000Z</time>
      </trkpt>
      <trkpt lat="45.08813" lon="0.63868">
        <ele>113.19999694824</ele>
        <time>2014-09-04T13:40:44.000Z</time>
      </trkpt>
      <trkpt lat="45.08807" lon="0.63869">
        <ele>113</ele>
        <time>2014-09-04T13:40:45.000Z</time>
      </trkpt>
      <trkpt lat="45.08802" lon="0.6387">
        <ele>112.80000305176</ele>
        <time>2014-09-04T13:40:46.000Z</time>
      </trkpt>
      <trkpt lat="45.08781" lon="0.63874">
        <ele>112</ele>
        <time>2014-09-04T13:40:50.000Z</time>
      </trkpt>
      <trkpt lat="45.0876" lon="0.63879">
        <ele>111.19999694824</ele>
        <time>2014-09-04T13:40:54.000Z</time>
      </trkpt>
      <trkpt lat="45.08751" lon="0.63882">
        <ele>111</ele>
        <time>2014-09-04T13:40:56.000Z</time>
      </trkpt>
      <trkpt lat="45.08739" lon="0.63884">
        <ele>110.40000152588</ele>
        <time>2014-09-04T13:40:59.000Z</time>
      </trkpt>
      <trkpt lat="45.08718" lon="0.6389">
        <ele>110.40000152588</ele>
        <time>2014-09-04T13:41:05.000Z</time>
      </trkpt>
      <trkpt lat="45.08706" lon="0.63897">
        <ele>111</ele>
        <time>2014-09-04T13:41:10.000Z</time>
      </trkpt>
      <trkpt lat="45.087" lon="0.63903">
        <ele>112</ele>
        <time>2014-09-04T13:41:15.000Z</time>
      </trkpt>
      <trkpt lat="45.08698" lon="0.63906">
        <ele>112.40000152588</ele>
        <time>2014-09-04T13:41:17.000Z</time>
      </trkpt>
      <trkpt lat="45.08696" lon="0.6391">
        <ele>113.19999694824</ele>
        <time>2014-09-04T13:41:19.000Z</time>
      </trkpt>
      <trkpt lat="45.08691" lon="0.63917">
        <ele>114.19999694824</ele>
        <time>2014-09-04T13:41:23.000Z</time>
      </trkpt>
      <trkpt lat="45.08687" lon="0.63923">
        <ele>115</ele>
        <time>2014-09-04T13:41:26.000Z</time>
      </trkpt>
      <trkpt lat="45.08686" lon="0.63924">
        <ele>115.19999694824</ele>
        <time>2014-09-04T13:41:27.000Z</time>
      </trkpt>
      <trkpt lat="45.08681" lon="0.6393">
        <ele>116.40000152588</ele>
        <time>2014-09-04T13:41:32.000Z</time>
      </trkpt>
      <trkpt lat="45.08679" lon="0.6393">
        <ele>116.80000305176</ele>
        <time>2014-09-04T13:41:33.000Z</time>
      </trkpt>
      <trkpt lat="45.08675" lon="0.63932">
        <ele>117.59999847412</ele>
        <time>2014-09-04T13:41:36.000Z</time>
      </trkpt>
      <trkpt lat="45.08669" lon="0.63932">
        <ele>118.59999847412</ele>
        <time>2014-09-04T13:41:40.000Z</time>
      </trkpt>
      <trkpt lat="45.0866" lon="0.63931">
        <ele>120</ele>
        <time>2014-09-04T13:41:45.000Z</time>
      </trkpt>
      <trkpt lat="45.08652" lon="0.6393">
        <ele>121</ele>
        <time>2014-09-04T13:41:49.000Z</time>
      </trkpt>
      <trkpt lat="45.08651" lon="0.63929">
        <ele>121.19999694824</ele>
        <time>2014-09-04T13:41:50.000Z</time>
      </trkpt>
      <trkpt lat="45.08644" lon="0.63925">
        <ele>122</ele>
        <time>2014-09-04T13:41:56.000Z</time>
      </trkpt>
      <trkpt lat="45.08643" lon="0.63925">
        <ele>122.19999694824</ele>
        <time>2014-09-04T13:41:57.000Z</time>
      </trkpt>
      <trkpt lat="45.08637" lon="0.63931">
        <ele>123.80000305176</ele>
        <time>2014-09-04T13:42:03.000Z</time>
      </trkpt>
      <trkpt lat="45.08631" lon="0.63946">
        <ele>126.19999694824</ele>
        <time>2014-09-04T13:42:13.000Z</time>
      </trkpt>
      <trkpt lat="45.08626" lon="0.63957">
        <ele>128</ele>
        <time>2014-09-04T13:42:21.000Z</time>
      </trkpt>
      <trkpt lat="45.08623" lon="0.63963">
        <ele>129</ele>
        <time>2014-09-04T13:42:25.000Z</time>
      </trkpt>
      <trkpt lat="45.08622" lon="0.63966">
        <ele>129.39999389648</ele>
        <time>2014-09-04T13:42:27.000Z</time>
      </trkpt>
      <trkpt lat="45.08616" lon="0.63975">
        <ele>131.19999694824</ele>
        <time>2014-09-04T13:42:34.000Z</time>
      </trkpt>
      <trkpt lat="45.08614" lon="0.63978">
        <ele>131.60000610352</ele>
        <time>2014-09-04T13:42:36.000Z</time>
      </trkpt>
      <trkpt lat="45.08612" lon="0.63982">
        <ele>132.19999694824</ele>
        <time>2014-09-04T13:42:39.000Z</time>
      </trkpt>
      <trkpt lat="45.08607" lon="0.63988">
        <ele>133.19999694824</ele>
        <time>2014-09-04T13:42:44.000Z</time>
      </trkpt>
      <trkpt lat="45.08598" lon="0.63999">
        <ele>135.60000610352</ele>
        <time>2014-09-04T13:42:55.000Z</time>
      </trkpt>
      <trkpt lat="45.08594" lon="0.64001">
        <ele>136.39999389648</ele>
        <time>2014-09-04T13:42:59.000Z</time>
      </trkpt>
      <trkpt lat="45.08593" lon="0.64001">
        <ele>136.60000610352</ele>
        <time>2014-09-04T13:43:00.000Z</time>
      </trkpt>
      <trkpt lat="45.08585" lon="0.64004">
        <ele>137.80000305176</ele>
        <time>2014-09-04T13:43:06.000Z</time>
      </trkpt>
      <trkpt lat="45.08583" lon="0.64005">
        <ele>138.39999389648</ele>
        <time>2014-09-04T13:43:08.000Z</time>
      </trkpt>
      <trkpt lat="45.0858" lon="0.64004">
        <ele>139</ele>
        <time>2014-09-04T13:43:11.000Z</time>
      </trkpt>
      <trkpt lat="45.08576" lon="0.64003">
        <ele>139.60000610352</ele>
        <time>2014-09-04T13:43:14.000Z</time>
      </trkpt>
      <trkpt lat="45.08574" lon="0.64003">
        <ele>140.19999694824</ele>
        <time>2014-09-04T13:43:16.000Z</time>
      </trkpt>
      <trkpt lat="45.08566" lon="0.64002">
        <ele>141.39999389648</ele>
        <time>2014-09-04T13:43:22.000Z</time>
      </trkpt>
      <trkpt lat="45.08564" lon="0.64002">
        <ele>141.60000610352</ele>
        <time>2014-09-04T13:43:23.000Z</time>
      </trkpt>
      <trkpt lat="45.08557" lon="0.64002">
        <ele>142.60000610352</ele>
        <time>2014-09-04T13:43:29.000Z</time>
      </trkpt>
      <trkpt lat="45.08556" lon="0.64002">
        <ele>142.60000610352</ele>
        <time>2014-09-04T13:43:30.000Z</time>
      </trkpt>
      <trkpt lat="45.08554" lon="0.64002">
        <ele>143</ele>
        <time>2014-09-04T13:43:32.000Z</time>
      </trkpt>
      <trkpt lat="45.0855" lon="0.64001">
        <ele>143.60000610352</ele>
        <time>2014-09-04T13:43:35.000Z</time>
      </trkpt>
      <trkpt lat="45.08542" lon="0.64003">
        <ele>145.80000305176</ele>
        <time>2014-09-04T13:43:43.000Z</time>
      </trkpt>
      <trkpt lat="45.08535" lon="0.64004">
        <ele>146.80000305176</ele>
        <time>2014-09-04T13:43:48.000Z</time>
      </trkpt>
      <trkpt lat="45.08532" lon="0.64005">
        <ele>147.19999694824</ele>
        <time>2014-09-04T13:43:50.000Z</time>
      </trkpt>
      <trkpt lat="45.08527" lon="0.64005">
        <ele>148</ele>
        <time>2014-09-04T13:43:53.000Z</time>
      </trkpt>
      <trkpt lat="45.0852" lon="0.64006">
        <ele>149.19999694824</ele>
        <time>2014-09-04T13:43:59.000Z</time>
      </trkpt>
      <trkpt lat="45.08516" lon="0.64007">
        <ele>150.19999694824</ele>
        <time>2014-09-04T13:44:03.000Z</time>
      </trkpt>
      <trkpt lat="45.08512" lon="0.64007">
        <ele>150.80000305176</ele>
        <time>2014-09-04T13:44:06.000Z</time>
      </trkpt>
      <trkpt lat="45.08509" lon="0.64007">
        <ele>151.39999389648</ele>
        <time>2014-09-04T13:44:09.000Z</time>
      </trkpt>
      <trkpt lat="45.08504" lon="0.64006">
        <ele>152.19999694824</ele>
        <time>2014-09-04T13:44:13.000Z</time>
      </trkpt>
      <trkpt lat="45.08502" lon="0.64006">
        <ele>152.39999389648</ele>
        <time>2014-09-04T13:44:14.000Z</time>
      </trkpt>
      <trkpt lat="45.08495" lon="0.64006">
        <ele>153.80000305176</ele>
        <time>2014-09-04T13:44:20.000Z</time>
      </trkpt>
      <trkpt lat="45.08494" lon="0.64007">
        <ele>153.80000305176</ele>
        <time>2014-09-04T13:44:21.000Z</time>
      </trkpt>
      <trkpt lat="45.08486" lon="0.64008">
        <ele>155.39999389648</ele>
        <time>2014-09-04T13:44:28.000Z</time>
      </trkpt>
      <trkpt lat="45.08483" lon="0.6401">
        <ele>156</ele>
        <time>2014-09-04T13:44:31.000Z</time>
      </trkpt>
      <trkpt lat="45.08474" lon="0.64013">
        <ele>157.60000610352</ele>
        <time>2014-09-04T13:44:39.000Z</time>
      </trkpt>
      <trkpt lat="45.08473" lon="0.64013">
        <ele>157.80000305176</ele>
        <time>2014-09-04T13:44:40.000Z</time>
      </trkpt>
      <trkpt lat="45.08466" lon="0.64014">
        <ele>159</ele>
        <time>2014-09-04T13:44:45.000Z</time>
      </trkpt>
      <trkpt lat="45.08464" lon="0.64015">
        <ele>159.60000610352</ele>
        <time>2014-09-04T13:44:47.000Z</time>
      </trkpt>
      <trkpt lat="45.08461" lon="0.64016">
        <ele>160</ele>
        <time>2014-09-04T13:44:49.000Z</time>
      </trkpt>
      <trkpt lat="45.08454" lon="0.64016">
        <ele>161.39999389648</ele>
        <time>2014-09-04T13:44:55.000Z</time>
      </trkpt>
      <trkpt lat="45.08448" lon="0.64017">
        <ele>162.19999694824</ele>
        <time>2014-09-04T13:44:59.000Z</time>
      </trkpt>
      <trkpt lat="45.0844" lon="0.64018">
        <ele>163.19999694824</ele>
        <time>2014-09-04T13:45:04.000Z</time>
      </trkpt>
      <trkpt lat="45.08439" lon="0.64018">
        <ele>163.39999389648</ele>
        <time>2014-09-04T13:45:05.000Z</time>
      </trkpt>
      <trkpt lat="45.0843" lon="0.64018">
        <ele>164</ele>
        <time>2014-09-04T13:45:11.000Z</time>
      </trkpt>
      <trkpt lat="45.08428" lon="0.64018">
        <ele>164.39999389648</ele>
        <time>2014-09-04T13:45:13.000Z</time>
      </trkpt>
      <trkpt lat="45.08422" lon="0.64018">
        <ele>165.19999694824</ele>
        <time>2014-09-04T13:45:19.000Z</time>
      </trkpt>
      <trkpt lat="45.08417" lon="0.64019">
        <ele>165.80000305176</ele>
        <time>2014-09-04T13:45:23.000Z</time>
      </trkpt>
      <trkpt lat="45.0841" lon="0.6402">
        <ele>166.60000610352</ele>
        <time>2014-09-04T13:45:28.000Z</time>
      </trkpt>
      <trkpt lat="45.08404" lon="0.6402">
        <ele>166.80000305176</ele>
        <time>2014-09-04T13:45:31.000Z</time>
      </trkpt>
      <trkpt lat="45.08398" lon="0.64018">
        <ele>167.80000305176</ele>
        <time>2014-09-04T13:45:35.000Z</time>
      </trkpt>
      <trkpt lat="45.08398" lon="0.64017">
        <ele>168.19999694824</ele>
        <time>2014-09-04T13:45:36.000Z</time>
      </trkpt>
      <trkpt lat="45.08398" lon="0.64016">
        <ele>168.39999389648</ele>
        <time>2014-09-04T13:45:37.000Z</time>
      </trkpt>
      <trkpt lat="45.08399" lon="0.64013">
        <ele>168.80000305176</ele>
        <time>2014-09-04T13:45:39.000Z</time>
      </trkpt>
      <trkpt lat="45.08405" lon="0.64007">
        <ele>169.19999694824</ele>
        <time>2014-09-04T13:45:44.000Z</time>
      </trkpt>
      <trkpt lat="45.08414" lon="0.63994">
        <ele>169.19999694824</ele>
        <time>2014-09-04T13:45:50.000Z</time>
      </trkpt>
      <trkpt lat="45.08427" lon="0.6398">
        <ele>169.60000610352</ele>
        <time>2014-09-04T13:45:57.000Z</time>
      </trkpt>
      <trkpt lat="45.08445" lon="0.63958">
        <ele>168.60000610352</ele>
        <time>2014-09-04T13:46:05.000Z</time>
      </trkpt>
      <trkpt lat="45.08457" lon="0.6394">
        <ele>167.80000305176</ele>
        <time>2014-09-04T13:46:09.000Z</time>
      </trkpt>
      <trkpt lat="45.08463" lon="0.6393">
        <ele>167.19999694824</ele>
        <time>2014-09-04T13:46:11.000Z</time>
      </trkpt>
      <trkpt lat="45.08467" lon="0.63923">
        <ele>166.80000305176</ele>
        <time>2014-09-04T13:46:12.000Z</time>
      </trkpt>
      <trkpt lat="45.08477" lon="0.63899">
        <ele>165.60000610352</ele>
        <time>2014-09-04T13:46:15.000Z</time>
      </trkpt>
      <trkpt lat="45.08487" lon="0.63875">
        <ele>164.60000610352</ele>
        <time>2014-09-04T13:46:18.000Z</time>
      </trkpt>
      <trkpt lat="45.08497" lon="0.63841">
        <ele>163.80000305176</ele>
        <time>2014-09-04T13:46:22.000Z</time>
      </trkpt>
      <trkpt lat="45.08501" lon="0.63824">
        <ele>163.39999389648</ele>
        <time>2014-09-04T13:46:24.000Z</time>
      </trkpt>
      <trkpt lat="45.08503" lon="0.63816">
        <ele>163.19999694824</ele>
        <time>2014-09-04T13:46:25.000Z</time>
      </trkpt>
      <trkpt lat="45.08505" lon="0.63789">
        <ele>162.39999389648</ele>
        <time>2014-09-04T13:46:28.000Z</time>
      </trkpt>
      <trkpt lat="45.08505" lon="0.6378">
        <ele>162</ele>
        <time>2014-09-04T13:46:29.000Z</time>
      </trkpt>
      <trkpt lat="45.08507" lon="0.63764">
        <ele>161.19999694824</ele>
        <time>2014-09-04T13:46:31.000Z</time>
      </trkpt>
      <trkpt lat="45.08509" lon="0.63754">
        <ele>160.60000610352</ele>
        <time>2014-09-04T13:46:32.000Z</time>
      </trkpt>
      <trkpt lat="45.08514" lon="0.63732">
        <ele>159</ele>
        <time>2014-09-04T13:46:34.000Z</time>
      </trkpt>
      <trkpt lat="45.08517" lon="0.63721">
        <ele>158</ele>
        <time>2014-09-04T13:46:35.000Z</time>
      </trkpt>
      <trkpt lat="45.0852" lon="0.63708">
        <ele>156.60000610352</ele>
        <time>2014-09-04T13:46:36.000Z</time>
      </trkpt>
      <trkpt lat="45.08524" lon="0.63694">
        <ele>155</ele>
        <time>2014-09-04T13:46:37.000Z</time>
      </trkpt>
      <trkpt lat="45.08529" lon="0.63679">
        <ele>153.60000610352</ele>
        <time>2014-09-04T13:46:38.000Z</time>
      </trkpt>
      <trkpt lat="45.08534" lon="0.63665">
        <ele>152</ele>
        <time>2014-09-04T13:46:39.000Z</time>
      </trkpt>
      <trkpt lat="45.08539" lon="0.63651">
        <ele>150.39999389648</ele>
        <time>2014-09-04T13:46:40.000Z</time>
      </trkpt>
      <trkpt lat="45.08545" lon="0.63637">
        <ele>148.39999389648</ele>
        <time>2014-09-04T13:46:41.000Z</time>
      </trkpt>
      <trkpt lat="45.08551" lon="0.63624">
        <ele>146.60000610352</ele>
        <time>2014-09-04T13:46:42.000Z</time>
      </trkpt>
      <trkpt lat="45.08557" lon="0.63612">
        <ele>144.80000305176</ele>
        <time>2014-09-04T13:46:43.000Z</time>
      </trkpt>
      <trkpt lat="45.08562" lon="0.63601">
        <ele>143.60000610352</ele>
        <time>2014-09-04T13:46:44.000Z</time>
      </trkpt>
      <trkpt lat="45.08565" lon="0.63591">
        <ele>142.80000305176</ele>
        <time>2014-09-04T13:46:45.000Z</time>
      </trkpt>
      <trkpt lat="45.08566" lon="0.63583">
        <ele>142.39999389648</ele>
        <time>2014-09-04T13:46:46.000Z</time>
      </trkpt>
      <trkpt lat="45.08574" lon="0.63572">
        <ele>141.60000610352</ele>
        <time>2014-09-04T13:46:49.000Z</time>
      </trkpt>
      <trkpt lat="45.0858" lon="0.63569">
        <ele>141</ele>
        <time>2014-09-04T13:46:50.000Z</time>
      </trkpt>
      <trkpt lat="45.08588" lon="0.63566">
        <ele>139</ele>
        <time>2014-09-04T13:46:51.000Z</time>
      </trkpt>
      <trkpt lat="45.08595" lon="0.63562">
        <ele>138</ele>
        <time>2014-09-04T13:46:52.000Z</time>
      </trkpt>
      <trkpt lat="45.08603" lon="0.63556">
        <ele>136.80000305176</ele>
        <time>2014-09-04T13:46:53.000Z</time>
      </trkpt>
      <trkpt lat="45.08611" lon="0.63548">
        <ele>135.80000305176</ele>
        <time>2014-09-04T13:46:54.000Z</time>
      </trkpt>
      <trkpt lat="45.08618" lon="0.63538">
        <ele>134.80000305176</ele>
        <time>2014-09-04T13:46:55.000Z</time>
      </trkpt>
      <trkpt lat="45.0863" lon="0.63518">
        <ele>133.19999694824</ele>
        <time>2014-09-04T13:46:57.000Z</time>
      </trkpt>
      <trkpt lat="45.08638" lon="0.63494">
        <ele>132</ele>
        <time>2014-09-04T13:46:59.000Z</time>
      </trkpt>
      <trkpt lat="45.08644" lon="0.63469">
        <ele>129.80000305176</ele>
        <time>2014-09-04T13:47:01.000Z</time>
      </trkpt>
      <trkpt lat="45.08646" lon="0.63457">
        <ele>128.60000610352</ele>
        <time>2014-09-04T13:47:02.000Z</time>
      </trkpt>
      <trkpt lat="45.0865" lon="0.63447">
        <ele>127</ele>
        <time>2014-09-04T13:47:03.000Z</time>
      </trkpt>
      <trkpt lat="45.08655" lon="0.63439">
        <ele>125.40000152588</ele>
        <time>2014-09-04T13:47:04.000Z</time>
      </trkpt>
      <trkpt lat="45.08661" lon="0.63431">
        <ele>124</ele>
        <time>2014-09-04T13:47:05.000Z</time>
      </trkpt>
      <trkpt lat="45.08668" lon="0.63423">
        <ele>122.19999694824</ele>
        <time>2014-09-04T13:47:06.000Z</time>
      </trkpt>
      <trkpt lat="45.08676" lon="0.63416">
        <ele>120.19999694824</ele>
        <time>2014-09-04T13:47:07.000Z</time>
      </trkpt>
      <trkpt lat="45.08684" lon="0.6341">
        <ele>118.40000152588</ele>
        <time>2014-09-04T13:47:08.000Z</time>
      </trkpt>
      <trkpt lat="45.08691" lon="0.63402">
        <ele>116.80000305176</ele>
        <time>2014-09-04T13:47:09.000Z</time>
      </trkpt>
      <trkpt lat="45.08698" lon="0.63395">
        <ele>115.40000152588</ele>
        <time>2014-09-04T13:47:10.000Z</time>
      </trkpt>
      <trkpt lat="45.08705" lon="0.63391">
        <ele>114</ele>
        <time>2014-09-04T13:47:11.000Z</time>
      </trkpt>
      <trkpt lat="45.08718" lon="0.63381">
        <ele>112.19999694824</ele>
        <time>2014-09-04T13:47:13.000Z</time>
      </trkpt>
      <trkpt lat="45.08723" lon="0.63373">
        <ele>111.40000152588</ele>
        <time>2014-09-04T13:47:14.000Z</time>
      </trkpt>
      <trkpt lat="45.08726" lon="0.63365">
        <ele>110.40000152588</ele>
        <time>2014-09-04T13:47:15.000Z</time>
      </trkpt>
      <trkpt lat="45.0873" lon="0.63348">
        <ele>110.19999694824</ele>
        <time>2014-09-04T13:47:17.000Z</time>
      </trkpt>
      <trkpt lat="45.08735" lon="0.63327">
        <ele>109.40000152588</ele>
        <time>2014-09-04T13:47:20.000Z</time>
      </trkpt>
      <trkpt lat="45.08735" lon="0.63322">
        <ele>109.19999694824</ele>
        <time>2014-09-04T13:47:21.000Z</time>
      </trkpt>
      <trkpt lat="45.08735" lon="0.63319">
        <ele>109.19999694824</ele>
        <time>2014-09-04T13:47:22.000Z</time>
      </trkpt>
      <trkpt lat="45.08735" lon="0.63309">
        <ele>109.59999847412</ele>
        <time>2014-09-04T13:47:26.000Z</time>
      </trkpt>
      <trkpt lat="45.08734" lon="0.63299">
        <ele>110.19999694824</ele>
        <time>2014-09-04T13:47:29.000Z</time>
      </trkpt>
      <trkpt lat="45.08734" lon="0.63296">
        <ele>110.40000152588</ele>
        <time>2014-09-04T13:47:30.000Z</time>
      </trkpt>
      <trkpt lat="45.08733" lon="0.63281">
        <ele>110.59999847412</ele>
        <time>2014-09-04T13:47:34.000Z</time>
      </trkpt>
      <trkpt lat="45.08733" lon="0.63257">
        <ele>110.59999847412</ele>
        <time>2014-09-04T13:47:41.000Z</time>
      </trkpt>
      <trkpt lat="45.08731" lon="0.63229">
        <ele>110.59999847412</ele>
        <time>2014-09-04T13:47:47.000Z</time>
      </trkpt>
      <trkpt lat="45.08727" lon="0.63199">
        <ele>111.19999694824</ele>
        <time>2014-09-04T13:47:54.000Z</time>
      </trkpt>
      <trkpt lat="45.08724" lon="0.63176">
        <ele>111.59999847412</ele>
        <time>2014-09-04T13:48:00.000Z</time>
      </trkpt>
      <trkpt lat="45.08723" lon="0.63167">
        <ele>111.80000305176</ele>
        <time>2014-09-04T13:48:02.000Z</time>
      </trkpt>
      <trkpt lat="45.08719" lon="0.63145">
        <ele>112.59999847412</ele>
        <time>2014-09-04T13:48:07.000Z</time>
      </trkpt>
      <trkpt lat="45.08717" lon="0.63136">
        <ele>112.80000305176</ele>
        <time>2014-09-04T13:48:09.000Z</time>
      </trkpt>
      <trkpt lat="45.08714" lon="0.63118">
        <ele>113.80000305176</ele>
        <time>2014-09-04T13:48:13.000Z</time>
      </trkpt>
      <trkpt lat="45.08709" lon="0.63098">
        <ele>114.19999694824</ele>
        <time>2014-09-04T13:48:18.000Z</time>
      </trkpt>
      <trkpt lat="45.08706" lon="0.63081">
        <ele>114.80000305176</ele>
        <time>2014-09-04T13:48:22.000Z</time>
      </trkpt>
      <trkpt lat="45.08704" lon="0.63071">
        <ele>115.40000152588</ele>
        <time>2014-09-04T13:48:25.000Z</time>
      </trkpt>
      <trkpt lat="45.08699" lon="0.63052">
        <ele>115.80000305176</ele>
        <time>2014-09-04T13:48:30.000Z</time>
      </trkpt>
      <trkpt lat="45.08697" lon="0.63045">
        <ele>115.80000305176</ele>
        <time>2014-09-04T13:48:32.000Z</time>
      </trkpt>
      <trkpt lat="45.08691" lon="0.63017">
        <ele>116.19999694824</ele>
        <time>2014-09-04T13:48:40.000Z</time>
      </trkpt>
      <trkpt lat="45.08684" lon="0.62995">
        <ele>116.40000152588</ele>
        <time>2014-09-04T13:48:45.000Z</time>
      </trkpt>
      <trkpt lat="45.08679" lon="0.62983">
        <ele>117</ele>
        <time>2014-09-04T13:48:48.000Z</time>
      </trkpt>
      <trkpt lat="45.08676" lon="0.62973">
        <ele>117.19999694824</ele>
        <time>2014-09-04T13:48:51.000Z</time>
      </trkpt>
      <trkpt lat="45.08668" lon="0.62943">
        <ele>116.40000152588</ele>
        <time>2014-09-04T13:48:57.000Z</time>
      </trkpt>
      <trkpt lat="45.08666" lon="0.62931">
        <ele>115.80000305176</ele>
        <time>2014-09-04T13:48:59.000Z</time>
      </trkpt>
      <trkpt lat="45.08664" lon="0.6291">
        <ele>115.19999694824</ele>
        <time>2014-09-04T13:49:02.000Z</time>
      </trkpt>
      <trkpt lat="45.08662" lon="0.62904">
        <ele>114.80000305176</ele>
        <time>2014-09-04T13:49:03.000Z</time>
      </trkpt>
      <trkpt lat="45.08657" lon="0.62874">
        <ele>113.80000305176</ele>
        <time>2014-09-04T13:49:09.000Z</time>
      </trkpt>
      <trkpt lat="45.08656" lon="0.62869">
        <ele>113.59999847412</ele>
        <time>2014-09-04T13:49:10.000Z</time>
      </trkpt>
      <trkpt lat="45.0865" lon="0.62843">
        <ele>112.80000305176</ele>
        <time>2014-09-04T13:49:16.000Z</time>
      </trkpt>
      <trkpt lat="45.08648" lon="0.62838">
        <ele>112.59999847412</ele>
        <time>2014-09-04T13:49:17.000Z</time>
      </trkpt>
      <trkpt lat="45.08643" lon="0.62822">
        <ele>112.59999847412</ele>
        <time>2014-09-04T13:49:21.000Z</time>
      </trkpt>
      <trkpt lat="45.08632" lon="0.62801">
        <ele>113.19999694824</ele>
        <time>2014-09-04T13:49:28.000Z</time>
      </trkpt>
      <trkpt lat="45.08623" lon="0.62783">
        <ele>113.59999847412</ele>
        <time>2014-09-04T13:49:34.000Z</time>
      </trkpt>
      <trkpt lat="45.08619" lon="0.62774">
        <ele>114</ele>
        <time>2014-09-04T13:49:37.000Z</time>
      </trkpt>
      <trkpt lat="45.08607" lon="0.62747">
        <ele>114.19999694824</ele>
        <time>2014-09-04T13:49:46.000Z</time>
      </trkpt>
      <trkpt lat="45.08592" lon="0.62719">
        <ele>114.80000305176</ele>
        <time>2014-09-04T13:49:55.000Z</time>
      </trkpt>
      <trkpt lat="45.08576" lon="0.62697">
        <ele>114.80000305176</ele>
        <time>2014-09-04T13:50:03.000Z</time>
      </trkpt>
      <trkpt lat="45.08559" lon="0.62677">
        <ele>113.59999847412</ele>
        <time>2014-09-04T13:50:10.000Z</time>
      </trkpt>
      <trkpt lat="45.08557" lon="0.62674">
        <ele>113.59999847412</ele>
        <time>2014-09-04T13:50:11.000Z</time>
      </trkpt>
      <trkpt lat="45.08541" lon="0.62657">
        <ele>113.59999847412</ele>
        <time>2014-09-04T13:50:18.000Z</time>
      </trkpt>
      <trkpt lat="45.08527" lon="0.62638">
        <ele>114.19999694824</ele>
        <time>2014-09-04T13:50:26.000Z</time>
      </trkpt>
      <trkpt lat="45.08523" lon="0.62632">
        <ele>115</ele>
        <time>2014-09-04T13:50:29.000Z</time>
      </trkpt>
      <trkpt lat="45.08517" lon="0.62622">
        <ele>116</ele>
        <time>2014-09-04T13:50:34.000Z</time>
      </trkpt>
      <trkpt lat="45.08511" lon="0.62608">
        <ele>117.19999694824</ele>
        <time>2014-09-04T13:50:40.000Z</time>
      </trkpt>
      <trkpt lat="45.08509" lon="0.62604">
        <ele>117.59999847412</ele>
        <time>2014-09-04T13:50:42.000Z</time>
      </trkpt>
      <trkpt lat="45.08505" lon="0.62598">
        <ele>118.19999694824</ele>
        <time>2014-09-04T13:50:46.000Z</time>
      </trkpt>
      <trkpt lat="45.085" lon="0.62591">
        <ele>118.80000305176</ele>
        <time>2014-09-04T13:50:50.000Z</time>
      </trkpt>
      <trkpt lat="45.08499" lon="0.62589">
        <ele>119.19999694824</ele>
        <time>2014-09-04T13:50:51.000Z</time>
      </trkpt>
      <trkpt lat="45.0849" lon="0.62583">
        <ele>120.19999694824</ele>
        <time>2014-09-04T13:50:57.000Z</time>
      </trkpt>
      <trkpt lat="45.08482" lon="0.62579">
        <ele>121.40000152588</ele>
        <time>2014-09-04T13:51:03.000Z</time>
      </trkpt>
      <trkpt lat="45.08477" lon="0.62576">
        <ele>122</ele>
        <time>2014-09-04T13:51:06.000Z</time>
      </trkpt>
      <trkpt lat="45.08474" lon="0.62575">
        <ele>122.40000152588</ele>
        <time>2014-09-04T13:51:08.000Z</time>
      </trkpt>
      <trkpt lat="45.08468" lon="0.62572">
        <ele>123.19999694824</ele>
        <time>2014-09-04T13:51:13.000Z</time>
      </trkpt>
      <trkpt lat="45.08467" lon="0.62572">
        <ele>123.40000152588</ele>
        <time>2014-09-04T13:51:14.000Z</time>
      </trkpt>
      <trkpt lat="45.08462" lon="0.6257">
        <ele>124.59999847412</ele>
        <time>2014-09-04T13:51:18.000Z</time>
      </trkpt>
      <trkpt lat="45.0846" lon="0.62567">
        <ele>125.19999694824</ele>
        <time>2014-09-04T13:51:20.000Z</time>
      </trkpt>
      <trkpt lat="45.08459" lon="0.62564">
        <ele>125.59999847412</ele>
        <time>2014-09-04T13:51:22.000Z</time>
      </trkpt>
      <trkpt lat="45.08455" lon="0.62557">
        <ele>126.59999847412</ele>
        <time>2014-09-04T13:51:27.000Z</time>
      </trkpt>
      <trkpt lat="45.08455" lon="0.62556">
        <ele>126.80000305176</ele>
        <time>2014-09-04T13:51:28.000Z</time>
      </trkpt>
      <trkpt lat="45.08453" lon="0.6255">
        <ele>127.19999694824</ele>
        <time>2014-09-04T13:51:32.000Z</time>
      </trkpt>
      <trkpt lat="45.08453" lon="0.62549">
        <ele>127.19999694824</ele>
        <time>2014-09-04T13:51:33.000Z</time>
      </trkpt>
      <trkpt lat="45.08453" lon="0.62541">
        <ele>127.80000305176</ele>
        <time>2014-09-04T13:51:37.000Z</time>
      </trkpt>
      <trkpt lat="45.08452" lon="0.6253">
        <ele>128.60000610352</ele>
        <time>2014-09-04T13:51:42.000Z</time>
      </trkpt>
      <trkpt lat="45.08452" lon="0.62528">
        <ele>129</ele>
        <time>2014-09-04T13:51:43.000Z</time>
      </trkpt>
      <trkpt lat="45.08451" lon="0.62514">
        <ele>130</ele>
        <time>2014-09-04T13:51:50.000Z</time>
      </trkpt>
      <trkpt lat="45.0845" lon="0.62495">
        <ele>131.19999694824</ele>
        <time>2014-09-04T13:51:58.000Z</time>
      </trkpt>
      <trkpt lat="45.08449" lon="0.62481">
        <ele>132</ele>
        <time>2014-09-04T13:52:05.000Z</time>
      </trkpt>
      <trkpt lat="45.08448" lon="0.62475">
        <ele>132.19999694824</ele>
        <time>2014-09-04T13:52:07.000Z</time>
      </trkpt>
      <trkpt lat="45.08447" lon="0.62463">
        <ele>132.60000610352</ele>
        <time>2014-09-04T13:52:12.000Z</time>
      </trkpt>
      <trkpt lat="45.08445" lon="0.6244">
        <ele>133.19999694824</ele>
        <time>2014-09-04T13:52:20.000Z</time>
      </trkpt>
      <trkpt lat="45.0844" lon="0.62423">
        <ele>134.39999389648</ele>
        <time>2014-09-04T13:52:27.000Z</time>
      </trkpt>
      <trkpt lat="45.08439" lon="0.6242">
        <ele>134.60000610352</ele>
        <time>2014-09-04T13:52:28.000Z</time>
      </trkpt>
      <trkpt lat="45.08433" lon="0.62403">
        <ele>135.60000610352</ele>
        <time>2014-09-04T13:52:35.000Z</time>
      </trkpt>
      <trkpt lat="45.08432" lon="0.624">
        <ele>135.80000305176</ele>
        <time>2014-09-04T13:52:36.000Z</time>
      </trkpt>
      <trkpt lat="45.08426" lon="0.62386">
        <ele>136.60000610352</ele>
        <time>2014-09-04T13:52:42.000Z</time>
      </trkpt>
      <trkpt lat="45.08424" lon="0.62381">
        <ele>137</ele>
        <time>2014-09-04T13:52:44.000Z</time>
      </trkpt>
      <trkpt lat="45.0842" lon="0.62368">
        <ele>137.80000305176</ele>
        <time>2014-09-04T13:52:49.000Z</time>
      </trkpt>
      <trkpt lat="45.08415" lon="0.62357">
        <ele>138.80000305176</ele>
        <time>2014-09-04T13:52:54.000Z</time>
      </trkpt>
      <trkpt lat="45.08413" lon="0.62351">
        <ele>139</ele>
        <time>2014-09-04T13:52:57.000Z</time>
      </trkpt>
      <trkpt lat="45.08409" lon="0.62341">
        <ele>139.80000305176</ele>
        <time>2014-09-04T13:53:02.000Z</time>
      </trkpt>
      <trkpt lat="45.08409" lon="0.6234">
        <ele>140</ele>
        <time>2014-09-04T13:53:03.000Z</time>
      </trkpt>
      <trkpt lat="45.08405" lon="0.62331">
        <ele>140.80000305176</ele>
        <time>2014-09-04T13:53:08.000Z</time>
      </trkpt>
      <trkpt lat="45.08403" lon="0.62326">
        <ele>141.19999694824</ele>
        <time>2014-09-04T13:53:11.000Z</time>
      </trkpt>
      <trkpt lat="45.08402" lon="0.62322">
        <ele>141.60000610352</ele>
        <time>2014-09-04T13:53:13.000Z</time>
      </trkpt>
      <trkpt lat="45.08401" lon="0.62319">
        <ele>141.80000305176</ele>
        <time>2014-09-04T13:53:15.000Z</time>
      </trkpt>
      <trkpt lat="45.08399" lon="0.62316">
        <ele>142.19999694824</ele>
        <time>2014-09-04T13:53:17.000Z</time>
      </trkpt>
      <trkpt lat="45.08397" lon="0.62309">
        <ele>142.39999389648</ele>
        <time>2014-09-04T13:53:21.000Z</time>
      </trkpt>
      <trkpt lat="45.08395" lon="0.62305">
        <ele>142.80000305176</ele>
        <time>2014-09-04T13:53:23.000Z</time>
      </trkpt>
      <trkpt lat="45.0839" lon="0.62295">
        <ele>143.19999694824</ele>
        <time>2014-09-04T13:53:28.000Z</time>
      </trkpt>
      <trkpt lat="45.08389" lon="0.62294">
        <ele>143.39999389648</ele>
        <time>2014-09-04T13:53:29.000Z</time>
      </trkpt>
      <trkpt lat="45.08376" lon="0.62281">
        <ele>144.39999389648</ele>
        <time>2014-09-04T13:53:38.000Z</time>
      </trkpt>
      <trkpt lat="45.08367" lon="0.62274">
        <ele>145.39999389648</ele>
        <time>2014-09-04T13:53:44.000Z</time>
      </trkpt>
      <trkpt lat="45.08355" lon="0.6227">
        <ele>146.60000610352</ele>
        <time>2014-09-04T13:53:50.000Z</time>
      </trkpt>
      <trkpt lat="45.0835" lon="0.62268">
        <ele>147</ele>
        <time>2014-09-04T13:53:52.000Z</time>
      </trkpt>
      <trkpt lat="45.08344" lon="0.62262">
        <ele>147.80000305176</ele>
        <time>2014-09-04T13:53:56.000Z</time>
      </trkpt>
      <trkpt lat="45.08341" lon="0.62261">
        <ele>148.19999694824</ele>
        <time>2014-09-04T13:53:58.000Z</time>
      </trkpt>
      <trkpt lat="45.08337" lon="0.62257">
        <ele>148.80000305176</ele>
        <time>2014-09-04T13:54:01.000Z</time>
      </trkpt>
      <trkpt lat="45.08332" lon="0.62248">
        <ele>149.39999389648</ele>
        <time>2014-09-04T13:54:05.000Z</time>
      </trkpt>
      <trkpt lat="45.08327" lon="0.62232">
        <ele>149.80000305176</ele>
        <time>2014-09-04T13:54:10.000Z</time>
      </trkpt>
      <trkpt lat="45.08325" lon="0.62225">
        <ele>150</ele>
        <time>2014-09-04T13:54:12.000Z</time>
      </trkpt>
      <trkpt lat="45.08316" lon="0.622">
        <ele>149.80000305176</ele>
        <time>2014-09-04T13:54:20.000Z</time>
      </trkpt>
      <trkpt lat="45.08304" lon="0.62171">
        <ele>149.60000610352</ele>
        <time>2014-09-04T13:54:27.000Z</time>
      </trkpt>
      <trkpt lat="45.0829" lon="0.6214">
        <ele>149.80000305176</ele>
        <time>2014-09-04T13:54:35.000Z</time>
      </trkpt>
      <trkpt lat="45.08276" lon="0.62111">
        <ele>150.39999389648</ele>
        <time>2014-09-04T13:54:43.000Z</time>
      </trkpt>
      <trkpt lat="45.08264" lon="0.62087">
        <ele>151</ele>
        <time>2014-09-04T13:54:50.000Z</time>
      </trkpt>
      <trkpt lat="45.08252" lon="0.62061">
        <ele>152</ele>
        <time>2014-09-04T13:54:57.000Z</time>
      </trkpt>
      <trkpt lat="45.0825" lon="0.62058">
        <ele>152.19999694824</ele>
        <time>2014-09-04T13:54:58.000Z</time>
      </trkpt>
      <trkpt lat="45.08242" lon="0.62043">
        <ele>153.39999389648</ele>
        <time>2014-09-04T13:55:03.000Z</time>
      </trkpt>
      <trkpt lat="45.08241" lon="0.62041">
        <ele>153.60000610352</ele>
        <time>2014-09-04T13:55:04.000Z</time>
      </trkpt>
      <trkpt lat="45.08238" lon="0.62033">
        <ele>154.39999389648</ele>
        <time>2014-09-04T13:55:07.000Z</time>
      </trkpt>
      <trkpt lat="45.08236" lon="0.62027">
        <ele>154.80000305176</ele>
        <time>2014-09-04T13:55:10.000Z</time>
      </trkpt>
      <trkpt lat="45.08237" lon="0.62021">
        <ele>154.60000610352</ele>
        <time>2014-09-04T13:55:13.000Z</time>
      </trkpt>
      <trkpt lat="45.08244" lon="0.62017">
        <ele>153.60000610352</ele>
        <time>2014-09-04T13:55:15.000Z</time>
      </trkpt>
      <trkpt lat="45.08251" lon="0.62014">
        <ele>152</ele>
        <time>2014-09-04T13:55:16.000Z</time>
      </trkpt>
      <trkpt lat="45.08267" lon="0.6201">
        <ele>149.80000305176</ele>
        <time>2014-09-04T13:55:18.000Z</time>
      </trkpt>
      <trkpt lat="45.08287" lon="0.62007">
        <ele>147.60000610352</ele>
        <time>2014-09-04T13:55:20.000Z</time>
      </trkpt>
      <trkpt lat="45.08297" lon="0.62004">
        <ele>146.19999694824</ele>
        <time>2014-09-04T13:55:21.000Z</time>
      </trkpt>
      <trkpt lat="45.08308" lon="0.62002">
        <ele>144.60000610352</ele>
        <time>2014-09-04T13:55:22.000Z</time>
      </trkpt>
      <trkpt lat="45.08318" lon="0.61999">
        <ele>142.80000305176</ele>
        <time>2014-09-04T13:55:23.000Z</time>
      </trkpt>
      <trkpt lat="45.08329" lon="0.61996">
        <ele>141.39999389648</ele>
        <time>2014-09-04T13:55:24.000Z</time>
      </trkpt>
      <trkpt lat="45.0834" lon="0.61992">
        <ele>139.60000610352</ele>
        <time>2014-09-04T13:55:25.000Z</time>
      </trkpt>
      <trkpt lat="45.0835" lon="0.61988">
        <ele>137.60000610352</ele>
        <time>2014-09-04T13:55:26.000Z</time>
      </trkpt>
      <trkpt lat="45.0836" lon="0.61984">
        <ele>135.60000610352</ele>
        <time>2014-09-04T13:55:27.000Z</time>
      </trkpt>
      <trkpt lat="45.0837" lon="0.61979">
        <ele>133.39999389648</ele>
        <time>2014-09-04T13:55:28.000Z</time>
      </trkpt>
      <trkpt lat="45.0838" lon="0.61973">
        <ele>131.60000610352</ele>
        <time>2014-09-04T13:55:29.000Z</time>
      </trkpt>
      <trkpt lat="45.0839" lon="0.61966">
        <ele>129.39999389648</ele>
        <time>2014-09-04T13:55:30.000Z</time>
      </trkpt>
      <trkpt lat="45.08399" lon="0.6196">
        <ele>127.59999847412</ele>
        <time>2014-09-04T13:55:31.000Z</time>
      </trkpt>
      <trkpt lat="45.08408" lon="0.61955">
        <ele>125.80000305176</ele>
        <time>2014-09-04T13:55:32.000Z</time>
      </trkpt>
      <trkpt lat="45.08416" lon="0.61952">
        <ele>124.19999694824</ele>
        <time>2014-09-04T13:55:33.000Z</time>
      </trkpt>
      <trkpt lat="45.08423" lon="0.61948">
        <ele>122.19999694824</ele>
        <time>2014-09-04T13:55:34.000Z</time>
      </trkpt>
      <trkpt lat="45.08431" lon="0.61945">
        <ele>120.59999847412</ele>
        <time>2014-09-04T13:55:35.000Z</time>
      </trkpt>
      <trkpt lat="45.08437" lon="0.61942">
        <ele>119.19999694824</ele>
        <time>2014-09-04T13:55:36.000Z</time>
      </trkpt>
      <trkpt lat="45.08445" lon="0.61941">
        <ele>118</ele>
        <time>2014-09-04T13:55:37.000Z</time>
      </trkpt>
      <trkpt lat="45.0846" lon="0.61937">
        <ele>115.80000305176</ele>
        <time>2014-09-04T13:55:39.000Z</time>
      </trkpt>
      <trkpt lat="45.08469" lon="0.61936">
        <ele>113.80000305176</ele>
        <time>2014-09-04T13:55:40.000Z</time>
      </trkpt>
      <trkpt lat="45.08487" lon="0.61933">
        <ele>112.19999694824</ele>
        <time>2014-09-04T13:55:42.000Z</time>
      </trkpt>
      <trkpt lat="45.08506" lon="0.61928">
        <ele>110.59999847412</ele>
        <time>2014-09-04T13:55:44.000Z</time>
      </trkpt>
      <trkpt lat="45.08525" lon="0.61924">
        <ele>109</ele>
        <time>2014-09-04T13:55:46.000Z</time>
      </trkpt>
      <trkpt lat="45.08532" lon="0.61922">
        <ele>108.19999694824</ele>
        <time>2014-09-04T13:55:47.000Z</time>
      </trkpt>
      <trkpt lat="45.08539" lon="0.61921">
        <ele>107.40000152588</ele>
        <time>2014-09-04T13:55:48.000Z</time>
      </trkpt>
      <trkpt lat="45.0855" lon="0.61914">
        <ele>105.80000305176</ele>
        <time>2014-09-04T13:55:50.000Z</time>
      </trkpt>
      <trkpt lat="45.0855" lon="0.61899">
        <ele>105</ele>
        <time>2014-09-04T13:55:52.000Z</time>
      </trkpt>
      <trkpt lat="45.08549" lon="0.61892">
        <ele>104.59999847412</ele>
        <time>2014-09-04T13:55:53.000Z</time>
      </trkpt>
      <trkpt lat="45.08547" lon="0.61885">
        <ele>104.19999694824</ele>
        <time>2014-09-04T13:55:54.000Z</time>
      </trkpt>
      <trkpt lat="45.08544" lon="0.61871">
        <ele>103.80000305176</ele>
        <time>2014-09-04T13:55:56.000Z</time>
      </trkpt>
      <trkpt lat="45.08539" lon="0.61839">
        <ele>103.40000152588</ele>
        <time>2014-09-04T13:56:01.000Z</time>
      </trkpt>
      <trkpt lat="45.08536" lon="0.61815">
        <ele>103</ele>
        <time>2014-09-04T13:56:05.000Z</time>
      </trkpt>
      <trkpt lat="45.0853" lon="0.61764">
        <ele>102.80000305176</ele>
        <time>2014-09-04T13:56:14.000Z</time>
      </trkpt>
      <trkpt lat="45.08526" lon="0.61728">
        <ele>102.40000152588</ele>
        <time>2014-09-04T13:56:21.000Z</time>
      </trkpt>
      <trkpt lat="45.08524" lon="0.61718">
        <ele>102.40000152588</ele>
        <time>2014-09-04T13:56:23.000Z</time>
      </trkpt>
      <trkpt lat="45.08515" lon="0.61681">
        <ele>103</ele>
        <time>2014-09-04T13:56:31.000Z</time>
      </trkpt>
      <trkpt lat="45.0851" lon="0.61661">
        <ele>103.40000152588</ele>
        <time>2014-09-04T13:56:36.000Z</time>
      </trkpt>
      <trkpt lat="45.08509" lon="0.61648">
        <ele>104</ele>
        <time>2014-09-04T13:56:39.000Z</time>
      </trkpt>
      <trkpt lat="45.08506" lon="0.61624">
        <ele>104.59999847412</ele>
        <time>2014-09-04T13:56:45.000Z</time>
      </trkpt>
      <trkpt lat="45.08506" lon="0.61617">
        <ele>104.80000305176</ele>
        <time>2014-09-04T13:56:47.000Z</time>
      </trkpt>
      <trkpt lat="45.08503" lon="0.61585">
        <ele>105.59999847412</ele>
        <time>2014-09-04T13:56:55.000Z</time>
      </trkpt>
      <trkpt lat="45.08508" lon="0.61569">
        <ele>104.59999847412</ele>
        <time>2014-09-04T13:57:00.000Z</time>
      </trkpt>
      <trkpt lat="45.08521" lon="0.61568">
        <ele>103.80000305176</ele>
        <time>2014-09-04T13:57:03.000Z</time>
      </trkpt>
      <trkpt lat="45.08526" lon="0.61568">
        <ele>103.19999694824</ele>
        <time>2014-09-04T13:57:04.000Z</time>
      </trkpt>
      <trkpt lat="45.08545" lon="0.61566">
        <ele>102</ele>
        <time>2014-09-04T13:57:07.000Z</time>
      </trkpt>
      <trkpt lat="45.08574" lon="0.61564">
        <ele>100.59999847412</ele>
        <time>2014-09-04T13:57:11.000Z</time>
      </trkpt>
      <trkpt lat="45.08598" lon="0.61562">
        <ele>99.400001525879</ele>
        <time>2014-09-04T13:57:14.000Z</time>
      </trkpt>
      <trkpt lat="45.0861" lon="0.61562">
        <ele>98</ele>
        <time>2014-09-04T13:57:16.000Z</time>
      </trkpt>
      <trkpt lat="45.08616" lon="0.61564">
        <ele>97.400001525879</ele>
        <time>2014-09-04T13:57:17.000Z</time>
      </trkpt>
      <trkpt lat="45.0862" lon="0.61567">
        <ele>97</ele>
        <time>2014-09-04T13:57:18.000Z</time>
      </trkpt>
      <trkpt lat="45.08632" lon="0.61582">
        <ele>96.599998474121</ele>
        <time>2014-09-04T13:57:22.000Z</time>
      </trkpt>
      <trkpt lat="45.08639" lon="0.61582">
        <ele>96.199996948242</ele>
        <time>2014-09-04T13:57:25.000Z</time>
      </trkpt>
      <trkpt lat="45.08641" lon="0.61583">
        <ele>96</ele>
        <time>2014-09-04T13:57:26.000Z</time>
      </trkpt>
      <trkpt lat="45.08645" lon="0.61585">
        <ele>96</ele>
        <time>2014-09-04T13:57:29.000Z</time>
      </trkpt>
      <trkpt lat="45.08648" lon="0.61587">
        <ele>95.800003051758</ele>
        <time>2014-09-04T13:57:31.000Z</time>
      </trkpt>
      <trkpt lat="45.08658" lon="0.61585">
        <ele>95.800003051758</ele>
        <time>2014-09-04T13:57:36.000Z</time>
      </trkpt>
      <trkpt lat="45.08672" lon="0.61582">
        <ele>96</ele>
        <time>2014-09-04T13:57:43.000Z</time>
      </trkpt>
      <trkpt lat="45.08691" lon="0.61578">
        <ele>96.599998474121</ele>
        <time>2014-09-04T13:57:50.000Z</time>
      </trkpt>
      <trkpt lat="45.08711" lon="0.61575">
        <ele>96.800003051758</ele>
        <time>2014-09-04T13:57:58.000Z</time>
      </trkpt>
      <trkpt lat="45.08714" lon="0.61575">
        <ele>97</ele>
        <time>2014-09-04T13:57:59.000Z</time>
      </trkpt>
      <trkpt lat="45.08726" lon="0.61574">
        <ele>98</ele>
        <time>2014-09-04T13:58:04.000Z</time>
      </trkpt>
      <trkpt lat="45.08735" lon="0.61574">
        <ele>99</ele>
        <time>2014-09-04T13:58:08.000Z</time>
      </trkpt>
      <trkpt lat="45.08737" lon="0.61573">
        <ele>99.199996948242</ele>
        <time>2014-09-04T13:58:09.000Z</time>
      </trkpt>
      <trkpt lat="45.0874" lon="0.61572">
        <ele>99.599998474121</ele>
        <time>2014-09-04T13:58:12.000Z</time>
      </trkpt>
      <trkpt lat="45.08741" lon="0.61573">
        <ele>99.800003051758</ele>
        <time>2014-09-04T13:58:13.000Z</time>
      </trkpt>
      <trkpt lat="45.08743" lon="0.61573">
        <ele>100.19999694824</ele>
        <time>2014-09-04T13:58:15.000Z</time>
      </trkpt>
      <trkpt lat="45.08745" lon="0.61572">
        <ele>101.40000152588</ele>
        <time>2014-09-04T13:58:18.000Z</time>
      </trkpt>
      <trkpt lat="45.08747" lon="0.61568">
        <ele>102.19999694824</ele>
        <time>2014-09-04T13:58:21.000Z</time>
      </trkpt>
      <trkpt lat="45.08746" lon="0.61553">
        <ele>102.19999694824</ele>
        <time>2014-09-04T13:58:26.000Z</time>
      </trkpt>
      <trkpt lat="45.08746" lon="0.61549">
        <ele>102.19999694824</ele>
        <time>2014-09-04T13:58:27.000Z</time>
      </trkpt>
      <trkpt lat="45.08743" lon="0.61524">
        <ele>101.80000305176</ele>
        <time>2014-09-04T13:58:34.000Z</time>
      </trkpt>
      <trkpt lat="45.0874" lon="0.61495">
        <ele>101.59999847412</ele>
        <time>2014-09-04T13:58:41.000Z</time>
      </trkpt>
      <trkpt lat="45.08737" lon="0.61462">
        <ele>101.59999847412</ele>
        <time>2014-09-04T13:58:48.000Z</time>
      </trkpt>
      <trkpt lat="45.08737" lon="0.61457">
        <ele>101.59999847412</ele>
        <time>2014-09-04T13:58:49.000Z</time>
      </trkpt>
      <trkpt lat="45.08739" lon="0.6141">
        <ele>101.40000152588</ele>
        <time>2014-09-04T13:58:57.000Z</time>
      </trkpt>
      <trkpt lat="45.08743" lon="0.61353">
        <ele>101</ele>
        <time>2014-09-04T13:59:06.000Z</time>
      </trkpt>
      <trkpt lat="45.08745" lon="0.61334">
        <ele>100.40000152588</ele>
        <time>2014-09-04T13:59:09.000Z</time>
      </trkpt>
      <trkpt lat="45.0875" lon="0.61296">
        <ele>100.19999694824</ele>
        <time>2014-09-04T13:59:15.000Z</time>
      </trkpt>
      <trkpt lat="45.08755" lon="0.61255">
        <ele>99.400001525879</ele>
        <time>2014-09-04T13:59:21.000Z</time>
      </trkpt>
      <trkpt lat="45.08757" lon="0.61241">
        <ele>99.199996948242</ele>
        <time>2014-09-04T13:59:23.000Z</time>
      </trkpt>
      <trkpt lat="45.08766" lon="0.61205">
        <ele>98.400001525879</ele>
        <time>2014-09-04T13:59:28.000Z</time>
      </trkpt>
      <trkpt lat="45.08772" lon="0.61189">
        <ele>98</ele>
        <time>2014-09-04T13:59:30.000Z</time>
      </trkpt>
      <trkpt lat="45.08784" lon="0.61156">
        <ele>97.199996948242</ele>
        <time>2014-09-04T13:59:34.000Z</time>
      </trkpt>
      <trkpt lat="45.08794" lon="0.61129">
        <ele>96.400001525879</ele>
        <time>2014-09-04T13:59:37.000Z</time>
      </trkpt>
      <trkpt lat="45.08797" lon="0.61121">
        <ele>96</ele>
        <time>2014-09-04T13:59:38.000Z</time>
      </trkpt>
      <trkpt lat="45.08807" lon="0.61086">
        <ele>95.400001525879</ele>
        <time>2014-09-04T13:59:42.000Z</time>
      </trkpt>
      <trkpt lat="45.08807" lon="0.61077">
        <ele>95.400001525879</ele>
        <time>2014-09-04T13:59:43.000Z</time>
      </trkpt>
      <trkpt lat="45.08804" lon="0.61045">
        <ele>95.400001525879</ele>
        <time>2014-09-04T13:59:47.000Z</time>
      </trkpt>
      <trkpt lat="45.0879" lon="0.61005">
        <ele>95</ele>
        <time>2014-09-04T13:59:53.000Z</time>
      </trkpt>
      <trkpt lat="45.08788" lon="0.60999">
        <ele>95</ele>
        <time>2014-09-04T13:59:54.000Z</time>
      </trkpt>
      <trkpt lat="45.08786" lon="0.60993">
        <ele>95</ele>
        <time>2014-09-04T13:59:55.000Z</time>
      </trkpt>
      <trkpt lat="45.08778" lon="0.60975">
        <ele>94.599998474121</ele>
        <time>2014-09-04T13:59:58.000Z</time>
      </trkpt>
      <trkpt lat="45.0876" lon="0.60929">
        <ele>94.599998474121</ele>
        <time>2014-09-04T14:00:06.000Z</time>
      </trkpt>
      <trkpt lat="45.08746" lon="0.60894">
        <ele>94.800003051758</ele>
        <time>2014-09-04T14:00:12.000Z</time>
      </trkpt>
      <trkpt lat="45.08721" lon="0.60831">
        <ele>94.599998474121</ele>
        <time>2014-09-04T14:00:23.000Z</time>
      </trkpt>
      <trkpt lat="45.0871" lon="0.60802">
        <ele>94.800003051758</ele>
        <time>2014-09-04T14:00:28.000Z</time>
      </trkpt>
      <trkpt lat="45.08701" lon="0.60779">
        <ele>94.599998474121</ele>
        <time>2014-09-04T14:00:32.000Z</time>
      </trkpt>
      <trkpt lat="45.08678" lon="0.60723">
        <ele>94.199996948242</ele>
        <time>2014-09-04T14:00:42.000Z</time>
      </trkpt>
      <trkpt lat="45.08659" lon="0.60673">
        <ele>94.199996948242</ele>
        <time>2014-09-04T14:00:51.000Z</time>
      </trkpt>
      <trkpt lat="45.08644" lon="0.60638">
        <ele>94</ele>
        <time>2014-09-04T14:00:58.000Z</time>
      </trkpt>
      <trkpt lat="45.08626" lon="0.60597">
        <ele>94</ele>
        <time>2014-09-04T14:01:06.000Z</time>
      </trkpt>
      <trkpt lat="45.08624" lon="0.60591">
        <ele>94</ele>
        <time>2014-09-04T14:01:07.000Z</time>
      </trkpt>
      <trkpt lat="45.0861" lon="0.60557">
        <ele>93.800003051758</ele>
        <time>2014-09-04T14:01:13.000Z</time>
      </trkpt>
      <trkpt lat="45.08597" lon="0.60511">
        <ele>93.599998474121</ele>
        <time>2014-09-04T14:01:20.000Z</time>
      </trkpt>
      <trkpt lat="45.08575" lon="0.60461">
        <ele>93</ele>
        <time>2014-09-04T14:01:29.000Z</time>
      </trkpt>
      <trkpt lat="45.08566" lon="0.6043">
        <ele>93</ele>
        <time>2014-09-04T14:01:36.000Z</time>
      </trkpt>
      <trkpt lat="45.08572" lon="0.60434">
        <ele>93</ele>
        <time>2014-09-04T14:01:38.000Z</time>
      </trkpt>
      <trkpt lat="45.08581" lon="0.6044">
        <ele>93.199996948242</ele>
        <time>2014-09-04T14:01:41.000Z</time>
      </trkpt>
      <trkpt lat="45.08591" lon="0.60447">
        <ele>93.400001525879</ele>
        <time>2014-09-04T14:01:45.000Z</time>
      </trkpt>
      <trkpt lat="45.08603" lon="0.60461">
        <ele>94</ele>
        <time>2014-09-04T14:01:51.000Z</time>
      </trkpt>
      <trkpt lat="45.08615" lon="0.60473">
        <ele>94.599998474121</ele>
        <time>2014-09-04T14:01:57.000Z</time>
      </trkpt>
      <trkpt lat="45.08619" lon="0.60476">
        <ele>95</ele>
        <time>2014-09-04T14:01:59.000Z</time>
      </trkpt>
      <trkpt lat="45.08632" lon="0.60481">
        <ele>95.800003051758</ele>
        <time>2014-09-04T14:02:05.000Z</time>
      </trkpt>
      <trkpt lat="45.08634" lon="0.60481">
        <ele>96</ele>
        <time>2014-09-04T14:02:06.000Z</time>
      </trkpt>
      <trkpt lat="45.08651" lon="0.60482">
        <ele>97</ele>
        <time>2014-09-04T14:02:14.000Z</time>
      </trkpt>
      <trkpt lat="45.08653" lon="0.60482">
        <ele>97</ele>
        <time>2014-09-04T14:02:15.000Z</time>
      </trkpt>
      <trkpt lat="45.08663" lon="0.60479">
        <ele>98.199996948242</ele>
        <time>2014-09-04T14:02:20.000Z</time>
      </trkpt>
      <trkpt lat="45.08667" lon="0.60478">
        <ele>98.599998474121</ele>
        <time>2014-09-04T14:02:22.000Z</time>
      </trkpt>
      <trkpt lat="45.08675" lon="0.60476">
        <ele>99.199996948242</ele>
        <time>2014-09-04T14:02:27.000Z</time>
      </trkpt>
      <trkpt lat="45.08678" lon="0.60475">
        <ele>100</ele>
        <time>2014-09-04T14:02:29.000Z</time>
      </trkpt>
      <trkpt lat="45.0868" lon="0.60476">
        <ele>100.40000152588</ele>
        <time>2014-09-04T14:02:30.000Z</time>
      </trkpt>
      <trkpt lat="45.08686" lon="0.60475">
        <ele>101.40000152588</ele>
        <time>2014-09-04T14:02:34.000Z</time>
      </trkpt>
      <trkpt lat="45.08694" lon="0.60473">
        <ele>102.59999847412</ele>
        <time>2014-09-04T14:02:39.000Z</time>
      </trkpt>
      <trkpt lat="45.08705" lon="0.60471">
        <ele>103.59999847412</ele>
        <time>2014-09-04T14:02:46.000Z</time>
      </trkpt>
      <trkpt lat="45.08713" lon="0.60469">
        <ele>104.80000305176</ele>
        <time>2014-09-04T14:02:51.000Z</time>
      </trkpt>
      <trkpt lat="45.08721" lon="0.60466">
        <ele>105.59999847412</ele>
        <time>2014-09-04T14:02:56.000Z</time>
      </trkpt>
      <trkpt lat="45.08725" lon="0.60466">
        <ele>105.80000305176</ele>
        <time>2014-09-04T14:02:58.000Z</time>
      </trkpt>
      <trkpt lat="45.08735" lon="0.60463">
        <ele>106.59999847412</ele>
        <time>2014-09-04T14:03:04.000Z</time>
      </trkpt>
      <trkpt lat="45.08739" lon="0.60461">
        <ele>107</ele>
        <time>2014-09-04T14:03:07.000Z</time>
      </trkpt>
      <trkpt lat="45.08744" lon="0.60455">
        <ele>107.40000152588</ele>
        <time>2014-09-04T14:03:11.000Z</time>
      </trkpt>
      <trkpt lat="45.08749" lon="0.6045">
        <ele>108</ele>
        <time>2014-09-04T14:03:15.000Z</time>
      </trkpt>
      <trkpt lat="45.08752" lon="0.60444">
        <ele>108.59999847412</ele>
        <time>2014-09-04T14:03:18.000Z</time>
      </trkpt>
      <trkpt lat="45.08754" lon="0.60439">
        <ele>109.19999694824</ele>
        <time>2014-09-04T14:03:21.000Z</time>
      </trkpt>
      <trkpt lat="45.08755" lon="0.60427">
        <ele>110</ele>
        <time>2014-09-04T14:03:26.000Z</time>
      </trkpt>
      <trkpt lat="45.08755" lon="0.60424">
        <ele>110.40000152588</ele>
        <time>2014-09-04T14:03:27.000Z</time>
      </trkpt>
      <trkpt lat="45.08756" lon="0.60414">
        <ele>111</ele>
        <time>2014-09-04T14:03:32.000Z</time>
      </trkpt>
      <trkpt lat="45.08757" lon="0.60409">
        <ele>111.40000152588</ele>
        <time>2014-09-04T14:03:34.000Z</time>
      </trkpt>
      <trkpt lat="45.08757" lon="0.60398">
        <ele>112.59999847412</ele>
        <time>2014-09-04T14:03:39.000Z</time>
      </trkpt>
      <trkpt lat="45.08757" lon="0.60388">
        <ele>113.59999847412</ele>
        <time>2014-09-04T14:03:42.000Z</time>
      </trkpt>
      <trkpt lat="45.08757" lon="0.60384">
        <ele>113.59999847412</ele>
        <time>2014-09-04T14:03:43.000Z</time>
      </trkpt>
      <trkpt lat="45.08756" lon="0.60371">
        <ele>114.80000305176</ele>
        <time>2014-09-04T14:03:48.000Z</time>
      </trkpt>
      <trkpt lat="45.08756" lon="0.60369">
        <ele>115</ele>
        <time>2014-09-04T14:03:49.000Z</time>
      </trkpt>
      <trkpt lat="45.08755" lon="0.60359">
        <ele>115.80000305176</ele>
        <time>2014-09-04T14:03:53.000Z</time>
      </trkpt>
      <trkpt lat="45.08755" lon="0.60345">
        <ele>116.80000305176</ele>
        <time>2014-09-04T14:03:58.000Z</time>
      </trkpt>
      <trkpt lat="45.08755" lon="0.60343">
        <ele>117</ele>
        <time>2014-09-04T14:03:59.000Z</time>
      </trkpt>
      <trkpt lat="45.08755" lon="0.60332">
        <ele>118.19999694824</ele>
        <time>2014-09-04T14:04:04.000Z</time>
      </trkpt>
      <trkpt lat="45.08755" lon="0.6033">
        <ele>118.40000152588</ele>
        <time>2014-09-04T14:04:05.000Z</time>
      </trkpt>
      <trkpt lat="45.08755" lon="0.60319">
        <ele>119.40000152588</ele>
        <time>2014-09-04T14:04:10.000Z</time>
      </trkpt>
      <trkpt lat="45.08755" lon="0.60315">
        <ele>119.80000305176</ele>
        <time>2014-09-04T14:04:12.000Z</time>
      </trkpt>
      <trkpt lat="45.08755" lon="0.60308">
        <ele>120.40000152588</ele>
        <time>2014-09-04T14:04:15.000Z</time>
      </trkpt>
      <trkpt lat="45.08756" lon="0.60302">
        <ele>121</ele>
        <time>2014-09-04T14:04:18.000Z</time>
      </trkpt>
      <trkpt lat="45.08755" lon="0.60292">
        <ele>121.59999847412</ele>
        <time>2014-09-04T14:04:23.000Z</time>
      </trkpt>
      <trkpt lat="45.08754" lon="0.60288">
        <ele>122</ele>
        <time>2014-09-04T14:04:25.000Z</time>
      </trkpt>
      <trkpt lat="45.08754" lon="0.60278">
        <ele>122.59999847412</ele>
        <time>2014-09-04T14:04:30.000Z</time>
      </trkpt>
      <trkpt lat="45.08754" lon="0.60268">
        <ele>123.19999694824</ele>
        <time>2014-09-04T14:04:34.000Z</time>
      </trkpt>
      <trkpt lat="45.08754" lon="0.60259">
        <ele>123.80000305176</ele>
        <time>2014-09-04T14:04:38.000Z</time>
      </trkpt>
      <trkpt lat="45.08754" lon="0.60235">
        <ele>125</ele>
        <time>2014-09-04T14:04:49.000Z</time>
      </trkpt>
      <trkpt lat="45.08754" lon="0.60211">
        <ele>125.59999847412</ele>
        <time>2014-09-04T14:04:56.000Z</time>
      </trkpt>
      <trkpt lat="45.08752" lon="0.60199">
        <ele>126</ele>
        <time>2014-09-04T14:05:00.000Z</time>
      </trkpt>
      <trkpt lat="45.08752" lon="0.60195">
        <ele>126.40000152588</ele>
        <time>2014-09-04T14:05:02.000Z</time>
      </trkpt>
      <trkpt lat="45.08748" lon="0.60178">
        <ele>127.19999694824</ele>
        <time>2014-09-04T14:05:09.000Z</time>
      </trkpt>
      <trkpt lat="45.08742" lon="0.60148">
        <ele>129</ele>
        <time>2014-09-04T14:05:23.000Z</time>
      </trkpt>
      <trkpt lat="45.08741" lon="0.60139">
        <ele>129.60000610352</ele>
        <time>2014-09-04T14:05:27.000Z</time>
      </trkpt>
      <trkpt lat="45.0874" lon="0.60129">
        <ele>129.80000305176</ele>
        <time>2014-09-04T14:05:30.000Z</time>
      </trkpt>
      <trkpt lat="45.08739" lon="0.60121">
        <ele>130.19999694824</ele>
        <time>2014-09-04T14:05:33.000Z</time>
      </trkpt>
      <trkpt lat="45.08736" lon="0.6011">
        <ele>130.80000305176</ele>
        <time>2014-09-04T14:05:38.000Z</time>
      </trkpt>
      <trkpt lat="45.08735" lon="0.60106">
        <ele>131.39999389648</ele>
        <time>2014-09-04T14:05:40.000Z</time>
      </trkpt>
      <trkpt lat="45.08732" lon="0.60092">
        <ele>132.60000610352</ele>
        <time>2014-09-04T14:05:47.000Z</time>
      </trkpt>
      <trkpt lat="45.08729" lon="0.60079">
        <ele>133.80000305176</ele>
        <time>2014-09-04T14:05:53.000Z</time>
      </trkpt>
      <trkpt lat="45.08728" lon="0.60074">
        <ele>134.39999389648</ele>
        <time>2014-09-04T14:05:55.000Z</time>
      </trkpt>
      <trkpt lat="45.08727" lon="0.60067">
        <ele>134.80000305176</ele>
        <time>2014-09-04T14:05:58.000Z</time>
      </trkpt>
      <trkpt lat="45.08726" lon="0.60056">
        <ele>135.80000305176</ele>
        <time>2014-09-04T14:06:02.000Z</time>
      </trkpt>
      <trkpt lat="45.08725" lon="0.60054">
        <ele>136</ele>
        <time>2014-09-04T14:06:03.000Z</time>
      </trkpt>
      <trkpt lat="45.08723" lon="0.60047">
        <ele>137</ele>
        <time>2014-09-04T14:06:06.000Z</time>
      </trkpt>
      <trkpt lat="45.08723" lon="0.60038">
        <ele>137.80000305176</ele>
        <time>2014-09-04T14:06:10.000Z</time>
      </trkpt>
      <trkpt lat="45.08722" lon="0.60035">
        <ele>138</ele>
        <time>2014-09-04T14:06:11.000Z</time>
      </trkpt>
      <trkpt lat="45.08721" lon="0.60023">
        <ele>139.19999694824</ele>
        <time>2014-09-04T14:06:17.000Z</time>
      </trkpt>
      <trkpt lat="45.0872" lon="0.60017">
        <ele>140</ele>
        <time>2014-09-04T14:06:20.000Z</time>
      </trkpt>
      <trkpt lat="45.08719" lon="0.60014">
        <ele>140.39999389648</ele>
        <time>2014-09-04T14:06:22.000Z</time>
      </trkpt>
      <trkpt lat="45.08718" lon="0.60005">
        <ele>141.39999389648</ele>
        <time>2014-09-04T14:06:27.000Z</time>
      </trkpt>
      <trkpt lat="45.08718" lon="0.60004">
        <ele>142</ele>
        <time>2014-09-04T14:06:28.000Z</time>
      </trkpt>
      <trkpt lat="45.08717" lon="0.59998">
        <ele>142.39999389648</ele>
        <time>2014-09-04T14:06:31.000Z</time>
      </trkpt>
      <trkpt lat="45.08716" lon="0.59996">
        <ele>142.60000610352</ele>
        <time>2014-09-04T14:06:33.000Z</time>
      </trkpt>
      <trkpt lat="45.08716" lon="0.59994">
        <ele>142.80000305176</ele>
        <time>2014-09-04T14:06:34.000Z</time>
      </trkpt>
      <trkpt lat="45.08715" lon="0.59984">
        <ele>143.60000610352</ele>
        <time>2014-09-04T14:06:39.000Z</time>
      </trkpt>
      <trkpt lat="45.08715" lon="0.5998">
        <ele>144.19999694824</ele>
        <time>2014-09-04T14:06:42.000Z</time>
      </trkpt>
      <trkpt lat="45.08714" lon="0.59974">
        <ele>144.60000610352</ele>
        <time>2014-09-04T14:06:45.000Z</time>
      </trkpt>
      <trkpt lat="45.08714" lon="0.59953">
        <ele>147.19999694824</ele>
        <time>2014-09-04T14:07:00.000Z</time>
      </trkpt>
      <trkpt lat="45.08717" lon="0.59908">
        <ele>152</ele>
        <time>2014-09-04T14:07:27.000Z</time>
      </trkpt>
      <trkpt lat="45.08717" lon="0.59898">
        <ele>152.60000610352</ele>
        <time>2014-09-04T14:07:30.000Z</time>
      </trkpt>
      <trkpt lat="45.08718" lon="0.59893">
        <ele>153</ele>
        <time>2014-09-04T14:07:32.000Z</time>
      </trkpt>
      <trkpt lat="45.0872" lon="0.59881">
        <ele>153.80000305176</ele>
        <time>2014-09-04T14:07:37.000Z</time>
      </trkpt>
      <trkpt lat="45.08721" lon="0.59876">
        <ele>154.19999694824</ele>
        <time>2014-09-04T14:07:39.000Z</time>
      </trkpt>
      <trkpt lat="45.08722" lon="0.5987">
        <ele>155</ele>
        <time>2014-09-04T14:07:43.000Z</time>
      </trkpt>
      <trkpt lat="45.08723" lon="0.59868">
        <ele>155.39999389648</ele>
        <time>2014-09-04T14:07:44.000Z</time>
      </trkpt>
      <trkpt lat="45.08723" lon="0.59867">
        <ele>155.60000610352</ele>
        <time>2014-09-04T14:07:45.000Z</time>
      </trkpt>
      <trkpt lat="45.08724" lon="0.5986">
        <ele>156.39999389648</ele>
        <time>2014-09-04T14:07:49.000Z</time>
      </trkpt>
      <trkpt lat="45.08725" lon="0.59837">
        <ele>159</ele>
        <time>2014-09-04T14:08:03.000Z</time>
      </trkpt>
      <trkpt lat="45.08725" lon="0.59833">
        <ele>159.60000610352</ele>
        <time>2014-09-04T14:08:05.000Z</time>
      </trkpt>
      <trkpt lat="45.08725" lon="0.59828">
        <ele>160</ele>
        <time>2014-09-04T14:08:08.000Z</time>
      </trkpt>
      <trkpt lat="45.08726" lon="0.59823">
        <ele>160.39999389648</ele>
        <time>2014-09-04T14:08:11.000Z</time>
      </trkpt>
      <trkpt lat="45.08727" lon="0.59819">
        <ele>161</ele>
        <time>2014-09-04T14:08:14.000Z</time>
      </trkpt>
      <trkpt lat="45.08727" lon="0.59815">
        <ele>161.39999389648</ele>
        <time>2014-09-04T14:08:17.000Z</time>
      </trkpt>
      <trkpt lat="45.08728" lon="0.5981">
        <ele>162</ele>
        <time>2014-09-04T14:08:20.000Z</time>
      </trkpt>
      <trkpt lat="45.0873" lon="0.59799">
        <ele>163.19999694824</ele>
        <time>2014-09-04T14:08:26.000Z</time>
      </trkpt>
      <trkpt lat="45.0873" lon="0.5979">
        <ele>164</ele>
        <time>2014-09-04T14:08:30.000Z</time>
      </trkpt>
      <trkpt lat="45.0873" lon="0.59788">
        <ele>164.19999694824</ele>
        <time>2014-09-04T14:08:31.000Z</time>
      </trkpt>
      <trkpt lat="45.0873" lon="0.59784">
        <ele>164.80000305176</ele>
        <time>2014-09-04T14:08:33.000Z</time>
      </trkpt>
      <trkpt lat="45.08732" lon="0.59779">
        <ele>165.60000610352</ele>
        <time>2014-09-04T14:08:37.000Z</time>
      </trkpt>
      <trkpt lat="45.08734" lon="0.59772">
        <ele>166.19999694824</ele>
        <time>2014-09-04T14:08:41.000Z</time>
      </trkpt>
      <trkpt lat="45.08736" lon="0.59765">
        <ele>166.60000610352</ele>
        <time>2014-09-04T14:08:44.000Z</time>
      </trkpt>
      <trkpt lat="45.08737" lon="0.59758">
        <ele>167.39999389648</ele>
        <time>2014-09-04T14:08:48.000Z</time>
      </trkpt>
      <trkpt lat="45.08737" lon="0.59754">
        <ele>167.80000305176</ele>
        <time>2014-09-04T14:08:51.000Z</time>
      </trkpt>
      <trkpt lat="45.08739" lon="0.59746">
        <ele>169</ele>
        <time>2014-09-04T14:08:56.000Z</time>
      </trkpt>
      <trkpt lat="45.08739" lon="0.59742">
        <ele>169.39999389648</ele>
        <time>2014-09-04T14:08:58.000Z</time>
      </trkpt>
      <trkpt lat="45.08739" lon="0.59732">
        <ele>170.19999694824</ele>
        <time>2014-09-04T14:09:03.000Z</time>
      </trkpt>
      <trkpt lat="45.08738" lon="0.59725">
        <ele>170.80000305176</ele>
        <time>2014-09-04T14:09:07.000Z</time>
      </trkpt>
      <trkpt lat="45.08738" lon="0.59723">
        <ele>171</ele>
        <time>2014-09-04T14:09:08.000Z</time>
      </trkpt>
      <trkpt lat="45.08738" lon="0.5972">
        <ele>171.39999389648</ele>
        <time>2014-09-04T14:09:09.000Z</time>
      </trkpt>
      <trkpt lat="45.08739" lon="0.59708">
        <ele>172.19999694824</ele>
        <time>2014-09-04T14:09:15.000Z</time>
      </trkpt>
      <trkpt lat="45.0874" lon="0.59707">
        <ele>172.39999389648</ele>
        <time>2014-09-04T14:09:16.000Z</time>
      </trkpt>
      <trkpt lat="45.0874" lon="0.59702">
        <ele>173</ele>
        <time>2014-09-04T14:09:19.000Z</time>
      </trkpt>
      <trkpt lat="45.0874" lon="0.59697">
        <ele>173.39999389648</ele>
        <time>2014-09-04T14:09:22.000Z</time>
      </trkpt>
      <trkpt lat="45.08741" lon="0.59695">
        <ele>173.60000610352</ele>
        <time>2014-09-04T14:09:23.000Z</time>
      </trkpt>
      <trkpt lat="45.08743" lon="0.59685">
        <ele>174.60000610352</ele>
        <time>2014-09-04T14:09:28.000Z</time>
      </trkpt>
      <trkpt lat="45.08744" lon="0.59678">
        <ele>175.19999694824</ele>
        <time>2014-09-04T14:09:31.000Z</time>
      </trkpt>
      <trkpt lat="45.08746" lon="0.59667">
        <ele>175.60000610352</ele>
        <time>2014-09-04T14:09:36.000Z</time>
      </trkpt>
      <trkpt lat="45.08747" lon="0.59657">
        <ele>176.39999389648</ele>
        <time>2014-09-04T14:09:42.000Z</time>
      </trkpt>
      <trkpt lat="45.08748" lon="0.59655">
        <ele>176.60000610352</ele>
        <time>2014-09-04T14:09:43.000Z</time>
      </trkpt>
      <trkpt lat="45.08752" lon="0.59643">
        <ele>177.60000610352</ele>
        <time>2014-09-04T14:09:51.000Z</time>
      </trkpt>
      <trkpt lat="45.08754" lon="0.59632">
        <ele>178.39999389648</ele>
        <time>2014-09-04T14:09:57.000Z</time>
      </trkpt>
      <trkpt lat="45.08755" lon="0.59629">
        <ele>178.80000305176</ele>
        <time>2014-09-04T14:09:59.000Z</time>
      </trkpt>
      <trkpt lat="45.08758" lon="0.59621">
        <ele>179.19999694824</ele>
        <time>2014-09-04T14:10:04.000Z</time>
      </trkpt>
      <trkpt lat="45.08759" lon="0.59617">
        <ele>179.80000305176</ele>
        <time>2014-09-04T14:10:06.000Z</time>
      </trkpt>
      <trkpt lat="45.08763" lon="0.59599">
        <ele>180.80000305176</ele>
        <time>2014-09-04T14:10:13.000Z</time>
      </trkpt>
      <trkpt lat="45.08763" lon="0.59597">
        <ele>181</ele>
        <time>2014-09-04T14:10:14.000Z</time>
      </trkpt>
      <trkpt lat="45.08764" lon="0.59595">
        <ele>181.19999694824</ele>
        <time>2014-09-04T14:10:15.000Z</time>
      </trkpt>
      <trkpt lat="45.08763" lon="0.59589">
        <ele>181.60000610352</ele>
        <time>2014-09-04T14:10:18.000Z</time>
      </trkpt>
      <trkpt lat="45.08762" lon="0.59587">
        <ele>181.80000305176</ele>
        <time>2014-09-04T14:10:19.000Z</time>
      </trkpt>
      <trkpt lat="45.08761" lon="0.59586">
        <ele>182</ele>
        <time>2014-09-04T14:10:20.000Z</time>
      </trkpt>
      <trkpt lat="45.08758" lon="0.59587">
        <ele>182.19999694824</ele>
        <time>2014-09-04T14:10:24.000Z</time>
      </trkpt>
      <trkpt lat="45.08755" lon="0.59599">
        <ele>181.80000305176</ele>
        <time>2014-09-04T14:10:31.000Z</time>
      </trkpt>
      <trkpt lat="45.08748" lon="0.59617">
        <ele>181.19999694824</ele>
        <time>2014-09-04T14:10:36.000Z</time>
      </trkpt>
      <trkpt lat="45.08746" lon="0.59622">
        <ele>180.80000305176</ele>
        <time>2014-09-04T14:10:37.000Z</time>
      </trkpt>
      <trkpt lat="45.08739" lon="0.59647">
        <ele>179.60000610352</ele>
        <time>2014-09-04T14:10:41.000Z</time>
      </trkpt>
      <trkpt lat="45.08734" lon="0.59664">
        <ele>178.60000610352</ele>
        <time>2014-09-04T14:10:43.000Z</time>
      </trkpt>
      <trkpt lat="45.08727" lon="0.5968">
        <ele>176.80000305176</ele>
        <time>2014-09-04T14:10:45.000Z</time>
      </trkpt>
      <trkpt lat="45.08722" lon="0.59686">
        <ele>176</ele>
        <time>2014-09-04T14:10:46.000Z</time>
      </trkpt>
      <trkpt lat="45.08717" lon="0.5969">
        <ele>175.60000610352</ele>
        <time>2014-09-04T14:10:47.000Z</time>
      </trkpt>
      <trkpt lat="45.08706" lon="0.59686">
        <ele>175.39999389648</ele>
        <time>2014-09-04T14:10:49.000Z</time>
      </trkpt>
      <trkpt lat="45.08701" lon="0.59683">
        <ele>175.60000610352</ele>
        <time>2014-09-04T14:10:50.000Z</time>
      </trkpt>
      <trkpt lat="45.08697" lon="0.59679">
        <ele>175.80000305176</ele>
        <time>2014-09-04T14:10:51.000Z</time>
      </trkpt>
      <trkpt lat="45.08688" lon="0.59677">
        <ele>175.80000305176</ele>
        <time>2014-09-04T14:10:53.000Z</time>
      </trkpt>
      <trkpt lat="45.08676" lon="0.59689">
        <ele>174.80000305176</ele>
        <time>2014-09-04T14:10:56.000Z</time>
      </trkpt>
      <trkpt lat="45.0867" lon="0.59693">
        <ele>174.39999389648</ele>
        <time>2014-09-04T14:10:57.000Z</time>
      </trkpt>
      <trkpt lat="45.08657" lon="0.59693">
        <ele>173.19999694824</ele>
        <time>2014-09-04T14:10:59.000Z</time>
      </trkpt>
      <trkpt lat="45.08638" lon="0.59678">
        <ele>172</ele>
        <time>2014-09-04T14:11:02.000Z</time>
      </trkpt>
      <trkpt lat="45.08627" lon="0.59676">
        <ele>170.80000305176</ele>
        <time>2014-09-04T14:11:04.000Z</time>
      </trkpt>
      <trkpt lat="45.08623" lon="0.59678">
        <ele>170</ele>
        <time>2014-09-04T14:11:05.000Z</time>
      </trkpt>
      <trkpt lat="45.0862" lon="0.59683">
        <ele>169.19999694824</ele>
        <time>2014-09-04T14:11:06.000Z</time>
      </trkpt>
      <trkpt lat="45.08619" lon="0.5969">
        <ele>168.39999389648</ele>
        <time>2014-09-04T14:11:07.000Z</time>
      </trkpt>
      <trkpt lat="45.08619" lon="0.59698">
        <ele>167.60000610352</ele>
        <time>2014-09-04T14:11:08.000Z</time>
      </trkpt>
      <trkpt lat="45.08619" lon="0.59707">
        <ele>166.80000305176</ele>
        <time>2014-09-04T14:11:09.000Z</time>
      </trkpt>
      <trkpt lat="45.0862" lon="0.59718">
        <ele>166</ele>
        <time>2014-09-04T14:11:10.000Z</time>
      </trkpt>
      <trkpt lat="45.08621" lon="0.5973">
        <ele>165</ele>
        <time>2014-09-04T14:11:11.000Z</time>
      </trkpt>
      <trkpt lat="45.08623" lon="0.59741">
        <ele>164.19999694824</ele>
        <time>2014-09-04T14:11:12.000Z</time>
      </trkpt>
      <trkpt lat="45.08628" lon="0.59763">
        <ele>163</ele>
        <time>2014-09-04T14:11:14.000Z</time>
      </trkpt>
      <trkpt lat="45.08631" lon="0.59773">
        <ele>162.39999389648</ele>
        <time>2014-09-04T14:11:15.000Z</time>
      </trkpt>
      <trkpt lat="45.08635" lon="0.59783">
        <ele>162</ele>
        <time>2014-09-04T14:11:16.000Z</time>
      </trkpt>
      <trkpt lat="45.08639" lon="0.59793">
        <ele>160.80000305176</ele>
        <time>2014-09-04T14:11:17.000Z</time>
      </trkpt>
      <trkpt lat="45.0865" lon="0.59813">
        <ele>159.19999694824</ele>
        <time>2014-09-04T14:11:19.000Z</time>
      </trkpt>
      <trkpt lat="45.08657" lon="0.59823">
        <ele>158.19999694824</ele>
        <time>2014-09-04T14:11:20.000Z</time>
      </trkpt>
      <trkpt lat="45.08665" lon="0.59832">
        <ele>157.60000610352</ele>
        <time>2014-09-04T14:11:21.000Z</time>
      </trkpt>
      <trkpt lat="45.08678" lon="0.59849">
        <ele>156</ele>
        <time>2014-09-04T14:11:23.000Z</time>
      </trkpt>
      <trkpt lat="45.08692" lon="0.59868">
        <ele>154.60000610352</ele>
        <time>2014-09-04T14:11:25.000Z</time>
      </trkpt>
      <trkpt lat="45.08704" lon="0.59884">
        <ele>153.39999389648</ele>
        <time>2014-09-04T14:11:27.000Z</time>
      </trkpt>
      <trkpt lat="45.08708" lon="0.59891">
        <ele>152.60000610352</ele>
        <time>2014-09-04T14:11:28.000Z</time>
      </trkpt>
      <trkpt lat="45.0871" lon="0.59898">
        <ele>152</ele>
        <time>2014-09-04T14:11:29.000Z</time>
      </trkpt>
      <trkpt lat="45.08707" lon="0.59912">
        <ele>151.19999694824</ele>
        <time>2014-09-04T14:11:31.000Z</time>
      </trkpt>
      <trkpt lat="45.08703" lon="0.59916">
        <ele>150.60000610352</ele>
        <time>2014-09-04T14:11:32.000Z</time>
      </trkpt>
      <trkpt lat="45.08697" lon="0.59913">
        <ele>149.39999389648</ele>
        <time>2014-09-04T14:11:34.000Z</time>
      </trkpt>
      <trkpt lat="45.08688" lon="0.599">
        <ele>147.80000305176</ele>
        <time>2014-09-04T14:11:36.000Z</time>
      </trkpt>
      <trkpt lat="45.08679" lon="0.59893">
        <ele>147.19999694824</ele>
        <time>2014-09-04T14:11:37.000Z</time>
      </trkpt>
      <trkpt lat="45.08669" lon="0.59886">
        <ele>146.39999389648</ele>
        <time>2014-09-04T14:11:38.000Z</time>
      </trkpt>
      <trkpt lat="45.0864" lon="0.5987">
        <ele>145</ele>
        <time>2014-09-04T14:11:40.000Z</time>
      </trkpt>
      <trkpt lat="45.08627" lon="0.59863">
        <ele>143.39999389648</ele>
        <time>2014-09-04T14:11:41.000Z</time>
      </trkpt>
      <trkpt lat="45.08602" lon="0.5985">
        <ele>141.60000610352</ele>
        <time>2014-09-04T14:11:43.000Z</time>
      </trkpt>
      <trkpt lat="45.0858" lon="0.59834">
        <ele>139.80000305176</ele>
        <time>2014-09-04T14:11:45.000Z</time>
      </trkpt>
      <trkpt lat="45.08569" lon="0.59823">
        <ele>138.80000305176</ele>
        <time>2014-09-04T14:11:46.000Z</time>
      </trkpt>
      <trkpt lat="45.08559" lon="0.59811">
        <ele>138</ele>
        <time>2014-09-04T14:11:47.000Z</time>
      </trkpt>
      <trkpt lat="45.08544" lon="0.59784">
        <ele>136.80000305176</ele>
        <time>2014-09-04T14:11:49.000Z</time>
      </trkpt>
      <trkpt lat="45.08529" lon="0.59756">
        <ele>135</ele>
        <time>2014-09-04T14:11:51.000Z</time>
      </trkpt>
      <trkpt lat="45.08512" lon="0.5973">
        <ele>133</ele>
        <time>2014-09-04T14:11:53.000Z</time>
      </trkpt>
      <trkpt lat="45.08494" lon="0.59706">
        <ele>131</ele>
        <time>2014-09-04T14:11:55.000Z</time>
      </trkpt>
      <trkpt lat="45.08477" lon="0.59679">
        <ele>129.19999694824</ele>
        <time>2014-09-04T14:11:57.000Z</time>
      </trkpt>
      <trkpt lat="45.08468" lon="0.59667">
        <ele>128.39999389648</ele>
        <time>2014-09-04T14:11:58.000Z</time>
      </trkpt>
      <trkpt lat="45.08459" lon="0.59656">
        <ele>127</ele>
        <time>2014-09-04T14:11:59.000Z</time>
      </trkpt>
      <trkpt lat="45.0845" lon="0.59646">
        <ele>125.59999847412</ele>
        <time>2014-09-04T14:12:00.000Z</time>
      </trkpt>
      <trkpt lat="45.08441" lon="0.59635">
        <ele>124.40000152588</ele>
        <time>2014-09-04T14:12:01.000Z</time>
      </trkpt>
      <trkpt lat="45.08427" lon="0.5961">
        <ele>122.59999847412</ele>
        <time>2014-09-04T14:12:03.000Z</time>
      </trkpt>
      <trkpt lat="45.08418" lon="0.59582">
        <ele>120.59999847412</ele>
        <time>2014-09-04T14:12:05.000Z</time>
      </trkpt>
      <trkpt lat="45.08415" lon="0.59567">
        <ele>119.80000305176</ele>
        <time>2014-09-04T14:12:06.000Z</time>
      </trkpt>
      <trkpt lat="45.08413" lon="0.59551">
        <ele>119.19999694824</ele>
        <time>2014-09-04T14:12:07.000Z</time>
      </trkpt>
      <trkpt lat="45.08416" lon="0.59516">
        <ele>117.19999694824</ele>
        <time>2014-09-04T14:12:09.000Z</time>
      </trkpt>
      <trkpt lat="45.08419" lon="0.59497">
        <ele>116.19999694824</ele>
        <time>2014-09-04T14:12:10.000Z</time>
      </trkpt>
      <trkpt lat="45.08428" lon="0.59463">
        <ele>114.80000305176</ele>
        <time>2014-09-04T14:12:12.000Z</time>
      </trkpt>
      <trkpt lat="45.08435" lon="0.59435">
        <ele>113.19999694824</ele>
        <time>2014-09-04T14:12:14.000Z</time>
      </trkpt>
      <trkpt lat="45.08437" lon="0.59407">
        <ele>111.59999847412</ele>
        <time>2014-09-04T14:12:16.000Z</time>
      </trkpt>
      <trkpt lat="45.08436" lon="0.59392">
        <ele>111</ele>
        <time>2014-09-04T14:12:17.000Z</time>
      </trkpt>
      <trkpt lat="45.08434" lon="0.59377">
        <ele>110.40000152588</ele>
        <time>2014-09-04T14:12:18.000Z</time>
      </trkpt>
      <trkpt lat="45.08431" lon="0.59346">
        <ele>108.59999847412</ele>
        <time>2014-09-04T14:12:20.000Z</time>
      </trkpt>
      <trkpt lat="45.08431" lon="0.59313">
        <ele>107</ele>
        <time>2014-09-04T14:12:22.000Z</time>
      </trkpt>
      <trkpt lat="45.0843" lon="0.59279">
        <ele>105.19999694824</ele>
        <time>2014-09-04T14:12:24.000Z</time>
      </trkpt>
      <trkpt lat="45.08428" lon="0.59249">
        <ele>103.19999694824</ele>
        <time>2014-09-04T14:12:26.000Z</time>
      </trkpt>
      <trkpt lat="45.08425" lon="0.59237">
        <ele>102</ele>
        <time>2014-09-04T14:12:27.000Z</time>
      </trkpt>
      <trkpt lat="45.08422" lon="0.59228">
        <ele>100.80000305176</ele>
        <time>2014-09-04T14:12:28.000Z</time>
      </trkpt>
      <trkpt lat="45.08416" lon="0.59223">
        <ele>99</ele>
        <time>2014-09-04T14:12:29.000Z</time>
      </trkpt>
      <trkpt lat="45.08402" lon="0.59221">
        <ele>97.199996948242</ele>
        <time>2014-09-04T14:12:31.000Z</time>
      </trkpt>
      <trkpt lat="45.08396" lon="0.59226">
        <ele>96.400001525879</ele>
        <time>2014-09-04T14:12:32.000Z</time>
      </trkpt>
      <trkpt lat="45.08391" lon="0.59235">
        <ele>95.599998474121</ele>
        <time>2014-09-04T14:12:33.000Z</time>
      </trkpt>
      <trkpt lat="45.08381" lon="0.59257">
        <ele>94</ele>
        <time>2014-09-04T14:12:35.000Z</time>
      </trkpt>
      <trkpt lat="45.08371" lon="0.59281">
        <ele>92.800003051758</ele>
        <time>2014-09-04T14:12:37.000Z</time>
      </trkpt>
      <trkpt lat="45.08366" lon="0.59291">
        <ele>92</ele>
        <time>2014-09-04T14:12:38.000Z</time>
      </trkpt>
      <trkpt lat="45.0836" lon="0.59299">
        <ele>91</ele>
        <time>2014-09-04T14:12:39.000Z</time>
      </trkpt>
      <trkpt lat="45.08345" lon="0.59307">
        <ele>90</ele>
        <time>2014-09-04T14:12:41.000Z</time>
      </trkpt>
      <trkpt lat="45.08328" lon="0.59308">
        <ele>89.800003051758</ele>
        <time>2014-09-04T14:12:43.000Z</time>
      </trkpt>
      <trkpt lat="45.08311" lon="0.59307">
        <ele>89</ele>
        <time>2014-09-04T14:12:45.000Z</time>
      </trkpt>
      <trkpt lat="45.08295" lon="0.59307">
        <ele>87.800003051758</ele>
        <time>2014-09-04T14:12:47.000Z</time>
      </trkpt>
      <trkpt lat="45.08283" lon="0.59307">
        <ele>87.199996948242</ele>
        <time>2014-09-04T14:12:49.000Z</time>
      </trkpt>
      <trkpt lat="45.08279" lon="0.59305">
        <ele>86.800003051758</ele>
        <time>2014-09-04T14:12:50.000Z</time>
      </trkpt>
      <trkpt lat="45.08273" lon="0.59295">
        <ele>86.199996948242</ele>
        <time>2014-09-04T14:12:52.000Z</time>
      </trkpt>
      <trkpt lat="45.08274" lon="0.59282">
        <ele>86.400001525879</ele>
        <time>2014-09-04T14:12:54.000Z</time>
      </trkpt>
      <trkpt lat="45.08275" lon="0.59276">
        <ele>86.199996948242</ele>
        <time>2014-09-04T14:12:55.000Z</time>
      </trkpt>
      <trkpt lat="45.08276" lon="0.59269">
        <ele>86.199996948242</ele>
        <time>2014-09-04T14:12:56.000Z</time>
      </trkpt>
      <trkpt lat="45.08279" lon="0.59237">
        <ele>86.199996948242</ele>
        <time>2014-09-04T14:13:01.000Z</time>
      </trkpt>
      <trkpt lat="45.08284" lon="0.59181">
        <ele>86</ele>
        <time>2014-09-04T14:13:10.000Z</time>
      </trkpt>
      <trkpt lat="45.08289" lon="0.59128">
        <ele>86</ele>
        <time>2014-09-04T14:13:19.000Z</time>
      </trkpt>
      <trkpt lat="45.0829" lon="0.59111">
        <ele>85.800003051758</ele>
        <time>2014-09-04T14:13:22.000Z</time>
      </trkpt>
      <trkpt lat="45.08291" lon="0.591">
        <ele>85.800003051758</ele>
        <time>2014-09-04T14:13:24.000Z</time>
      </trkpt>
      <trkpt lat="45.08292" lon="0.59088">
        <ele>85.800003051758</ele>
        <time>2014-09-04T14:13:26.000Z</time>
      </trkpt>
      <trkpt lat="45.08298" lon="0.59034">
        <ele>85.800003051758</ele>
        <time>2014-09-04T14:13:35.000Z</time>
      </trkpt>
      <trkpt lat="45.08304" lon="0.58967">
        <ele>86.400001525879</ele>
        <time>2014-09-04T14:13:46.000Z</time>
      </trkpt>
      <trkpt lat="45.0831" lon="0.58906">
        <ele>86</ele>
        <time>2014-09-04T14:13:56.000Z</time>
      </trkpt>
      <trkpt lat="45.08316" lon="0.5884">
        <ele>86.400001525879</ele>
        <time>2014-09-04T14:14:06.000Z</time>
      </trkpt>
      <trkpt lat="45.08322" lon="0.58772">
        <ele>86</ele>
        <time>2014-09-04T14:14:16.000Z</time>
      </trkpt>
      <trkpt lat="45.0833" lon="0.58714">
        <ele>86.599998474121</ele>
        <time>2014-09-04T14:14:25.000Z</time>
      </trkpt>
      <trkpt lat="45.08343" lon="0.58666">
        <ele>86.599998474121</ele>
        <time>2014-09-04T14:14:33.000Z</time>
      </trkpt>
      <trkpt lat="45.08363" lon="0.58631">
        <ele>86.800003051758</ele>
        <time>2014-09-04T14:14:40.000Z</time>
      </trkpt>
      <trkpt lat="45.08388" lon="0.58606">
        <ele>86.599998474121</ele>
        <time>2014-09-04T14:14:47.000Z</time>
      </trkpt>
      <trkpt lat="45.08415" lon="0.58583">
        <ele>87</ele>
        <time>2014-09-04T14:14:54.000Z</time>
      </trkpt>
      <trkpt lat="45.08423" lon="0.58577">
        <ele>86.800003051758</ele>
        <time>2014-09-04T14:14:56.000Z</time>
      </trkpt>
      <trkpt lat="45.08453" lon="0.58551">
        <ele>87.199996948242</ele>
        <time>2014-09-04T14:15:04.000Z</time>
      </trkpt>
      <trkpt lat="45.08467" lon="0.58541">
        <ele>87.599998474121</ele>
        <time>2014-09-04T14:15:08.000Z</time>
      </trkpt>
      <trkpt lat="45.0847" lon="0.58544">
        <ele>87.599998474121</ele>
        <time>2014-09-04T14:15:09.000Z</time>
      </trkpt>
      <trkpt lat="45.08475" lon="0.58554">
        <ele>88.199996948242</ele>
        <time>2014-09-04T14:15:11.000Z</time>
      </trkpt>
      <trkpt lat="45.08478" lon="0.58564">
        <ele>88.400001525879</ele>
        <time>2014-09-04T14:15:13.000Z</time>
      </trkpt>
      <trkpt lat="45.08484" lon="0.58601">
        <ele>88</ele>
        <time>2014-09-04T14:15:19.000Z</time>
      </trkpt>
      <trkpt lat="45.08485" lon="0.58613">
        <ele>87.800003051758</ele>
        <time>2014-09-04T14:15:21.000Z</time>
      </trkpt>
      <trkpt lat="45.08486" lon="0.58634">
        <ele>89.199996948242</ele>
        <time>2014-09-04T14:15:25.000Z</time>
      </trkpt>
      <trkpt lat="45.08487" lon="0.5864">
        <ele>89.400001525879</ele>
        <time>2014-09-04T14:15:26.000Z</time>
      </trkpt>
      <trkpt lat="45.0849" lon="0.58647">
        <ele>89.599998474121</ele>
        <time>2014-09-04T14:15:28.000Z</time>
      </trkpt>
      <trkpt lat="45.08493" lon="0.58649">
        <ele>89.800003051758</ele>
        <time>2014-09-04T14:15:29.000Z</time>
      </trkpt>
      <trkpt lat="45.08503" lon="0.58652">
        <ele>90.599998474121</ele>
        <time>2014-09-04T14:15:32.000Z</time>
      </trkpt>
      <trkpt lat="45.08512" lon="0.58653">
        <ele>91</ele>
        <time>2014-09-04T14:15:35.000Z</time>
      </trkpt>
      <trkpt lat="45.08522" lon="0.58653">
        <ele>91.599998474121</ele>
        <time>2014-09-04T14:15:38.000Z</time>
      </trkpt>
      <trkpt lat="45.08532" lon="0.58652">
        <ele>92.199996948242</ele>
        <time>2014-09-04T14:15:41.000Z</time>
      </trkpt>
      <trkpt lat="45.08543" lon="0.58652">
        <ele>92.599998474121</ele>
        <time>2014-09-04T14:15:44.000Z</time>
      </trkpt>
      <trkpt lat="45.0856" lon="0.58651">
        <ele>93</ele>
        <time>2014-09-04T14:15:49.000Z</time>
      </trkpt>
      <trkpt lat="45.08593" lon="0.58654">
        <ele>92.800003051758</ele>
        <time>2014-09-04T14:15:58.000Z</time>
      </trkpt>
      <trkpt lat="45.08621" lon="0.58659">
        <ele>92.199996948242</ele>
        <time>2014-09-04T14:16:05.000Z</time>
      </trkpt>
      <trkpt lat="45.08654" lon="0.58665">
        <ele>92</ele>
        <time>2014-09-04T14:16:13.000Z</time>
      </trkpt>
      <trkpt lat="45.08685" lon="0.58666">
        <ele>92</ele>
        <time>2014-09-04T14:16:20.000Z</time>
      </trkpt>
      <trkpt lat="45.08722" lon="0.58674">
        <ele>92.599998474121</ele>
        <time>2014-09-04T14:16:28.000Z</time>
      </trkpt>
      <trkpt lat="45.08761" lon="0.5868">
        <ele>92.400001525879</ele>
        <time>2014-09-04T14:16:38.000Z</time>
      </trkpt>
      <trkpt lat="45.08787" lon="0.58682">
        <ele>92.800003051758</ele>
        <time>2014-09-04T14:16:45.000Z</time>
      </trkpt>
      <trkpt lat="45.0881" lon="0.58687">
        <ele>93</ele>
        <time>2014-09-04T14:16:53.000Z</time>
      </trkpt>
      <trkpt lat="45.08839" lon="0.58691">
        <ele>93</ele>
        <time>2014-09-04T14:17:03.000Z</time>
      </trkpt>
      <trkpt lat="45.08851" lon="0.58696">
        <ele>93.199996948242</ele>
        <time>2014-09-04T14:17:08.000Z</time>
      </trkpt>
      <trkpt lat="45.08852" lon="0.58697">
        <ele>93.199996948242</ele>
        <time>2014-09-04T14:17:09.000Z</time>
      </trkpt>
      <trkpt lat="45.08853" lon="0.58699">
        <ele>93.400001525879</ele>
        <time>2014-09-04T14:17:10.000Z</time>
      </trkpt>
      <trkpt lat="45.08852" lon="0.58703">
        <ele>94</ele>
        <time>2014-09-04T14:17:12.000Z</time>
      </trkpt>
      <trkpt lat="45.08852" lon="0.58705">
        <ele>94</ele>
        <time>2014-09-04T14:17:13.000Z</time>
      </trkpt>
      <trkpt lat="45.0885" lon="0.58713">
        <ele>95</ele>
        <time>2014-09-04T14:17:17.000Z</time>
      </trkpt>
      <trkpt lat="45.08848" lon="0.58719">
        <ele>96.199996948242</ele>
        <time>2014-09-04T14:17:20.000Z</time>
      </trkpt>
      <trkpt lat="45.08845" lon="0.58729">
        <ele>97.199996948242</ele>
        <time>2014-09-04T14:17:25.000Z</time>
      </trkpt>
      <trkpt lat="45.08845" lon="0.58736">
        <ele>98.199996948242</ele>
        <time>2014-09-04T14:17:29.000Z</time>
      </trkpt>
      <trkpt lat="45.08842" lon="0.58746">
        <ele>99.400001525879</ele>
        <time>2014-09-04T14:17:35.000Z</time>
      </trkpt>
      <trkpt lat="45.0884" lon="0.58751">
        <ele>99.800003051758</ele>
        <time>2014-09-04T14:17:38.000Z</time>
      </trkpt>
      <trkpt lat="45.08838" lon="0.58757">
        <ele>100.80000305176</ele>
        <time>2014-09-04T14:17:42.000Z</time>
      </trkpt>
      <trkpt lat="45.08839" lon="0.58773">
        <ele>103.19999694824</ele>
        <time>2014-09-04T14:17:53.000Z</time>
      </trkpt>
      <trkpt lat="45.08839" lon="0.58774">
        <ele>103.40000152588</ele>
        <time>2014-09-04T14:17:54.000Z</time>
      </trkpt>
      <trkpt lat="45.0884" lon="0.58785">
        <ele>104.80000305176</ele>
        <time>2014-09-04T14:18:01.000Z</time>
      </trkpt>
      <trkpt lat="45.08841" lon="0.58788">
        <ele>105.40000152588</ele>
        <time>2014-09-04T14:18:03.000Z</time>
      </trkpt>
      <trkpt lat="45.08848" lon="0.58806">
        <ele>108.59999847412</ele>
        <time>2014-09-04T14:18:18.000Z</time>
      </trkpt>
      <trkpt lat="45.0885" lon="0.58808">
        <ele>108.59999847412</ele>
        <time>2014-09-04T14:18:19.000Z</time>
      </trkpt>
      <trkpt lat="45.08855" lon="0.58819">
        <ele>109.59999847412</ele>
        <time>2014-09-04T14:18:24.000Z</time>
      </trkpt>
      <trkpt lat="45.08856" lon="0.58822">
        <ele>109.80000305176</ele>
        <time>2014-09-04T14:18:26.000Z</time>
      </trkpt>
      <trkpt lat="45.08856" lon="0.58829">
        <ele>110.59999847412</ele>
        <time>2014-09-04T14:18:30.000Z</time>
      </trkpt>
      <trkpt lat="45.08856" lon="0.58835">
        <ele>111.40000152588</ele>
        <time>2014-09-04T14:18:34.000Z</time>
      </trkpt>
      <trkpt lat="45.08856" lon="0.58837">
        <ele>111.80000305176</ele>
        <time>2014-09-04T14:18:35.000Z</time>
      </trkpt>
      <trkpt lat="45.08855" lon="0.58846">
        <ele>113</ele>
        <time>2014-09-04T14:18:41.000Z</time>
      </trkpt>
      <trkpt lat="45.08854" lon="0.58847">
        <ele>113.19999694824</ele>
        <time>2014-09-04T14:18:42.000Z</time>
      </trkpt>
      <trkpt lat="45.08852" lon="0.58855">
        <ele>114</ele>
        <time>2014-09-04T14:18:48.000Z</time>
      </trkpt>
      <trkpt lat="45.08852" lon="0.58856">
        <ele>114.19999694824</ele>
        <time>2014-09-04T14:18:49.000Z</time>
      </trkpt>
      <trkpt lat="45.08851" lon="0.58862">
        <ele>115.40000152588</ele>
        <time>2014-09-04T14:18:54.000Z</time>
      </trkpt>
      <trkpt lat="45.0885" lon="0.58864">
        <ele>115.59999847412</ele>
        <time>2014-09-04T14:18:55.000Z</time>
      </trkpt>
      <trkpt lat="45.0885" lon="0.58865">
        <ele>115.80000305176</ele>
        <time>2014-09-04T14:18:56.000Z</time>
      </trkpt>
      <trkpt lat="45.08849" lon="0.58869">
        <ele>116.40000152588</ele>
        <time>2014-09-04T14:18:59.000Z</time>
      </trkpt>
      <trkpt lat="45.08844" lon="0.5888">
        <ele>118.19999694824</ele>
        <time>2014-09-04T14:19:08.000Z</time>
      </trkpt>
      <trkpt lat="45.08842" lon="0.58887">
        <ele>119.19999694824</ele>
        <time>2014-09-04T14:19:13.000Z</time>
      </trkpt>
      <trkpt lat="45.08842" lon="0.58892">
        <ele>119.80000305176</ele>
        <time>2014-09-04T14:19:16.000Z</time>
      </trkpt>
      <trkpt lat="45.08841" lon="0.58895">
        <ele>120.40000152588</ele>
        <time>2014-09-04T14:19:18.000Z</time>
      </trkpt>
      <trkpt lat="45.08839" lon="0.58901">
        <ele>121.19999694824</ele>
        <time>2014-09-04T14:19:22.000Z</time>
      </trkpt>
      <trkpt lat="45.08838" lon="0.58904">
        <ele>121.40000152588</ele>
        <time>2014-09-04T14:19:24.000Z</time>
      </trkpt>
      <trkpt lat="45.08836" lon="0.58907">
        <ele>121.80000305176</ele>
        <time>2014-09-04T14:19:26.000Z</time>
      </trkpt>
      <trkpt lat="45.08834" lon="0.58913">
        <ele>122.59999847412</ele>
        <time>2014-09-04T14:19:30.000Z</time>
      </trkpt>
      <trkpt lat="45.08824" lon="0.58967">
        <ele>130</ele>
        <time>2014-09-04T14:20:09.000Z</time>
      </trkpt>
      <trkpt lat="45.08819" lon="0.58979">
        <ele>132.19999694824</ele>
        <time>2014-09-04T14:20:19.000Z</time>
      </trkpt>
      <trkpt lat="45.08819" lon="0.58981">
        <ele>132.39999389648</ele>
        <time>2014-09-04T14:20:20.000Z</time>
      </trkpt>
      <trkpt lat="45.08809" lon="0.59008">
        <ele>136.60000610352</ele>
        <time>2014-09-04T14:20:41.000Z</time>
      </trkpt>
      <trkpt lat="45.08807" lon="0.59023">
        <ele>138.19999694824</ele>
        <time>2014-09-04T14:20:51.000Z</time>
      </trkpt>
      <trkpt lat="45.08806" lon="0.59033">
        <ele>139.39999389648</ele>
        <time>2014-09-04T14:20:57.000Z</time>
      </trkpt>
      <trkpt lat="45.08806" lon="0.59036">
        <ele>139.80000305176</ele>
        <time>2014-09-04T14:20:59.000Z</time>
      </trkpt>
      <trkpt lat="45.08804" lon="0.59044">
        <ele>140.39999389648</ele>
        <time>2014-09-04T14:21:04.000Z</time>
      </trkpt>
      <trkpt lat="45.08802" lon="0.59053">
        <ele>141.39999389648</ele>
        <time>2014-09-04T14:21:09.000Z</time>
      </trkpt>
      <trkpt lat="45.08802" lon="0.59055">
        <ele>141.60000610352</ele>
        <time>2014-09-04T14:21:10.000Z</time>
      </trkpt>
      <trkpt lat="45.08802" lon="0.59069">
        <ele>143.19999694824</ele>
        <time>2014-09-04T14:21:19.000Z</time>
      </trkpt>
      <trkpt lat="45.08802" lon="0.59073">
        <ele>143.39999389648</ele>
        <time>2014-09-04T14:21:21.000Z</time>
      </trkpt>
      <trkpt lat="45.08807" lon="0.59101">
        <ele>146.39999389648</ele>
        <time>2014-09-04T14:21:41.000Z</time>
      </trkpt>
      <trkpt lat="45.08808" lon="0.59105">
        <ele>146.60000610352</ele>
        <time>2014-09-04T14:21:43.000Z</time>
      </trkpt>
      <trkpt lat="45.0881" lon="0.59109">
        <ele>146.80000305176</ele>
        <time>2014-09-04T14:21:45.000Z</time>
      </trkpt>
      <trkpt lat="45.08813" lon="0.59116">
        <ele>147.39999389648</ele>
        <time>2014-09-04T14:21:49.000Z</time>
      </trkpt>
      <trkpt lat="45.08814" lon="0.59118">
        <ele>147.60000610352</ele>
        <time>2014-09-04T14:21:50.000Z</time>
      </trkpt>
      <trkpt lat="45.08819" lon="0.59131">
        <ele>148.80000305176</ele>
        <time>2014-09-04T14:21:58.000Z</time>
      </trkpt>
      <trkpt lat="45.08821" lon="0.59134">
        <ele>149</ele>
        <time>2014-09-04T14:22:00.000Z</time>
      </trkpt>
      <trkpt lat="45.08824" lon="0.59139">
        <ele>149.60000610352</ele>
        <time>2014-09-04T14:22:03.000Z</time>
      </trkpt>
      <trkpt lat="45.0884" lon="0.59169">
        <ele>152.60000610352</ele>
        <time>2014-09-04T14:22:23.000Z</time>
      </trkpt>
      <trkpt lat="45.08851" lon="0.59183">
        <ele>153.80000305176</ele>
        <time>2014-09-04T14:22:30.000Z</time>
      </trkpt>
      <trkpt lat="45.08853" lon="0.59185">
        <ele>154</ele>
        <time>2014-09-04T14:22:31.000Z</time>
      </trkpt>
      <trkpt lat="45.08863" lon="0.59196">
        <ele>155</ele>
        <time>2014-09-04T14:22:39.000Z</time>
      </trkpt>
      <trkpt lat="45.0887" lon="0.59202">
        <ele>155.80000305176</ele>
        <time>2014-09-04T14:22:44.000Z</time>
      </trkpt>
      <trkpt lat="45.0888" lon="0.59213">
        <ele>157.60000610352</ele>
        <time>2014-09-04T14:22:56.000Z</time>
      </trkpt>
      <trkpt lat="45.08884" lon="0.59217">
        <ele>158.39999389648</ele>
        <time>2014-09-04T14:23:00.000Z</time>
      </trkpt>
      <trkpt lat="45.08887" lon="0.5922">
        <ele>158.80000305176</ele>
        <time>2014-09-04T14:23:02.000Z</time>
      </trkpt>
      <trkpt lat="45.08888" lon="0.59221">
        <ele>159</ele>
        <time>2014-09-04T14:23:03.000Z</time>
      </trkpt>
      <trkpt lat="45.089" lon="0.59235">
        <ele>160.19999694824</ele>
        <time>2014-09-04T14:23:12.000Z</time>
      </trkpt>
      <trkpt lat="45.08908" lon="0.59246">
        <ele>161.39999389648</ele>
        <time>2014-09-04T14:23:18.000Z</time>
      </trkpt>
      <trkpt lat="45.08911" lon="0.59252">
        <ele>162</ele>
        <time>2014-09-04T14:23:21.000Z</time>
      </trkpt>
      <trkpt lat="45.08914" lon="0.59258">
        <ele>162.39999389648</ele>
        <time>2014-09-04T14:23:24.000Z</time>
      </trkpt>
      <trkpt lat="45.08915" lon="0.5926">
        <ele>162.60000610352</ele>
        <time>2014-09-04T14:23:25.000Z</time>
      </trkpt>
      <trkpt lat="45.0892" lon="0.5927">
        <ele>163.39999389648</ele>
        <time>2014-09-04T14:23:30.000Z</time>
      </trkpt>
      <trkpt lat="45.08924" lon="0.59277">
        <ele>164</ele>
        <time>2014-09-04T14:23:33.000Z</time>
      </trkpt>
      <trkpt lat="45.08927" lon="0.59286">
        <ele>164.39999389648</ele>
        <time>2014-09-04T14:23:37.000Z</time>
      </trkpt>
      <trkpt lat="45.0893" lon="0.59292">
        <ele>165</ele>
        <time>2014-09-04T14:23:40.000Z</time>
      </trkpt>
      <trkpt lat="45.0893" lon="0.59295">
        <ele>165.19999694824</ele>
        <time>2014-09-04T14:23:41.000Z</time>
      </trkpt>
      <trkpt lat="45.08931" lon="0.59297">
        <ele>165.60000610352</ele>
        <time>2014-09-04T14:23:42.000Z</time>
      </trkpt>
      <trkpt lat="45.08933" lon="0.59303">
        <ele>166</ele>
        <time>2014-09-04T14:23:45.000Z</time>
      </trkpt>
      <trkpt lat="45.08934" lon="0.5931">
        <ele>166.39999389648</ele>
        <time>2014-09-04T14:23:48.000Z</time>
      </trkpt>
      <trkpt lat="45.08934" lon="0.59312">
        <ele>166.60000610352</ele>
        <time>2014-09-04T14:23:49.000Z</time>
      </trkpt>
      <trkpt lat="45.08937" lon="0.59331">
        <ele>167.80000305176</ele>
        <time>2014-09-04T14:23:57.000Z</time>
      </trkpt>
      <trkpt lat="45.08937" lon="0.59352">
        <ele>168.80000305176</ele>
        <time>2014-09-04T14:24:04.000Z</time>
      </trkpt>
      <trkpt lat="45.08937" lon="0.59355">
        <ele>169</ele>
        <time>2014-09-04T14:24:05.000Z</time>
      </trkpt>
      <trkpt lat="45.08938" lon="0.59365">
        <ele>169.80000305176</ele>
        <time>2014-09-04T14:24:08.000Z</time>
      </trkpt>
      <trkpt lat="45.08939" lon="0.59377">
        <ele>170.19999694824</ele>
        <time>2014-09-04T14:24:11.000Z</time>
      </trkpt>
      <trkpt lat="45.08939" lon="0.59381">
        <ele>170.39999389648</ele>
        <time>2014-09-04T14:24:12.000Z</time>
      </trkpt>
      <trkpt lat="45.0894" lon="0.59392">
        <ele>170.80000305176</ele>
        <time>2014-09-04T14:24:15.000Z</time>
      </trkpt>
      <trkpt lat="45.08941" lon="0.59403">
        <ele>171.39999389648</ele>
        <time>2014-09-04T14:24:19.000Z</time>
      </trkpt>
      <trkpt lat="45.08941" lon="0.59411">
        <ele>171.80000305176</ele>
        <time>2014-09-04T14:24:24.000Z</time>
      </trkpt>
      <trkpt lat="45.08942" lon="0.59417">
        <ele>172.19999694824</ele>
        <time>2014-09-04T14:24:27.000Z</time>
      </trkpt>
      <trkpt lat="45.08945" lon="0.59432">
        <ele>172.80000305176</ele>
        <time>2014-09-04T14:24:34.000Z</time>
      </trkpt>
      <trkpt lat="45.08944" lon="0.59435">
        <ele>173</ele>
        <time>2014-09-04T14:24:35.000Z</time>
      </trkpt>
      <trkpt lat="45.08946" lon="0.59451">
        <ele>174</ele>
        <time>2014-09-04T14:24:41.000Z</time>
      </trkpt>
      <trkpt lat="45.08947" lon="0.59457">
        <ele>174.19999694824</ele>
        <time>2014-09-04T14:24:43.000Z</time>
      </trkpt>
      <trkpt lat="45.08952" lon="0.59471">
        <ele>175</ele>
        <time>2014-09-04T14:24:48.000Z</time>
      </trkpt>
      <trkpt lat="45.08954" lon="0.5948">
        <ele>175.39999389648</ele>
        <time>2014-09-04T14:24:52.000Z</time>
      </trkpt>
      <trkpt lat="45.08955" lon="0.59485">
        <ele>176</ele>
        <time>2014-09-04T14:24:55.000Z</time>
      </trkpt>
      <trkpt lat="45.08958" lon="0.59495">
        <ele>176.80000305176</ele>
        <time>2014-09-04T14:25:00.000Z</time>
      </trkpt>
      <trkpt lat="45.08958" lon="0.59498">
        <ele>177</ele>
        <time>2014-09-04T14:25:02.000Z</time>
      </trkpt>
      <trkpt lat="45.08962" lon="0.59509">
        <ele>177.80000305176</ele>
        <time>2014-09-04T14:25:08.000Z</time>
      </trkpt>
      <trkpt lat="45.08963" lon="0.59515">
        <ele>178.19999694824</ele>
        <time>2014-09-04T14:25:11.000Z</time>
      </trkpt>
      <trkpt lat="45.08967" lon="0.59529">
        <ele>179</ele>
        <time>2014-09-04T14:25:20.000Z</time>
      </trkpt>
      <trkpt lat="45.08968" lon="0.5953">
        <ele>179</ele>
        <time>2014-09-04T14:25:21.000Z</time>
      </trkpt>
      <trkpt lat="45.0897" lon="0.59532">
        <ele>179.19999694824</ele>
        <time>2014-09-04T14:25:22.000Z</time>
      </trkpt>
      <trkpt lat="45.08977" lon="0.5954">
        <ele>179.80000305176</ele>
        <time>2014-09-04T14:25:27.000Z</time>
      </trkpt>
      <trkpt lat="45.0898" lon="0.59543">
        <ele>180</ele>
        <time>2014-09-04T14:25:29.000Z</time>
      </trkpt>
      <trkpt lat="45.08982" lon="0.59544">
        <ele>180.19999694824</ele>
        <time>2014-09-04T14:25:30.000Z</time>
      </trkpt>
      <trkpt lat="45.08991" lon="0.59553">
        <ele>181</ele>
        <time>2014-09-04T14:25:36.000Z</time>
      </trkpt>
      <trkpt lat="45.08997" lon="0.59559">
        <ele>181.19999694824</ele>
        <time>2014-09-04T14:25:41.000Z</time>
      </trkpt>
      <trkpt lat="45.09" lon="0.59563">
        <ele>181.39999389648</ele>
        <time>2014-09-04T14:25:43.000Z</time>
      </trkpt>
      <trkpt lat="45.09007" lon="0.59574">
        <ele>182.39999389648</ele>
        <time>2014-09-04T14:25:48.000Z</time>
      </trkpt>
      <trkpt lat="45.09009" lon="0.59579">
        <ele>182.80000305176</ele>
        <time>2014-09-04T14:25:50.000Z</time>
      </trkpt>
      <trkpt lat="45.09015" lon="0.5959">
        <ele>183.19999694824</ele>
        <time>2014-09-04T14:25:54.000Z</time>
      </trkpt>
      <trkpt lat="45.09019" lon="0.59595">
        <ele>183.60000610352</ele>
        <time>2014-09-04T14:25:56.000Z</time>
      </trkpt>
      <trkpt lat="45.09033" lon="0.59615">
        <ele>184.39999389648</ele>
        <time>2014-09-04T14:26:04.000Z</time>
      </trkpt>
      <trkpt lat="45.09042" lon="0.59626">
        <ele>184.60000610352</ele>
        <time>2014-09-04T14:26:08.000Z</time>
      </trkpt>
      <trkpt lat="45.09048" lon="0.59635">
        <ele>184.60000610352</ele>
        <time>2014-09-04T14:26:11.000Z</time>
      </trkpt>
      <trkpt lat="45.09062" lon="0.5965">
        <ele>185</ele>
        <time>2014-09-04T14:26:17.000Z</time>
      </trkpt>
      <trkpt lat="45.09082" lon="0.59664">
        <ele>185</ele>
        <time>2014-09-04T14:26:24.000Z</time>
      </trkpt>
      <trkpt lat="45.09102" lon="0.59683">
        <ele>184.60000610352</ele>
        <time>2014-09-04T14:26:30.000Z</time>
      </trkpt>
      <trkpt lat="45.09122" lon="0.59704">
        <ele>183.60000610352</ele>
        <time>2014-09-04T14:26:35.000Z</time>
      </trkpt>
      <trkpt lat="45.0915" lon="0.5974">
        <ele>183.60000610352</ele>
        <time>2014-09-04T14:26:44.000Z</time>
      </trkpt>
      <trkpt lat="45.09179" lon="0.59775">
        <ele>183.80000305176</ele>
        <time>2014-09-04T14:26:53.000Z</time>
      </trkpt>
      <trkpt lat="45.09209" lon="0.59806">
        <ele>184.19999694824</ele>
        <time>2014-09-04T14:27:03.000Z</time>
      </trkpt>
      <trkpt lat="45.09232" lon="0.5983">
        <ele>183.60000610352</ele>
        <time>2014-09-04T14:27:11.000Z</time>
      </trkpt>
      <trkpt lat="45.09247" lon="0.59844">
        <ele>183</ele>
        <time>2014-09-04T14:27:15.000Z</time>
      </trkpt>
      <trkpt lat="45.09255" lon="0.59849">
        <ele>182.80000305176</ele>
        <time>2014-09-04T14:27:17.000Z</time>
      </trkpt>
      <trkpt lat="45.09264" lon="0.59855">
        <ele>182.39999389648</ele>
        <time>2014-09-04T14:27:19.000Z</time>
      </trkpt>
      <trkpt lat="45.09277" lon="0.59867">
        <ele>181.60000610352</ele>
        <time>2014-09-04T14:27:22.000Z</time>
      </trkpt>
      <trkpt lat="45.09281" lon="0.59872">
        <ele>181.39999389648</ele>
        <time>2014-09-04T14:27:23.000Z</time>
      </trkpt>
      <trkpt lat="45.09285" lon="0.59878">
        <ele>181.19999694824</ele>
        <time>2014-09-04T14:27:24.000Z</time>
      </trkpt>
      <trkpt lat="45.0929" lon="0.59882">
        <ele>181</ele>
        <time>2014-09-04T14:27:25.000Z</time>
      </trkpt>
      <trkpt lat="45.09301" lon="0.59891">
        <ele>180.19999694824</ele>
        <time>2014-09-04T14:27:27.000Z</time>
      </trkpt>
      <trkpt lat="45.09307" lon="0.59897">
        <ele>179.80000305176</ele>
        <time>2014-09-04T14:27:28.000Z</time>
      </trkpt>
      <trkpt lat="45.09319" lon="0.5991">
        <ele>179</ele>
        <time>2014-09-04T14:27:30.000Z</time>
      </trkpt>
      <trkpt lat="45.09332" lon="0.59926">
        <ele>177.19999694824</ele>
        <time>2014-09-04T14:27:32.000Z</time>
      </trkpt>
      <trkpt lat="45.09338" lon="0.59934">
        <ele>176.39999389648</ele>
        <time>2014-09-04T14:27:33.000Z</time>
      </trkpt>
      <trkpt lat="45.09345" lon="0.59943">
        <ele>175.60000610352</ele>
        <time>2014-09-04T14:27:34.000Z</time>
      </trkpt>
      <trkpt lat="45.09358" lon="0.59958">
        <ele>173.39999389648</ele>
        <time>2014-09-04T14:27:36.000Z</time>
      </trkpt>
      <trkpt lat="45.09366" lon="0.59965">
        <ele>172.19999694824</ele>
        <time>2014-09-04T14:27:37.000Z</time>
      </trkpt>
      <trkpt lat="45.09375" lon="0.59972">
        <ele>171</ele>
        <time>2014-09-04T14:27:38.000Z</time>
      </trkpt>
      <trkpt lat="45.09393" lon="0.59985">
        <ele>169.80000305176</ele>
        <time>2014-09-04T14:27:40.000Z</time>
      </trkpt>
      <trkpt lat="45.09409" lon="0.60002">
        <ele>168.80000305176</ele>
        <time>2014-09-04T14:27:42.000Z</time>
      </trkpt>
      <trkpt lat="45.09416" lon="0.6001">
        <ele>168.39999389648</ele>
        <time>2014-09-04T14:27:43.000Z</time>
      </trkpt>
      <trkpt lat="45.0944" lon="0.60045">
        <ele>167.80000305176</ele>
        <time>2014-09-04T14:27:47.000Z</time>
      </trkpt>
      <trkpt lat="45.09449" lon="0.60059">
        <ele>167.39999389648</ele>
        <time>2014-09-04T14:27:49.000Z</time>
      </trkpt>
      <trkpt lat="45.09456" lon="0.60071">
        <ele>167.60000610352</ele>
        <time>2014-09-04T14:27:51.000Z</time>
      </trkpt>
      <trkpt lat="45.09465" lon="0.60087">
        <ele>168.39999389648</ele>
        <time>2014-09-04T14:27:54.000Z</time>
      </trkpt>
      <trkpt lat="45.0947" lon="0.60095">
        <ele>168.80000305176</ele>
        <time>2014-09-04T14:27:56.000Z</time>
      </trkpt>
      <trkpt lat="45.09477" lon="0.60105">
        <ele>169.39999389648</ele>
        <time>2014-09-04T14:27:59.000Z</time>
      </trkpt>
      <trkpt lat="45.09485" lon="0.60118">
        <ele>170</ele>
        <time>2014-09-04T14:28:03.000Z</time>
      </trkpt>
      <trkpt lat="45.09489" lon="0.60124">
        <ele>170.39999389648</ele>
        <time>2014-09-04T14:28:05.000Z</time>
      </trkpt>
      <trkpt lat="45.09495" lon="0.60132">
        <ele>171.60000610352</ele>
        <time>2014-09-04T14:28:08.000Z</time>
      </trkpt>
      <trkpt lat="45.09505" lon="0.60146">
        <ele>172.60000610352</ele>
        <time>2014-09-04T14:28:13.000Z</time>
      </trkpt>
      <trkpt lat="45.09514" lon="0.60159">
        <ele>173.80000305176</ele>
        <time>2014-09-04T14:28:18.000Z</time>
      </trkpt>
      <trkpt lat="45.09521" lon="0.60168">
        <ele>174.60000610352</ele>
        <time>2014-09-04T14:28:22.000Z</time>
      </trkpt>
      <trkpt lat="45.09522" lon="0.6017">
        <ele>174.80000305176</ele>
        <time>2014-09-04T14:28:23.000Z</time>
      </trkpt>
      <trkpt lat="45.0953" lon="0.60179">
        <ele>175.80000305176</ele>
        <time>2014-09-04T14:28:28.000Z</time>
      </trkpt>
      <trkpt lat="45.09534" lon="0.60182">
        <ele>176.19999694824</ele>
        <time>2014-09-04T14:28:30.000Z</time>
      </trkpt>
      <trkpt lat="45.09537" lon="0.60186">
        <ele>176.80000305176</ele>
        <time>2014-09-04T14:28:32.000Z</time>
      </trkpt>
      <trkpt lat="45.09546" lon="0.60197">
        <ele>177.39999389648</ele>
        <time>2014-09-04T14:28:38.000Z</time>
      </trkpt>
      <trkpt lat="45.09551" lon="0.60201">
        <ele>178</ele>
        <time>2014-09-04T14:28:41.000Z</time>
      </trkpt>
      <trkpt lat="45.09556" lon="0.60208">
        <ele>179.19999694824</ele>
        <time>2014-09-04T14:28:45.000Z</time>
      </trkpt>
      <trkpt lat="45.09557" lon="0.6021">
        <ele>179.39999389648</ele>
        <time>2014-09-04T14:28:46.000Z</time>
      </trkpt>
      <trkpt lat="45.09562" lon="0.60218">
        <ele>180.39999389648</ele>
        <time>2014-09-04T14:28:50.000Z</time>
      </trkpt>
      <trkpt lat="45.09564" lon="0.60222">
        <ele>180.60000610352</ele>
        <time>2014-09-04T14:28:52.000Z</time>
      </trkpt>
      <trkpt lat="45.09568" lon="0.60233">
        <ele>181.39999389648</ele>
        <time>2014-09-04T14:28:57.000Z</time>
      </trkpt>
      <trkpt lat="45.09569" lon="0.60235">
        <ele>181.60000610352</ele>
        <time>2014-09-04T14:28:58.000Z</time>
      </trkpt>
      <trkpt lat="45.09575" lon="0.60248">
        <ele>182.39999389648</ele>
        <time>2014-09-04T14:29:04.000Z</time>
      </trkpt>
      <trkpt lat="45.09577" lon="0.60255">
        <ele>182.80000305176</ele>
        <time>2014-09-04T14:29:07.000Z</time>
      </trkpt>
      <trkpt lat="45.09581" lon="0.60267">
        <ele>183.60000610352</ele>
        <time>2014-09-04T14:29:13.000Z</time>
      </trkpt>
      <trkpt lat="45.09583" lon="0.60272">
        <ele>183.80000305176</ele>
        <time>2014-09-04T14:29:15.000Z</time>
      </trkpt>
      <trkpt lat="45.09588" lon="0.60292">
        <ele>184.60000610352</ele>
        <time>2014-09-04T14:29:22.000Z</time>
      </trkpt>
      <trkpt lat="45.09589" lon="0.60295">
        <ele>184.80000305176</ele>
        <time>2014-09-04T14:29:23.000Z</time>
      </trkpt>
      <trkpt lat="45.09595" lon="0.60316">
        <ele>185.19999694824</ele>
        <time>2014-09-04T14:29:30.000Z</time>
      </trkpt>
      <trkpt lat="45.09601" lon="0.60334">
        <ele>185.60000610352</ele>
        <time>2014-09-04T14:29:36.000Z</time>
      </trkpt>
      <trkpt lat="45.09603" lon="0.60339">
        <ele>186</ele>
        <time>2014-09-04T14:29:38.000Z</time>
      </trkpt>
      <trkpt lat="45.09612" lon="0.60356">
        <ele>186.60000610352</ele>
        <time>2014-09-04T14:29:45.000Z</time>
      </trkpt>
      <trkpt lat="45.09619" lon="0.60367">
        <ele>186.80000305176</ele>
        <time>2014-09-04T14:29:50.000Z</time>
      </trkpt>
      <trkpt lat="45.09624" lon="0.60373">
        <ele>187</ele>
        <time>2014-09-04T14:29:53.000Z</time>
      </trkpt>
      <trkpt lat="45.09629" lon="0.6038">
        <ele>187</ele>
        <time>2014-09-04T14:29:57.000Z</time>
      </trkpt>
      <trkpt lat="45.09636" lon="0.60396">
        <ele>187</ele>
        <time>2014-09-04T14:30:03.000Z</time>
      </trkpt>
      <trkpt lat="45.09647" lon="0.60418">
        <ele>187</ele>
        <time>2014-09-04T14:30:09.000Z</time>
      </trkpt>
      <trkpt lat="45.09661" lon="0.60451">
        <ele>187.39999389648</ele>
        <time>2014-09-04T14:30:17.000Z</time>
      </trkpt>
      <trkpt lat="45.09674" lon="0.60484">
        <ele>187.60000610352</ele>
        <time>2014-09-04T14:30:24.000Z</time>
      </trkpt>
      <trkpt lat="45.09678" lon="0.60509">
        <ele>187.80000305176</ele>
        <time>2014-09-04T14:30:29.000Z</time>
      </trkpt>
      <trkpt lat="45.09679" lon="0.60518">
        <ele>187.80000305176</ele>
        <time>2014-09-04T14:30:31.000Z</time>
      </trkpt>
      <trkpt lat="45.09681" lon="0.60557">
        <ele>188</ele>
        <time>2014-09-04T14:30:39.000Z</time>
      </trkpt>
      <trkpt lat="45.0968" lon="0.60579">
        <ele>188.19999694824</ele>
        <time>2014-09-04T14:30:44.000Z</time>
      </trkpt>
      <trkpt lat="45.09682" lon="0.60608">
        <ele>188.60000610352</ele>
        <time>2014-09-04T14:30:50.000Z</time>
      </trkpt>
      <trkpt lat="45.09684" lon="0.6064">
        <ele>188.80000305176</ele>
        <time>2014-09-04T14:30:57.000Z</time>
      </trkpt>
      <trkpt lat="45.09685" lon="0.60676">
        <ele>189.39999389648</ele>
        <time>2014-09-04T14:31:05.000Z</time>
      </trkpt>
      <trkpt lat="45.09687" lon="0.60711">
        <ele>189.80000305176</ele>
        <time>2014-09-04T14:31:13.000Z</time>
      </trkpt>
      <trkpt lat="45.09687" lon="0.60715">
        <ele>190</ele>
        <time>2014-09-04T14:31:14.000Z</time>
      </trkpt>
      <trkpt lat="45.0969" lon="0.60751">
        <ele>191</ele>
        <time>2014-09-04T14:31:22.000Z</time>
      </trkpt>
      <trkpt lat="45.0969" lon="0.60755">
        <ele>191</ele>
        <time>2014-09-04T14:31:23.000Z</time>
      </trkpt>
      <trkpt lat="45.09691" lon="0.60784">
        <ele>191.39999389648</ele>
        <time>2014-09-04T14:31:30.000Z</time>
      </trkpt>
      <trkpt lat="45.09693" lon="0.60813">
        <ele>192</ele>
        <time>2014-09-04T14:31:37.000Z</time>
      </trkpt>
      <trkpt lat="45.09698" lon="0.60846">
        <ele>192.80000305176</ele>
        <time>2014-09-04T14:31:45.000Z</time>
      </trkpt>
      <trkpt lat="45.09701" lon="0.60857">
        <ele>193.19999694824</ele>
        <time>2014-09-04T14:31:48.000Z</time>
      </trkpt>
      <trkpt lat="45.09705" lon="0.60872">
        <ele>193.39999389648</ele>
        <time>2014-09-04T14:31:52.000Z</time>
      </trkpt>
      <trkpt lat="45.09712" lon="0.60901">
        <ele>193.60000610352</ele>
        <time>2014-09-04T14:31:59.000Z</time>
      </trkpt>
      <trkpt lat="45.09721" lon="0.60932">
        <ele>193.60000610352</ele>
        <time>2014-09-04T14:32:06.000Z</time>
      </trkpt>
      <trkpt lat="45.09728" lon="0.60954">
        <ele>194.19999694824</ele>
        <time>2014-09-04T14:32:11.000Z</time>
      </trkpt>
      <trkpt lat="45.09736" lon="0.60973">
        <ele>194</ele>
        <time>2014-09-04T14:32:15.000Z</time>
      </trkpt>
      <trkpt lat="45.09754" lon="0.61017">
        <ele>193.39999389648</ele>
        <time>2014-09-04T14:32:23.000Z</time>
      </trkpt>
      <trkpt lat="45.09757" lon="0.61023">
        <ele>193.19999694824</ele>
        <time>2014-09-04T14:32:24.000Z</time>
      </trkpt>
      <trkpt lat="45.09764" lon="0.61041">
        <ele>192.80000305176</ele>
        <time>2014-09-04T14:32:27.000Z</time>
      </trkpt>
      <trkpt lat="45.0977" lon="0.61059">
        <ele>192.39999389648</ele>
        <time>2014-09-04T14:32:30.000Z</time>
      </trkpt>
      <trkpt lat="45.09774" lon="0.61069">
        <ele>192</ele>
        <time>2014-09-04T14:32:32.000Z</time>
      </trkpt>
      <trkpt lat="45.09777" lon="0.61094">
        <ele>191</ele>
        <time>2014-09-04T14:32:36.000Z</time>
      </trkpt>
      <trkpt lat="45.09777" lon="0.61101">
        <ele>190.80000305176</ele>
        <time>2014-09-04T14:32:37.000Z</time>
      </trkpt>
      <trkpt lat="45.09776" lon="0.61136">
        <ele>189.80000305176</ele>
        <time>2014-09-04T14:32:41.000Z</time>
      </trkpt>
      <trkpt lat="45.09776" lon="0.61145">
        <ele>189.39999389648</ele>
        <time>2014-09-04T14:32:42.000Z</time>
      </trkpt>
      <trkpt lat="45.09769" lon="0.61202">
        <ele>188.60000610352</ele>
        <time>2014-09-04T14:32:48.000Z</time>
      </trkpt>
      <trkpt lat="45.09756" lon="0.61253">
        <ele>187.80000305176</ele>
        <time>2014-09-04T14:32:54.000Z</time>
      </trkpt>
      <trkpt lat="45.09754" lon="0.61261">
        <ele>187.39999389648</ele>
        <time>2014-09-04T14:32:55.000Z</time>
      </trkpt>
      <trkpt lat="45.09748" lon="0.61286">
        <ele>186.19999694824</ele>
        <time>2014-09-04T14:32:58.000Z</time>
      </trkpt>
      <trkpt lat="45.09743" lon="0.61303">
        <ele>186</ele>
        <time>2014-09-04T14:33:00.000Z</time>
      </trkpt>
      <trkpt lat="45.09739" lon="0.61321">
        <ele>185.39999389648</ele>
        <time>2014-09-04T14:33:02.000Z</time>
      </trkpt>
      <trkpt lat="45.09738" lon="0.61329">
        <ele>185.19999694824</ele>
        <time>2014-09-04T14:33:03.000Z</time>
      </trkpt>
      <trkpt lat="45.09738" lon="0.61347">
        <ele>185</ele>
        <time>2014-09-04T14:33:05.000Z</time>
      </trkpt>
      <trkpt lat="45.09738" lon="0.61383">
        <ele>185</ele>
        <time>2014-09-04T14:33:10.000Z</time>
      </trkpt>
      <trkpt lat="45.09738" lon="0.61414">
        <ele>185.60000610352</ele>
        <time>2014-09-04T14:33:16.000Z</time>
      </trkpt>
      <trkpt lat="45.09743" lon="0.61434">
        <ele>186.19999694824</ele>
        <time>2014-09-04T14:33:21.000Z</time>
      </trkpt>
      <trkpt lat="45.09743" lon="0.61438">
        <ele>186</ele>
        <time>2014-09-04T14:33:22.000Z</time>
      </trkpt>
      <trkpt lat="45.09747" lon="0.61461">
        <ele>186.39999389648</ele>
        <time>2014-09-04T14:33:28.000Z</time>
      </trkpt>
      <trkpt lat="45.09749" lon="0.61483">
        <ele>186.19999694824</ele>
        <time>2014-09-04T14:33:34.000Z</time>
      </trkpt>
      <trkpt lat="45.09752" lon="0.61504">
        <ele>186.39999389648</ele>
        <time>2014-09-04T14:33:40.000Z</time>
      </trkpt>
      <trkpt lat="45.09755" lon="0.61527">
        <ele>187</ele>
        <time>2014-09-04T14:33:46.000Z</time>
      </trkpt>
      <trkpt lat="45.09757" lon="0.61539">
        <ele>187.19999694824</ele>
        <time>2014-09-04T14:33:49.000Z</time>
      </trkpt>
      <trkpt lat="45.09758" lon="0.61551">
        <ele>187.60000610352</ele>
        <time>2014-09-04T14:33:52.000Z</time>
      </trkpt>
      <trkpt lat="45.09761" lon="0.61575">
        <ele>188</ele>
        <time>2014-09-04T14:33:58.000Z</time>
      </trkpt>
      <trkpt lat="45.09769" lon="0.61598">
        <ele>188.19999694824</ele>
        <time>2014-09-04T14:34:03.000Z</time>
      </trkpt>
      <trkpt lat="45.09783" lon="0.6163">
        <ele>188.39999389648</ele>
        <time>2014-09-04T14:34:10.000Z</time>
      </trkpt>
      <trkpt lat="45.09798" lon="0.61661">
        <ele>188</ele>
        <time>2014-09-04T14:34:17.000Z</time>
      </trkpt>
      <trkpt lat="45.0981" lon="0.61682">
        <ele>187.19999694824</ele>
        <time>2014-09-04T14:34:21.000Z</time>
      </trkpt>
      <trkpt lat="45.09821" lon="0.61695">
        <ele>186.80000305176</ele>
        <time>2014-09-04T14:34:23.000Z</time>
      </trkpt>
      <trkpt lat="45.09845" lon="0.61729">
        <ele>186</ele>
        <time>2014-09-04T14:34:29.000Z</time>
      </trkpt>
      <trkpt lat="45.09869" lon="0.61766">
        <ele>185.39999389648</ele>
        <time>2014-09-04T14:34:36.000Z</time>
      </trkpt>
      <trkpt lat="45.09891" lon="0.61808">
        <ele>185.39999389648</ele>
        <time>2014-09-04T14:34:43.000Z</time>
      </trkpt>
      <trkpt lat="45.09893" lon="0.61814">
        <ele>185.60000610352</ele>
        <time>2014-09-04T14:34:44.000Z</time>
      </trkpt>
      <trkpt lat="45.09908" lon="0.61842">
        <ele>185.60000610352</ele>
        <time>2014-09-04T14:34:49.000Z</time>
      </trkpt>
      <trkpt lat="45.09916" lon="0.61858">
        <ele>185.80000305176</ele>
        <time>2014-09-04T14:34:52.000Z</time>
      </trkpt>
      <trkpt lat="45.09922" lon="0.61868">
        <ele>185.80000305176</ele>
        <time>2014-09-04T14:34:54.000Z</time>
      </trkpt>
      <trkpt lat="45.09931" lon="0.61881">
        <ele>186.19999694824</ele>
        <time>2014-09-04T14:34:57.000Z</time>
      </trkpt>
      <trkpt lat="45.09942" lon="0.61898">
        <ele>186.80000305176</ele>
        <time>2014-09-04T14:35:01.000Z</time>
      </trkpt>
      <trkpt lat="45.09947" lon="0.61906">
        <ele>187</ele>
        <time>2014-09-04T14:35:03.000Z</time>
      </trkpt>
      <trkpt lat="45.09968" lon="0.61935">
        <ele>187.39999389648</ele>
        <time>2014-09-04T14:35:11.000Z</time>
      </trkpt>
      <trkpt lat="45.0998" lon="0.61958">
        <ele>188</ele>
        <time>2014-09-04T14:35:17.000Z</time>
      </trkpt>
      <trkpt lat="45.09982" lon="0.61967">
        <ele>188</ele>
        <time>2014-09-04T14:35:19.000Z</time>
      </trkpt>
      <trkpt lat="45.09988" lon="0.61997">
        <ele>188.60000610352</ele>
        <time>2014-09-04T14:35:25.000Z</time>
      </trkpt>
      <trkpt lat="45.09991" lon="0.62009">
        <ele>188.39999389648</ele>
        <time>2014-09-04T14:35:27.000Z</time>
      </trkpt>
      <trkpt lat="45.09993" lon="0.62027">
        <ele>188.39999389648</ele>
        <time>2014-09-04T14:35:30.000Z</time>
      </trkpt>
      <trkpt lat="45.09998" lon="0.62045">
        <ele>188.19999694824</ele>
        <time>2014-09-04T14:35:33.000Z</time>
      </trkpt>
      <trkpt lat="45.10006" lon="0.62061">
        <ele>188</ele>
        <time>2014-09-04T14:35:36.000Z</time>
      </trkpt>
      <trkpt lat="45.10019" lon="0.6209">
        <ele>187</ele>
        <time>2014-09-04T14:35:41.000Z</time>
      </trkpt>
      <trkpt lat="45.10024" lon="0.62103">
        <ele>186.60000610352</ele>
        <time>2014-09-04T14:35:43.000Z</time>
      </trkpt>
      <trkpt lat="45.10027" lon="0.62109">
        <ele>186.19999694824</ele>
        <time>2014-09-04T14:35:44.000Z</time>
      </trkpt>
      <trkpt lat="45.10036" lon="0.62118">
        <ele>186</ele>
        <time>2014-09-04T14:35:46.000Z</time>
      </trkpt>
      <trkpt lat="45.10039" lon="0.6212">
        <ele>185.80000305176</ele>
        <time>2014-09-04T14:35:47.000Z</time>
      </trkpt>
      <trkpt lat="45.10043" lon="0.62123">
        <ele>186</ele>
        <time>2014-09-04T14:35:48.000Z</time>
      </trkpt>
      <trkpt lat="45.1006" lon="0.62133">
        <ele>187</ele>
        <time>2014-09-04T14:35:53.000Z</time>
      </trkpt>
      <trkpt lat="45.10063" lon="0.62136">
        <ele>187.19999694824</ele>
        <time>2014-09-04T14:35:54.000Z</time>
      </trkpt>
      <trkpt lat="45.10086" lon="0.62151">
        <ele>188</ele>
        <time>2014-09-04T14:36:01.000Z</time>
      </trkpt>
      <trkpt lat="45.10089" lon="0.62154">
        <ele>188</ele>
        <time>2014-09-04T14:36:02.000Z</time>
      </trkpt>
      <trkpt lat="45.10107" lon="0.62167">
        <ele>189.19999694824</ele>
        <time>2014-09-04T14:36:08.000Z</time>
      </trkpt>
      <trkpt lat="45.1011" lon="0.62169">
        <ele>189.39999389648</ele>
        <time>2014-09-04T14:36:09.000Z</time>
      </trkpt>
      <trkpt lat="45.10134" lon="0.62186">
        <ele>190.19999694824</ele>
        <time>2014-09-04T14:36:16.000Z</time>
      </trkpt>
      <trkpt lat="45.10156" lon="0.62203">
        <ele>191.19999694824</ele>
        <time>2014-09-04T14:36:23.000Z</time>
      </trkpt>
      <trkpt lat="45.10181" lon="0.62221">
        <ele>192.19999694824</ele>
        <time>2014-09-04T14:36:31.000Z</time>
      </trkpt>
      <trkpt lat="45.10184" lon="0.62223">
        <ele>192.39999389648</ele>
        <time>2014-09-04T14:36:32.000Z</time>
      </trkpt>
      <trkpt lat="45.10206" lon="0.62234">
        <ele>193.60000610352</ele>
        <time>2014-09-04T14:36:39.000Z</time>
      </trkpt>
      <trkpt lat="45.10225" lon="0.62231">
        <ele>194.39999389648</ele>
        <time>2014-09-04T14:36:45.000Z</time>
      </trkpt>
      <trkpt lat="45.10234" lon="0.62232">
        <ele>194.80000305176</ele>
        <time>2014-09-04T14:36:48.000Z</time>
      </trkpt>
      <trkpt lat="45.10245" lon="0.62232">
        <ele>195.19999694824</ele>
        <time>2014-09-04T14:36:52.000Z</time>
      </trkpt>
      <trkpt lat="45.10255" lon="0.62233">
        <ele>195.80000305176</ele>
        <time>2014-09-04T14:36:56.000Z</time>
      </trkpt>
      <trkpt lat="45.10263" lon="0.62233">
        <ele>196.19999694824</ele>
        <time>2014-09-04T14:36:59.000Z</time>
      </trkpt>
      <trkpt lat="45.10275" lon="0.62229">
        <ele>196.80000305176</ele>
        <time>2014-09-04T14:37:05.000Z</time>
      </trkpt>
      <trkpt lat="45.10287" lon="0.62221">
        <ele>196.80000305176</ele>
        <time>2014-09-04T14:37:10.000Z</time>
      </trkpt>
      <trkpt lat="45.10293" lon="0.6222">
        <ele>197</ele>
        <time>2014-09-04T14:37:12.000Z</time>
      </trkpt>
      <trkpt lat="45.10313" lon="0.62216">
        <ele>197.39999389648</ele>
        <time>2014-09-04T14:37:19.000Z</time>
      </trkpt>
      <trkpt lat="45.10327" lon="0.62213">
        <ele>197.80000305176</ele>
        <time>2014-09-04T14:37:25.000Z</time>
      </trkpt>
      <trkpt lat="45.10329" lon="0.62211">
        <ele>198</ele>
        <time>2014-09-04T14:37:26.000Z</time>
      </trkpt>
      <trkpt lat="45.1034" lon="0.62207">
        <ele>197.80000305176</ele>
        <time>2014-09-04T14:37:30.000Z</time>
      </trkpt>
      <trkpt lat="45.10357" lon="0.62203">
        <ele>198.60000610352</ele>
        <time>2014-09-04T14:37:36.000Z</time>
      </trkpt>
      <trkpt lat="45.10373" lon="0.62197">
        <ele>199</ele>
        <time>2014-09-04T14:37:42.000Z</time>
      </trkpt>
      <trkpt lat="45.10392" lon="0.62201">
        <ele>199.19999694824</ele>
        <time>2014-09-04T14:37:48.000Z</time>
      </trkpt>
      <trkpt lat="45.1041" lon="0.62203">
        <ele>200</ele>
        <time>2014-09-04T14:37:54.000Z</time>
      </trkpt>
      <trkpt lat="45.10413" lon="0.62204">
        <ele>200</ele>
        <time>2014-09-04T14:37:55.000Z</time>
      </trkpt>
      <trkpt lat="45.10432" lon="0.62201">
        <ele>200.60000610352</ele>
        <time>2014-09-04T14:38:01.000Z</time>
      </trkpt>
      <trkpt lat="45.10447" lon="0.62196">
        <ele>201.19999694824</ele>
        <time>2014-09-04T14:38:06.000Z</time>
      </trkpt>
      <trkpt lat="45.10451" lon="0.62193">
        <ele>201.19999694824</ele>
        <time>2014-09-04T14:38:07.000Z</time>
      </trkpt>
      <trkpt lat="45.10457" lon="0.62177">
        <ele>201</ele>
        <time>2014-09-04T14:38:11.000Z</time>
      </trkpt>
      <trkpt lat="45.10465" lon="0.62155">
        <ele>200.80000305176</ele>
        <time>2014-09-04T14:38:16.000Z</time>
      </trkpt>
      <trkpt lat="45.10475" lon="0.62129">
        <ele>200.39999389648</ele>
        <time>2014-09-04T14:38:22.000Z</time>
      </trkpt>
      <trkpt lat="45.10491" lon="0.62099">
        <ele>200.19999694824</ele>
        <time>2014-09-04T14:38:29.000Z</time>
      </trkpt>
      <trkpt lat="45.105" lon="0.62087">
        <ele>199.60000610352</ele>
        <time>2014-09-04T14:38:32.000Z</time>
      </trkpt>
      <trkpt lat="45.10509" lon="0.62074">
        <ele>199.19999694824</ele>
        <time>2014-09-04T14:38:35.000Z</time>
      </trkpt>
      <trkpt lat="45.10512" lon="0.6207">
        <ele>199</ele>
        <time>2014-09-04T14:38:36.000Z</time>
      </trkpt>
      <trkpt lat="45.10526" lon="0.62051">
        <ele>198.60000610352</ele>
        <time>2014-09-04T14:38:41.000Z</time>
      </trkpt>
      <trkpt lat="45.10546" lon="0.62029">
        <ele>198</ele>
        <time>2014-09-04T14:38:47.000Z</time>
      </trkpt>
      <trkpt lat="45.10549" lon="0.62026">
        <ele>197.80000305176</ele>
        <time>2014-09-04T14:38:48.000Z</time>
      </trkpt>
      <trkpt lat="45.10567" lon="0.62021">
        <ele>197.60000610352</ele>
        <time>2014-09-04T14:38:53.000Z</time>
      </trkpt>
      <trkpt lat="45.1058" lon="0.62036">
        <ele>198</ele>
        <time>2014-09-04T14:38:58.000Z</time>
      </trkpt>
      <trkpt lat="45.10585" lon="0.62042">
        <ele>198</ele>
        <time>2014-09-04T14:39:00.000Z</time>
      </trkpt>
      <trkpt lat="45.10599" lon="0.6206">
        <ele>198</ele>
        <time>2014-09-04T14:39:05.000Z</time>
      </trkpt>
      <trkpt lat="45.10616" lon="0.62085">
        <ele>197.19999694824</ele>
        <time>2014-09-04T14:39:11.000Z</time>
      </trkpt>
      <trkpt lat="45.10619" lon="0.62091">
        <ele>197</ele>
        <time>2014-09-04T14:39:12.000Z</time>
      </trkpt>
      <trkpt lat="45.1064" lon="0.62126">
        <ele>196.19999694824</ele>
        <time>2014-09-04T14:39:18.000Z</time>
      </trkpt>
      <trkpt lat="45.10643" lon="0.62132">
        <ele>196.19999694824</ele>
        <time>2014-09-04T14:39:19.000Z</time>
      </trkpt>
      <trkpt lat="45.10648" lon="0.62144">
        <ele>196.39999389648</ele>
        <time>2014-09-04T14:39:21.000Z</time>
      </trkpt>
      <trkpt lat="45.10649" lon="0.62155">
        <ele>196.80000305176</ele>
        <time>2014-09-04T14:39:23.000Z</time>
      </trkpt>
      <trkpt lat="45.10649" lon="0.62178">
        <ele>198</ele>
        <time>2014-09-04T14:39:28.000Z</time>
      </trkpt>
      <trkpt lat="45.10648" lon="0.62182">
        <ele>198.19999694824</ele>
        <time>2014-09-04T14:39:29.000Z</time>
      </trkpt>
      <trkpt lat="45.10649" lon="0.62203">
        <ele>199</ele>
        <time>2014-09-04T14:39:34.000Z</time>
      </trkpt>
      <trkpt lat="45.10649" lon="0.62208">
        <ele>199.19999694824</ele>
        <time>2014-09-04T14:39:35.000Z</time>
      </trkpt>
      <trkpt lat="45.10649" lon="0.62245">
        <ele>200</ele>
        <time>2014-09-04T14:39:43.000Z</time>
      </trkpt>
      <trkpt lat="45.10649" lon="0.62254">
        <ele>200.19999694824</ele>
        <time>2014-09-04T14:39:45.000Z</time>
      </trkpt>
      <trkpt lat="45.1065" lon="0.62287">
        <ele>199.60000610352</ele>
        <time>2014-09-04T14:39:51.000Z</time>
      </trkpt>
      <trkpt lat="45.10651" lon="0.62306">
        <ele>199.39999389648</ele>
        <time>2014-09-04T14:39:54.000Z</time>
      </trkpt>
      <trkpt lat="45.10652" lon="0.62327">
        <ele>199.19999694824</ele>
        <time>2014-09-04T14:39:57.000Z</time>
      </trkpt>
      <trkpt lat="45.10652" lon="0.62335">
        <ele>199</ele>
        <time>2014-09-04T14:39:58.000Z</time>
      </trkpt>
      <trkpt lat="45.10654" lon="0.62373">
        <ele>198.19999694824</ele>
        <time>2014-09-04T14:40:03.000Z</time>
      </trkpt>
      <trkpt lat="45.10656" lon="0.62389">
        <ele>197.80000305176</ele>
        <time>2014-09-04T14:40:05.000Z</time>
      </trkpt>
      <trkpt lat="45.10662" lon="0.62431">
        <ele>197.19999694824</ele>
        <time>2014-09-04T14:40:10.000Z</time>
      </trkpt>
      <trkpt lat="45.10665" lon="0.62455">
        <ele>196.80000305176</ele>
        <time>2014-09-04T14:40:13.000Z</time>
      </trkpt>
      <trkpt lat="45.10669" lon="0.6247">
        <ele>196.80000305176</ele>
        <time>2014-09-04T14:40:15.000Z</time>
      </trkpt>
      <trkpt lat="45.10681" lon="0.62493">
        <ele>196.80000305176</ele>
        <time>2014-09-04T14:40:19.000Z</time>
      </trkpt>
      <trkpt lat="45.10684" lon="0.62499">
        <ele>196.80000305176</ele>
        <time>2014-09-04T14:40:20.000Z</time>
      </trkpt>
      <trkpt lat="45.10702" lon="0.62527">
        <ele>196.80000305176</ele>
        <time>2014-09-04T14:40:26.000Z</time>
      </trkpt>
      <trkpt lat="45.10723" lon="0.62552">
        <ele>196.80000305176</ele>
        <time>2014-09-04T14:40:33.000Z</time>
      </trkpt>
      <trkpt lat="45.10732" lon="0.62578">
        <ele>197.19999694824</ele>
        <time>2014-09-04T14:40:38.000Z</time>
      </trkpt>
      <trkpt lat="45.1073" lon="0.62581">
        <ele>197.19999694824</ele>
        <time>2014-09-04T14:40:39.000Z</time>
      </trkpt>
      <trkpt lat="45.10724" lon="0.62587">
        <ele>197.39999389648</ele>
        <time>2014-09-04T14:40:41.000Z</time>
      </trkpt>
      <trkpt lat="45.1071" lon="0.62601">
        <ele>197.80000305176</ele>
        <time>2014-09-04T14:40:46.000Z</time>
      </trkpt>
      <trkpt lat="45.10708" lon="0.6261">
        <ele>198</ele>
        <time>2014-09-04T14:40:48.000Z</time>
      </trkpt>
      <trkpt lat="45.10707" lon="0.6263">
        <ele>197.80000305176</ele>
        <time>2014-09-04T14:40:52.000Z</time>
      </trkpt>
      <trkpt lat="45.10698" lon="0.62648">
        <ele>197.60000610352</ele>
        <time>2014-09-04T14:40:56.000Z</time>
      </trkpt>
      <trkpt lat="45.10691" lon="0.62661">
        <ele>196.60000610352</ele>
        <time>2014-09-04T14:40:59.000Z</time>
      </trkpt>
      <trkpt lat="45.10678" lon="0.6268">
        <ele>196.19999694824</ele>
        <time>2014-09-04T14:41:03.000Z</time>
      </trkpt>
      <trkpt lat="45.10675" lon="0.62685">
        <ele>196</ele>
        <time>2014-09-04T14:41:04.000Z</time>
      </trkpt>
      <trkpt lat="45.10676" lon="0.62698">
        <ele>195.80000305176</ele>
        <time>2014-09-04T14:41:06.000Z</time>
      </trkpt>
      <trkpt lat="45.1068" lon="0.62709">
        <ele>195.39999389648</ele>
        <time>2014-09-04T14:41:08.000Z</time>
      </trkpt>
      <trkpt lat="45.10687" lon="0.62717">
        <ele>194.60000610352</ele>
        <time>2014-09-04T14:41:10.000Z</time>
      </trkpt>
      <trkpt lat="45.1069" lon="0.62722">
        <ele>194.80000305176</ele>
        <time>2014-09-04T14:41:11.000Z</time>
      </trkpt>
      <trkpt lat="45.10714" lon="0.62756">
        <ele>195</ele>
        <time>2014-09-04T14:41:18.000Z</time>
      </trkpt>
      <trkpt lat="45.10724" lon="0.62772">
        <ele>194.39999389648</ele>
        <time>2014-09-04T14:41:21.000Z</time>
      </trkpt>
      <trkpt lat="45.10729" lon="0.62783">
        <ele>194.19999694824</ele>
        <time>2014-09-04T14:41:23.000Z</time>
      </trkpt>
      <trkpt lat="45.10733" lon="0.62788">
        <ele>194.19999694824</ele>
        <time>2014-09-04T14:41:24.000Z</time>
      </trkpt>
      <trkpt lat="45.10756" lon="0.62828">
        <ele>193.80000305176</ele>
        <time>2014-09-04T14:41:31.000Z</time>
      </trkpt>
      <trkpt lat="45.10785" lon="0.62871">
        <ele>193.39999389648</ele>
        <time>2014-09-04T14:41:39.000Z</time>
      </trkpt>
      <trkpt lat="45.10818" lon="0.62904">
        <ele>193.60000610352</ele>
        <time>2014-09-04T14:41:47.000Z</time>
      </trkpt>
      <trkpt lat="45.10848" lon="0.62932">
        <ele>195.19999694824</ele>
        <time>2014-09-04T14:41:55.000Z</time>
      </trkpt>
      <trkpt lat="45.10851" lon="0.62935">
        <ele>195.39999389648</ele>
        <time>2014-09-04T14:41:56.000Z</time>
      </trkpt>
      <trkpt lat="45.10874" lon="0.62955">
        <ele>196</ele>
        <time>2014-09-04T14:42:03.000Z</time>
      </trkpt>
      <trkpt lat="45.10907" lon="0.62981">
        <ele>196</ele>
        <time>2014-09-04T14:42:12.000Z</time>
      </trkpt>
      <trkpt lat="45.10942" lon="0.63003">
        <ele>194.60000610352</ele>
        <time>2014-09-04T14:42:19.000Z</time>
      </trkpt>
      <trkpt lat="45.10948" lon="0.63007">
        <ele>194.19999694824</ele>
        <time>2014-09-04T14:42:20.000Z</time>
      </trkpt>
      <trkpt lat="45.10965" lon="0.63017">
        <ele>193.39999389648</ele>
        <time>2014-09-04T14:42:23.000Z</time>
      </trkpt>
      <trkpt lat="45.1097" lon="0.63023">
        <ele>193</ele>
        <time>2014-09-04T14:42:24.000Z</time>
      </trkpt>
      <trkpt lat="45.10974" lon="0.63029">
        <ele>192.60000610352</ele>
        <time>2014-09-04T14:42:25.000Z</time>
      </trkpt>
      <trkpt lat="45.10983" lon="0.63042">
        <ele>192.60000610352</ele>
        <time>2014-09-04T14:42:27.000Z</time>
      </trkpt>
      <trkpt lat="45.10998" lon="0.63067">
        <ele>192.80000305176</ele>
        <time>2014-09-04T14:42:31.000Z</time>
      </trkpt>
      <trkpt lat="45.1103" lon="0.63119">
        <ele>193</ele>
        <time>2014-09-04T14:42:40.000Z</time>
      </trkpt>
      <trkpt lat="45.11053" lon="0.63156">
        <ele>194.19999694824</ele>
        <time>2014-09-04T14:42:47.000Z</time>
      </trkpt>
      <trkpt lat="45.11059" lon="0.63165">
        <ele>194.19999694824</ele>
        <time>2014-09-04T14:42:49.000Z</time>
      </trkpt>
      <trkpt lat="45.11068" lon="0.63178">
        <ele>195.39999389648</ele>
        <time>2014-09-04T14:42:52.000Z</time>
      </trkpt>
      <trkpt lat="45.11081" lon="0.632">
        <ele>196.60000610352</ele>
        <time>2014-09-04T14:42:57.000Z</time>
      </trkpt>
      <trkpt lat="45.11095" lon="0.63222">
        <ele>197.60000610352</ele>
        <time>2014-09-04T14:43:02.000Z</time>
      </trkpt>
      <trkpt lat="45.11105" lon="0.6324">
        <ele>198.80000305176</ele>
        <time>2014-09-04T14:43:06.000Z</time>
      </trkpt>
      <trkpt lat="45.11111" lon="0.63249">
        <ele>199.19999694824</ele>
        <time>2014-09-04T14:43:08.000Z</time>
      </trkpt>
      <trkpt lat="45.11119" lon="0.63262">
        <ele>199.80000305176</ele>
        <time>2014-09-04T14:43:11.000Z</time>
      </trkpt>
      <trkpt lat="45.11131" lon="0.63286">
        <ele>200.80000305176</ele>
        <time>2014-09-04T14:43:16.000Z</time>
      </trkpt>
      <trkpt lat="45.11133" lon="0.63291">
        <ele>201</ele>
        <time>2014-09-04T14:43:17.000Z</time>
      </trkpt>
      <trkpt lat="45.11135" lon="0.63296">
        <ele>201.19999694824</ele>
        <time>2014-09-04T14:43:18.000Z</time>
      </trkpt>
      <trkpt lat="45.11139" lon="0.63312">
        <ele>202</ele>
        <time>2014-09-04T14:43:21.000Z</time>
      </trkpt>
      <trkpt lat="45.11141" lon="0.63324">
        <ele>202</ele>
        <time>2014-09-04T14:43:23.000Z</time>
      </trkpt>
      <trkpt lat="45.11143" lon="0.63369">
        <ele>202.39999389648</ele>
        <time>2014-09-04T14:43:31.000Z</time>
      </trkpt>
      <trkpt lat="45.11146" lon="0.63422">
        <ele>202.39999389648</ele>
        <time>2014-09-04T14:43:41.000Z</time>
      </trkpt>
      <trkpt lat="45.11157" lon="0.63432">
        <ele>202.19999694824</ele>
        <time>2014-09-04T14:43:44.000Z</time>
      </trkpt>
      <trkpt lat="45.11162" lon="0.63436">
        <ele>201.39999389648</ele>
        <time>2014-09-04T14:43:45.000Z</time>
      </trkpt>
      <trkpt lat="45.11171" lon="0.63446">
        <ele>200.60000610352</ele>
        <time>2014-09-04T14:43:47.000Z</time>
      </trkpt>
      <trkpt lat="45.11182" lon="0.63458">
        <ele>199.60000610352</ele>
        <time>2014-09-04T14:43:49.000Z</time>
      </trkpt>
      <trkpt lat="45.11188" lon="0.63463">
        <ele>199.19999694824</ele>
        <time>2014-09-04T14:43:50.000Z</time>
      </trkpt>
      <trkpt lat="45.11201" lon="0.63475">
        <ele>198.19999694824</ele>
        <time>2014-09-04T14:43:52.000Z</time>
      </trkpt>
      <trkpt lat="45.11213" lon="0.63488">
        <ele>197.39999389648</ele>
        <time>2014-09-04T14:43:54.000Z</time>
      </trkpt>
      <trkpt lat="45.1122" lon="0.63495">
        <ele>197</ele>
        <time>2014-09-04T14:43:55.000Z</time>
      </trkpt>
      <trkpt lat="45.11241" lon="0.63512">
        <ele>195.80000305176</ele>
        <time>2014-09-04T14:43:58.000Z</time>
      </trkpt>
      <trkpt lat="45.11247" lon="0.63517">
        <ele>195.39999389648</ele>
        <time>2014-09-04T14:43:59.000Z</time>
      </trkpt>
      <trkpt lat="45.11261" lon="0.63528">
        <ele>194.60000610352</ele>
        <time>2014-09-04T14:44:01.000Z</time>
      </trkpt>
      <trkpt lat="45.11281" lon="0.63547">
        <ele>194.80000305176</ele>
        <time>2014-09-04T14:44:05.000Z</time>
      </trkpt>
      <trkpt lat="45.11298" lon="0.63559">
        <ele>195.60000610352</ele>
        <time>2014-09-04T14:44:10.000Z</time>
      </trkpt>
      <trkpt lat="45.11311" lon="0.63574">
        <ele>196.39999389648</ele>
        <time>2014-09-04T14:44:15.000Z</time>
      </trkpt>
      <trkpt lat="45.11322" lon="0.63588">
        <ele>196.80000305176</ele>
        <time>2014-09-04T14:44:19.000Z</time>
      </trkpt>
      <trkpt lat="45.11328" lon="0.63592">
        <ele>197</ele>
        <time>2014-09-04T14:44:21.000Z</time>
      </trkpt>
      <trkpt lat="45.11344" lon="0.63606">
        <ele>197.39999389648</ele>
        <time>2014-09-04T14:44:27.000Z</time>
      </trkpt>
      <trkpt lat="45.11348" lon="0.63612">
        <ele>197.60000610352</ele>
        <time>2014-09-04T14:44:29.000Z</time>
      </trkpt>
      <trkpt lat="45.11351" lon="0.63617">
        <ele>197.80000305176</ele>
        <time>2014-09-04T14:44:31.000Z</time>
      </trkpt>
      <trkpt lat="45.11352" lon="0.6362">
        <ele>198</ele>
        <time>2014-09-04T14:44:32.000Z</time>
      </trkpt>
      <trkpt lat="45.11357" lon="0.63625">
        <ele>198.19999694824</ele>
        <time>2014-09-04T14:44:34.000Z</time>
      </trkpt>
      <trkpt lat="45.1136" lon="0.63626">
        <ele>198.19999694824</ele>
        <time>2014-09-04T14:44:35.000Z</time>
      </trkpt>
      <trkpt lat="45.11375" lon="0.63618">
        <ele>197.80000305176</ele>
        <time>2014-09-04T14:44:40.000Z</time>
      </trkpt>
      <trkpt lat="45.11402" lon="0.63605">
        <ele>197</ele>
        <time>2014-09-04T14:44:47.000Z</time>
      </trkpt>
      <trkpt lat="45.11423" lon="0.63591">
        <ele>197.80000305176</ele>
        <time>2014-09-04T14:44:54.000Z</time>
      </trkpt>
      <trkpt lat="45.11442" lon="0.63574">
        <ele>198.80000305176</ele>
        <time>2014-09-04T14:45:00.000Z</time>
      </trkpt>
      <trkpt lat="45.11466" lon="0.63555">
        <ele>199.19999694824</ele>
        <time>2014-09-04T14:45:07.000Z</time>
      </trkpt>
      <trkpt lat="45.1148" lon="0.63541">
        <ele>200.19999694824</ele>
        <time>2014-09-04T14:45:12.000Z</time>
      </trkpt>
      <trkpt lat="45.11491" lon="0.6353">
        <ele>200.80000305176</ele>
        <time>2014-09-04T14:45:16.000Z</time>
      </trkpt>
      <trkpt lat="45.11503" lon="0.6352">
        <ele>201.39999389648</ele>
        <time>2014-09-04T14:45:20.000Z</time>
      </trkpt>
      <trkpt lat="45.11514" lon="0.63511">
        <ele>202.19999694824</ele>
        <time>2014-09-04T14:45:24.000Z</time>
      </trkpt>
      <trkpt lat="45.11517" lon="0.6351">
        <ele>202.39999389648</ele>
        <time>2014-09-04T14:45:25.000Z</time>
      </trkpt>
      <trkpt lat="45.11535" lon="0.63496">
        <ele>203.39999389648</ele>
        <time>2014-09-04T14:45:31.000Z</time>
      </trkpt>
      <trkpt lat="45.11541" lon="0.6348">
        <ele>203.80000305176</ele>
        <time>2014-09-04T14:45:35.000Z</time>
      </trkpt>
      <trkpt lat="45.11541" lon="0.63459">
        <ele>204.39999389648</ele>
        <time>2014-09-04T14:45:39.000Z</time>
      </trkpt>
      <trkpt lat="45.1154" lon="0.63453">
        <ele>204.39999389648</ele>
        <time>2014-09-04T14:45:40.000Z</time>
      </trkpt>
      <trkpt lat="45.11535" lon="0.63416">
        <ele>204.39999389648</ele>
        <time>2014-09-04T14:45:47.000Z</time>
      </trkpt>
      <trkpt lat="45.11529" lon="0.63372">
        <ele>204.60000610352</ele>
        <time>2014-09-04T14:45:55.000Z</time>
      </trkpt>
      <trkpt lat="45.11521" lon="0.63313">
        <ele>205</ele>
        <time>2014-09-04T14:46:05.000Z</time>
      </trkpt>
      <trkpt lat="45.11516" lon="0.63266">
        <ele>205.39999389648</ele>
        <time>2014-09-04T14:46:13.000Z</time>
      </trkpt>
      <trkpt lat="45.11517" lon="0.63259">
        <ele>205.39999389648</ele>
        <time>2014-09-04T14:46:14.000Z</time>
      </trkpt>
      <trkpt lat="45.11523" lon="0.63231">
        <ele>205.80000305176</ele>
        <time>2014-09-04T14:46:19.000Z</time>
      </trkpt>
      <trkpt lat="45.11537" lon="0.63206">
        <ele>206.19999694824</ele>
        <time>2014-09-04T14:46:25.000Z</time>
      </trkpt>
      <trkpt lat="45.11558" lon="0.63166">
        <ele>206.19999694824</ele>
        <time>2014-09-04T14:46:34.000Z</time>
      </trkpt>
      <trkpt lat="45.1157" lon="0.63143">
        <ele>206.19999694824</ele>
        <time>2014-09-04T14:46:39.000Z</time>
      </trkpt>
      <trkpt lat="45.11587" lon="0.6311">
        <ele>206.19999694824</ele>
        <time>2014-09-04T14:46:46.000Z</time>
      </trkpt>
      <trkpt lat="45.11605" lon="0.63072">
        <ele>205.80000305176</ele>
        <time>2014-09-04T14:46:53.000Z</time>
      </trkpt>
      <trkpt lat="45.11608" lon="0.63067">
        <ele>205.80000305176</ele>
        <time>2014-09-04T14:46:54.000Z</time>
      </trkpt>
      <trkpt lat="45.11628" lon="0.63049">
        <ele>206</ele>
        <time>2014-09-04T14:47:00.000Z</time>
      </trkpt>
      <trkpt lat="45.11655" lon="0.63043">
        <ele>205.80000305176</ele>
        <time>2014-09-04T14:47:06.000Z</time>
      </trkpt>
      <trkpt lat="45.11659" lon="0.63046">
        <ele>205.60000610352</ele>
        <time>2014-09-04T14:47:07.000Z</time>
      </trkpt>
      <trkpt lat="45.11663" lon="0.63062">
        <ele>205.39999389648</ele>
        <time>2014-09-04T14:47:10.000Z</time>
      </trkpt>
      <trkpt lat="45.11663" lon="0.63074">
        <ele>205.19999694824</ele>
        <time>2014-09-04T14:47:12.000Z</time>
      </trkpt>
      <trkpt lat="45.11663" lon="0.63106">
        <ele>205.39999389648</ele>
        <time>2014-09-04T14:47:17.000Z</time>
      </trkpt>
      <trkpt lat="45.11669" lon="0.63153">
        <ele>205</ele>
        <time>2014-09-04T14:47:24.000Z</time>
      </trkpt>
      <trkpt lat="45.11672" lon="0.63158">
        <ele>205</ele>
        <time>2014-09-04T14:47:25.000Z</time>
      </trkpt>
      <trkpt lat="45.11683" lon="0.63172">
        <ele>204.39999389648</ele>
        <time>2014-09-04T14:47:28.000Z</time>
      </trkpt>
      <trkpt lat="45.11688" lon="0.63176">
        <ele>204.39999389648</ele>
        <time>2014-09-04T14:47:29.000Z</time>
      </trkpt>
      <trkpt lat="45.11709" lon="0.63202">
        <ele>205</ele>
        <time>2014-09-04T14:47:35.000Z</time>
      </trkpt>
      <trkpt lat="45.11718" lon="0.63214">
        <ele>205.60000610352</ele>
        <time>2014-09-04T14:47:38.000Z</time>
      </trkpt>
      <trkpt lat="45.11729" lon="0.63228">
        <ele>206.19999694824</ele>
        <time>2014-09-04T14:47:42.000Z</time>
      </trkpt>
      <trkpt lat="45.11735" lon="0.63234">
        <ele>206.60000610352</ele>
        <time>2014-09-04T14:47:44.000Z</time>
      </trkpt>
      <trkpt lat="45.11752" lon="0.63254">
        <ele>207.80000305176</ele>
        <time>2014-09-04T14:47:50.000Z</time>
      </trkpt>
      <trkpt lat="45.1177" lon="0.63274">
        <ele>208.80000305176</ele>
        <time>2014-09-04T14:47:57.000Z</time>
      </trkpt>
      <trkpt lat="45.11778" lon="0.63283">
        <ele>208.80000305176</ele>
        <time>2014-09-04T14:48:00.000Z</time>
      </trkpt>
      <trkpt lat="45.11798" lon="0.63304">
        <ele>209.39999389648</ele>
        <time>2014-09-04T14:48:08.000Z</time>
      </trkpt>
      <trkpt lat="45.11805" lon="0.63315">
        <ele>209</ele>
        <time>2014-09-04T14:49:40.000Z</time>
      </trkpt>
      <trkpt lat="45.11803" lon="0.63311">
        <ele>209.19999694824</ele>
        <time>2014-09-04T14:49:42.000Z</time>
      </trkpt>
      <trkpt lat="45.11802" lon="0.63309">
        <ele>209.19999694824</ele>
        <time>2014-09-04T14:49:43.000Z</time>
      </trkpt>
      <trkpt lat="45.11797" lon="0.63303">
        <ele>209.39999389648</ele>
        <time>2014-09-04T14:50:32.000Z</time>
      </trkpt>
      <trkpt lat="45.11799" lon="0.63305">
        <ele>209.39999389648</ele>
        <time>2014-09-04T14:50:33.000Z</time>
      </trkpt>
      <trkpt lat="45.11802" lon="0.6331">
        <ele>209.39999389648</ele>
        <time>2014-09-04T14:50:35.000Z</time>
      </trkpt>
      <trkpt lat="45.11805" lon="0.63315">
        <ele>209.19999694824</ele>
        <time>2014-09-04T14:50:37.000Z</time>
      </trkpt>
      <trkpt lat="45.11814" lon="0.63329">
        <ele>209</ele>
        <time>2014-09-04T14:50:41.000Z</time>
      </trkpt>
      <trkpt lat="45.11833" lon="0.63357">
        <ele>208.39999389648</ele>
        <time>2014-09-04T14:50:47.000Z</time>
      </trkpt>
      <trkpt lat="45.11854" lon="0.63388">
        <ele>208.19999694824</ele>
        <time>2014-09-04T14:50:53.000Z</time>
      </trkpt>
      <trkpt lat="45.11866" lon="0.63403">
        <ele>207.60000610352</ele>
        <time>2014-09-04T14:50:56.000Z</time>
      </trkpt>
      <trkpt lat="45.11871" lon="0.63407">
        <ele>207.60000610352</ele>
        <time>2014-09-04T14:50:57.000Z</time>
      </trkpt>
      <trkpt lat="45.11881" lon="0.63413">
        <ele>207.39999389648</ele>
        <time>2014-09-04T14:50:59.000Z</time>
      </trkpt>
      <trkpt lat="45.11902" lon="0.63414">
        <ele>207.39999389648</ele>
        <time>2014-09-04T14:51:03.000Z</time>
      </trkpt>
      <trkpt lat="45.11923" lon="0.63408">
        <ele>208.19999694824</ele>
        <time>2014-09-04T14:51:07.000Z</time>
      </trkpt>
      <trkpt lat="45.11928" lon="0.63407">
        <ele>208.39999389648</ele>
        <time>2014-09-04T14:51:08.000Z</time>
      </trkpt>
      <trkpt lat="45.11945" lon="0.63402">
        <ele>208.80000305176</ele>
        <time>2014-09-04T14:51:12.000Z</time>
      </trkpt>
      <trkpt lat="45.11958" lon="0.63396">
        <ele>209.19999694824</ele>
        <time>2014-09-04T14:51:15.000Z</time>
      </trkpt>
      <trkpt lat="45.11967" lon="0.63391">
        <ele>209.80000305176</ele>
        <time>2014-09-04T14:51:18.000Z</time>
      </trkpt>
      <trkpt lat="45.11977" lon="0.63384">
        <ele>210.39999389648</ele>
        <time>2014-09-04T14:51:21.000Z</time>
      </trkpt>
      <trkpt lat="45.12003" lon="0.63368">
        <ele>210.19999694824</ele>
        <time>2014-09-04T14:51:28.000Z</time>
      </trkpt>
      <trkpt lat="45.12011" lon="0.63361">
        <ele>210.19999694824</ele>
        <time>2014-09-04T14:51:30.000Z</time>
      </trkpt>
      <trkpt lat="45.1202" lon="0.63347">
        <ele>210</ele>
        <time>2014-09-04T14:51:33.000Z</time>
      </trkpt>
      <trkpt lat="45.12023" lon="0.63342">
        <ele>209.80000305176</ele>
        <time>2014-09-04T14:51:34.000Z</time>
      </trkpt>
      <trkpt lat="45.12028" lon="0.63325">
        <ele>209.39999389648</ele>
        <time>2014-09-04T14:51:37.000Z</time>
      </trkpt>
      <trkpt lat="45.12034" lon="0.63307">
        <ele>209.39999389648</ele>
        <time>2014-09-04T14:51:40.000Z</time>
      </trkpt>
      <trkpt lat="45.12043" lon="0.63277">
        <ele>208.80000305176</ele>
        <time>2014-09-04T14:51:45.000Z</time>
      </trkpt>
      <trkpt lat="45.12048" lon="0.63263">
        <ele>208.19999694824</ele>
        <time>2014-09-04T14:51:47.000Z</time>
      </trkpt>
      <trkpt lat="45.12052" lon="0.63249">
        <ele>207.60000610352</ele>
        <time>2014-09-04T14:51:49.000Z</time>
      </trkpt>
      <trkpt lat="45.12063" lon="0.63215">
        <ele>206.60000610352</ele>
        <time>2014-09-04T14:51:53.000Z</time>
      </trkpt>
      <trkpt lat="45.12066" lon="0.63207">
        <ele>206.39999389648</ele>
        <time>2014-09-04T14:51:54.000Z</time>
      </trkpt>
      <trkpt lat="45.12075" lon="0.63182">
        <ele>205.19999694824</ele>
        <time>2014-09-04T14:51:57.000Z</time>
      </trkpt>
      <trkpt lat="45.12086" lon="0.63169">
        <ele>204.60000610352</ele>
        <time>2014-09-04T14:51:59.000Z</time>
      </trkpt>
      <trkpt lat="45.12097" lon="0.63155">
        <ele>204</ele>
        <time>2014-09-04T14:52:01.000Z</time>
      </trkpt>
      <trkpt lat="45.12113" lon="0.63135">
        <ele>203</ele>
        <time>2014-09-04T14:52:04.000Z</time>
      </trkpt>
      <trkpt lat="45.12117" lon="0.63127">
        <ele>202.60000610352</ele>
        <time>2014-09-04T14:52:05.000Z</time>
      </trkpt>
      <trkpt lat="45.12125" lon="0.63101">
        <ele>202</ele>
        <time>2014-09-04T14:52:08.000Z</time>
      </trkpt>
      <trkpt lat="45.12145" lon="0.6304">
        <ele>202</ele>
        <time>2014-09-04T14:52:16.000Z</time>
      </trkpt>
      <trkpt lat="45.12162" lon="0.62981">
        <ele>201.39999389648</ele>
        <time>2014-09-04T14:52:24.000Z</time>
      </trkpt>
      <trkpt lat="45.1217" lon="0.62958">
        <ele>200.80000305176</ele>
        <time>2014-09-04T14:52:27.000Z</time>
      </trkpt>
      <trkpt lat="45.12179" lon="0.62932">
        <ele>199.60000610352</ele>
        <time>2014-09-04T14:52:30.000Z</time>
      </trkpt>
      <trkpt lat="45.12182" lon="0.62923">
        <ele>199.39999389648</ele>
        <time>2014-09-04T14:52:31.000Z</time>
      </trkpt>
      <trkpt lat="45.1219" lon="0.62905">
        <ele>198.80000305176</ele>
        <time>2014-09-04T14:52:33.000Z</time>
      </trkpt>
      <trkpt lat="45.12196" lon="0.62897">
        <ele>198.60000610352</ele>
        <time>2014-09-04T14:52:34.000Z</time>
      </trkpt>
      <trkpt lat="45.12203" lon="0.6289">
        <ele>198.19999694824</ele>
        <time>2014-09-04T14:52:35.000Z</time>
      </trkpt>
      <trkpt lat="45.12217" lon="0.62875">
        <ele>197</ele>
        <time>2014-09-04T14:52:37.000Z</time>
      </trkpt>
      <trkpt lat="45.12229" lon="0.62856">
        <ele>195.60000610352</ele>
        <time>2014-09-04T14:52:39.000Z</time>
      </trkpt>
      <trkpt lat="45.12242" lon="0.62834">
        <ele>194.19999694824</ele>
        <time>2014-09-04T14:52:41.000Z</time>
      </trkpt>
      <trkpt lat="45.12256" lon="0.62813">
        <ele>192.60000610352</ele>
        <time>2014-09-04T14:52:43.000Z</time>
      </trkpt>
      <trkpt lat="45.12268" lon="0.6279">
        <ele>191.19999694824</ele>
        <time>2014-09-04T14:52:45.000Z</time>
      </trkpt>
      <trkpt lat="45.12271" lon="0.62777">
        <ele>190.39999389648</ele>
        <time>2014-09-04T14:52:46.000Z</time>
      </trkpt>
      <trkpt lat="45.12275" lon="0.62764">
        <ele>189.60000610352</ele>
        <time>2014-09-04T14:52:47.000Z</time>
      </trkpt>
      <trkpt lat="45.12276" lon="0.62753">
        <ele>189</ele>
        <time>2014-09-04T14:52:48.000Z</time>
      </trkpt>
      <trkpt lat="45.12277" lon="0.62732">
        <ele>188.60000610352</ele>
        <time>2014-09-04T14:52:50.000Z</time>
      </trkpt>
      <trkpt lat="45.12275" lon="0.62723">
        <ele>188.39999389648</ele>
        <time>2014-09-04T14:52:51.000Z</time>
      </trkpt>
      <trkpt lat="45.12273" lon="0.62714">
        <ele>188</ele>
        <time>2014-09-04T14:52:52.000Z</time>
      </trkpt>
      <trkpt lat="45.1227" lon="0.62698">
        <ele>187.39999389648</ele>
        <time>2014-09-04T14:52:54.000Z</time>
      </trkpt>
      <trkpt lat="45.12272" lon="0.62683">
        <ele>187</ele>
        <time>2014-09-04T14:52:56.000Z</time>
      </trkpt>
      <trkpt lat="45.12276" lon="0.62669">
        <ele>185.60000610352</ele>
        <time>2014-09-04T14:52:58.000Z</time>
      </trkpt>
      <trkpt lat="45.1228" lon="0.62663">
        <ele>185.19999694824</ele>
        <time>2014-09-04T14:52:59.000Z</time>
      </trkpt>
      <trkpt lat="45.12284" lon="0.62658">
        <ele>184.60000610352</ele>
        <time>2014-09-04T14:53:00.000Z</time>
      </trkpt>
      <trkpt lat="45.12289" lon="0.62652">
        <ele>184.39999389648</ele>
        <time>2014-09-04T14:53:01.000Z</time>
      </trkpt>
      <trkpt lat="45.12299" lon="0.6264">
        <ele>183.19999694824</ele>
        <time>2014-09-04T14:53:03.000Z</time>
      </trkpt>
      <trkpt lat="45.12306" lon="0.62635">
        <ele>182.80000305176</ele>
        <time>2014-09-04T14:53:04.000Z</time>
      </trkpt>
      <trkpt lat="45.12312" lon="0.62629">
        <ele>182.19999694824</ele>
        <time>2014-09-04T14:53:05.000Z</time>
      </trkpt>
      <trkpt lat="45.1233" lon="0.62609">
        <ele>180.60000610352</ele>
        <time>2014-09-04T14:53:08.000Z</time>
      </trkpt>
      <trkpt lat="45.12336" lon="0.62603">
        <ele>179.80000305176</ele>
        <time>2014-09-04T14:53:09.000Z</time>
      </trkpt>
      <trkpt lat="45.12343" lon="0.62602">
        <ele>179</ele>
        <time>2014-09-04T14:53:10.000Z</time>
      </trkpt>
      <trkpt lat="45.1235" lon="0.62603">
        <ele>178.19999694824</ele>
        <time>2014-09-04T14:53:11.000Z</time>
      </trkpt>
      <trkpt lat="45.12358" lon="0.62606">
        <ele>177.19999694824</ele>
        <time>2014-09-04T14:53:12.000Z</time>
      </trkpt>
      <trkpt lat="45.12366" lon="0.62609">
        <ele>176.19999694824</ele>
        <time>2014-09-04T14:53:13.000Z</time>
      </trkpt>
      <trkpt lat="45.12373" lon="0.62612">
        <ele>175</ele>
        <time>2014-09-04T14:53:14.000Z</time>
      </trkpt>
      <trkpt lat="45.12379" lon="0.62612">
        <ele>173.80000305176</ele>
        <time>2014-09-04T14:53:15.000Z</time>
      </trkpt>
      <trkpt lat="45.12385" lon="0.62608">
        <ele>172.80000305176</ele>
        <time>2014-09-04T14:53:16.000Z</time>
      </trkpt>
      <trkpt lat="45.12391" lon="0.626">
        <ele>172</ele>
        <time>2014-09-04T14:53:17.000Z</time>
      </trkpt>
      <trkpt lat="45.12397" lon="0.62593">
        <ele>171</ele>
        <time>2014-09-04T14:53:18.000Z</time>
      </trkpt>
      <trkpt lat="45.1241" lon="0.62577">
        <ele>169.39999389648</ele>
        <time>2014-09-04T14:53:20.000Z</time>
      </trkpt>
      <trkpt lat="45.12417" lon="0.6257">
        <ele>167.60000610352</ele>
        <time>2014-09-04T14:53:21.000Z</time>
      </trkpt>
      <trkpt lat="45.12424" lon="0.62564">
        <ele>166.39999389648</ele>
        <time>2014-09-04T14:53:22.000Z</time>
      </trkpt>
      <trkpt lat="45.12429" lon="0.62557">
        <ele>165.19999694824</ele>
        <time>2014-09-04T14:53:23.000Z</time>
      </trkpt>
      <trkpt lat="45.12434" lon="0.62549">
        <ele>164</ele>
        <time>2014-09-04T14:53:24.000Z</time>
      </trkpt>
      <trkpt lat="45.12438" lon="0.62541">
        <ele>163</ele>
        <time>2014-09-04T14:53:25.000Z</time>
      </trkpt>
      <trkpt lat="45.12445" lon="0.62522">
        <ele>161.39999389648</ele>
        <time>2014-09-04T14:53:27.000Z</time>
      </trkpt>
      <trkpt lat="45.12448" lon="0.62511">
        <ele>160.39999389648</ele>
        <time>2014-09-04T14:53:28.000Z</time>
      </trkpt>
      <trkpt lat="45.12453" lon="0.62499">
        <ele>159</ele>
        <time>2014-09-04T14:53:29.000Z</time>
      </trkpt>
      <trkpt lat="45.12457" lon="0.62487">
        <ele>157.19999694824</ele>
        <time>2014-09-04T14:53:30.000Z</time>
      </trkpt>
      <trkpt lat="45.1246" lon="0.62474">
        <ele>155.80000305176</ele>
        <time>2014-09-04T14:53:31.000Z</time>
      </trkpt>
      <trkpt lat="45.12465" lon="0.6246">
        <ele>154.39999389648</ele>
        <time>2014-09-04T14:53:32.000Z</time>
      </trkpt>
      <trkpt lat="45.12469" lon="0.62447">
        <ele>153</ele>
        <time>2014-09-04T14:53:33.000Z</time>
      </trkpt>
      <trkpt lat="45.12473" lon="0.62434">
        <ele>151.19999694824</ele>
        <time>2014-09-04T14:53:34.000Z</time>
      </trkpt>
      <trkpt lat="45.12478" lon="0.62423">
        <ele>149.60000610352</ele>
        <time>2014-09-04T14:53:35.000Z</time>
      </trkpt>
      <trkpt lat="45.12483" lon="0.62413">
        <ele>148</ele>
        <time>2014-09-04T14:53:36.000Z</time>
      </trkpt>
      <trkpt lat="45.12489" lon="0.62406">
        <ele>146.60000610352</ele>
        <time>2014-09-04T14:53:37.000Z</time>
      </trkpt>
      <trkpt lat="45.12498" lon="0.62401">
        <ele>145.39999389648</ele>
        <time>2014-09-04T14:53:38.000Z</time>
      </trkpt>
      <trkpt lat="45.12509" lon="0.62397">
        <ele>144.60000610352</ele>
        <time>2014-09-04T14:53:39.000Z</time>
      </trkpt>
      <trkpt lat="45.12519" lon="0.62393">
        <ele>144</ele>
        <time>2014-09-04T14:53:40.000Z</time>
      </trkpt>
      <trkpt lat="45.12528" lon="0.6239">
        <ele>143.19999694824</ele>
        <time>2014-09-04T14:53:41.000Z</time>
      </trkpt>
      <trkpt lat="45.12537" lon="0.62388">
        <ele>142.39999389648</ele>
        <time>2014-09-04T14:53:42.000Z</time>
      </trkpt>
      <trkpt lat="45.12544" lon="0.62386">
        <ele>142</ele>
        <time>2014-09-04T14:53:43.000Z</time>
      </trkpt>
      <trkpt lat="45.12577" lon="0.62378">
        <ele>142.60000610352</ele>
        <time>2014-09-04T14:53:48.000Z</time>
      </trkpt>
      <trkpt lat="45.12611" lon="0.62361">
        <ele>142.80000305176</ele>
        <time>2014-09-04T14:53:54.000Z</time>
      </trkpt>
      <trkpt lat="45.12661" lon="0.62333">
        <ele>142.19999694824</ele>
        <time>2014-09-04T14:54:03.000Z</time>
      </trkpt>
      <trkpt lat="45.1269" lon="0.62316">
        <ele>141.39999389648</ele>
        <time>2014-09-04T14:54:09.000Z</time>
      </trkpt>
      <trkpt lat="45.12699" lon="0.6231">
        <ele>141</ele>
        <time>2014-09-04T14:54:11.000Z</time>
      </trkpt>
      <trkpt lat="45.12716" lon="0.62299">
        <ele>140.39999389648</ele>
        <time>2014-09-04T14:54:16.000Z</time>
      </trkpt>
      <trkpt lat="45.12723" lon="0.62295">
        <ele>140.39999389648</ele>
        <time>2014-09-04T14:54:18.000Z</time>
      </trkpt>
      <trkpt lat="45.12742" lon="0.62284">
        <ele>140.19999694824</ele>
        <time>2014-09-04T14:54:22.000Z</time>
      </trkpt>
      <trkpt lat="45.1278" lon="0.62263">
        <ele>139.19999694824</ele>
        <time>2014-09-04T14:54:29.000Z</time>
      </trkpt>
      <trkpt lat="45.12791" lon="0.62257">
        <ele>138.80000305176</ele>
        <time>2014-09-04T14:54:31.000Z</time>
      </trkpt>
      <trkpt lat="45.12797" lon="0.62253">
        <ele>138.60000610352</ele>
        <time>2014-09-04T14:54:32.000Z</time>
      </trkpt>
      <trkpt lat="45.12825" lon="0.62236">
        <ele>138.80000305176</ele>
        <time>2014-09-04T14:54:37.000Z</time>
      </trkpt>
      <trkpt lat="45.12853" lon="0.62223">
        <ele>138.39999389648</ele>
        <time>2014-09-04T14:54:42.000Z</time>
      </trkpt>
      <trkpt lat="45.12858" lon="0.6222">
        <ele>138.39999389648</ele>
        <time>2014-09-04T14:54:43.000Z</time>
      </trkpt>
      <trkpt lat="45.12862" lon="0.62214">
        <ele>138.60000610352</ele>
        <time>2014-09-04T14:54:44.000Z</time>
      </trkpt>
      <trkpt lat="45.12873" lon="0.62196">
        <ele>138.39999389648</ele>
        <time>2014-09-04T14:54:47.000Z</time>
      </trkpt>
      <trkpt lat="45.12878" lon="0.6219">
        <ele>138.19999694824</ele>
        <time>2014-09-04T14:54:48.000Z</time>
      </trkpt>
      <trkpt lat="45.12903" lon="0.6215">
        <ele>137</ele>
        <time>2014-09-04T14:54:54.000Z</time>
      </trkpt>
      <trkpt lat="45.12927" lon="0.62107">
        <ele>135.80000305176</ele>
        <time>2014-09-04T14:55:00.000Z</time>
      </trkpt>
      <trkpt lat="45.12931" lon="0.62098">
        <ele>135.80000305176</ele>
        <time>2014-09-04T14:55:01.000Z</time>
      </trkpt>
      <trkpt lat="45.12958" lon="0.62029">
        <ele>134.60000610352</ele>
        <time>2014-09-04T14:55:09.000Z</time>
      </trkpt>
      <trkpt lat="45.12981" lon="0.61979">
        <ele>134</ele>
        <time>2014-09-04T14:55:15.000Z</time>
      </trkpt>
      <trkpt lat="45.12998" lon="0.61947">
        <ele>133.60000610352</ele>
        <time>2014-09-04T14:55:19.000Z</time>
      </trkpt>
      <trkpt lat="45.13011" lon="0.61922">
        <ele>132.39999389648</ele>
        <time>2014-09-04T14:55:22.000Z</time>
      </trkpt>
      <trkpt lat="45.13016" lon="0.61913">
        <ele>132.60000610352</ele>
        <time>2014-09-04T14:55:23.000Z</time>
      </trkpt>
      <trkpt lat="45.13038" lon="0.61873">
        <ele>131.19999694824</ele>
        <time>2014-09-04T14:55:28.000Z</time>
      </trkpt>
      <trkpt lat="45.13049" lon="0.61859">
        <ele>130.80000305176</ele>
        <time>2014-09-04T14:55:30.000Z</time>
      </trkpt>
      <trkpt lat="45.13072" lon="0.61832">
        <ele>130.19999694824</ele>
        <time>2014-09-04T14:55:34.000Z</time>
      </trkpt>
      <trkpt lat="45.13085" lon="0.61821">
        <ele>129.80000305176</ele>
        <time>2014-09-04T14:55:36.000Z</time>
      </trkpt>
      <trkpt lat="45.13106" lon="0.61809">
        <ele>129.19999694824</ele>
        <time>2014-09-04T14:55:39.000Z</time>
      </trkpt>
      <trkpt lat="45.1312" lon="0.61803">
        <ele>129</ele>
        <time>2014-09-04T14:55:41.000Z</time>
      </trkpt>
      <trkpt lat="45.13173" lon="0.61789">
        <ele>128.80000305176</ele>
        <time>2014-09-04T14:55:49.000Z</time>
      </trkpt>
      <trkpt lat="45.13229" lon="0.61773">
        <ele>128.60000610352</ele>
        <time>2014-09-04T14:55:58.000Z</time>
      </trkpt>
      <trkpt lat="45.1327" lon="0.61763">
        <ele>128.60000610352</ele>
        <time>2014-09-04T14:56:05.000Z</time>
      </trkpt>
      <trkpt lat="45.13316" lon="0.61746">
        <ele>128.60000610352</ele>
        <time>2014-09-04T14:56:13.000Z</time>
      </trkpt>
      <trkpt lat="45.1336" lon="0.61732">
        <ele>129.19999694824</ele>
        <time>2014-09-04T14:56:21.000Z</time>
      </trkpt>
      <trkpt lat="45.13375" lon="0.61734">
        <ele>129.19999694824</ele>
        <time>2014-09-04T14:56:24.000Z</time>
      </trkpt>
      <trkpt lat="45.13384" lon="0.61736">
        <ele>129.19999694824</ele>
        <time>2014-09-04T14:56:26.000Z</time>
      </trkpt>
      <trkpt lat="45.13397" lon="0.61724">
        <ele>128</ele>
        <time>2014-09-04T14:56:29.000Z</time>
      </trkpt>
      <trkpt lat="45.13404" lon="0.61713">
        <ele>126.40000152588</ele>
        <time>2014-09-04T14:56:31.000Z</time>
      </trkpt>
      <trkpt lat="45.13405" lon="0.617">
        <ele>123.80000305176</ele>
        <time>2014-09-04T14:56:33.000Z</time>
      </trkpt>
      <trkpt lat="45.13407" lon="0.61678">
        <ele>122.40000152588</ele>
        <time>2014-09-04T14:56:36.000Z</time>
      </trkpt>
      <trkpt lat="45.13408" lon="0.61672">
        <ele>122.19999694824</ele>
        <time>2014-09-04T14:56:37.000Z</time>
      </trkpt>
      <trkpt lat="45.1341" lon="0.61667">
        <ele>121.40000152588</ele>
        <time>2014-09-04T14:56:38.000Z</time>
      </trkpt>
      <trkpt lat="45.13418" lon="0.61658">
        <ele>120.19999694824</ele>
        <time>2014-09-04T14:56:40.000Z</time>
      </trkpt>
      <trkpt lat="45.13428" lon="0.61659">
        <ele>119.19999694824</ele>
        <time>2014-09-04T14:56:42.000Z</time>
      </trkpt>
      <trkpt lat="45.13433" lon="0.6166">
        <ele>119.19999694824</ele>
        <time>2014-09-04T14:56:43.000Z</time>
      </trkpt>
      <trkpt lat="45.13453" lon="0.61666">
        <ele>120</ele>
        <time>2014-09-04T14:56:48.000Z</time>
      </trkpt>
      <trkpt lat="45.13457" lon="0.61667">
        <ele>120.40000152588</ele>
        <time>2014-09-04T14:56:49.000Z</time>
      </trkpt>
      <trkpt lat="45.13469" lon="0.61668">
        <ele>121.40000152588</ele>
        <time>2014-09-04T14:56:53.000Z</time>
      </trkpt>
      <trkpt lat="45.13474" lon="0.61672">
        <ele>122.59999847412</ele>
        <time>2014-09-04T14:56:56.000Z</time>
      </trkpt>
      <trkpt lat="45.13477" lon="0.61685">
        <ele>123.59999847412</ele>
        <time>2014-09-04T14:57:00.000Z</time>
      </trkpt>
      <trkpt lat="45.13478" lon="0.61689">
        <ele>123.59999847412</ele>
        <time>2014-09-04T14:57:01.000Z</time>
      </trkpt>
      <trkpt lat="45.13485" lon="0.61715">
        <ele>123.80000305176</ele>
        <time>2014-09-04T14:57:08.000Z</time>
      </trkpt>
      <trkpt lat="45.13493" lon="0.61731">
        <ele>124.80000305176</ele>
        <time>2014-09-04T14:57:13.000Z</time>
      </trkpt>
      <trkpt lat="45.13497" lon="0.61741">
        <ele>125.80000305176</ele>
        <time>2014-09-04T14:57:17.000Z</time>
      </trkpt>
      <trkpt lat="45.13498" lon="0.61746">
        <ele>126.40000152588</ele>
        <time>2014-09-04T14:57:19.000Z</time>
      </trkpt>
      <trkpt lat="45.13499" lon="0.61752">
        <ele>127.19999694824</ele>
        <time>2014-09-04T14:57:21.000Z</time>
      </trkpt>
      <trkpt lat="45.13506" lon="0.6177">
        <ele>128</ele>
        <time>2014-09-04T14:57:27.000Z</time>
      </trkpt>
      <trkpt lat="45.13507" lon="0.61773">
        <ele>128.19999694824</ele>
        <time>2014-09-04T14:57:28.000Z</time>
      </trkpt>
      <trkpt lat="45.13518" lon="0.61795">
        <ele>129</ele>
        <time>2014-09-04T14:57:36.000Z</time>
      </trkpt>
      <trkpt lat="45.13521" lon="0.618">
        <ele>129.19999694824</ele>
        <time>2014-09-04T14:57:38.000Z</time>
      </trkpt>
      <trkpt lat="45.13527" lon="0.61811">
        <ele>129.19999694824</ele>
        <time>2014-09-04T14:57:43.000Z</time>
      </trkpt>
      <trkpt lat="45.13531" lon="0.61818">
        <ele>130.19999694824</ele>
        <time>2014-09-04T14:57:46.000Z</time>
      </trkpt>
      <trkpt lat="45.13534" lon="0.61826">
        <ele>128</ele>
        <time>2014-09-04T14:57:49.000Z</time>
      </trkpt>
      <trkpt lat="45.13534" lon="0.61829">
        <ele>128.19999694824</ele>
        <time>2014-09-04T14:57:50.000Z</time>
      </trkpt>
      <trkpt lat="45.13536" lon="0.61833">
        <ele>131</ele>
        <time>2014-09-04T14:57:52.000Z</time>
      </trkpt>
      <trkpt lat="45.13541" lon="0.61844">
        <ele>131.80000305176</ele>
        <time>2014-09-04T14:57:57.000Z</time>
      </trkpt>
      <trkpt lat="45.13543" lon="0.61848">
        <ele>132.19999694824</ele>
        <time>2014-09-04T14:57:59.000Z</time>
      </trkpt>
      <trkpt lat="45.1355" lon="0.61862">
        <ele>132.80000305176</ele>
        <time>2014-09-04T14:58:05.000Z</time>
      </trkpt>
      <trkpt lat="45.13555" lon="0.6187">
        <ele>133.19999694824</ele>
        <time>2014-09-04T14:58:08.000Z</time>
      </trkpt>
      <trkpt lat="45.13562" lon="0.6188">
        <ele>133.80000305176</ele>
        <time>2014-09-04T14:58:12.000Z</time>
      </trkpt>
      <trkpt lat="45.13565" lon="0.61883">
        <ele>134.19999694824</ele>
        <time>2014-09-04T14:58:14.000Z</time>
      </trkpt>
      <trkpt lat="45.13573" lon="0.61894">
        <ele>134.80000305176</ele>
        <time>2014-09-04T14:58:19.000Z</time>
      </trkpt>
      <trkpt lat="45.13586" lon="0.61905">
        <ele>135.39999389648</ele>
        <time>2014-09-04T14:58:26.000Z</time>
      </trkpt>
      <trkpt lat="45.13595" lon="0.61918">
        <ele>136.60000610352</ele>
        <time>2014-09-04T14:58:33.000Z</time>
      </trkpt>
      <trkpt lat="45.13596" lon="0.6192">
        <ele>137</ele>
        <time>2014-09-04T14:58:34.000Z</time>
      </trkpt>
      <trkpt lat="45.136" lon="0.61927">
        <ele>137.60000610352</ele>
        <time>2014-09-04T14:58:38.000Z</time>
      </trkpt>
      <trkpt lat="45.13604" lon="0.61935">
        <ele>138.39999389648</ele>
        <time>2014-09-04T14:58:42.000Z</time>
      </trkpt>
      <trkpt lat="45.13605" lon="0.61939">
        <ele>138.60000610352</ele>
        <time>2014-09-04T14:58:44.000Z</time>
      </trkpt>
      <trkpt lat="45.13611" lon="0.61949">
        <ele>139.80000305176</ele>
        <time>2014-09-04T14:58:50.000Z</time>
      </trkpt>
      <trkpt lat="45.13616" lon="0.6196">
        <ele>140.80000305176</ele>
        <time>2014-09-04T14:58:56.000Z</time>
      </trkpt>
      <trkpt lat="45.13619" lon="0.61965">
        <ele>142</ele>
        <time>2014-09-04T14:58:59.000Z</time>
      </trkpt>
      <trkpt lat="45.1362" lon="0.61966">
        <ele>142.19999694824</ele>
        <time>2014-09-04T14:59:00.000Z</time>
      </trkpt>
      <trkpt lat="45.13624" lon="0.61973">
        <ele>143</ele>
        <time>2014-09-04T14:59:05.000Z</time>
      </trkpt>
      <trkpt lat="45.13627" lon="0.61978">
        <ele>143.80000305176</ele>
        <time>2014-09-04T14:59:09.000Z</time>
      </trkpt>
      <trkpt lat="45.13628" lon="0.6198">
        <ele>144.19999694824</ele>
        <time>2014-09-04T14:59:10.000Z</time>
      </trkpt>
      <trkpt lat="45.13632" lon="0.61986">
        <ele>145.19999694824</ele>
        <time>2014-09-04T14:59:15.000Z</time>
      </trkpt>
      <trkpt lat="45.13634" lon="0.61989">
        <ele>145.60000610352</ele>
        <time>2014-09-04T14:59:17.000Z</time>
      </trkpt>
      <trkpt lat="45.13636" lon="0.61994">
        <ele>146.39999389648</ele>
        <time>2014-09-04T14:59:20.000Z</time>
      </trkpt>
      <trkpt lat="45.13636" lon="0.61995">
        <ele>146.80000305176</ele>
        <time>2014-09-04T14:59:21.000Z</time>
      </trkpt>
      <trkpt lat="45.13636" lon="0.62">
        <ele>147.19999694824</ele>
        <time>2014-09-04T14:59:23.000Z</time>
      </trkpt>
      <trkpt lat="45.13637" lon="0.62002">
        <ele>147.39999389648</ele>
        <time>2014-09-04T14:59:24.000Z</time>
      </trkpt>
      <trkpt lat="45.13638" lon="0.62009">
        <ele>148.39999389648</ele>
        <time>2014-09-04T14:59:28.000Z</time>
      </trkpt>
      <trkpt lat="45.13639" lon="0.6201">
        <ele>148.80000305176</ele>
        <time>2014-09-04T14:59:29.000Z</time>
      </trkpt>
      <trkpt lat="45.1364" lon="0.62011">
        <ele>149</ele>
        <time>2014-09-04T14:59:30.000Z</time>
      </trkpt>
      <trkpt lat="45.13642" lon="0.62014">
        <ele>149.60000610352</ele>
        <time>2014-09-04T14:59:32.000Z</time>
      </trkpt>
      <trkpt lat="45.13645" lon="0.62021">
        <ele>150.60000610352</ele>
        <time>2014-09-04T14:59:37.000Z</time>
      </trkpt>
      <trkpt lat="45.13646" lon="0.62025">
        <ele>151</ele>
        <time>2014-09-04T14:59:39.000Z</time>
      </trkpt>
      <trkpt lat="45.13648" lon="0.62027">
        <ele>151.60000610352</ele>
        <time>2014-09-04T14:59:41.000Z</time>
      </trkpt>
      <trkpt lat="45.13652" lon="0.62034">
        <ele>152.80000305176</ele>
        <time>2014-09-04T14:59:46.000Z</time>
      </trkpt>
      <trkpt lat="45.13652" lon="0.62035">
        <ele>153</ele>
        <time>2014-09-04T14:59:47.000Z</time>
      </trkpt>
      <trkpt lat="45.13653" lon="0.62036">
        <ele>153.19999694824</ele>
        <time>2014-09-04T14:59:48.000Z</time>
      </trkpt>
      <trkpt lat="45.13655" lon="0.62041">
        <ele>154</ele>
        <time>2014-09-04T14:59:51.000Z</time>
      </trkpt>
      <trkpt lat="45.13657" lon="0.62045">
        <ele>154.39999389648</ele>
        <time>2014-09-04T14:59:54.000Z</time>
      </trkpt>
      <trkpt lat="45.13657" lon="0.62046">
        <ele>154.60000610352</ele>
        <time>2014-09-04T14:59:55.000Z</time>
      </trkpt>
      <trkpt lat="45.13658" lon="0.6205">
        <ele>155.19999694824</ele>
        <time>2014-09-04T14:59:58.000Z</time>
      </trkpt>
      <trkpt lat="45.13658" lon="0.62058">
        <ele>156</ele>
        <time>2014-09-04T15:00:03.000Z</time>
      </trkpt>
      <trkpt lat="45.13659" lon="0.6206">
        <ele>156.19999694824</ele>
        <time>2014-09-04T15:00:04.000Z</time>
      </trkpt>
      <trkpt lat="45.13661" lon="0.62069">
        <ele>157.60000610352</ele>
        <time>2014-09-04T15:00:10.000Z</time>
      </trkpt>
      <trkpt lat="45.13661" lon="0.62073">
        <ele>157.60000610352</ele>
        <time>2014-09-04T15:00:12.000Z</time>
      </trkpt>
      <trkpt lat="45.13663" lon="0.62083">
        <ele>158.60000610352</ele>
        <time>2014-09-04T15:00:18.000Z</time>
      </trkpt>
      <trkpt lat="45.13664" lon="0.62086">
        <ele>159</ele>
        <time>2014-09-04T15:00:20.000Z</time>
      </trkpt>
      <trkpt lat="45.13665" lon="0.62092">
        <ele>159.60000610352</ele>
        <time>2014-09-04T15:00:24.000Z</time>
      </trkpt>
      <trkpt lat="45.13666" lon="0.621">
        <ele>160.39999389648</ele>
        <time>2014-09-04T15:00:28.000Z</time>
      </trkpt>
      <trkpt lat="45.13667" lon="0.62103">
        <ele>160.80000305176</ele>
        <time>2014-09-04T15:00:30.000Z</time>
      </trkpt>
      <trkpt lat="45.13668" lon="0.62111">
        <ele>161.60000610352</ele>
        <time>2014-09-04T15:00:35.000Z</time>
      </trkpt>
      <trkpt lat="45.13669" lon="0.62114">
        <ele>161.80000305176</ele>
        <time>2014-09-04T15:00:37.000Z</time>
      </trkpt>
      <trkpt lat="45.13671" lon="0.62123">
        <ele>162.60000610352</ele>
        <time>2014-09-04T15:00:42.000Z</time>
      </trkpt>
      <trkpt lat="45.13671" lon="0.62126">
        <ele>162.80000305176</ele>
        <time>2014-09-04T15:00:44.000Z</time>
      </trkpt>
      <trkpt lat="45.13672" lon="0.62135">
        <ele>163.39999389648</ele>
        <time>2014-09-04T15:00:49.000Z</time>
      </trkpt>
      <trkpt lat="45.13673" lon="0.6214">
        <ele>164</ele>
        <time>2014-09-04T15:00:52.000Z</time>
      </trkpt>
      <trkpt lat="45.13674" lon="0.6215">
        <ele>165</ele>
        <time>2014-09-04T15:00:58.000Z</time>
      </trkpt>
      <trkpt lat="45.13676" lon="0.62164">
        <ele>166</ele>
        <time>2014-09-04T15:01:06.000Z</time>
      </trkpt>
      <trkpt lat="45.13676" lon="0.62166">
        <ele>166.19999694824</ele>
        <time>2014-09-04T15:01:07.000Z</time>
      </trkpt>
      <trkpt lat="45.13678" lon="0.62181">
        <ele>167</ele>
        <time>2014-09-04T15:01:15.000Z</time>
      </trkpt>
      <trkpt lat="45.13679" lon="0.62192">
        <ele>168.19999694824</ele>
        <time>2014-09-04T15:01:21.000Z</time>
      </trkpt>
      <trkpt lat="45.13679" lon="0.62193">
        <ele>168.60000610352</ele>
        <time>2014-09-04T15:01:22.000Z</time>
      </trkpt>
      <trkpt lat="45.13679" lon="0.62197">
        <ele>169.19999694824</ele>
        <time>2014-09-04T15:01:24.000Z</time>
      </trkpt>
      <trkpt lat="45.1368" lon="0.62207">
        <ele>169.80000305176</ele>
        <time>2014-09-04T15:01:29.000Z</time>
      </trkpt>
      <trkpt lat="45.1368" lon="0.62212">
        <ele>170.19999694824</ele>
        <time>2014-09-04T15:01:31.000Z</time>
      </trkpt>
      <trkpt lat="45.13682" lon="0.62227">
        <ele>171.19999694824</ele>
        <time>2014-09-04T15:01:37.000Z</time>
      </trkpt>
      <trkpt lat="45.13682" lon="0.62229">
        <ele>171.39999389648</ele>
        <time>2014-09-04T15:01:38.000Z</time>
      </trkpt>
      <trkpt lat="45.13683" lon="0.62244">
        <ele>172.39999389648</ele>
        <time>2014-09-04T15:01:44.000Z</time>
      </trkpt>
      <trkpt lat="45.13684" lon="0.6225">
        <ele>173.19999694824</ele>
        <time>2014-09-04T15:01:47.000Z</time>
      </trkpt>
      <trkpt lat="45.13685" lon="0.62256">
        <ele>173.60000610352</ele>
        <time>2014-09-04T15:01:50.000Z</time>
      </trkpt>
      <trkpt lat="45.13686" lon="0.62267">
        <ele>174.19999694824</ele>
        <time>2014-09-04T15:01:55.000Z</time>
      </trkpt>
      <trkpt lat="45.13686" lon="0.62271">
        <ele>174.80000305176</ele>
        <time>2014-09-04T15:01:57.000Z</time>
      </trkpt>
      <trkpt lat="45.13687" lon="0.62284">
        <ele>175.80000305176</ele>
        <time>2014-09-04T15:02:03.000Z</time>
      </trkpt>
      <trkpt lat="45.13688" lon="0.62286">
        <ele>175.80000305176</ele>
        <time>2014-09-04T15:02:04.000Z</time>
      </trkpt>
      <trkpt lat="45.13688" lon="0.62303">
        <ele>177</ele>
        <time>2014-09-04T15:02:11.000Z</time>
      </trkpt>
      <trkpt lat="45.13688" lon="0.62305">
        <ele>177</ele>
        <time>2014-09-04T15:02:12.000Z</time>
      </trkpt>
      <trkpt lat="45.13689" lon="0.62323">
        <ele>177.80000305176</ele>
        <time>2014-09-04T15:02:19.000Z</time>
      </trkpt>
      <trkpt lat="45.1369" lon="0.62325">
        <ele>178</ele>
        <time>2014-09-04T15:02:20.000Z</time>
      </trkpt>
      <trkpt lat="45.13691" lon="0.6234">
        <ele>178.80000305176</ele>
        <time>2014-09-04T15:02:26.000Z</time>
      </trkpt>
      <trkpt lat="45.13691" lon="0.62344">
        <ele>179</ele>
        <time>2014-09-04T15:02:28.000Z</time>
      </trkpt>
      <trkpt lat="45.13694" lon="0.6235">
        <ele>179.80000305176</ele>
        <time>2014-09-04T15:02:31.000Z</time>
      </trkpt>
      <trkpt lat="45.13695" lon="0.62351">
        <ele>180</ele>
        <time>2014-09-04T15:02:32.000Z</time>
      </trkpt>
      <trkpt lat="45.13698" lon="0.6235">
        <ele>181.19999694824</ele>
        <time>2014-09-04T15:02:34.000Z</time>
      </trkpt>
      <trkpt lat="45.13702" lon="0.62344">
        <ele>181.19999694824</ele>
        <time>2014-09-04T15:02:37.000Z</time>
      </trkpt>
      <trkpt lat="45.13715" lon="0.6232">
        <ele>181.80000305176</ele>
        <time>2014-09-04T15:02:45.000Z</time>
      </trkpt>
      <trkpt lat="45.13723" lon="0.62298">
        <ele>182.39999389648</ele>
        <time>2014-09-04T15:02:51.000Z</time>
      </trkpt>
      <trkpt lat="45.13727" lon="0.62287">
        <ele>182.80000305176</ele>
        <time>2014-09-04T15:02:54.000Z</time>
      </trkpt>
      <trkpt lat="45.13732" lon="0.62273">
        <ele>183.60000610352</ele>
        <time>2014-09-04T15:02:58.000Z</time>
      </trkpt>
      <trkpt lat="45.13735" lon="0.62265">
        <ele>183.80000305176</ele>
        <time>2014-09-04T15:03:00.000Z</time>
      </trkpt>
      <trkpt lat="45.13744" lon="0.62235">
        <ele>184.39999389648</ele>
        <time>2014-09-04T15:03:08.000Z</time>
      </trkpt>
      <trkpt lat="45.13746" lon="0.62228">
        <ele>184.80000305176</ele>
        <time>2014-09-04T15:03:10.000Z</time>
      </trkpt>
      <trkpt lat="45.13752" lon="0.62207">
        <ele>185</ele>
        <time>2014-09-04T15:03:16.000Z</time>
      </trkpt>
      <trkpt lat="45.13757" lon="0.62188">
        <ele>185.80000305176</ele>
        <time>2014-09-04T15:03:21.000Z</time>
      </trkpt>
      <trkpt lat="45.1376" lon="0.62176">
        <ele>186.19999694824</ele>
        <time>2014-09-04T15:03:24.000Z</time>
      </trkpt>
      <trkpt lat="45.13768" lon="0.62145">
        <ele>186.80000305176</ele>
        <time>2014-09-04T15:03:32.000Z</time>
      </trkpt>
      <trkpt lat="45.1377" lon="0.62133">
        <ele>187.19999694824</ele>
        <time>2014-09-04T15:03:35.000Z</time>
      </trkpt>
      <trkpt lat="45.13772" lon="0.62113">
        <ele>187.80000305176</ele>
        <time>2014-09-04T15:03:40.000Z</time>
      </trkpt>
      <trkpt lat="45.13774" lon="0.621">
        <ele>187.80000305176</ele>
        <time>2014-09-04T15:03:43.000Z</time>
      </trkpt>
      <trkpt lat="45.13777" lon="0.6206">
        <ele>188</ele>
        <time>2014-09-04T15:03:52.000Z</time>
      </trkpt>
      <trkpt lat="45.1378" lon="0.62033">
        <ele>188</ele>
        <time>2014-09-04T15:03:57.000Z</time>
      </trkpt>
      <trkpt lat="45.13782" lon="0.62027">
        <ele>188.19999694824</ele>
        <time>2014-09-04T15:03:58.000Z</time>
      </trkpt>
      <trkpt lat="45.13794" lon="0.61987">
        <ele>188.80000305176</ele>
        <time>2014-09-04T15:04:05.000Z</time>
      </trkpt>
      <trkpt lat="45.13807" lon="0.61958">
        <ele>189</ele>
        <time>2014-09-04T15:04:11.000Z</time>
      </trkpt>
      <trkpt lat="45.13813" lon="0.61949">
        <ele>189</ele>
        <time>2014-09-04T15:04:13.000Z</time>
      </trkpt>
      <trkpt lat="45.13839" lon="0.61904">
        <ele>189.60000610352</ele>
        <time>2014-09-04T15:04:23.000Z</time>
      </trkpt>
      <trkpt lat="45.13846" lon="0.6189">
        <ele>189.39999389648</ele>
        <time>2014-09-04T15:04:26.000Z</time>
      </trkpt>
      <trkpt lat="45.13852" lon="0.61869">
        <ele>189.19999694824</ele>
        <time>2014-09-04T15:04:30.000Z</time>
      </trkpt>
      <trkpt lat="45.13858" lon="0.61834">
        <ele>189.60000610352</ele>
        <time>2014-09-04T15:04:36.000Z</time>
      </trkpt>
      <trkpt lat="45.13858" lon="0.61828">
        <ele>189.80000305176</ele>
        <time>2014-09-04T15:04:37.000Z</time>
      </trkpt>
      <trkpt lat="45.13857" lon="0.61817">
        <ele>190</ele>
        <time>2014-09-04T15:04:39.000Z</time>
      </trkpt>
      <trkpt lat="45.13855" lon="0.61806">
        <ele>190.19999694824</ele>
        <time>2014-09-04T15:04:41.000Z</time>
      </trkpt>
      <trkpt lat="45.13851" lon="0.6179">
        <ele>191.39999389648</ele>
        <time>2014-09-04T15:04:44.000Z</time>
      </trkpt>
      <trkpt lat="45.13842" lon="0.61771">
        <ele>191.60000610352</ele>
        <time>2014-09-04T15:04:48.000Z</time>
      </trkpt>
      <trkpt lat="45.13821" lon="0.61733">
        <ele>192.39999389648</ele>
        <time>2014-09-04T15:04:56.000Z</time>
      </trkpt>
      <trkpt lat="45.13819" lon="0.61729">
        <ele>192.60000610352</ele>
        <time>2014-09-04T15:04:57.000Z</time>
      </trkpt>
      <trkpt lat="45.13804" lon="0.6169">
        <ele>193</ele>
        <time>2014-09-04T15:05:04.000Z</time>
      </trkpt>
      <trkpt lat="45.13802" lon="0.61678">
        <ele>193</ele>
        <time>2014-09-04T15:05:06.000Z</time>
      </trkpt>
      <trkpt lat="45.13799" lon="0.61652">
        <ele>193</ele>
        <time>2014-09-04T15:05:10.000Z</time>
      </trkpt>
      <trkpt lat="45.13799" lon="0.61637">
        <ele>193.19999694824</ele>
        <time>2014-09-04T15:05:12.000Z</time>
      </trkpt>
      <trkpt lat="45.138" lon="0.61614">
        <ele>192.60000610352</ele>
        <time>2014-09-04T15:05:15.000Z</time>
      </trkpt>
      <trkpt lat="45.13812" lon="0.61554">
        <ele>191.80000305176</ele>
        <time>2014-09-04T15:05:22.000Z</time>
      </trkpt>
      <trkpt lat="45.13817" lon="0.61535">
        <ele>191.39999389648</ele>
        <time>2014-09-04T15:05:24.000Z</time>
      </trkpt>
      <trkpt lat="45.13831" lon="0.61487">
        <ele>190.19999694824</ele>
        <time>2014-09-04T15:05:29.000Z</time>
      </trkpt>
      <trkpt lat="45.13833" lon="0.61478">
        <ele>190.19999694824</ele>
        <time>2014-09-04T15:05:30.000Z</time>
      </trkpt>
      <trkpt lat="45.13852" lon="0.61405">
        <ele>189.60000610352</ele>
        <time>2014-09-04T15:05:38.000Z</time>
      </trkpt>
      <trkpt lat="45.13855" lon="0.61396">
        <ele>189</ele>
        <time>2014-09-04T15:05:39.000Z</time>
      </trkpt>
      <trkpt lat="45.13857" lon="0.61388">
        <ele>189</ele>
        <time>2014-09-04T15:05:40.000Z</time>
      </trkpt>
      <trkpt lat="45.13867" lon="0.61365">
        <ele>189.80000305176</ele>
        <time>2014-09-04T15:05:43.000Z</time>
      </trkpt>
      <trkpt lat="45.13872" lon="0.61358">
        <ele>190.19999694824</ele>
        <time>2014-09-04T15:05:44.000Z</time>
      </trkpt>
      <trkpt lat="45.13877" lon="0.61353">
        <ele>190.19999694824</ele>
        <time>2014-09-04T15:05:45.000Z</time>
      </trkpt>
      <trkpt lat="45.139" lon="0.6134">
        <ele>189.80000305176</ele>
        <time>2014-09-04T15:05:49.000Z</time>
      </trkpt>
      <trkpt lat="45.13933" lon="0.61332">
        <ele>190.39999389648</ele>
        <time>2014-09-04T15:05:55.000Z</time>
      </trkpt>
      <trkpt lat="45.13969" lon="0.61323">
        <ele>191.19999694824</ele>
        <time>2014-09-04T15:06:02.000Z</time>
      </trkpt>
      <trkpt lat="45.13988" lon="0.61317">
        <ele>191.60000610352</ele>
        <time>2014-09-04T15:06:06.000Z</time>
      </trkpt>
      <trkpt lat="45.14028" lon="0.613">
        <ele>192</ele>
        <time>2014-09-04T15:06:14.000Z</time>
      </trkpt>
      <trkpt lat="45.14053" lon="0.61294">
        <ele>192.19999694824</ele>
        <time>2014-09-04T15:06:19.000Z</time>
      </trkpt>
      <trkpt lat="45.14074" lon="0.61287">
        <ele>192</ele>
        <time>2014-09-04T15:06:23.000Z</time>
      </trkpt>
      <trkpt lat="45.14078" lon="0.61285">
        <ele>192.19999694824</ele>
        <time>2014-09-04T15:06:24.000Z</time>
      </trkpt>
      <trkpt lat="45.14105" lon="0.61266">
        <ele>192.60000610352</ele>
        <time>2014-09-04T15:06:30.000Z</time>
      </trkpt>
      <trkpt lat="45.1413" lon="0.61246">
        <ele>193</ele>
        <time>2014-09-04T15:06:36.000Z</time>
      </trkpt>
      <trkpt lat="45.14167" lon="0.61231">
        <ele>192.19999694824</ele>
        <time>2014-09-04T15:06:43.000Z</time>
      </trkpt>
      <trkpt lat="45.14203" lon="0.61218">
        <ele>191.39999389648</ele>
        <time>2014-09-04T15:06:49.000Z</time>
      </trkpt>
      <trkpt lat="45.14209" lon="0.61215">
        <ele>191.19999694824</ele>
        <time>2014-09-04T15:06:50.000Z</time>
      </trkpt>
      <trkpt lat="45.14252" lon="0.61198">
        <ele>190.39999389648</ele>
        <time>2014-09-04T15:06:57.000Z</time>
      </trkpt>
      <trkpt lat="45.14271" lon="0.61191">
        <ele>190.19999694824</ele>
        <time>2014-09-04T15:07:00.000Z</time>
      </trkpt>
      <trkpt lat="45.1429" lon="0.61186">
        <ele>190.60000610352</ele>
        <time>2014-09-04T15:07:03.000Z</time>
      </trkpt>
      <trkpt lat="45.14296" lon="0.61186">
        <ele>190.60000610352</ele>
        <time>2014-09-04T15:07:04.000Z</time>
      </trkpt>
      <trkpt lat="45.14322" lon="0.61196">
        <ele>189.60000610352</ele>
        <time>2014-09-04T15:07:08.000Z</time>
      </trkpt>
      <trkpt lat="45.14328" lon="0.612">
        <ele>189.80000305176</ele>
        <time>2014-09-04T15:07:09.000Z</time>
      </trkpt>
      <trkpt lat="45.14357" lon="0.61222">
        <ele>188.80000305176</ele>
        <time>2014-09-04T15:07:14.000Z</time>
      </trkpt>
      <trkpt lat="45.14362" lon="0.61227">
        <ele>188.39999389648</ele>
        <time>2014-09-04T15:07:15.000Z</time>
      </trkpt>
      <trkpt lat="45.14413" lon="0.61261">
        <ele>188.39999389648</ele>
        <time>2014-09-04T15:07:24.000Z</time>
      </trkpt>
      <trkpt lat="45.14458" lon="0.61275">
        <ele>188</ele>
        <time>2014-09-04T15:07:31.000Z</time>
      </trkpt>
      <trkpt lat="45.14478" lon="0.61274">
        <ele>187.60000610352</ele>
        <time>2014-09-04T15:07:34.000Z</time>
      </trkpt>
      <trkpt lat="45.14498" lon="0.61269">
        <ele>187.60000610352</ele>
        <time>2014-09-04T15:07:37.000Z</time>
      </trkpt>
      <trkpt lat="45.14544" lon="0.6126">
        <ele>187</ele>
        <time>2014-09-04T15:07:44.000Z</time>
      </trkpt>
      <trkpt lat="45.14564" lon="0.6126">
        <ele>186.60000610352</ele>
        <time>2014-09-04T15:07:47.000Z</time>
      </trkpt>
      <trkpt lat="45.14584" lon="0.61251">
        <ele>186.19999694824</ele>
        <time>2014-09-04T15:07:50.000Z</time>
      </trkpt>
      <trkpt lat="45.146" lon="0.6123">
        <ele>185.19999694824</ele>
        <time>2014-09-04T15:07:53.000Z</time>
      </trkpt>
      <trkpt lat="45.14626" lon="0.61194">
        <ele>184.19999694824</ele>
        <time>2014-09-04T15:07:58.000Z</time>
      </trkpt>
      <trkpt lat="45.14637" lon="0.6118">
        <ele>183.39999389648</ele>
        <time>2014-09-04T15:08:00.000Z</time>
      </trkpt>
      <trkpt lat="45.14652" lon="0.61163">
        <ele>183.19999694824</ele>
        <time>2014-09-04T15:08:03.000Z</time>
      </trkpt>
      <trkpt lat="45.14668" lon="0.61149">
        <ele>183</ele>
        <time>2014-09-04T15:08:06.000Z</time>
      </trkpt>
      <trkpt lat="45.14707" lon="0.61124">
        <ele>182.80000305176</ele>
        <time>2014-09-04T15:08:13.000Z</time>
      </trkpt>
      <trkpt lat="45.14738" lon="0.61102">
        <ele>182.80000305176</ele>
        <time>2014-09-04T15:08:19.000Z</time>
      </trkpt>
      <trkpt lat="45.14768" lon="0.61072">
        <ele>182.60000610352</ele>
        <time>2014-09-04T15:08:25.000Z</time>
      </trkpt>
      <trkpt lat="45.1478" lon="0.61064">
        <ele>182.60000610352</ele>
        <time>2014-09-04T15:08:27.000Z</time>
      </trkpt>
      <trkpt lat="45.14797" lon="0.61053">
        <ele>182.80000305176</ele>
        <time>2014-09-04T15:08:30.000Z</time>
      </trkpt>
      <trkpt lat="45.14836" lon="0.61024">
        <ele>183</ele>
        <time>2014-09-04T15:08:37.000Z</time>
      </trkpt>
      <trkpt lat="45.14859" lon="0.61005">
        <ele>183.19999694824</ele>
        <time>2014-09-04T15:08:42.000Z</time>
      </trkpt>
      <trkpt lat="45.14862" lon="0.60999">
        <ele>183.19999694824</ele>
        <time>2014-09-04T15:08:43.000Z</time>
      </trkpt>
      <trkpt lat="45.14871" lon="0.60982">
        <ele>183.19999694824</ele>
        <time>2014-09-04T15:08:46.000Z</time>
      </trkpt>
      <trkpt lat="45.14878" lon="0.60969">
        <ele>183.39999389648</ele>
        <time>2014-09-04T15:08:48.000Z</time>
      </trkpt>
      <trkpt lat="45.14902" lon="0.60933">
        <ele>183.39999389648</ele>
        <time>2014-09-04T15:08:54.000Z</time>
      </trkpt>
      <trkpt lat="45.14917" lon="0.60904">
        <ele>183.39999389648</ele>
        <time>2014-09-04T15:08:58.000Z</time>
      </trkpt>
      <trkpt lat="45.14923" lon="0.60887">
        <ele>183.39999389648</ele>
        <time>2014-09-04T15:09:00.000Z</time>
      </trkpt>
      <trkpt lat="45.14946" lon="0.60812">
        <ele>183</ele>
        <time>2014-09-04T15:09:09.000Z</time>
      </trkpt>
      <trkpt lat="45.14959" lon="0.60778">
        <ele>182.80000305176</ele>
        <time>2014-09-04T15:09:14.000Z</time>
      </trkpt>
      <trkpt lat="45.14963" lon="0.60773">
        <ele>182.80000305176</ele>
        <time>2014-09-04T15:09:15.000Z</time>
      </trkpt>
      <trkpt lat="45.14991" lon="0.60739">
        <ele>182.60000610352</ele>
        <time>2014-09-04T15:09:21.000Z</time>
      </trkpt>
      <trkpt lat="45.14998" lon="0.60724">
        <ele>182.60000610352</ele>
        <time>2014-09-04T15:09:23.000Z</time>
      </trkpt>
      <trkpt lat="45.15007" lon="0.60701">
        <ele>182.60000610352</ele>
        <time>2014-09-04T15:09:26.000Z</time>
      </trkpt>
      <trkpt lat="45.1502" lon="0.60656">
        <ele>182.60000610352</ele>
        <time>2014-09-04T15:09:32.000Z</time>
      </trkpt>
      <trkpt lat="45.15022" lon="0.60647">
        <ele>182.60000610352</ele>
        <time>2014-09-04T15:09:33.000Z</time>
      </trkpt>
      <trkpt lat="45.15024" lon="0.60639">
        <ele>182.60000610352</ele>
        <time>2014-09-04T15:09:34.000Z</time>
      </trkpt>
      <trkpt lat="45.15024" lon="0.60613">
        <ele>182.60000610352</ele>
        <time>2014-09-04T15:09:37.000Z</time>
      </trkpt>
      <trkpt lat="45.1502" lon="0.60558">
        <ele>182.19999694824</ele>
        <time>2014-09-04T15:09:43.000Z</time>
      </trkpt>
      <trkpt lat="45.15021" lon="0.6052">
        <ele>181.19999694824</ele>
        <time>2014-09-04T15:09:47.000Z</time>
      </trkpt>
      <trkpt lat="45.15023" lon="0.60501">
        <ele>180.80000305176</ele>
        <time>2014-09-04T15:09:49.000Z</time>
      </trkpt>
      <trkpt lat="45.15022" lon="0.60482">
        <ele>180</ele>
        <time>2014-09-04T15:09:51.000Z</time>
      </trkpt>
      <trkpt lat="45.15022" lon="0.6045">
        <ele>178.80000305176</ele>
        <time>2014-09-04T15:09:54.000Z</time>
      </trkpt>
      <trkpt lat="45.15022" lon="0.60439">
        <ele>178.39999389648</ele>
        <time>2014-09-04T15:09:55.000Z</time>
      </trkpt>
      <trkpt lat="45.15022" lon="0.60415">
        <ele>177.19999694824</ele>
        <time>2014-09-04T15:09:57.000Z</time>
      </trkpt>
      <trkpt lat="45.15021" lon="0.6039">
        <ele>175.80000305176</ele>
        <time>2014-09-04T15:09:59.000Z</time>
      </trkpt>
      <trkpt lat="45.15019" lon="0.60361">
        <ele>174.19999694824</ele>
        <time>2014-09-04T15:10:01.000Z</time>
      </trkpt>
      <trkpt lat="45.15016" lon="0.6033">
        <ele>172.60000610352</ele>
        <time>2014-09-04T15:10:03.000Z</time>
      </trkpt>
      <trkpt lat="45.15016" lon="0.60295">
        <ele>171.19999694824</ele>
        <time>2014-09-04T15:10:05.000Z</time>
      </trkpt>
      <trkpt lat="45.15016" lon="0.60278">
        <ele>170.39999389648</ele>
        <time>2014-09-04T15:10:06.000Z</time>
      </trkpt>
      <trkpt lat="45.15016" lon="0.60261">
        <ele>169.60000610352</ele>
        <time>2014-09-04T15:10:07.000Z</time>
      </trkpt>
      <trkpt lat="45.15015" lon="0.60215">
        <ele>168</ele>
        <time>2014-09-04T15:10:10.000Z</time>
      </trkpt>
      <trkpt lat="45.15015" lon="0.60187">
        <ele>167.60000610352</ele>
        <time>2014-09-04T15:10:12.000Z</time>
      </trkpt>
      <trkpt lat="45.15019" lon="0.60124">
        <ele>168</ele>
        <time>2014-09-04T15:10:17.000Z</time>
      </trkpt>
      <trkpt lat="45.15025" lon="0.60087">
        <ele>168.60000610352</ele>
        <time>2014-09-04T15:10:21.000Z</time>
      </trkpt>
      <trkpt lat="45.1503" lon="0.60038">
        <ele>168.80000305176</ele>
        <time>2014-09-04T15:10:27.000Z</time>
      </trkpt>
      <trkpt lat="45.15033" lon="0.60023">
        <ele>169.19999694824</ele>
        <time>2014-09-04T15:10:29.000Z</time>
      </trkpt>
      <trkpt lat="45.15036" lon="0.60008">
        <ele>169.19999694824</ele>
        <time>2014-09-04T15:10:31.000Z</time>
      </trkpt>
      <trkpt lat="45.1504" lon="0.59994">
        <ele>169.60000610352</ele>
        <time>2014-09-04T15:10:33.000Z</time>
      </trkpt>
      <trkpt lat="45.15059" lon="0.5993">
        <ele>168.80000305176</ele>
        <time>2014-09-04T15:10:42.000Z</time>
      </trkpt>
      <trkpt lat="45.15067" lon="0.59911">
        <ele>168.19999694824</ele>
        <time>2014-09-04T15:10:45.000Z</time>
      </trkpt>
      <trkpt lat="45.15083" lon="0.59884">
        <ele>167</ele>
        <time>2014-09-04T15:10:49.000Z</time>
      </trkpt>
      <trkpt lat="45.15102" lon="0.59858">
        <ele>165.80000305176</ele>
        <time>2014-09-04T15:10:53.000Z</time>
      </trkpt>
      <trkpt lat="45.15111" lon="0.59842">
        <ele>164.60000610352</ele>
        <time>2014-09-04T15:10:55.000Z</time>
      </trkpt>
      <trkpt lat="45.15117" lon="0.59835">
        <ele>163.80000305176</ele>
        <time>2014-09-04T15:10:56.000Z</time>
      </trkpt>
      <trkpt lat="45.15123" lon="0.59826">
        <ele>162.60000610352</ele>
        <time>2014-09-04T15:10:57.000Z</time>
      </trkpt>
      <trkpt lat="45.15129" lon="0.59817">
        <ele>160.39999389648</ele>
        <time>2014-09-04T15:10:58.000Z</time>
      </trkpt>
      <trkpt lat="45.15135" lon="0.59807">
        <ele>159.60000610352</ele>
        <time>2014-09-04T15:10:59.000Z</time>
      </trkpt>
      <trkpt lat="45.1514" lon="0.59795">
        <ele>158.19999694824</ele>
        <time>2014-09-04T15:11:00.000Z</time>
      </trkpt>
      <trkpt lat="45.15145" lon="0.59785">
        <ele>156.60000610352</ele>
        <time>2014-09-04T15:11:01.000Z</time>
      </trkpt>
      <trkpt lat="45.15151" lon="0.59777">
        <ele>154.60000610352</ele>
        <time>2014-09-04T15:11:02.000Z</time>
      </trkpt>
      <trkpt lat="45.15157" lon="0.59771">
        <ele>153</ele>
        <time>2014-09-04T15:11:03.000Z</time>
      </trkpt>
      <trkpt lat="45.15165" lon="0.59768">
        <ele>151.80000305176</ele>
        <time>2014-09-04T15:11:04.000Z</time>
      </trkpt>
      <trkpt lat="45.15173" lon="0.59769">
        <ele>150.80000305176</ele>
        <time>2014-09-04T15:11:05.000Z</time>
      </trkpt>
      <trkpt lat="45.1519" lon="0.59774">
        <ele>149.19999694824</ele>
        <time>2014-09-04T15:11:07.000Z</time>
      </trkpt>
      <trkpt lat="45.15196" lon="0.59776">
        <ele>148.60000610352</ele>
        <time>2014-09-04T15:11:08.000Z</time>
      </trkpt>
      <trkpt lat="45.152" lon="0.5978">
        <ele>147.80000305176</ele>
        <time>2014-09-04T15:11:09.000Z</time>
      </trkpt>
      <trkpt lat="45.15205" lon="0.59791">
        <ele>147</ele>
        <time>2014-09-04T15:11:11.000Z</time>
      </trkpt>
      <trkpt lat="45.15205" lon="0.59797">
        <ele>146.80000305176</ele>
        <time>2014-09-04T15:11:12.000Z</time>
      </trkpt>
      <trkpt lat="45.15202" lon="0.59807">
        <ele>147.39999389648</ele>
        <time>2014-09-04T15:11:14.000Z</time>
      </trkpt>
      <trkpt lat="45.15201" lon="0.59812">
        <ele>147.60000610352</ele>
        <time>2014-09-04T15:11:15.000Z</time>
      </trkpt>
      <trkpt lat="45.15199" lon="0.59817">
        <ele>148</ele>
        <time>2014-09-04T15:11:16.000Z</time>
      </trkpt>
      <trkpt lat="45.15196" lon="0.59836">
        <ele>149.19999694824</ele>
        <time>2014-09-04T15:11:20.000Z</time>
      </trkpt>
      <trkpt lat="45.15195" lon="0.5984">
        <ele>149.39999389648</ele>
        <time>2014-09-04T15:11:21.000Z</time>
      </trkpt>
      <trkpt lat="45.15193" lon="0.59847">
        <ele>150.19999694824</ele>
        <time>2014-09-04T15:11:23.000Z</time>
      </trkpt>
      <trkpt lat="45.15194" lon="0.5985">
        <ele>150.39999389648</ele>
        <time>2014-09-04T15:11:24.000Z</time>
      </trkpt>
      <trkpt lat="45.15195" lon="0.59855">
        <ele>150.19999694824</ele>
        <time>2014-09-04T15:11:26.000Z</time>
      </trkpt>
      <trkpt lat="45.152" lon="0.59871">
        <ele>149</ele>
        <time>2014-09-04T15:11:29.000Z</time>
      </trkpt>
      <trkpt lat="45.15201" lon="0.59878">
        <ele>148.60000610352</ele>
        <time>2014-09-04T15:11:30.000Z</time>
      </trkpt>
      <trkpt lat="45.15201" lon="0.59895">
        <ele>147.80000305176</ele>
        <time>2014-09-04T15:11:32.000Z</time>
      </trkpt>
      <trkpt lat="45.15201" lon="0.59912">
        <ele>147.19999694824</ele>
        <time>2014-09-04T15:11:34.000Z</time>
      </trkpt>
      <trkpt lat="45.15202" lon="0.5992">
        <ele>146.80000305176</ele>
        <time>2014-09-04T15:11:35.000Z</time>
      </trkpt>
      <trkpt lat="45.15203" lon="0.59939">
        <ele>145.80000305176</ele>
        <time>2014-09-04T15:11:37.000Z</time>
      </trkpt>
      <trkpt lat="45.15205" lon="0.5996">
        <ele>144.19999694824</ele>
        <time>2014-09-04T15:11:39.000Z</time>
      </trkpt>
      <trkpt lat="45.15205" lon="0.59971">
        <ele>143</ele>
        <time>2014-09-04T15:11:40.000Z</time>
      </trkpt>
      <trkpt lat="45.15206" lon="0.59993">
        <ele>141.39999389648</ele>
        <time>2014-09-04T15:11:42.000Z</time>
      </trkpt>
      <trkpt lat="45.15205" lon="0.60013">
        <ele>139</ele>
        <time>2014-09-04T15:11:44.000Z</time>
      </trkpt>
      <trkpt lat="45.15204" lon="0.60021">
        <ele>137.60000610352</ele>
        <time>2014-09-04T15:11:45.000Z</time>
      </trkpt>
      <trkpt lat="45.15203" lon="0.60029">
        <ele>136.60000610352</ele>
        <time>2014-09-04T15:11:46.000Z</time>
      </trkpt>
      <trkpt lat="45.15204" lon="0.60034">
        <ele>135.39999389648</ele>
        <time>2014-09-04T15:11:47.000Z</time>
      </trkpt>
      <trkpt lat="45.15206" lon="0.60037">
        <ele>134.39999389648</ele>
        <time>2014-09-04T15:11:48.000Z</time>
      </trkpt>
      <trkpt lat="45.15208" lon="0.60039">
        <ele>133.60000610352</ele>
        <time>2014-09-04T15:11:49.000Z</time>
      </trkpt>
      <trkpt lat="45.15214" lon="0.60044">
        <ele>132.39999389648</ele>
        <time>2014-09-04T15:11:51.000Z</time>
      </trkpt>
      <trkpt lat="45.15223" lon="0.6005">
        <ele>130.19999694824</ele>
        <time>2014-09-04T15:11:53.000Z</time>
      </trkpt>
      <trkpt lat="45.15229" lon="0.60053">
        <ele>128.80000305176</ele>
        <time>2014-09-04T15:11:54.000Z</time>
      </trkpt>
      <trkpt lat="45.15236" lon="0.60057">
        <ele>127.59999847412</ele>
        <time>2014-09-04T15:11:55.000Z</time>
      </trkpt>
      <trkpt lat="45.15243" lon="0.6006">
        <ele>126.40000152588</ele>
        <time>2014-09-04T15:11:56.000Z</time>
      </trkpt>
      <trkpt lat="45.15251" lon="0.60063">
        <ele>125.19999694824</ele>
        <time>2014-09-04T15:11:57.000Z</time>
      </trkpt>
      <trkpt lat="45.15259" lon="0.60066">
        <ele>123.80000305176</ele>
        <time>2014-09-04T15:11:58.000Z</time>
      </trkpt>
      <trkpt lat="45.15267" lon="0.60069">
        <ele>122.59999847412</ele>
        <time>2014-09-04T15:11:59.000Z</time>
      </trkpt>
      <trkpt lat="45.15275" lon="0.60073">
        <ele>121.19999694824</ele>
        <time>2014-09-04T15:12:00.000Z</time>
      </trkpt>
      <trkpt lat="45.15284" lon="0.60076">
        <ele>119.80000305176</ele>
        <time>2014-09-04T15:12:01.000Z</time>
      </trkpt>
      <trkpt lat="45.15294" lon="0.6008">
        <ele>118.59999847412</ele>
        <time>2014-09-04T15:12:02.000Z</time>
      </trkpt>
      <trkpt lat="45.15304" lon="0.60084">
        <ele>117.40000152588</ele>
        <time>2014-09-04T15:12:03.000Z</time>
      </trkpt>
      <trkpt lat="45.15313" lon="0.60087">
        <ele>116.40000152588</ele>
        <time>2014-09-04T15:12:04.000Z</time>
      </trkpt>
      <trkpt lat="45.15323" lon="0.6009">
        <ele>115.40000152588</ele>
        <time>2014-09-04T15:12:05.000Z</time>
      </trkpt>
      <trkpt lat="45.15331" lon="0.6009">
        <ele>114.19999694824</ele>
        <time>2014-09-04T15:12:06.000Z</time>
      </trkpt>
      <trkpt lat="45.15338" lon="0.60088">
        <ele>113.19999694824</ele>
        <time>2014-09-04T15:12:07.000Z</time>
      </trkpt>
      <trkpt lat="45.15346" lon="0.60086">
        <ele>112.19999694824</ele>
        <time>2014-09-04T15:12:08.000Z</time>
      </trkpt>
      <trkpt lat="45.15355" lon="0.60082">
        <ele>111.19999694824</ele>
        <time>2014-09-04T15:12:09.000Z</time>
      </trkpt>
      <trkpt lat="45.15364" lon="0.60078">
        <ele>110.59999847412</ele>
        <time>2014-09-04T15:12:10.000Z</time>
      </trkpt>
      <trkpt lat="45.15373" lon="0.60075">
        <ele>109.80000305176</ele>
        <time>2014-09-04T15:12:11.000Z</time>
      </trkpt>
      <trkpt lat="45.15382" lon="0.60072">
        <ele>109.19999694824</ele>
        <time>2014-09-04T15:12:12.000Z</time>
      </trkpt>
      <trkpt lat="45.15399" lon="0.60064">
        <ele>107.80000305176</ele>
        <time>2014-09-04T15:12:14.000Z</time>
      </trkpt>
      <trkpt lat="45.15414" lon="0.60051">
        <ele>106.19999694824</ele>
        <time>2014-09-04T15:12:16.000Z</time>
      </trkpt>
      <trkpt lat="45.15437" lon="0.60031">
        <ele>105</ele>
        <time>2014-09-04T15:12:19.000Z</time>
      </trkpt>
      <trkpt lat="45.15451" lon="0.60018">
        <ele>103.80000305176</ele>
        <time>2014-09-04T15:12:21.000Z</time>
      </trkpt>
      <trkpt lat="45.15458" lon="0.60009">
        <ele>103.19999694824</ele>
        <time>2014-09-04T15:12:22.000Z</time>
      </trkpt>
      <trkpt lat="45.15464" lon="0.60001">
        <ele>102.59999847412</ele>
        <time>2014-09-04T15:12:23.000Z</time>
      </trkpt>
      <trkpt lat="45.15478" lon="0.59992">
        <ele>101.59999847412</ele>
        <time>2014-09-04T15:12:25.000Z</time>
      </trkpt>
      <trkpt lat="45.15486" lon="0.59988">
        <ele>101.19999694824</ele>
        <time>2014-09-04T15:12:26.000Z</time>
      </trkpt>
      <trkpt lat="45.15504" lon="0.59973">
        <ele>100.80000305176</ele>
        <time>2014-09-04T15:12:28.000Z</time>
      </trkpt>
      <trkpt lat="45.15518" lon="0.5996">
        <ele>100.40000152588</ele>
        <time>2014-09-04T15:12:30.000Z</time>
      </trkpt>
      <trkpt lat="45.15523" lon="0.59951">
        <ele>100</ele>
        <time>2014-09-04T15:12:31.000Z</time>
      </trkpt>
      <trkpt lat="45.15527" lon="0.59936">
        <ele>99.199996948242</ele>
        <time>2014-09-04T15:12:33.000Z</time>
      </trkpt>
      <trkpt lat="45.15531" lon="0.59931">
        <ele>99</ele>
        <time>2014-09-04T15:12:34.000Z</time>
      </trkpt>
      <trkpt lat="45.15542" lon="0.59928">
        <ele>98.400001525879</ele>
        <time>2014-09-04T15:12:36.000Z</time>
      </trkpt>
      <trkpt lat="45.15547" lon="0.59927">
        <ele>98.199996948242</ele>
        <time>2014-09-04T15:12:37.000Z</time>
      </trkpt>
      <trkpt lat="45.15562" lon="0.59929">
        <ele>97.800003051758</ele>
        <time>2014-09-04T15:12:39.000Z</time>
      </trkpt>
      <trkpt lat="45.15577" lon="0.59927">
        <ele>97.199996948242</ele>
        <time>2014-09-04T15:12:41.000Z</time>
      </trkpt>
      <trkpt lat="45.15592" lon="0.59925">
        <ele>96.199996948242</ele>
        <time>2014-09-04T15:12:43.000Z</time>
      </trkpt>
      <trkpt lat="45.15616" lon="0.59922">
        <ele>94.800003051758</ele>
        <time>2014-09-04T15:12:46.000Z</time>
      </trkpt>
      <trkpt lat="45.15624" lon="0.59921">
        <ele>94.599998474121</ele>
        <time>2014-09-04T15:12:47.000Z</time>
      </trkpt>
      <trkpt lat="45.15632" lon="0.59918">
        <ele>94.199996948242</ele>
        <time>2014-09-04T15:12:48.000Z</time>
      </trkpt>
      <trkpt lat="45.15647" lon="0.59912">
        <ele>93.800003051758</ele>
        <time>2014-09-04T15:12:50.000Z</time>
      </trkpt>
      <trkpt lat="45.15662" lon="0.59905">
        <ele>93</ele>
        <time>2014-09-04T15:12:52.000Z</time>
      </trkpt>
      <trkpt lat="45.1567" lon="0.59901">
        <ele>92.599998474121</ele>
        <time>2014-09-04T15:12:53.000Z</time>
      </trkpt>
      <trkpt lat="45.15694" lon="0.59889">
        <ele>91.599998474121</ele>
        <time>2014-09-04T15:12:56.000Z</time>
      </trkpt>
      <trkpt lat="45.15718" lon="0.59875">
        <ele>90.800003051758</ele>
        <time>2014-09-04T15:12:59.000Z</time>
      </trkpt>
      <trkpt lat="45.15725" lon="0.59871">
        <ele>90.400001525879</ele>
        <time>2014-09-04T15:13:00.000Z</time>
      </trkpt>
      <trkpt lat="45.15753" lon="0.59858">
        <ele>89.400001525879</ele>
        <time>2014-09-04T15:13:04.000Z</time>
      </trkpt>
      <trkpt lat="45.15763" lon="0.59869">
        <ele>89.400001525879</ele>
        <time>2014-09-04T15:13:06.000Z</time>
      </trkpt>
      <trkpt lat="45.15775" lon="0.59889">
        <ele>89.599998474121</ele>
        <time>2014-09-04T15:13:09.000Z</time>
      </trkpt>
      <trkpt lat="45.15781" lon="0.59901">
        <ele>89.599998474121</ele>
        <time>2014-09-04T15:13:11.000Z</time>
      </trkpt>
      <trkpt lat="45.15798" lon="0.5994">
        <ele>89.599998474121</ele>
        <time>2014-09-04T15:13:17.000Z</time>
      </trkpt>
      <trkpt lat="45.15816" lon="0.59979">
        <ele>88.800003051758</ele>
        <time>2014-09-04T15:13:22.000Z</time>
      </trkpt>
      <trkpt lat="45.15847" lon="0.60033">
        <ele>89.599998474121</ele>
        <time>2014-09-04T15:13:29.000Z</time>
      </trkpt>
      <trkpt lat="45.15865" lon="0.60064">
        <ele>90.800003051758</ele>
        <time>2014-09-04T15:13:34.000Z</time>
      </trkpt>
      <trkpt lat="45.15872" lon="0.60077">
        <ele>91.199996948242</ele>
        <time>2014-09-04T15:13:36.000Z</time>
      </trkpt>
      <trkpt lat="45.15891" lon="0.6011">
        <ele>91.199996948242</ele>
        <time>2014-09-04T15:13:41.000Z</time>
      </trkpt>
      <trkpt lat="45.159" lon="0.60123">
        <ele>91.400001525879</ele>
        <time>2014-09-04T15:13:43.000Z</time>
      </trkpt>
      <trkpt lat="45.15925" lon="0.60168">
        <ele>89.199996948242</ele>
        <time>2014-09-04T15:13:49.000Z</time>
      </trkpt>
      <trkpt lat="45.15929" lon="0.60176">
        <ele>89.199996948242</ele>
        <time>2014-09-04T15:13:50.000Z</time>
      </trkpt>
      <trkpt lat="45.15958" lon="0.60229">
        <ele>88.400001525879</ele>
        <time>2014-09-04T15:13:56.000Z</time>
      </trkpt>
      <trkpt lat="45.15963" lon="0.60238">
        <ele>88</ele>
        <time>2014-09-04T15:13:57.000Z</time>
      </trkpt>
      <trkpt lat="45.15981" lon="0.60284">
        <ele>87.599998474121</ele>
        <time>2014-09-04T15:14:02.000Z</time>
      </trkpt>
      <trkpt lat="45.15999" lon="0.6033">
        <ele>88.400001525879</ele>
        <time>2014-09-04T15:14:08.000Z</time>
      </trkpt>
      <trkpt lat="45.16002" lon="0.60338">
        <ele>89.199996948242</ele>
        <time>2014-09-04T15:14:09.000Z</time>
      </trkpt>
      <trkpt lat="45.16012" lon="0.60366">
        <ele>90.199996948242</ele>
        <time>2014-09-04T15:14:13.000Z</time>
      </trkpt>
      <trkpt lat="45.1602" lon="0.60388">
        <ele>90.599998474121</ele>
        <time>2014-09-04T15:14:16.000Z</time>
      </trkpt>
      <trkpt lat="45.16049" lon="0.60462">
        <ele>91.199996948242</ele>
        <time>2014-09-04T15:14:26.000Z</time>
      </trkpt>
      <trkpt lat="45.16052" lon="0.60469">
        <ele>91.199996948242</ele>
        <time>2014-09-04T15:14:27.000Z</time>
      </trkpt>
      <trkpt lat="45.16079" lon="0.6054">
        <ele>91.599998474121</ele>
        <time>2014-09-04T15:14:37.000Z</time>
      </trkpt>
      <trkpt lat="45.16082" lon="0.60547">
        <ele>91.599998474121</ele>
        <time>2014-09-04T15:14:38.000Z</time>
      </trkpt>
      <trkpt lat="45.16109" lon="0.60616">
        <ele>91.199996948242</ele>
        <time>2014-09-04T15:14:47.000Z</time>
      </trkpt>
      <trkpt lat="45.16125" lon="0.60659">
        <ele>90</ele>
        <time>2014-09-04T15:14:52.000Z</time>
      </trkpt>
      <trkpt lat="45.1613" lon="0.60677">
        <ele>90.400001525879</ele>
        <time>2014-09-04T15:14:54.000Z</time>
      </trkpt>
      <trkpt lat="45.16148" lon="0.60753">
        <ele>90.199996948242</ele>
        <time>2014-09-04T15:15:03.000Z</time>
      </trkpt>
      <trkpt lat="45.16155" lon="0.608">
        <ele>88.599998474121</ele>
        <time>2014-09-04T15:15:08.000Z</time>
      </trkpt>
      <trkpt lat="45.16157" lon="0.60819">
        <ele>89.199996948242</ele>
        <time>2014-09-04T15:15:10.000Z</time>
      </trkpt>
      <trkpt lat="45.16157" lon="0.60828">
        <ele>90</ele>
        <time>2014-09-04T15:15:11.000Z</time>
      </trkpt>
      <trkpt lat="45.16157" lon="0.60848">
        <ele>89</ele>
        <time>2014-09-04T15:15:13.000Z</time>
      </trkpt>
      <trkpt lat="45.16158" lon="0.60896">
        <ele>88.199996948242</ele>
        <time>2014-09-04T15:15:18.000Z</time>
      </trkpt>
      <trkpt lat="45.16158" lon="0.60976">
        <ele>89.199996948242</ele>
        <time>2014-09-04T15:15:26.000Z</time>
      </trkpt>
      <trkpt lat="45.16153" lon="0.61033">
        <ele>87.599998474121</ele>
        <time>2014-09-04T15:15:32.000Z</time>
      </trkpt>
      <trkpt lat="45.16151" lon="0.61043">
        <ele>87.199996948242</ele>
        <time>2014-09-04T15:15:33.000Z</time>
      </trkpt>
      <trkpt lat="45.16138" lon="0.61098">
        <ele>87</ele>
        <time>2014-09-04T15:15:39.000Z</time>
      </trkpt>
      <trkpt lat="45.16125" lon="0.61141">
        <ele>86.599998474121</ele>
        <time>2014-09-04T15:15:44.000Z</time>
      </trkpt>
      <trkpt lat="45.1612" lon="0.61167">
        <ele>85.400001525879</ele>
        <time>2014-09-04T15:15:47.000Z</time>
      </trkpt>
      <trkpt lat="45.16124" lon="0.61192">
        <ele>85.400001525879</ele>
        <time>2014-09-04T15:15:50.000Z</time>
      </trkpt>
      <trkpt lat="45.16144" lon="0.61209">
        <ele>84.199996948242</ele>
        <time>2014-09-04T15:15:53.000Z</time>
      </trkpt>
      <trkpt lat="45.16153" lon="0.61215">
        <ele>83.800003051758</ele>
        <time>2014-09-04T15:15:54.000Z</time>
      </trkpt>
      <trkpt lat="45.1617" lon="0.61226">
        <ele>82.800003051758</ele>
        <time>2014-09-04T15:15:56.000Z</time>
      </trkpt>
      <trkpt lat="45.16187" lon="0.61238">
        <ele>81.199996948242</ele>
        <time>2014-09-04T15:15:58.000Z</time>
      </trkpt>
      <trkpt lat="45.16196" lon="0.61244">
        <ele>80.800003051758</ele>
        <time>2014-09-04T15:15:59.000Z</time>
      </trkpt>
      <trkpt lat="45.16213" lon="0.61256">
        <ele>79.599998474121</ele>
        <time>2014-09-04T15:16:01.000Z</time>
      </trkpt>
      <trkpt lat="45.16255" lon="0.61284">
        <ele>78.400001525879</ele>
        <time>2014-09-04T15:16:06.000Z</time>
      </trkpt>
      <trkpt lat="45.1627" lon="0.61295">
        <ele>78.199996948242</ele>
        <time>2014-09-04T15:16:08.000Z</time>
      </trkpt>
      <trkpt lat="45.16308" lon="0.61331">
        <ele>78.599998474121</ele>
        <time>2014-09-04T15:16:14.000Z</time>
      </trkpt>
      <trkpt lat="45.16329" lon="0.6137">
        <ele>78.400001525879</ele>
        <time>2014-09-04T15:16:19.000Z</time>
      </trkpt>
      <trkpt lat="45.16364" lon="0.61425">
        <ele>78.199996948242</ele>
        <time>2014-09-04T15:16:28.000Z</time>
      </trkpt>
      <trkpt lat="45.1638" lon="0.61446">
        <ele>79.599998474121</ele>
        <time>2014-09-04T15:16:32.000Z</time>
      </trkpt>
      <trkpt lat="45.16387" lon="0.61456">
        <ele>80.199996948242</ele>
        <time>2014-09-04T15:16:34.000Z</time>
      </trkpt>
      <trkpt lat="45.16394" lon="0.61464">
        <ele>81.400001525879</ele>
        <time>2014-09-04T15:16:36.000Z</time>
      </trkpt>
      <trkpt lat="45.16403" lon="0.61476">
        <ele>82.400001525879</ele>
        <time>2014-09-04T15:16:39.000Z</time>
      </trkpt>
      <trkpt lat="45.16414" lon="0.61488">
        <ele>83</ele>
        <time>2014-09-04T15:16:42.000Z</time>
      </trkpt>
      <trkpt lat="45.1642" lon="0.61496">
        <ele>83.599998474121</ele>
        <time>2014-09-04T15:16:44.000Z</time>
      </trkpt>
      <trkpt lat="45.16424" lon="0.61501">
        <ele>84</ele>
        <time>2014-09-04T15:16:45.000Z</time>
      </trkpt>
      <trkpt lat="45.16434" lon="0.61512">
        <ele>84.599998474121</ele>
        <time>2014-09-04T15:16:48.000Z</time>
      </trkpt>
      <trkpt lat="45.16438" lon="0.61516">
        <ele>84.800003051758</ele>
        <time>2014-09-04T15:16:49.000Z</time>
      </trkpt>
      <trkpt lat="45.16449" lon="0.61529">
        <ele>85.199996948242</ele>
        <time>2014-09-04T15:16:52.000Z</time>
      </trkpt>
      <trkpt lat="45.16453" lon="0.61541">
        <ele>85.800003051758</ele>
        <time>2014-09-04T15:16:54.000Z</time>
      </trkpt>
      <trkpt lat="45.16458" lon="0.61559">
        <ele>86.599998474121</ele>
        <time>2014-09-04T15:16:57.000Z</time>
      </trkpt>
      <trkpt lat="45.1646" lon="0.6157">
        <ele>87</ele>
        <time>2014-09-04T15:16:59.000Z</time>
      </trkpt>
      <trkpt lat="45.16466" lon="0.6159">
        <ele>88.199996948242</ele>
        <time>2014-09-04T15:17:03.000Z</time>
      </trkpt>
      <trkpt lat="45.1647" lon="0.61603">
        <ele>88.800003051758</ele>
        <time>2014-09-04T15:17:06.000Z</time>
      </trkpt>
      <trkpt lat="45.16473" lon="0.61616">
        <ele>89.400001525879</ele>
        <time>2014-09-04T15:17:09.000Z</time>
      </trkpt>
      <trkpt lat="45.16477" lon="0.6163">
        <ele>90.400001525879</ele>
        <time>2014-09-04T15:17:13.000Z</time>
      </trkpt>
      <trkpt lat="45.1648" lon="0.6164">
        <ele>91.400001525879</ele>
        <time>2014-09-04T15:17:16.000Z</time>
      </trkpt>
      <trkpt lat="45.16488" lon="0.6166">
        <ele>92.400001525879</ele>
        <time>2014-09-04T15:17:22.000Z</time>
      </trkpt>
      <trkpt lat="45.16501" lon="0.61693">
        <ele>93.400001525879</ele>
        <time>2014-09-04T15:17:31.000Z</time>
      </trkpt>
      <trkpt lat="45.16502" lon="0.61697">
        <ele>93.599998474121</ele>
        <time>2014-09-04T15:17:32.000Z</time>
      </trkpt>
      <trkpt lat="45.16515" lon="0.61725">
        <ele>94.599998474121</ele>
        <time>2014-09-04T15:17:39.000Z</time>
      </trkpt>
      <trkpt lat="45.16528" lon="0.61764">
        <ele>95.199996948242</ele>
        <time>2014-09-04T15:17:48.000Z</time>
      </trkpt>
      <trkpt lat="45.16532" lon="0.61779">
        <ele>95.599998474121</ele>
        <time>2014-09-04T15:17:52.000Z</time>
      </trkpt>
      <trkpt lat="45.16534" lon="0.61792">
        <ele>96.199996948242</ele>
        <time>2014-09-04T15:17:55.000Z</time>
      </trkpt>
      <trkpt lat="45.16537" lon="0.61803">
        <ele>96.599998474121</ele>
        <time>2014-09-04T15:17:58.000Z</time>
      </trkpt>
      <trkpt lat="45.1654" lon="0.61816">
        <ele>96.800003051758</ele>
        <time>2014-09-04T15:18:02.000Z</time>
      </trkpt>
      <trkpt lat="45.16545" lon="0.61837">
        <ele>97.800003051758</ele>
        <time>2014-09-04T15:18:07.000Z</time>
      </trkpt>
      <trkpt lat="45.16545" lon="0.61846">
        <ele>98</ele>
        <time>2014-09-04T15:18:09.000Z</time>
      </trkpt>
      <trkpt lat="45.16543" lon="0.61848">
        <ele>98.199996948242</ele>
        <time>2014-09-04T15:18:10.000Z</time>
      </trkpt>
      <trkpt lat="45.16538" lon="0.61849">
        <ele>98.599998474121</ele>
        <time>2014-09-04T15:18:12.000Z</time>
      </trkpt>
      <trkpt lat="45.16532" lon="0.61848">
        <ele>99</ele>
        <time>2014-09-04T15:18:14.000Z</time>
      </trkpt>
      <trkpt lat="45.16528" lon="0.61847">
        <ele>99</ele>
        <time>2014-09-04T15:18:15.000Z</time>
      </trkpt>
      <trkpt lat="45.16519" lon="0.61845">
        <ele>99.199996948242</ele>
        <time>2014-09-04T15:18:18.000Z</time>
      </trkpt>
      <trkpt lat="45.16498" lon="0.6184">
        <ele>99.400001525879</ele>
        <time>2014-09-04T15:18:24.000Z</time>
      </trkpt>
      <trkpt lat="45.16463" lon="0.61837">
        <ele>98.400001525879</ele>
        <time>2014-09-04T15:18:31.000Z</time>
      </trkpt>
      <trkpt lat="45.16452" lon="0.61838">
        <ele>97.800003051758</ele>
        <time>2014-09-04T15:18:33.000Z</time>
      </trkpt>
      <trkpt lat="45.16421" lon="0.6184">
        <ele>98.800003051758</ele>
        <time>2014-09-04T15:18:39.000Z</time>
      </trkpt>
      <trkpt lat="45.16386" lon="0.61841">
        <ele>96.599998474121</ele>
        <time>2014-09-04T15:18:46.000Z</time>
      </trkpt>
      <trkpt lat="45.16352" lon="0.6184">
        <ele>95.800003051758</ele>
        <time>2014-09-04T15:18:52.000Z</time>
      </trkpt>
      <trkpt lat="45.16346" lon="0.6184">
        <ele>95.599998474121</ele>
        <time>2014-09-04T15:18:53.000Z</time>
      </trkpt>
      <trkpt lat="45.1632" lon="0.61839">
        <ele>95.400001525879</ele>
        <time>2014-09-04T15:18:58.000Z</time>
      </trkpt>
      <trkpt lat="45.1629" lon="0.61841">
        <ele>95</ele>
        <time>2014-09-04T15:19:04.000Z</time>
      </trkpt>
      <trkpt lat="45.16252" lon="0.61843">
        <ele>95.199996948242</ele>
        <time>2014-09-04T15:19:11.000Z</time>
      </trkpt>
      <trkpt lat="45.16211" lon="0.61842">
        <ele>95</ele>
        <time>2014-09-04T15:19:18.000Z</time>
      </trkpt>
      <trkpt lat="45.16189" lon="0.61854">
        <ele>94.599998474121</ele>
        <time>2014-09-04T15:19:22.000Z</time>
      </trkpt>
      <trkpt lat="45.16183" lon="0.61858">
        <ele>94.599998474121</ele>
        <time>2014-09-04T15:19:23.000Z</time>
      </trkpt>
      <trkpt lat="45.16167" lon="0.61867">
        <ele>94.199996948242</ele>
        <time>2014-09-04T15:19:26.000Z</time>
      </trkpt>
      <trkpt lat="45.16162" lon="0.61869">
        <ele>94.199996948242</ele>
        <time>2014-09-04T15:19:27.000Z</time>
      </trkpt>
      <trkpt lat="45.16142" lon="0.61873">
        <ele>93.400001525879</ele>
        <time>2014-09-04T15:19:30.000Z</time>
      </trkpt>
      <trkpt lat="45.16122" lon="0.61882">
        <ele>92.400001525879</ele>
        <time>2014-09-04T15:19:33.000Z</time>
      </trkpt>
      <trkpt lat="45.16116" lon="0.61886">
        <ele>92.599998474121</ele>
        <time>2014-09-04T15:19:34.000Z</time>
      </trkpt>
      <trkpt lat="45.161" lon="0.61907">
        <ele>92</ele>
        <time>2014-09-04T15:19:37.000Z</time>
      </trkpt>
      <trkpt lat="45.16093" lon="0.61922">
        <ele>91.599998474121</ele>
        <time>2014-09-04T15:19:39.000Z</time>
      </trkpt>
      <trkpt lat="45.16087" lon="0.61933">
        <ele>93</ele>
        <time>2014-09-04T15:19:41.000Z</time>
      </trkpt>
      <trkpt lat="45.16081" lon="0.61944">
        <ele>93.400001525879</ele>
        <time>2014-09-04T15:19:43.000Z</time>
      </trkpt>
      <trkpt lat="45.16073" lon="0.61957">
        <ele>93.400001525879</ele>
        <time>2014-09-04T15:19:46.000Z</time>
      </trkpt>
      <trkpt lat="45.16065" lon="0.61963">
        <ele>92.599998474121</ele>
        <time>2014-09-04T15:19:48.000Z</time>
      </trkpt>
      <trkpt lat="45.16059" lon="0.61964">
        <ele>92.199996948242</ele>
        <time>2014-09-04T15:19:49.000Z</time>
      </trkpt>
      <trkpt lat="45.16052" lon="0.61963">
        <ele>91.599998474121</ele>
        <time>2014-09-04T15:19:50.000Z</time>
      </trkpt>
      <trkpt lat="45.16045" lon="0.61961">
        <ele>91</ele>
        <time>2014-09-04T15:19:51.000Z</time>
      </trkpt>
      <trkpt lat="45.16038" lon="0.61959">
        <ele>90.599998474121</ele>
        <time>2014-09-04T15:19:52.000Z</time>
      </trkpt>
      <trkpt lat="45.16031" lon="0.61958">
        <ele>89.800003051758</ele>
        <time>2014-09-04T15:19:53.000Z</time>
      </trkpt>
      <trkpt lat="45.16016" lon="0.61956">
        <ele>88</ele>
        <time>2014-09-04T15:19:55.000Z</time>
      </trkpt>
      <trkpt lat="45.16001" lon="0.61957">
        <ele>85.800003051758</ele>
        <time>2014-09-04T15:19:57.000Z</time>
      </trkpt>
      <trkpt lat="45.15993" lon="0.61958">
        <ele>84.800003051758</ele>
        <time>2014-09-04T15:19:58.000Z</time>
      </trkpt>
      <trkpt lat="45.1598" lon="0.61962">
        <ele>83.599998474121</ele>
        <time>2014-09-04T15:20:00.000Z</time>
      </trkpt>
      <trkpt lat="45.15973" lon="0.61966">
        <ele>82.599998474121</ele>
        <time>2014-09-04T15:20:02.000Z</time>
      </trkpt>
      <trkpt lat="45.1597" lon="0.61968">
        <ele>82.199996948242</ele>
        <time>2014-09-04T15:20:03.000Z</time>
      </trkpt>
      <trkpt lat="45.1596" lon="0.61979">
        <ele>81.400001525879</ele>
        <time>2014-09-04T15:20:07.000Z</time>
      </trkpt>
      <trkpt lat="45.15936" lon="0.6201">
        <ele>81.400001525879</ele>
        <time>2014-09-04T15:20:15.000Z</time>
      </trkpt>
      <trkpt lat="45.15925" lon="0.62018">
        <ele>81</ele>
        <time>2014-09-04T15:20:18.000Z</time>
      </trkpt>
      <trkpt lat="45.15916" lon="0.6202">
        <ele>81</ele>
        <time>2014-09-04T15:20:20.000Z</time>
      </trkpt>
      <trkpt lat="45.159" lon="0.62019">
        <ele>81.199996948242</ele>
        <time>2014-09-04T15:20:24.000Z</time>
      </trkpt>
      <trkpt lat="45.15896" lon="0.62019">
        <ele>81.199996948242</ele>
        <time>2014-09-04T15:20:25.000Z</time>
      </trkpt>
      <trkpt lat="45.15869" lon="0.62017">
        <ele>81.400001525879</ele>
        <time>2014-09-04T15:20:32.000Z</time>
      </trkpt>
      <trkpt lat="45.1585" lon="0.6202">
        <ele>81.400001525879</ele>
        <time>2014-09-04T15:20:37.000Z</time>
      </trkpt>
      <trkpt lat="45.15819" lon="0.62027">
        <ele>81.599998474121</ele>
        <time>2014-09-04T15:20:45.000Z</time>
      </trkpt>
      <trkpt lat="45.15785" lon="0.62036">
        <ele>82</ele>
        <time>2014-09-04T15:20:54.000Z</time>
      </trkpt>
      <trkpt lat="45.15758" lon="0.62033">
        <ele>82</ele>
        <time>2014-09-04T15:21:01.000Z</time>
      </trkpt>
      <trkpt lat="45.15727" lon="0.62019">
        <ele>82</ele>
        <time>2014-09-04T15:21:09.000Z</time>
      </trkpt>
      <trkpt lat="45.15713" lon="0.62007">
        <ele>82.400001525879</ele>
        <time>2014-09-04T15:21:13.000Z</time>
      </trkpt>
      <trkpt lat="45.157" lon="0.61994">
        <ele>82.400001525879</ele>
        <time>2014-09-04T15:21:17.000Z</time>
      </trkpt>
      <trkpt lat="45.15697" lon="0.6199">
        <ele>82.400001525879</ele>
        <time>2014-09-04T15:21:18.000Z</time>
      </trkpt>
      <trkpt lat="45.15684" lon="0.61983">
        <ele>83</ele>
        <time>2014-09-04T15:21:22.000Z</time>
      </trkpt>
      <trkpt lat="45.15682" lon="0.61986">
        <ele>83.400001525879</ele>
        <time>2014-09-04T15:21:23.000Z</time>
      </trkpt>
      <trkpt lat="45.1568" lon="0.61989">
        <ele>83.599998474121</ele>
        <time>2014-09-04T15:21:24.000Z</time>
      </trkpt>
      <trkpt lat="45.15674" lon="0.62004">
        <ele>84</ele>
        <time>2014-09-04T15:21:27.000Z</time>
      </trkpt>
      <trkpt lat="45.15672" lon="0.62009">
        <ele>84</ele>
        <time>2014-09-04T15:21:28.000Z</time>
      </trkpt>
      <trkpt lat="45.15654" lon="0.62056">
        <ele>83.800003051758</ele>
        <time>2014-09-04T15:21:38.000Z</time>
      </trkpt>
      <trkpt lat="45.1564" lon="0.62097">
        <ele>83.800003051758</ele>
        <time>2014-09-04T15:21:47.000Z</time>
      </trkpt>
      <trkpt lat="45.15631" lon="0.62129">
        <ele>83.800003051758</ele>
        <time>2014-09-04T15:21:54.000Z</time>
      </trkpt>
      <trkpt lat="45.15615" lon="0.62158">
        <ele>84</ele>
        <time>2014-09-04T15:22:01.000Z</time>
      </trkpt>
      <trkpt lat="45.15609" lon="0.6216">
        <ele>84</ele>
        <time>2014-09-04T15:22:03.000Z</time>
      </trkpt>
      <trkpt lat="45.15602" lon="0.62157">
        <ele>84</ele>
        <time>2014-09-04T15:22:05.000Z</time>
      </trkpt>
      <trkpt lat="45.15596" lon="0.62152">
        <ele>84.199996948242</ele>
        <time>2014-09-04T15:22:07.000Z</time>
      </trkpt>
      <trkpt lat="45.15585" lon="0.62145">
        <ele>85</ele>
        <time>2014-09-04T15:22:11.000Z</time>
      </trkpt>
      <trkpt lat="45.1558" lon="0.62142">
        <ele>85.800003051758</ele>
        <time>2014-09-04T15:22:13.000Z</time>
      </trkpt>
      <trkpt lat="45.15578" lon="0.62141">
        <ele>86</ele>
        <time>2014-09-04T15:22:14.000Z</time>
      </trkpt>
      <trkpt lat="45.15569" lon="0.62134">
        <ele>87</ele>
        <time>2014-09-04T15:22:18.000Z</time>
      </trkpt>
      <trkpt lat="45.15565" lon="0.6213">
        <ele>87.400001525879</ele>
        <time>2014-09-04T15:22:20.000Z</time>
      </trkpt>
      <trkpt lat="45.1556" lon="0.62124">
        <ele>88</ele>
        <time>2014-09-04T15:22:23.000Z</time>
      </trkpt>
      <trkpt lat="45.15554" lon="0.62115">
        <ele>89.400001525879</ele>
        <time>2014-09-04T15:22:27.000Z</time>
      </trkpt>
      <trkpt lat="45.15548" lon="0.62107">
        <ele>90.599998474121</ele>
        <time>2014-09-04T15:22:31.000Z</time>
      </trkpt>
      <trkpt lat="45.15545" lon="0.62102">
        <ele>91.400001525879</ele>
        <time>2014-09-04T15:22:34.000Z</time>
      </trkpt>
      <trkpt lat="45.15544" lon="0.621">
        <ele>91.599998474121</ele>
        <time>2014-09-04T15:22:35.000Z</time>
      </trkpt>
      <trkpt lat="45.15538" lon="0.62092">
        <ele>92.599998474121</ele>
        <time>2014-09-04T15:22:39.000Z</time>
      </trkpt>
      <trkpt lat="45.15533" lon="0.62087">
        <ele>93.400001525879</ele>
        <time>2014-09-04T15:22:42.000Z</time>
      </trkpt>
      <trkpt lat="45.15531" lon="0.62083">
        <ele>93.800003051758</ele>
        <time>2014-09-04T15:22:44.000Z</time>
      </trkpt>
      <trkpt lat="45.15524" lon="0.62075">
        <ele>95</ele>
        <time>2014-09-04T15:22:49.000Z</time>
      </trkpt>
      <trkpt lat="45.15523" lon="0.62073">
        <ele>95.199996948242</ele>
        <time>2014-09-04T15:22:50.000Z</time>
      </trkpt>
      <trkpt lat="45.15518" lon="0.62068">
        <ele>96</ele>
        <time>2014-09-04T15:22:54.000Z</time>
      </trkpt>
      <trkpt lat="45.1551" lon="0.6206">
        <ele>96.800003051758</ele>
        <time>2014-09-04T15:22:58.000Z</time>
      </trkpt>
      <trkpt lat="45.15509" lon="0.62058">
        <ele>97</ele>
        <time>2014-09-04T15:22:59.000Z</time>
      </trkpt>
      <trkpt lat="45.15501" lon="0.62044">
        <ele>97.800003051758</ele>
        <time>2014-09-04T15:23:06.000Z</time>
      </trkpt>
      <trkpt lat="45.15499" lon="0.62041">
        <ele>98</ele>
        <time>2014-09-04T15:23:08.000Z</time>
      </trkpt>
      <trkpt lat="45.15491" lon="0.62035">
        <ele>99</ele>
        <time>2014-09-04T15:23:14.000Z</time>
      </trkpt>
      <trkpt lat="45.15489" lon="0.62035">
        <ele>99</ele>
        <time>2014-09-04T15:23:15.000Z</time>
      </trkpt>
      <trkpt lat="45.15486" lon="0.62035">
        <ele>99.199996948242</ele>
        <time>2014-09-04T15:23:16.000Z</time>
      </trkpt>
      <trkpt lat="45.15473" lon="0.6204">
        <ele>100.19999694824</ele>
        <time>2014-09-04T15:23:21.000Z</time>
      </trkpt>
      <trkpt lat="45.15467" lon="0.62047">
        <ele>101.19999694824</ele>
        <time>2014-09-04T15:23:25.000Z</time>
      </trkpt>
      <trkpt lat="45.15465" lon="0.6205">
        <ele>101.19999694824</ele>
        <time>2014-09-04T15:23:26.000Z</time>
      </trkpt>
      <trkpt lat="45.15462" lon="0.62054">
        <ele>101.80000305176</ele>
        <time>2014-09-04T15:23:28.000Z</time>
      </trkpt>
      <trkpt lat="45.15459" lon="0.62056">
        <ele>102.40000152588</ele>
        <time>2014-09-04T15:23:30.000Z</time>
      </trkpt>
      <trkpt lat="45.15453" lon="0.62059">
        <ele>103.19999694824</ele>
        <time>2014-09-04T15:23:34.000Z</time>
      </trkpt>
      <trkpt lat="45.15451" lon="0.62059">
        <ele>103.40000152588</ele>
        <time>2014-09-04T15:23:35.000Z</time>
      </trkpt>
      <trkpt lat="45.15443" lon="0.62055">
        <ele>103.80000305176</ele>
        <time>2014-09-04T15:23:39.000Z</time>
      </trkpt>
      <trkpt lat="45.15432" lon="0.62046">
        <ele>104.40000152588</ele>
        <time>2014-09-04T15:23:45.000Z</time>
      </trkpt>
      <trkpt lat="45.1543" lon="0.62045">
        <ele>104.59999847412</ele>
        <time>2014-09-04T15:23:46.000Z</time>
      </trkpt>
      <trkpt lat="45.15419" lon="0.62027">
        <ele>105</ele>
        <time>2014-09-04T15:23:53.000Z</time>
      </trkpt>
      <trkpt lat="45.15404" lon="0.62006">
        <ele>105.40000152588</ele>
        <time>2014-09-04T15:24:00.000Z</time>
      </trkpt>
      <trkpt lat="45.15401" lon="0.61993">
        <ele>105.40000152588</ele>
        <time>2014-09-04T15:24:03.000Z</time>
      </trkpt>
      <trkpt lat="45.15399" lon="0.6198">
        <ele>106</ele>
        <time>2014-09-04T15:24:06.000Z</time>
      </trkpt>
      <trkpt lat="45.15396" lon="0.61962">
        <ele>106.59999847412</ele>
        <time>2014-09-04T15:24:10.000Z</time>
      </trkpt>
      <trkpt lat="45.15392" lon="0.61944">
        <ele>106.19999694824</ele>
        <time>2014-09-04T15:24:14.000Z</time>
      </trkpt>
      <trkpt lat="45.15391" lon="0.61913">
        <ele>106.19999694824</ele>
        <time>2014-09-04T15:24:20.000Z</time>
      </trkpt>
      <trkpt lat="45.15391" lon="0.61901">
        <ele>106</ele>
        <time>2014-09-04T15:24:22.000Z</time>
      </trkpt>
      <trkpt lat="45.15394" lon="0.61874">
        <ele>105.40000152588</ele>
        <time>2014-09-04T15:24:26.000Z</time>
      </trkpt>
      <trkpt lat="45.15396" lon="0.61868">
        <ele>105.40000152588</ele>
        <time>2014-09-04T15:24:27.000Z</time>
      </trkpt>
      <trkpt lat="45.15406" lon="0.61845">
        <ele>105.80000305176</ele>
        <time>2014-09-04T15:24:31.000Z</time>
      </trkpt>
      <trkpt lat="45.15421" lon="0.61813">
        <ele>106.59999847412</ele>
        <time>2014-09-04T15:24:37.000Z</time>
      </trkpt>
      <trkpt lat="45.15425" lon="0.61803">
        <ele>107</ele>
        <time>2014-09-04T15:24:39.000Z</time>
      </trkpt>
      <trkpt lat="45.15435" lon="0.61778">
        <ele>107.59999847412</ele>
        <time>2014-09-04T15:24:44.000Z</time>
      </trkpt>
      <trkpt lat="45.15443" lon="0.61756">
        <ele>108.40000152588</ele>
        <time>2014-09-04T15:24:48.000Z</time>
      </trkpt>
      <trkpt lat="45.15448" lon="0.6174">
        <ele>108.80000305176</ele>
        <time>2014-09-04T15:24:51.000Z</time>
      </trkpt>
      <trkpt lat="45.1546" lon="0.61706">
        <ele>109</ele>
        <time>2014-09-04T15:24:57.000Z</time>
      </trkpt>
      <trkpt lat="45.15478" lon="0.61658">
        <ele>107.59999847412</ele>
        <time>2014-09-04T15:25:04.000Z</time>
      </trkpt>
      <trkpt lat="45.1549" lon="0.61633">
        <ele>106.19999694824</ele>
        <time>2014-09-04T15:25:07.000Z</time>
      </trkpt>
      <trkpt lat="45.15498" lon="0.61615">
        <ele>105.19999694824</ele>
        <time>2014-09-04T15:25:09.000Z</time>
      </trkpt>
      <trkpt lat="45.15507" lon="0.61594">
        <ele>104.19999694824</ele>
        <time>2014-09-04T15:25:11.000Z</time>
      </trkpt>
      <trkpt lat="45.15517" lon="0.61572">
        <ele>103</ele>
        <time>2014-09-04T15:25:13.000Z</time>
      </trkpt>
      <trkpt lat="45.15522" lon="0.6156">
        <ele>102.80000305176</ele>
        <time>2014-09-04T15:25:14.000Z</time>
      </trkpt>
      <trkpt lat="45.15535" lon="0.61524">
        <ele>101.80000305176</ele>
        <time>2014-09-04T15:25:17.000Z</time>
      </trkpt>
      <trkpt lat="45.15545" lon="0.61502">
        <ele>100.80000305176</ele>
        <time>2014-09-04T15:25:19.000Z</time>
      </trkpt>
      <trkpt lat="45.1555" lon="0.61493">
        <ele>100.40000152588</ele>
        <time>2014-09-04T15:25:20.000Z</time>
      </trkpt>
      <trkpt lat="45.15576" lon="0.61466">
        <ele>100</ele>
        <time>2014-09-04T15:25:24.000Z</time>
      </trkpt>
      <trkpt lat="45.15601" lon="0.61436">
        <ele>99.800003051758</ele>
        <time>2014-09-04T15:25:29.000Z</time>
      </trkpt>
      <trkpt lat="45.15604" lon="0.61431">
        <ele>99.400001525879</ele>
        <time>2014-09-04T15:25:30.000Z</time>
      </trkpt>
      <trkpt lat="45.15616" lon="0.61408">
        <ele>99.800003051758</ele>
        <time>2014-09-04T15:25:34.000Z</time>
      </trkpt>
      <trkpt lat="45.15618" lon="0.61402">
        <ele>100</ele>
        <time>2014-09-04T15:25:35.000Z</time>
      </trkpt>
      <trkpt lat="45.15626" lon="0.61378">
        <ele>100.40000152588</ele>
        <time>2014-09-04T15:25:39.000Z</time>
      </trkpt>
      <trkpt lat="45.15629" lon="0.61358">
        <ele>100</ele>
        <time>2014-09-04T15:25:42.000Z</time>
      </trkpt>
      <trkpt lat="45.15638" lon="0.61306">
        <ele>99.400001525879</ele>
        <time>2014-09-04T15:25:49.000Z</time>
      </trkpt>
      <trkpt lat="45.15643" lon="0.61291">
        <ele>98.800003051758</ele>
        <time>2014-09-04T15:25:51.000Z</time>
      </trkpt>
      <trkpt lat="45.1565" lon="0.61278">
        <ele>98.599998474121</ele>
        <time>2014-09-04T15:25:53.000Z</time>
      </trkpt>
      <trkpt lat="45.15658" lon="0.61267">
        <ele>98</ele>
        <time>2014-09-04T15:25:55.000Z</time>
      </trkpt>
      <trkpt lat="45.15666" lon="0.61255">
        <ele>97</ele>
        <time>2014-09-04T15:25:58.000Z</time>
      </trkpt>
      <trkpt lat="45.15661" lon="0.6125">
        <ele>96.400001525879</ele>
        <time>2014-09-04T15:26:00.000Z</time>
      </trkpt>
      <trkpt lat="45.15647" lon="0.61252">
        <ele>97</ele>
        <time>2014-09-04T15:26:05.000Z</time>
      </trkpt>
      <trkpt lat="45.15641" lon="0.61248">
        <ele>97.199996948242</ele>
        <time>2014-09-04T15:26:08.000Z</time>
      </trkpt>
      <trkpt lat="45.15638" lon="0.61245">
        <ele>97.199996948242</ele>
        <time>2014-09-04T15:26:10.000Z</time>
      </trkpt>
    </trkseg>
  </trk>
</gpx>